<?xml version="1.0" encoding="UTF-8" standalone="no" ?>
<gpx xmlns="http://www.topografix.com/GPX/1/1" xmlns:xsi="http://www.w3.org/2001/XMLSchema-instance" xsi:schemaLocation="http://www.topografix.com/GPX/1/1 http://www.topografix.com/GPX/1/1/gpx.xsd" version="1.1" creator="VisuGPX - https://www.visugpx.com">
  <metadata>
    <name>pique nique à st-clément</name>
    <desc><![CDATA[Fait le 19/08/2013]]></desc>
  </metadata>
  <trk>
    <name><![CDATA[2013-08-19T08:24:18Z]]></name>
    <trkseg>
      <trkpt lat="46.19292" lon="4.41889">
        <ele>575</ele>
        <time>2013-08-19T08:25:00Z</time>
      </trkpt>
      <trkpt lat="46.19296" lon="4.41902">
        <ele>576</ele>
        <time>2013-08-19T08:25:01Z</time>
      </trkpt>
      <trkpt lat="46.19301" lon="4.41907">
        <ele>577</ele>
        <time>2013-08-19T08:25:05Z</time>
      </trkpt>
      <trkpt lat="46.19305" lon="4.41903">
        <ele>577</ele>
        <time>2013-08-19T08:25:11Z</time>
      </trkpt>
      <trkpt lat="46.19304" lon="4.41901">
        <ele>577</ele>
        <time>2013-08-19T08:25:12Z</time>
      </trkpt>
      <trkpt lat="46.19303" lon="4.41892">
        <ele>576</ele>
        <time>2013-08-19T08:25:17Z</time>
      </trkpt>
      <trkpt lat="46.19301" lon="4.41887">
        <ele>576</ele>
        <time>2013-08-19T08:25:20Z</time>
      </trkpt>
      <trkpt lat="46.19301" lon="4.41886">
        <ele>576</ele>
        <time>2013-08-19T08:25:21Z</time>
      </trkpt>
      <trkpt lat="46.19301" lon="4.41884">
        <ele>576</ele>
        <time>2013-08-19T08:25:22Z</time>
      </trkpt>
      <trkpt lat="46.19302" lon="4.41881">
        <ele>576</ele>
        <time>2013-08-19T08:25:24Z</time>
      </trkpt>
      <trkpt lat="46.19305" lon="4.41871">
        <ele>575</ele>
        <time>2013-08-19T08:25:31Z</time>
      </trkpt>
      <trkpt lat="46.19305" lon="4.41858">
        <ele>575</ele>
        <time>2013-08-19T08:25:36Z</time>
      </trkpt>
      <trkpt lat="46.19305" lon="4.41852">
        <ele>575</ele>
        <time>2013-08-19T08:25:38Z</time>
      </trkpt>
      <trkpt lat="46.19304" lon="4.41828">
        <ele>571</ele>
        <time>2013-08-19T08:25:45Z</time>
      </trkpt>
      <trkpt lat="46.19304" lon="4.41818">
        <ele>570</ele>
        <time>2013-08-19T08:25:48Z</time>
      </trkpt>
      <trkpt lat="46.19304" lon="4.41813">
        <ele>570</ele>
        <time>2013-08-19T08:25:50Z</time>
      </trkpt>
      <trkpt lat="46.19304" lon="4.41807">
        <ele>570</ele>
        <time>2013-08-19T08:25:52Z</time>
      </trkpt>
      <trkpt lat="46.19305" lon="4.418">
        <ele>569</ele>
        <time>2013-08-19T08:25:55Z</time>
      </trkpt>
      <trkpt lat="46.19305" lon="4.41797">
        <ele>569</ele>
        <time>2013-08-19T08:25:57Z</time>
      </trkpt>
      <trkpt lat="46.19305" lon="4.41782">
        <ele>569</ele>
        <time>2013-08-19T08:26:04Z</time>
      </trkpt>
      <trkpt lat="46.19307" lon="4.41773">
        <ele>568</ele>
        <time>2013-08-19T08:26:08Z</time>
      </trkpt>
      <trkpt lat="46.19307" lon="4.41771">
        <ele>568</ele>
        <time>2013-08-19T08:26:09Z</time>
      </trkpt>
      <trkpt lat="46.19308" lon="4.41766">
        <ele>568</ele>
        <time>2013-08-19T08:26:12Z</time>
      </trkpt>
      <trkpt lat="46.19309" lon="4.41758">
        <ele>568</ele>
        <time>2013-08-19T08:26:16Z</time>
      </trkpt>
      <trkpt lat="46.1931" lon="4.41756">
        <ele>568</ele>
        <time>2013-08-19T08:26:17Z</time>
      </trkpt>
      <trkpt lat="46.19312" lon="4.41748">
        <ele>565</ele>
        <time>2013-08-19T08:26:22Z</time>
      </trkpt>
      <trkpt lat="46.19313" lon="4.41742">
        <ele>565</ele>
        <time>2013-08-19T08:26:25Z</time>
      </trkpt>
      <trkpt lat="46.19316" lon="4.4173">
        <ele>565</ele>
        <time>2013-08-19T08:26:33Z</time>
      </trkpt>
      <trkpt lat="46.19317" lon="4.41721">
        <ele>564</ele>
        <time>2013-08-19T08:26:38Z</time>
      </trkpt>
      <trkpt lat="46.19318" lon="4.41716">
        <ele>564</ele>
        <time>2013-08-19T08:26:41Z</time>
      </trkpt>
      <trkpt lat="46.19318" lon="4.41712">
        <ele>564</ele>
        <time>2013-08-19T08:26:43Z</time>
      </trkpt>
      <trkpt lat="46.19319" lon="4.41705">
        <ele>563</ele>
        <time>2013-08-19T08:26:47Z</time>
      </trkpt>
      <trkpt lat="46.1932" lon="4.41695">
        <ele>563</ele>
        <time>2013-08-19T08:26:53Z</time>
      </trkpt>
      <trkpt lat="46.1932" lon="4.41693">
        <ele>563</ele>
        <time>2013-08-19T08:26:54Z</time>
      </trkpt>
      <trkpt lat="46.19315" lon="4.41677">
        <ele>563</ele>
        <time>2013-08-19T08:27:02Z</time>
      </trkpt>
      <trkpt lat="46.1931" lon="4.41668">
        <ele>562</ele>
        <time>2013-08-19T08:27:09Z</time>
      </trkpt>
      <trkpt lat="46.1931" lon="4.41666">
        <ele>560</ele>
        <time>2013-08-19T08:27:10Z</time>
      </trkpt>
      <trkpt lat="46.19305" lon="4.4165">
        <ele>559</ele>
        <time>2013-08-19T08:27:20Z</time>
      </trkpt>
      <trkpt lat="46.19304" lon="4.41642">
        <ele>559</ele>
        <time>2013-08-19T08:27:25Z</time>
      </trkpt>
      <trkpt lat="46.19303" lon="4.41635">
        <ele>559</ele>
        <time>2013-08-19T08:27:29Z</time>
      </trkpt>
      <trkpt lat="46.19302" lon="4.4162">
        <ele>558</ele>
        <time>2013-08-19T08:27:38Z</time>
      </trkpt>
      <trkpt lat="46.19301" lon="4.41615">
        <ele>558</ele>
        <time>2013-08-19T08:27:41Z</time>
      </trkpt>
      <trkpt lat="46.193" lon="4.41607">
        <ele>558</ele>
        <time>2013-08-19T08:27:46Z</time>
      </trkpt>
      <trkpt lat="46.193" lon="4.41595">
        <ele>558</ele>
        <time>2013-08-19T08:27:54Z</time>
      </trkpt>
      <trkpt lat="46.193" lon="4.41588">
        <ele>558</ele>
        <time>2013-08-19T08:27:59Z</time>
      </trkpt>
      <trkpt lat="46.193" lon="4.41581">
        <ele>555</ele>
        <time>2013-08-19T08:28:03Z</time>
      </trkpt>
      <trkpt lat="46.193" lon="4.41567">
        <ele>554</ele>
        <time>2013-08-19T08:28:11Z</time>
      </trkpt>
      <trkpt lat="46.19299" lon="4.41562">
        <ele>554</ele>
        <time>2013-08-19T08:28:16Z</time>
      </trkpt>
      <trkpt lat="46.19299" lon="4.41561">
        <ele>554</ele>
        <time>2013-08-19T08:28:17Z</time>
      </trkpt>
      <trkpt lat="46.19299" lon="4.41551">
        <ele>554</ele>
        <time>2013-08-19T08:28:22Z</time>
      </trkpt>
      <trkpt lat="46.19299" lon="4.41545">
        <ele>553</ele>
        <time>2013-08-19T08:28:25Z</time>
      </trkpt>
      <trkpt lat="46.19298" lon="4.41539">
        <ele>553</ele>
        <time>2013-08-19T08:28:28Z</time>
      </trkpt>
      <trkpt lat="46.19298" lon="4.41534">
        <ele>553</ele>
        <time>2013-08-19T08:28:31Z</time>
      </trkpt>
      <trkpt lat="46.19298" lon="4.41528">
        <ele>553</ele>
        <time>2013-08-19T08:28:34Z</time>
      </trkpt>
      <trkpt lat="46.19298" lon="4.41525">
        <ele>552</ele>
        <time>2013-08-19T08:28:36Z</time>
      </trkpt>
      <trkpt lat="46.19298" lon="4.41515">
        <ele>552</ele>
        <time>2013-08-19T08:28:42Z</time>
      </trkpt>
      <trkpt lat="46.19298" lon="4.41508">
        <ele>552</ele>
        <time>2013-08-19T08:28:47Z</time>
      </trkpt>
      <trkpt lat="46.19298" lon="4.41505">
        <ele>552</ele>
        <time>2013-08-19T08:28:49Z</time>
      </trkpt>
      <trkpt lat="46.19298" lon="4.41496">
        <ele>548</ele>
        <time>2013-08-19T08:28:55Z</time>
      </trkpt>
      <trkpt lat="46.19298" lon="4.41493">
        <ele>548</ele>
        <time>2013-08-19T08:28:57Z</time>
      </trkpt>
      <trkpt lat="46.19298" lon="4.41482">
        <ele>548</ele>
        <time>2013-08-19T08:29:03Z</time>
      </trkpt>
      <trkpt lat="46.19298" lon="4.41478">
        <ele>547</ele>
        <time>2013-08-19T08:29:05Z</time>
      </trkpt>
      <trkpt lat="46.193" lon="4.41463">
        <ele>547</ele>
        <time>2013-08-19T08:29:14Z</time>
      </trkpt>
      <trkpt lat="46.19301" lon="4.41458">
        <ele>547</ele>
        <time>2013-08-19T08:29:17Z</time>
      </trkpt>
      <trkpt lat="46.19302" lon="4.41457">
        <ele>547</ele>
        <time>2013-08-19T08:29:18Z</time>
      </trkpt>
      <trkpt lat="46.19302" lon="4.41454">
        <ele>547</ele>
        <time>2013-08-19T08:29:20Z</time>
      </trkpt>
      <trkpt lat="46.19304" lon="4.41444">
        <ele>546</ele>
        <time>2013-08-19T08:29:27Z</time>
      </trkpt>
      <trkpt lat="46.19304" lon="4.41432">
        <ele>546</ele>
        <time>2013-08-19T08:29:34Z</time>
      </trkpt>
      <trkpt lat="46.19303" lon="4.4143">
        <ele>546</ele>
        <time>2013-08-19T08:29:35Z</time>
      </trkpt>
      <trkpt lat="46.19304" lon="4.41414">
        <ele>542</ele>
        <time>2013-08-19T08:29:43Z</time>
      </trkpt>
      <trkpt lat="46.19305" lon="4.41405">
        <ele>542</ele>
        <time>2013-08-19T08:29:48Z</time>
      </trkpt>
      <trkpt lat="46.19305" lon="4.41401">
        <ele>541</ele>
        <time>2013-08-19T08:29:50Z</time>
      </trkpt>
      <trkpt lat="46.19307" lon="4.41388">
        <ele>541</ele>
        <time>2013-08-19T08:29:58Z</time>
      </trkpt>
      <trkpt lat="46.19308" lon="4.41378">
        <ele>540</ele>
        <time>2013-08-19T08:30:04Z</time>
      </trkpt>
      <trkpt lat="46.19308" lon="4.41375">
        <ele>540</ele>
        <time>2013-08-19T08:30:06Z</time>
      </trkpt>
      <trkpt lat="46.1931" lon="4.41365">
        <ele>540</ele>
        <time>2013-08-19T08:30:13Z</time>
      </trkpt>
      <trkpt lat="46.19311" lon="4.41351">
        <ele>539</ele>
        <time>2013-08-19T08:30:21Z</time>
      </trkpt>
      <trkpt lat="46.19311" lon="4.4134">
        <ele>539</ele>
        <time>2013-08-19T08:30:27Z</time>
      </trkpt>
      <trkpt lat="46.19314" lon="4.41327">
        <ele>534</ele>
        <time>2013-08-19T08:30:36Z</time>
      </trkpt>
      <trkpt lat="46.19314" lon="4.41325">
        <ele>534</ele>
        <time>2013-08-19T08:30:37Z</time>
      </trkpt>
      <trkpt lat="46.19314" lon="4.41315">
        <ele>533</ele>
        <time>2013-08-19T08:30:43Z</time>
      </trkpt>
      <trkpt lat="46.19314" lon="4.41312">
        <ele>533</ele>
        <time>2013-08-19T08:30:45Z</time>
      </trkpt>
      <trkpt lat="46.19314" lon="4.41302">
        <ele>532</ele>
        <time>2013-08-19T08:30:51Z</time>
      </trkpt>
      <trkpt lat="46.19314" lon="4.413">
        <ele>532</ele>
        <time>2013-08-19T08:30:52Z</time>
      </trkpt>
      <trkpt lat="46.19314" lon="4.41298">
        <ele>532</ele>
        <time>2013-08-19T08:30:53Z</time>
      </trkpt>
      <trkpt lat="46.19316" lon="4.41289">
        <ele>531</ele>
        <time>2013-08-19T08:30:59Z</time>
      </trkpt>
      <trkpt lat="46.19317" lon="4.41282">
        <ele>531</ele>
        <time>2013-08-19T08:31:03Z</time>
      </trkpt>
      <trkpt lat="46.19319" lon="4.41278">
        <ele>531</ele>
        <time>2013-08-19T08:31:06Z</time>
      </trkpt>
      <trkpt lat="46.19321" lon="4.41275">
        <ele>530</ele>
        <time>2013-08-19T08:31:08Z</time>
      </trkpt>
      <trkpt lat="46.19323" lon="4.41269">
        <ele>530</ele>
        <time>2013-08-19T08:31:12Z</time>
      </trkpt>
      <trkpt lat="46.19323" lon="4.41267">
        <ele>530</ele>
        <time>2013-08-19T08:31:13Z</time>
      </trkpt>
      <trkpt lat="46.19327" lon="4.41255">
        <ele>529</ele>
        <time>2013-08-19T08:31:19Z</time>
      </trkpt>
      <trkpt lat="46.19328" lon="4.41248">
        <ele>527</ele>
        <time>2013-08-19T08:31:22Z</time>
      </trkpt>
      <trkpt lat="46.19329" lon="4.41246">
        <ele>527</ele>
        <time>2013-08-19T08:31:23Z</time>
      </trkpt>
      <trkpt lat="46.19329" lon="4.41245">
        <ele>527</ele>
        <time>2013-08-19T08:31:24Z</time>
      </trkpt>
      <trkpt lat="46.19334" lon="4.4124">
        <ele>527</ele>
        <time>2013-08-19T08:31:30Z</time>
      </trkpt>
      <trkpt lat="46.19335" lon="4.41239">
        <ele>527</ele>
        <time>2013-08-19T08:31:31Z</time>
      </trkpt>
      <trkpt lat="46.19338" lon="4.41237">
        <ele>527</ele>
        <time>2013-08-19T08:31:36Z</time>
      </trkpt>
      <trkpt lat="46.19342" lon="4.41238">
        <ele>526</ele>
        <time>2013-08-19T08:31:46Z</time>
      </trkpt>
      <trkpt lat="46.19343" lon="4.41239">
        <ele>526</ele>
        <time>2013-08-19T08:31:49Z</time>
      </trkpt>
      <trkpt lat="46.19346" lon="4.41242">
        <ele>526</ele>
        <time>2013-08-19T08:31:52Z</time>
      </trkpt>
      <trkpt lat="46.19348" lon="4.41244">
        <ele>526</ele>
        <time>2013-08-19T08:31:54Z</time>
      </trkpt>
      <trkpt lat="46.19352" lon="4.41246">
        <ele>526</ele>
        <time>2013-08-19T08:31:58Z</time>
      </trkpt>
      <trkpt lat="46.19355" lon="4.41251">
        <ele>531</ele>
        <time>2013-08-19T08:32:04Z</time>
      </trkpt>
      <trkpt lat="46.19356" lon="4.41252">
        <ele>531</ele>
        <time>2013-08-19T08:32:05Z</time>
      </trkpt>
      <trkpt lat="46.19358" lon="4.41255">
        <ele>531</ele>
        <time>2013-08-19T08:32:08Z</time>
      </trkpt>
      <trkpt lat="46.1936" lon="4.41259">
        <ele>531</ele>
        <time>2013-08-19T08:32:11Z</time>
      </trkpt>
      <trkpt lat="46.1936" lon="4.4126">
        <ele>531</ele>
        <time>2013-08-19T08:32:12Z</time>
      </trkpt>
      <trkpt lat="46.19363" lon="4.41266">
        <ele>531</ele>
        <time>2013-08-19T08:32:17Z</time>
      </trkpt>
      <trkpt lat="46.19364" lon="4.41269">
        <ele>531</ele>
        <time>2013-08-19T08:32:19Z</time>
      </trkpt>
      <trkpt lat="46.19365" lon="4.4127">
        <ele>531</ele>
        <time>2013-08-19T08:32:21Z</time>
      </trkpt>
      <trkpt lat="46.19366" lon="4.41271">
        <ele>531</ele>
        <time>2013-08-19T08:32:23Z</time>
      </trkpt>
      <trkpt lat="46.19369" lon="4.41274">
        <ele>531</ele>
        <time>2013-08-19T08:32:26Z</time>
      </trkpt>
      <trkpt lat="46.19371" lon="4.41275">
        <ele>532</ele>
        <time>2013-08-19T08:32:28Z</time>
      </trkpt>
      <trkpt lat="46.19372" lon="4.41277">
        <ele>532</ele>
        <time>2013-08-19T08:32:29Z</time>
      </trkpt>
      <trkpt lat="46.19378" lon="4.41284">
        <ele>532</ele>
        <time>2013-08-19T08:32:35Z</time>
      </trkpt>
      <trkpt lat="46.19386" lon="4.4129">
        <ele>532</ele>
        <time>2013-08-19T08:32:42Z</time>
      </trkpt>
      <trkpt lat="46.19386" lon="4.4129">
        <ele>532</ele>
        <time>2013-08-19T08:32:43Z</time>
      </trkpt>
      <trkpt lat="46.19387" lon="4.41291">
        <ele>532</ele>
        <time>2013-08-19T08:32:44Z</time>
      </trkpt>
      <trkpt lat="46.19395" lon="4.41297">
        <ele>532</ele>
        <time>2013-08-19T08:32:51Z</time>
      </trkpt>
      <trkpt lat="46.19398" lon="4.41298">
        <ele>532</ele>
        <time>2013-08-19T08:32:53Z</time>
      </trkpt>
      <trkpt lat="46.19403" lon="4.41298">
        <ele>532</ele>
        <time>2013-08-19T08:32:58Z</time>
      </trkpt>
      <trkpt lat="46.19405" lon="4.41298">
        <ele>532</ele>
        <time>2013-08-19T08:33:00Z</time>
      </trkpt>
      <trkpt lat="46.19408" lon="4.41296">
        <ele>532</ele>
        <time>2013-08-19T08:33:02Z</time>
      </trkpt>
      <trkpt lat="46.19413" lon="4.41294">
        <ele>532</ele>
        <time>2013-08-19T08:33:05Z</time>
      </trkpt>
      <trkpt lat="46.19416" lon="4.4129">
        <ele>531</ele>
        <time>2013-08-19T08:33:08Z</time>
      </trkpt>
      <trkpt lat="46.19418" lon="4.41285">
        <ele>533</ele>
        <time>2013-08-19T08:33:12Z</time>
      </trkpt>
      <trkpt lat="46.19419" lon="4.41281">
        <ele>532</ele>
        <time>2013-08-19T08:33:14Z</time>
      </trkpt>
      <trkpt lat="46.1942" lon="4.41278">
        <ele>532</ele>
        <time>2013-08-19T08:33:16Z</time>
      </trkpt>
      <trkpt lat="46.1942" lon="4.41273">
        <ele>531</ele>
        <time>2013-08-19T08:33:18Z</time>
      </trkpt>
      <trkpt lat="46.19419" lon="4.4126">
        <ele>529</ele>
        <time>2013-08-19T08:33:24Z</time>
      </trkpt>
      <trkpt lat="46.19419" lon="4.41254">
        <ele>528</ele>
        <time>2013-08-19T08:33:27Z</time>
      </trkpt>
      <trkpt lat="46.19417" lon="4.41248">
        <ele>527</ele>
        <time>2013-08-19T08:33:31Z</time>
      </trkpt>
      <trkpt lat="46.19414" lon="4.41241">
        <ele>526</ele>
        <time>2013-08-19T08:33:36Z</time>
      </trkpt>
      <trkpt lat="46.19413" lon="4.41237">
        <ele>525</ele>
        <time>2013-08-19T08:33:38Z</time>
      </trkpt>
      <trkpt lat="46.19413" lon="4.41231">
        <ele>525</ele>
        <time>2013-08-19T08:33:41Z</time>
      </trkpt>
      <trkpt lat="46.19414" lon="4.41224">
        <ele>524</ele>
        <time>2013-08-19T08:33:45Z</time>
      </trkpt>
      <trkpt lat="46.19415" lon="4.41207">
        <ele>523</ele>
        <time>2013-08-19T08:33:53Z</time>
      </trkpt>
      <trkpt lat="46.19415" lon="4.41205">
        <ele>523</ele>
        <time>2013-08-19T08:33:54Z</time>
      </trkpt>
      <trkpt lat="46.19417" lon="4.41198">
        <ele>524</ele>
        <time>2013-08-19T08:33:58Z</time>
      </trkpt>
      <trkpt lat="46.19417" lon="4.41194">
        <ele>524</ele>
        <time>2013-08-19T08:34:00Z</time>
      </trkpt>
      <trkpt lat="46.1942" lon="4.41187">
        <ele>523</ele>
        <time>2013-08-19T08:34:04Z</time>
      </trkpt>
      <trkpt lat="46.19423" lon="4.41181">
        <ele>522</ele>
        <time>2013-08-19T08:34:08Z</time>
      </trkpt>
      <trkpt lat="46.19425" lon="4.41176">
        <ele>521</ele>
        <time>2013-08-19T08:34:11Z</time>
      </trkpt>
      <trkpt lat="46.1943" lon="4.41162">
        <ele>518</ele>
        <time>2013-08-19T08:34:20Z</time>
      </trkpt>
      <trkpt lat="46.19432" lon="4.41158">
        <ele>518</ele>
        <time>2013-08-19T08:34:23Z</time>
      </trkpt>
      <trkpt lat="46.19435" lon="4.41152">
        <ele>518</ele>
        <time>2013-08-19T08:34:28Z</time>
      </trkpt>
      <trkpt lat="46.19441" lon="4.4114">
        <ele>518</ele>
        <time>2013-08-19T08:34:36Z</time>
      </trkpt>
      <trkpt lat="46.19442" lon="4.41137">
        <ele>518</ele>
        <time>2013-08-19T08:34:38Z</time>
      </trkpt>
      <trkpt lat="46.19446" lon="4.41128">
        <ele>517</ele>
        <time>2013-08-19T08:34:43Z</time>
      </trkpt>
      <trkpt lat="46.19449" lon="4.41116">
        <ele>517</ele>
        <time>2013-08-19T08:34:50Z</time>
      </trkpt>
      <trkpt lat="46.1945" lon="4.41113">
        <ele>517</ele>
        <time>2013-08-19T08:34:52Z</time>
      </trkpt>
      <trkpt lat="46.19455" lon="4.41102">
        <ele>517</ele>
        <time>2013-08-19T08:35:00Z</time>
      </trkpt>
      <trkpt lat="46.19459" lon="4.41094">
        <ele>516</ele>
        <time>2013-08-19T08:35:07Z</time>
      </trkpt>
      <trkpt lat="46.1946" lon="4.41092">
        <ele>516</ele>
        <time>2013-08-19T08:35:08Z</time>
      </trkpt>
      <trkpt lat="46.1946" lon="4.41091">
        <ele>516</ele>
        <time>2013-08-19T08:35:09Z</time>
      </trkpt>
      <trkpt lat="46.19462" lon="4.41085">
        <ele>516</ele>
        <time>2013-08-19T08:35:13Z</time>
      </trkpt>
      <trkpt lat="46.19466" lon="4.41079">
        <ele>511</ele>
        <time>2013-08-19T08:35:17Z</time>
      </trkpt>
      <trkpt lat="46.19467" lon="4.41076">
        <ele>511</ele>
        <time>2013-08-19T08:35:19Z</time>
      </trkpt>
      <trkpt lat="46.1947" lon="4.4107">
        <ele>511</ele>
        <time>2013-08-19T08:35:23Z</time>
      </trkpt>
      <trkpt lat="46.1947" lon="4.41068">
        <ele>511</ele>
        <time>2013-08-19T08:35:24Z</time>
      </trkpt>
      <trkpt lat="46.19471" lon="4.41067">
        <ele>511</ele>
        <time>2013-08-19T08:35:25Z</time>
      </trkpt>
      <trkpt lat="46.19475" lon="4.4106">
        <ele>511</ele>
        <time>2013-08-19T08:35:30Z</time>
      </trkpt>
      <trkpt lat="46.1948" lon="4.41053">
        <ele>511</ele>
        <time>2013-08-19T08:35:36Z</time>
      </trkpt>
      <trkpt lat="46.19482" lon="4.41049">
        <ele>511</ele>
        <time>2013-08-19T08:35:41Z</time>
      </trkpt>
      <trkpt lat="46.19487" lon="4.41042">
        <ele>510</ele>
        <time>2013-08-19T08:35:47Z</time>
      </trkpt>
      <trkpt lat="46.19489" lon="4.41038">
        <ele>510</ele>
        <time>2013-08-19T08:35:50Z</time>
      </trkpt>
      <trkpt lat="46.1949" lon="4.41035">
        <ele>510</ele>
        <time>2013-08-19T08:35:52Z</time>
      </trkpt>
      <trkpt lat="46.19494" lon="4.41029">
        <ele>509</ele>
        <time>2013-08-19T08:35:57Z</time>
      </trkpt>
      <trkpt lat="46.19495" lon="4.41027">
        <ele>509</ele>
        <time>2013-08-19T08:35:58Z</time>
      </trkpt>
      <trkpt lat="46.19497" lon="4.41012">
        <ele>508</ele>
        <time>2013-08-19T08:36:05Z</time>
      </trkpt>
      <trkpt lat="46.19499" lon="4.41005">
        <ele>507</ele>
        <time>2013-08-19T08:36:09Z</time>
      </trkpt>
      <trkpt lat="46.195" lon="4.41003">
        <ele>507</ele>
        <time>2013-08-19T08:36:10Z</time>
      </trkpt>
      <trkpt lat="46.19502" lon="4.41">
        <ele>507</ele>
        <time>2013-08-19T08:36:12Z</time>
      </trkpt>
      <trkpt lat="46.19508" lon="4.40992">
        <ele>507</ele>
        <time>2013-08-19T08:36:18Z</time>
      </trkpt>
      <trkpt lat="46.19511" lon="4.40983">
        <ele>508</ele>
        <time>2013-08-19T08:36:23Z</time>
      </trkpt>
      <trkpt lat="46.19512" lon="4.40981">
        <ele>508</ele>
        <time>2013-08-19T08:36:24Z</time>
      </trkpt>
      <trkpt lat="46.1952" lon="4.40974">
        <ele>508</ele>
        <time>2013-08-19T08:36:31Z</time>
      </trkpt>
      <trkpt lat="46.19528" lon="4.40975">
        <ele>509</ele>
        <time>2013-08-19T08:36:37Z</time>
      </trkpt>
      <trkpt lat="46.19529" lon="4.40974">
        <ele>509</ele>
        <time>2013-08-19T08:36:38Z</time>
      </trkpt>
      <trkpt lat="46.19535" lon="4.40977">
        <ele>509</ele>
        <time>2013-08-19T08:36:42Z</time>
      </trkpt>
      <trkpt lat="46.19539" lon="4.4098">
        <ele>509</ele>
        <time>2013-08-19T08:36:45Z</time>
      </trkpt>
      <trkpt lat="46.19546" lon="4.40983">
        <ele>509</ele>
        <time>2013-08-19T08:36:51Z</time>
      </trkpt>
      <trkpt lat="46.19547" lon="4.40984">
        <ele>509</ele>
        <time>2013-08-19T08:36:52Z</time>
      </trkpt>
      <trkpt lat="46.19557" lon="4.40991">
        <ele>510</ele>
        <time>2013-08-19T08:37:01Z</time>
      </trkpt>
      <trkpt lat="46.19561" lon="4.40996">
        <ele>510</ele>
        <time>2013-08-19T08:37:05Z</time>
      </trkpt>
      <trkpt lat="46.19562" lon="4.40997">
        <ele>510</ele>
        <time>2013-08-19T08:37:06Z</time>
      </trkpt>
      <trkpt lat="46.19567" lon="4.41003">
        <ele>512</ele>
        <time>2013-08-19T08:37:10Z</time>
      </trkpt>
      <trkpt lat="46.19574" lon="4.4101">
        <ele>512</ele>
        <time>2013-08-19T08:37:18Z</time>
      </trkpt>
      <trkpt lat="46.19576" lon="4.41012">
        <ele>512</ele>
        <time>2013-08-19T08:37:21Z</time>
      </trkpt>
      <trkpt lat="46.19578" lon="4.41013">
        <ele>513</ele>
        <time>2013-08-19T08:37:22Z</time>
      </trkpt>
      <trkpt lat="46.1958" lon="4.41015">
        <ele>513</ele>
        <time>2013-08-19T08:37:24Z</time>
      </trkpt>
      <trkpt lat="46.19582" lon="4.41015">
        <ele>513</ele>
        <time>2013-08-19T08:37:26Z</time>
      </trkpt>
      <trkpt lat="46.19584" lon="4.41017">
        <ele>515</ele>
        <time>2013-08-19T08:37:29Z</time>
      </trkpt>
      <trkpt lat="46.19588" lon="4.41023">
        <ele>515</ele>
        <time>2013-08-19T08:37:33Z</time>
      </trkpt>
      <trkpt lat="46.19591" lon="4.41028">
        <ele>516</ele>
        <time>2013-08-19T08:37:36Z</time>
      </trkpt>
      <trkpt lat="46.19592" lon="4.4103">
        <ele>516</ele>
        <time>2013-08-19T08:37:37Z</time>
      </trkpt>
      <trkpt lat="46.19592" lon="4.41032">
        <ele>517</ele>
        <time>2013-08-19T08:37:38Z</time>
      </trkpt>
      <trkpt lat="46.19597" lon="4.41036">
        <ele>517</ele>
        <time>2013-08-19T08:37:42Z</time>
      </trkpt>
      <trkpt lat="46.19599" lon="4.41038">
        <ele>517</ele>
        <time>2013-08-19T08:37:43Z</time>
      </trkpt>
      <trkpt lat="46.19601" lon="4.4104">
        <ele>518</ele>
        <time>2013-08-19T08:37:46Z</time>
      </trkpt>
      <trkpt lat="46.19603" lon="4.41042">
        <ele>518</ele>
        <time>2013-08-19T08:37:48Z</time>
      </trkpt>
      <trkpt lat="46.19606" lon="4.41045">
        <ele>518</ele>
        <time>2013-08-19T08:37:50Z</time>
      </trkpt>
      <trkpt lat="46.19611" lon="4.4105">
        <ele>519</ele>
        <time>2013-08-19T08:37:54Z</time>
      </trkpt>
      <trkpt lat="46.19623" lon="4.41053">
        <ele>519</ele>
        <time>2013-08-19T08:38:01Z</time>
      </trkpt>
      <trkpt lat="46.19625" lon="4.41052">
        <ele>519</ele>
        <time>2013-08-19T08:38:02Z</time>
      </trkpt>
      <trkpt lat="46.1963" lon="4.41049">
        <ele>519</ele>
        <time>2013-08-19T08:38:07Z</time>
      </trkpt>
      <trkpt lat="46.19642" lon="4.4104">
        <ele>518</ele>
        <time>2013-08-19T08:38:21Z</time>
      </trkpt>
      <trkpt lat="46.19658" lon="4.4103">
        <ele>516</ele>
        <time>2013-08-19T08:38:35Z</time>
      </trkpt>
      <trkpt lat="46.19661" lon="4.41029">
        <ele>516</ele>
        <time>2013-08-19T08:38:37Z</time>
      </trkpt>
      <trkpt lat="46.19666" lon="4.41028">
        <ele>516</ele>
        <time>2013-08-19T08:38:41Z</time>
      </trkpt>
      <trkpt lat="46.19669" lon="4.41028">
        <ele>516</ele>
        <time>2013-08-19T08:38:43Z</time>
      </trkpt>
      <trkpt lat="46.19674" lon="4.41027">
        <ele>516</ele>
        <time>2013-08-19T08:38:47Z</time>
      </trkpt>
      <trkpt lat="46.19675" lon="4.41028">
        <ele>516</ele>
        <time>2013-08-19T08:38:48Z</time>
      </trkpt>
      <trkpt lat="46.19678" lon="4.41025">
        <ele>515</ele>
        <time>2013-08-19T08:38:51Z</time>
      </trkpt>
      <trkpt lat="46.19679" lon="4.41025">
        <ele>516</ele>
        <time>2013-08-19T08:38:52Z</time>
      </trkpt>
      <trkpt lat="46.19681" lon="4.41024">
        <ele>515</ele>
        <time>2013-08-19T08:38:54Z</time>
      </trkpt>
      <trkpt lat="46.19685" lon="4.41022">
        <ele>515</ele>
        <time>2013-08-19T08:38:57Z</time>
      </trkpt>
      <trkpt lat="46.19691" lon="4.41021">
        <ele>515</ele>
        <time>2013-08-19T08:39:01Z</time>
      </trkpt>
      <trkpt lat="46.19697" lon="4.41017">
        <ele>515</ele>
        <time>2013-08-19T08:39:06Z</time>
      </trkpt>
      <trkpt lat="46.19704" lon="4.41015">
        <ele>515</ele>
        <time>2013-08-19T08:39:13Z</time>
      </trkpt>
      <trkpt lat="46.19706" lon="4.41014">
        <ele>515</ele>
        <time>2013-08-19T08:39:16Z</time>
      </trkpt>
      <trkpt lat="46.1971" lon="4.41014">
        <ele>515</ele>
        <time>2013-08-19T08:39:18Z</time>
      </trkpt>
      <trkpt lat="46.19712" lon="4.41015">
        <ele>515</ele>
        <time>2013-08-19T08:39:20Z</time>
      </trkpt>
      <trkpt lat="46.19715" lon="4.41017">
        <ele>516</ele>
        <time>2013-08-19T08:39:22Z</time>
      </trkpt>
      <trkpt lat="46.19718" lon="4.41017">
        <ele>515</ele>
        <time>2013-08-19T08:39:24Z</time>
      </trkpt>
      <trkpt lat="46.1972" lon="4.41017">
        <ele>515</ele>
        <time>2013-08-19T08:39:25Z</time>
      </trkpt>
      <trkpt lat="46.19733" lon="4.41014">
        <ele>514</ele>
        <time>2013-08-19T08:39:36Z</time>
      </trkpt>
      <trkpt lat="46.19735" lon="4.41013">
        <ele>514</ele>
        <time>2013-08-19T08:39:37Z</time>
      </trkpt>
      <trkpt lat="46.19738" lon="4.41017">
        <ele>514</ele>
        <time>2013-08-19T08:39:41Z</time>
      </trkpt>
      <trkpt lat="46.19744" lon="4.41022">
        <ele>515</ele>
        <time>2013-08-19T08:39:47Z</time>
      </trkpt>
      <trkpt lat="46.19745" lon="4.41023">
        <ele>515</ele>
        <time>2013-08-19T08:39:48Z</time>
      </trkpt>
      <trkpt lat="46.1975" lon="4.41023">
        <ele>514</ele>
        <time>2013-08-19T08:39:53Z</time>
      </trkpt>
      <trkpt lat="46.19751" lon="4.41023">
        <ele>514</ele>
        <time>2013-08-19T08:39:54Z</time>
      </trkpt>
      <trkpt lat="46.1976" lon="4.41028">
        <ele>515</ele>
        <time>2013-08-19T08:40:00Z</time>
      </trkpt>
      <trkpt lat="46.19761" lon="4.41028">
        <ele>515</ele>
        <time>2013-08-19T08:40:01Z</time>
      </trkpt>
      <trkpt lat="46.19762" lon="4.41029">
        <ele>515</ele>
        <time>2013-08-19T08:40:02Z</time>
      </trkpt>
      <trkpt lat="46.19767" lon="4.4103">
        <ele>515</ele>
        <time>2013-08-19T08:40:05Z</time>
      </trkpt>
      <trkpt lat="46.19768" lon="4.4103">
        <ele>515</ele>
        <time>2013-08-19T08:40:06Z</time>
      </trkpt>
      <trkpt lat="46.19769" lon="4.41031">
        <ele>515</ele>
        <time>2013-08-19T08:40:07Z</time>
      </trkpt>
      <trkpt lat="46.19775" lon="4.41032">
        <ele>515</ele>
        <time>2013-08-19T08:40:12Z</time>
      </trkpt>
      <trkpt lat="46.19778" lon="4.41034">
        <ele>515</ele>
        <time>2013-08-19T08:40:14Z</time>
      </trkpt>
      <trkpt lat="46.19787" lon="4.41036">
        <ele>516</ele>
        <time>2013-08-19T08:40:21Z</time>
      </trkpt>
      <trkpt lat="46.19789" lon="4.41038">
        <ele>516</ele>
        <time>2013-08-19T08:40:22Z</time>
      </trkpt>
      <trkpt lat="46.19795" lon="4.41042">
        <ele>516</ele>
        <time>2013-08-19T08:40:27Z</time>
      </trkpt>
      <trkpt lat="46.19799" lon="4.41043">
        <ele>516</ele>
        <time>2013-08-19T08:40:33Z</time>
      </trkpt>
      <trkpt lat="46.19808" lon="4.41045">
        <ele>516</ele>
        <time>2013-08-19T08:40:40Z</time>
      </trkpt>
      <trkpt lat="46.19815" lon="4.41047">
        <ele>516</ele>
        <time>2013-08-19T08:40:45Z</time>
      </trkpt>
      <trkpt lat="46.19817" lon="4.41047">
        <ele>516</ele>
        <time>2013-08-19T08:40:46Z</time>
      </trkpt>
      <trkpt lat="46.19823" lon="4.4105">
        <ele>517</ele>
        <time>2013-08-19T08:40:53Z</time>
      </trkpt>
      <trkpt lat="46.19826" lon="4.4105">
        <ele>517</ele>
        <time>2013-08-19T08:40:55Z</time>
      </trkpt>
      <trkpt lat="46.19832" lon="4.41053">
        <ele>517</ele>
        <time>2013-08-19T08:41:00Z</time>
      </trkpt>
      <trkpt lat="46.19841" lon="4.41056">
        <ele>513</ele>
        <time>2013-08-19T08:41:07Z</time>
      </trkpt>
      <trkpt lat="46.19844" lon="4.41059">
        <ele>513</ele>
        <time>2013-08-19T08:41:10Z</time>
      </trkpt>
      <trkpt lat="46.19849" lon="4.41063">
        <ele>514</ele>
        <time>2013-08-19T08:41:13Z</time>
      </trkpt>
      <trkpt lat="46.1986" lon="4.41065">
        <ele>512</ele>
        <time>2013-08-19T08:41:21Z</time>
      </trkpt>
      <trkpt lat="46.19862" lon="4.41066">
        <ele>512</ele>
        <time>2013-08-19T08:41:23Z</time>
      </trkpt>
      <trkpt lat="46.19863" lon="4.41066">
        <ele>512</ele>
        <time>2013-08-19T08:41:24Z</time>
      </trkpt>
      <trkpt lat="46.19866" lon="4.41065">
        <ele>512</ele>
        <time>2013-08-19T08:41:27Z</time>
      </trkpt>
      <trkpt lat="46.19867" lon="4.41065">
        <ele>512</ele>
        <time>2013-08-19T08:41:28Z</time>
      </trkpt>
      <trkpt lat="46.19869" lon="4.41066">
        <ele>511</ele>
        <time>2013-08-19T08:41:30Z</time>
      </trkpt>
      <trkpt lat="46.19874" lon="4.41068">
        <ele>511</ele>
        <time>2013-08-19T08:41:33Z</time>
      </trkpt>
      <trkpt lat="46.19877" lon="4.41069">
        <ele>511</ele>
        <time>2013-08-19T08:41:36Z</time>
      </trkpt>
      <trkpt lat="46.1988" lon="4.4107">
        <ele>511</ele>
        <time>2013-08-19T08:41:39Z</time>
      </trkpt>
      <trkpt lat="46.19887" lon="4.41073">
        <ele>510</ele>
        <time>2013-08-19T08:41:46Z</time>
      </trkpt>
      <trkpt lat="46.19888" lon="4.41072">
        <ele>510</ele>
        <time>2013-08-19T08:41:47Z</time>
      </trkpt>
      <trkpt lat="46.1989" lon="4.41072">
        <ele>510</ele>
        <time>2013-08-19T08:41:51Z</time>
      </trkpt>
      <trkpt lat="46.19892" lon="4.41073">
        <ele>510</ele>
        <time>2013-08-19T08:41:52Z</time>
      </trkpt>
      <trkpt lat="46.19899" lon="4.41076">
        <ele>510</ele>
        <time>2013-08-19T08:41:58Z</time>
      </trkpt>
      <trkpt lat="46.199" lon="4.41077">
        <ele>510</ele>
        <time>2013-08-19T08:41:59Z</time>
      </trkpt>
      <trkpt lat="46.19903" lon="4.41086">
        <ele>515</ele>
        <time>2013-08-19T08:42:04Z</time>
      </trkpt>
      <trkpt lat="46.19902" lon="4.41087">
        <ele>515</ele>
        <time>2013-08-19T08:42:05Z</time>
      </trkpt>
      <trkpt lat="46.19903" lon="4.41091">
        <ele>515</ele>
        <time>2013-08-19T08:42:08Z</time>
      </trkpt>
      <trkpt lat="46.19905" lon="4.41093">
        <ele>515</ele>
        <time>2013-08-19T08:42:10Z</time>
      </trkpt>
      <trkpt lat="46.19908" lon="4.41098">
        <ele>515</ele>
        <time>2013-08-19T08:42:13Z</time>
      </trkpt>
      <trkpt lat="46.19908" lon="4.41099">
        <ele>515</ele>
        <time>2013-08-19T08:42:14Z</time>
      </trkpt>
      <trkpt lat="46.19909" lon="4.41101">
        <ele>516</ele>
        <time>2013-08-19T08:42:15Z</time>
      </trkpt>
      <trkpt lat="46.19909" lon="4.41102">
        <ele>516</ele>
        <time>2013-08-19T08:42:16Z</time>
      </trkpt>
      <trkpt lat="46.19913" lon="4.41112">
        <ele>517</ele>
        <time>2013-08-19T08:42:22Z</time>
      </trkpt>
      <trkpt lat="46.19916" lon="4.4112">
        <ele>518</ele>
        <time>2013-08-19T08:42:29Z</time>
      </trkpt>
      <trkpt lat="46.19917" lon="4.41121">
        <ele>518</ele>
        <time>2013-08-19T08:42:30Z</time>
      </trkpt>
      <trkpt lat="46.19916" lon="4.41124">
        <ele>518</ele>
        <time>2013-08-19T08:42:32Z</time>
      </trkpt>
      <trkpt lat="46.19915" lon="4.41128">
        <ele>518</ele>
        <time>2013-08-19T08:42:35Z</time>
      </trkpt>
      <trkpt lat="46.19915" lon="4.4113">
        <ele>518</ele>
        <time>2013-08-19T08:42:37Z</time>
      </trkpt>
      <trkpt lat="46.19915" lon="4.41136">
        <ele>519</ele>
        <time>2013-08-19T08:42:40Z</time>
      </trkpt>
      <trkpt lat="46.19918" lon="4.41146">
        <ele>514</ele>
        <time>2013-08-19T08:42:45Z</time>
      </trkpt>
      <trkpt lat="46.19918" lon="4.41147">
        <ele>515</ele>
        <time>2013-08-19T08:42:46Z</time>
      </trkpt>
      <trkpt lat="46.1992" lon="4.4115">
        <ele>515</ele>
        <time>2013-08-19T08:42:48Z</time>
      </trkpt>
      <trkpt lat="46.19923" lon="4.41154">
        <ele>515</ele>
        <time>2013-08-19T08:42:52Z</time>
      </trkpt>
      <trkpt lat="46.19924" lon="4.41156">
        <ele>515</ele>
        <time>2013-08-19T08:42:53Z</time>
      </trkpt>
      <trkpt lat="46.19925" lon="4.4116">
        <ele>515</ele>
        <time>2013-08-19T08:42:56Z</time>
      </trkpt>
      <trkpt lat="46.19928" lon="4.41166">
        <ele>515</ele>
        <time>2013-08-19T08:43:02Z</time>
      </trkpt>
      <trkpt lat="46.19929" lon="4.41171">
        <ele>516</ele>
        <time>2013-08-19T08:43:06Z</time>
      </trkpt>
      <trkpt lat="46.19931" lon="4.41177">
        <ele>516</ele>
        <time>2013-08-19T08:43:09Z</time>
      </trkpt>
      <trkpt lat="46.19933" lon="4.41184">
        <ele>516</ele>
        <time>2013-08-19T08:43:12Z</time>
      </trkpt>
      <trkpt lat="46.19933" lon="4.41186">
        <ele>516</ele>
        <time>2013-08-19T08:43:14Z</time>
      </trkpt>
      <trkpt lat="46.19934" lon="4.41188">
        <ele>516</ele>
        <time>2013-08-19T08:43:15Z</time>
      </trkpt>
      <trkpt lat="46.19936" lon="4.41193">
        <ele>516</ele>
        <time>2013-08-19T08:43:19Z</time>
      </trkpt>
      <trkpt lat="46.19936" lon="4.41196">
        <ele>516</ele>
        <time>2013-08-19T08:43:22Z</time>
      </trkpt>
      <trkpt lat="46.19939" lon="4.41199">
        <ele>516</ele>
        <time>2013-08-19T08:43:25Z</time>
      </trkpt>
      <trkpt lat="46.19943" lon="4.41202">
        <ele>516</ele>
        <time>2013-08-19T08:43:29Z</time>
      </trkpt>
      <trkpt lat="46.19943" lon="4.41205">
        <ele>516</ele>
        <time>2013-08-19T08:43:31Z</time>
      </trkpt>
      <trkpt lat="46.19942" lon="4.4121">
        <ele>516</ele>
        <time>2013-08-19T08:43:34Z</time>
      </trkpt>
      <trkpt lat="46.19942" lon="4.41219">
        <ele>516</ele>
        <time>2013-08-19T08:43:40Z</time>
      </trkpt>
      <trkpt lat="46.19943" lon="4.41222">
        <ele>516</ele>
        <time>2013-08-19T08:43:42Z</time>
      </trkpt>
      <trkpt lat="46.19944" lon="4.41228">
        <ele>516</ele>
        <time>2013-08-19T08:43:45Z</time>
      </trkpt>
      <trkpt lat="46.19945" lon="4.41232">
        <ele>516</ele>
        <time>2013-08-19T08:43:48Z</time>
      </trkpt>
      <trkpt lat="46.19944" lon="4.41242">
        <ele>517</ele>
        <time>2013-08-19T08:43:53Z</time>
      </trkpt>
      <trkpt lat="46.19944" lon="4.41245">
        <ele>517</ele>
        <time>2013-08-19T08:43:55Z</time>
      </trkpt>
      <trkpt lat="46.19942" lon="4.41249">
        <ele>517</ele>
        <time>2013-08-19T08:43:59Z</time>
      </trkpt>
      <trkpt lat="46.19943" lon="4.41257">
        <ele>521</ele>
        <time>2013-08-19T08:44:04Z</time>
      </trkpt>
      <trkpt lat="46.19943" lon="4.41259">
        <ele>521</ele>
        <time>2013-08-19T08:44:06Z</time>
      </trkpt>
      <trkpt lat="46.19943" lon="4.4126">
        <ele>521</ele>
        <time>2013-08-19T08:44:08Z</time>
      </trkpt>
      <trkpt lat="46.1994" lon="4.41267">
        <ele>522</ele>
        <time>2013-08-19T08:44:12Z</time>
      </trkpt>
      <trkpt lat="46.19941" lon="4.41272">
        <ele>522</ele>
        <time>2013-08-19T08:44:17Z</time>
      </trkpt>
      <trkpt lat="46.19941" lon="4.41273">
        <ele>522</ele>
        <time>2013-08-19T08:44:18Z</time>
      </trkpt>
      <trkpt lat="46.19943" lon="4.41274">
        <ele>522</ele>
        <time>2013-08-19T08:44:19Z</time>
      </trkpt>
      <trkpt lat="46.19943" lon="4.41281">
        <ele>523</ele>
        <time>2013-08-19T08:44:23Z</time>
      </trkpt>
      <trkpt lat="46.19943" lon="4.4129">
        <ele>523</ele>
        <time>2013-08-19T08:44:30Z</time>
      </trkpt>
      <trkpt lat="46.19944" lon="4.41291">
        <ele>523</ele>
        <time>2013-08-19T08:44:31Z</time>
      </trkpt>
      <trkpt lat="46.19949" lon="4.41295">
        <ele>523</ele>
        <time>2013-08-19T08:44:34Z</time>
      </trkpt>
      <trkpt lat="46.1995" lon="4.41296">
        <ele>523</ele>
        <time>2013-08-19T08:44:35Z</time>
      </trkpt>
      <trkpt lat="46.19951" lon="4.413">
        <ele>524</ele>
        <time>2013-08-19T08:44:38Z</time>
      </trkpt>
      <trkpt lat="46.19954" lon="4.41304">
        <ele>524</ele>
        <time>2013-08-19T08:44:41Z</time>
      </trkpt>
      <trkpt lat="46.19954" lon="4.41306">
        <ele>524</ele>
        <time>2013-08-19T08:44:43Z</time>
      </trkpt>
      <trkpt lat="46.19954" lon="4.4131">
        <ele>524</ele>
        <time>2013-08-19T08:44:46Z</time>
      </trkpt>
      <trkpt lat="46.19955" lon="4.41318">
        <ele>524</ele>
        <time>2013-08-19T08:44:52Z</time>
      </trkpt>
      <trkpt lat="46.19957" lon="4.41323">
        <ele>524</ele>
        <time>2013-08-19T08:44:55Z</time>
      </trkpt>
      <trkpt lat="46.19969" lon="4.41344">
        <ele>531</ele>
        <time>2013-08-19T08:45:10Z</time>
      </trkpt>
      <trkpt lat="46.19979" lon="4.41354">
        <ele>530</ele>
        <time>2013-08-19T08:45:18Z</time>
      </trkpt>
      <trkpt lat="46.19984" lon="4.4136">
        <ele>530</ele>
        <time>2013-08-19T08:45:21Z</time>
      </trkpt>
      <trkpt lat="46.19985" lon="4.41361">
        <ele>531</ele>
        <time>2013-08-19T08:45:22Z</time>
      </trkpt>
      <trkpt lat="46.19982" lon="4.41363">
        <ele>531</ele>
        <time>2013-08-19T08:45:28Z</time>
      </trkpt>
      <trkpt lat="46.19984" lon="4.41365">
        <ele>531</ele>
        <time>2013-08-19T08:45:31Z</time>
      </trkpt>
      <trkpt lat="46.19988" lon="4.41374">
        <ele>532</ele>
        <time>2013-08-19T08:45:38Z</time>
      </trkpt>
      <trkpt lat="46.19989" lon="4.41376">
        <ele>532</ele>
        <time>2013-08-19T08:45:39Z</time>
      </trkpt>
      <trkpt lat="46.19991" lon="4.4138">
        <ele>532</ele>
        <time>2013-08-19T08:45:42Z</time>
      </trkpt>
      <trkpt lat="46.19991" lon="4.41385">
        <ele>532</ele>
        <time>2013-08-19T08:45:47Z</time>
      </trkpt>
      <trkpt lat="46.19999" lon="4.41405">
        <ele>531</ele>
        <time>2013-08-19T08:45:59Z</time>
      </trkpt>
      <trkpt lat="46.2" lon="4.41408">
        <ele>528</ele>
        <time>2013-08-19T08:46:01Z</time>
      </trkpt>
      <trkpt lat="46.20001" lon="4.41416">
        <ele>528</ele>
        <time>2013-08-19T08:46:08Z</time>
      </trkpt>
      <trkpt lat="46.2" lon="4.41419">
        <ele>529</ele>
        <time>2013-08-19T08:46:10Z</time>
      </trkpt>
      <trkpt lat="46.20001" lon="4.41424">
        <ele>531</ele>
        <time>2013-08-19T08:46:13Z</time>
      </trkpt>
      <trkpt lat="46.20003" lon="4.41431">
        <ele>533</ele>
        <time>2013-08-19T08:46:17Z</time>
      </trkpt>
      <trkpt lat="46.20002" lon="4.41432">
        <ele>534</ele>
        <time>2013-08-19T08:46:18Z</time>
      </trkpt>
      <trkpt lat="46.20002" lon="4.41434">
        <ele>534</ele>
        <time>2013-08-19T08:46:19Z</time>
      </trkpt>
      <trkpt lat="46.2" lon="4.41439">
        <ele>535</ele>
        <time>2013-08-19T08:46:23Z</time>
      </trkpt>
      <trkpt lat="46.2" lon="4.41441">
        <ele>536</ele>
        <time>2013-08-19T08:46:25Z</time>
      </trkpt>
      <trkpt lat="46.20002" lon="4.41444">
        <ele>536</ele>
        <time>2013-08-19T08:46:27Z</time>
      </trkpt>
      <trkpt lat="46.20002" lon="4.41449">
        <ele>537</ele>
        <time>2013-08-19T08:46:32Z</time>
      </trkpt>
      <trkpt lat="46.20006" lon="4.41457">
        <ele>538</ele>
        <time>2013-08-19T08:46:38Z</time>
      </trkpt>
      <trkpt lat="46.20006" lon="4.41458">
        <ele>539</ele>
        <time>2013-08-19T08:46:39Z</time>
      </trkpt>
      <trkpt lat="46.20006" lon="4.41459">
        <ele>539</ele>
        <time>2013-08-19T08:46:40Z</time>
      </trkpt>
      <trkpt lat="46.20009" lon="4.41464">
        <ele>539</ele>
        <time>2013-08-19T08:46:44Z</time>
      </trkpt>
      <trkpt lat="46.20009" lon="4.41465">
        <ele>540</ele>
        <time>2013-08-19T08:46:45Z</time>
      </trkpt>
      <trkpt lat="46.2001" lon="4.41466">
        <ele>540</ele>
        <time>2013-08-19T08:46:46Z</time>
      </trkpt>
      <trkpt lat="46.20014" lon="4.41478">
        <ele>541</ele>
        <time>2013-08-19T08:46:55Z</time>
      </trkpt>
      <trkpt lat="46.20018" lon="4.41488">
        <ele>542</ele>
        <time>2013-08-19T08:47:03Z</time>
      </trkpt>
      <trkpt lat="46.20018" lon="4.41489">
        <ele>542</ele>
        <time>2013-08-19T08:47:04Z</time>
      </trkpt>
      <trkpt lat="46.20021" lon="4.41496">
        <ele>542</ele>
        <time>2013-08-19T08:47:09Z</time>
      </trkpt>
      <trkpt lat="46.20024" lon="4.41505">
        <ele>548</ele>
        <time>2013-08-19T08:47:16Z</time>
      </trkpt>
      <trkpt lat="46.20026" lon="4.41511">
        <ele>548</ele>
        <time>2013-08-19T08:47:21Z</time>
      </trkpt>
      <trkpt lat="46.20026" lon="4.41514">
        <ele>548</ele>
        <time>2013-08-19T08:47:23Z</time>
      </trkpt>
      <trkpt lat="46.20029" lon="4.41525">
        <ele>549</ele>
        <time>2013-08-19T08:47:31Z</time>
      </trkpt>
      <trkpt lat="46.20029" lon="4.4153">
        <ele>549</ele>
        <time>2013-08-19T08:47:34Z</time>
      </trkpt>
      <trkpt lat="46.2003" lon="4.41536">
        <ele>549</ele>
        <time>2013-08-19T08:47:38Z</time>
      </trkpt>
      <trkpt lat="46.2003" lon="4.41537">
        <ele>549</ele>
        <time>2013-08-19T08:47:39Z</time>
      </trkpt>
      <trkpt lat="46.20029" lon="4.41545">
        <ele>550</ele>
        <time>2013-08-19T08:47:45Z</time>
      </trkpt>
      <trkpt lat="46.20029" lon="4.41547">
        <ele>550</ele>
        <time>2013-08-19T08:47:46Z</time>
      </trkpt>
      <trkpt lat="46.20031" lon="4.41552">
        <ele>550</ele>
        <time>2013-08-19T08:47:51Z</time>
      </trkpt>
      <trkpt lat="46.20037" lon="4.41556">
        <ele>550</ele>
        <time>2013-08-19T08:47:59Z</time>
      </trkpt>
      <trkpt lat="46.2004" lon="4.41558">
        <ele>550</ele>
        <time>2013-08-19T08:48:02Z</time>
      </trkpt>
      <trkpt lat="46.20042" lon="4.41559">
        <ele>550</ele>
        <time>2013-08-19T08:48:05Z</time>
      </trkpt>
      <trkpt lat="46.20044" lon="4.41564">
        <ele>550</ele>
        <time>2013-08-19T08:48:20Z</time>
      </trkpt>
      <trkpt lat="46.20045" lon="4.41564">
        <ele>550</ele>
        <time>2013-08-19T08:48:22Z</time>
      </trkpt>
      <trkpt lat="46.20047" lon="4.41565">
        <ele>550</ele>
        <time>2013-08-19T08:48:27Z</time>
      </trkpt>
      <trkpt lat="46.20049" lon="4.41564">
        <ele>550</ele>
        <time>2013-08-19T08:48:32Z</time>
      </trkpt>
      <trkpt lat="46.2005" lon="4.41563">
        <ele>550</ele>
        <time>2013-08-19T08:48:34Z</time>
      </trkpt>
      <trkpt lat="46.20052" lon="4.41562">
        <ele>550</ele>
        <time>2013-08-19T08:48:36Z</time>
      </trkpt>
      <trkpt lat="46.20054" lon="4.41559">
        <ele>550</ele>
        <time>2013-08-19T08:48:40Z</time>
      </trkpt>
      <trkpt lat="46.20053" lon="4.41553">
        <ele>549</ele>
        <time>2013-08-19T08:48:45Z</time>
      </trkpt>
      <trkpt lat="46.20053" lon="4.4155">
        <ele>549</ele>
        <time>2013-08-19T08:48:48Z</time>
      </trkpt>
      <trkpt lat="46.20053" lon="4.41547">
        <ele>549</ele>
        <time>2013-08-19T08:48:50Z</time>
      </trkpt>
      <trkpt lat="46.20055" lon="4.4154">
        <ele>549</ele>
        <time>2013-08-19T08:48:55Z</time>
      </trkpt>
      <trkpt lat="46.20057" lon="4.41538">
        <ele>549</ele>
        <time>2013-08-19T08:48:57Z</time>
      </trkpt>
      <trkpt lat="46.2006" lon="4.41529">
        <ele>548</ele>
        <time>2013-08-19T08:49:03Z</time>
      </trkpt>
      <trkpt lat="46.2006" lon="4.41522">
        <ele>548</ele>
        <time>2013-08-19T08:49:08Z</time>
      </trkpt>
      <trkpt lat="46.2006" lon="4.41521">
        <ele>548</ele>
        <time>2013-08-19T08:49:09Z</time>
      </trkpt>
      <trkpt lat="46.20062" lon="4.41516">
        <ele>548</ele>
        <time>2013-08-19T08:49:12Z</time>
      </trkpt>
      <trkpt lat="46.20062" lon="4.41513">
        <ele>547</ele>
        <time>2013-08-19T08:49:14Z</time>
      </trkpt>
      <trkpt lat="46.20061" lon="4.41511">
        <ele>547</ele>
        <time>2013-08-19T08:49:15Z</time>
      </trkpt>
      <trkpt lat="46.20062" lon="4.41509">
        <ele>547</ele>
        <time>2013-08-19T08:49:16Z</time>
      </trkpt>
      <trkpt lat="46.20061" lon="4.41501">
        <ele>547</ele>
        <time>2013-08-19T08:49:21Z</time>
      </trkpt>
      <trkpt lat="46.20061" lon="4.415">
        <ele>547</ele>
        <time>2013-08-19T08:49:22Z</time>
      </trkpt>
      <trkpt lat="46.20064" lon="4.41497">
        <ele>542</ele>
        <time>2013-08-19T08:49:25Z</time>
      </trkpt>
      <trkpt lat="46.20066" lon="4.41493">
        <ele>542</ele>
        <time>2013-08-19T08:49:28Z</time>
      </trkpt>
      <trkpt lat="46.2007" lon="4.41487">
        <ele>542</ele>
        <time>2013-08-19T08:49:34Z</time>
      </trkpt>
      <trkpt lat="46.20074" lon="4.41483">
        <ele>542</ele>
        <time>2013-08-19T08:49:38Z</time>
      </trkpt>
      <trkpt lat="46.20075" lon="4.41483">
        <ele>542</ele>
        <time>2013-08-19T08:49:39Z</time>
      </trkpt>
      <trkpt lat="46.2008" lon="4.41475">
        <ele>542</ele>
        <time>2013-08-19T08:49:45Z</time>
      </trkpt>
      <trkpt lat="46.20085" lon="4.41477">
        <ele>551</ele>
        <time>2013-08-19T08:49:50Z</time>
      </trkpt>
      <trkpt lat="46.20087" lon="4.41474">
        <ele>551</ele>
        <time>2013-08-19T08:49:53Z</time>
      </trkpt>
      <trkpt lat="46.20086" lon="4.41464">
        <ele>552</ele>
        <time>2013-08-19T08:49:58Z</time>
      </trkpt>
      <trkpt lat="46.20086" lon="4.4146">
        <ele>552</ele>
        <time>2013-08-19T08:50:00Z</time>
      </trkpt>
      <trkpt lat="46.20087" lon="4.41456">
        <ele>552</ele>
        <time>2013-08-19T08:50:03Z</time>
      </trkpt>
      <trkpt lat="46.20086" lon="4.41455">
        <ele>551</ele>
        <time>2013-08-19T08:50:06Z</time>
      </trkpt>
      <trkpt lat="46.20089" lon="4.41447">
        <ele>551</ele>
        <time>2013-08-19T08:50:11Z</time>
      </trkpt>
      <trkpt lat="46.20091" lon="4.41438">
        <ele>549</ele>
        <time>2013-08-19T08:50:17Z</time>
      </trkpt>
      <trkpt lat="46.20097" lon="4.4143">
        <ele>549</ele>
        <time>2013-08-19T08:50:25Z</time>
      </trkpt>
      <trkpt lat="46.20098" lon="4.4143">
        <ele>549</ele>
        <time>2013-08-19T08:50:26Z</time>
      </trkpt>
      <trkpt lat="46.20099" lon="4.4143">
        <ele>549</ele>
        <time>2013-08-19T08:50:28Z</time>
      </trkpt>
      <trkpt lat="46.20099" lon="4.41427">
        <ele>549</ele>
        <time>2013-08-19T08:50:30Z</time>
      </trkpt>
      <trkpt lat="46.20099" lon="4.41425">
        <ele>549</ele>
        <time>2013-08-19T08:50:31Z</time>
      </trkpt>
      <trkpt lat="46.20101" lon="4.4142">
        <ele>549</ele>
        <time>2013-08-19T08:50:36Z</time>
      </trkpt>
      <trkpt lat="46.20102" lon="4.41419">
        <ele>549</ele>
        <time>2013-08-19T08:50:38Z</time>
      </trkpt>
      <trkpt lat="46.20105" lon="4.41413">
        <ele>548</ele>
        <time>2013-08-19T08:50:43Z</time>
      </trkpt>
      <trkpt lat="46.20108" lon="4.41408">
        <ele>549</ele>
        <time>2013-08-19T08:50:47Z</time>
      </trkpt>
      <trkpt lat="46.2011" lon="4.41403">
        <ele>550</ele>
        <time>2013-08-19T08:50:51Z</time>
      </trkpt>
      <trkpt lat="46.20112" lon="4.41399">
        <ele>550</ele>
        <time>2013-08-19T08:50:54Z</time>
      </trkpt>
      <trkpt lat="46.20115" lon="4.41397">
        <ele>551</ele>
        <time>2013-08-19T08:50:57Z</time>
      </trkpt>
      <trkpt lat="46.2012" lon="4.41386">
        <ele>552</ele>
        <time>2013-08-19T08:51:07Z</time>
      </trkpt>
      <trkpt lat="46.20122" lon="4.41382">
        <ele>552</ele>
        <time>2013-08-19T08:51:10Z</time>
      </trkpt>
      <trkpt lat="46.20125" lon="4.41375">
        <ele>553</ele>
        <time>2013-08-19T08:51:15Z</time>
      </trkpt>
      <trkpt lat="46.20129" lon="4.41366">
        <ele>553</ele>
        <time>2013-08-19T08:51:22Z</time>
      </trkpt>
      <trkpt lat="46.20133" lon="4.4136">
        <ele>554</ele>
        <time>2013-08-19T08:51:27Z</time>
      </trkpt>
      <trkpt lat="46.20135" lon="4.41356">
        <ele>554</ele>
        <time>2013-08-19T08:51:30Z</time>
      </trkpt>
      <trkpt lat="46.20136" lon="4.41355">
        <ele>554</ele>
        <time>2013-08-19T08:51:31Z</time>
      </trkpt>
      <trkpt lat="46.20139" lon="4.41352">
        <ele>555</ele>
        <time>2013-08-19T08:51:35Z</time>
      </trkpt>
      <trkpt lat="46.20142" lon="4.41348">
        <ele>556</ele>
        <time>2013-08-19T08:51:39Z</time>
      </trkpt>
      <trkpt lat="46.20143" lon="4.41346">
        <ele>556</ele>
        <time>2013-08-19T08:51:41Z</time>
      </trkpt>
      <trkpt lat="46.20145" lon="4.41341">
        <ele>557</ele>
        <time>2013-08-19T08:51:45Z</time>
      </trkpt>
      <trkpt lat="46.20147" lon="4.41338">
        <ele>557</ele>
        <time>2013-08-19T08:51:47Z</time>
      </trkpt>
      <trkpt lat="46.20151" lon="4.4133">
        <ele>556</ele>
        <time>2013-08-19T08:51:54Z</time>
      </trkpt>
      <trkpt lat="46.20154" lon="4.41324">
        <ele>556</ele>
        <time>2013-08-19T08:51:59Z</time>
      </trkpt>
      <trkpt lat="46.20156" lon="4.41322">
        <ele>556</ele>
        <time>2013-08-19T08:52:01Z</time>
      </trkpt>
      <trkpt lat="46.20157" lon="4.4132">
        <ele>556</ele>
        <time>2013-08-19T08:52:03Z</time>
      </trkpt>
      <trkpt lat="46.20163" lon="4.41315">
        <ele>555</ele>
        <time>2013-08-19T08:52:09Z</time>
      </trkpt>
      <trkpt lat="46.2017" lon="4.41303">
        <ele>570</ele>
        <time>2013-08-19T08:52:18Z</time>
      </trkpt>
      <trkpt lat="46.20173" lon="4.413">
        <ele>570</ele>
        <time>2013-08-19T08:52:21Z</time>
      </trkpt>
      <trkpt lat="46.20175" lon="4.41297">
        <ele>570</ele>
        <time>2013-08-19T08:52:24Z</time>
      </trkpt>
      <trkpt lat="46.20177" lon="4.41293">
        <ele>570</ele>
        <time>2013-08-19T08:52:27Z</time>
      </trkpt>
      <trkpt lat="46.20179" lon="4.41289">
        <ele>570</ele>
        <time>2013-08-19T08:52:30Z</time>
      </trkpt>
      <trkpt lat="46.20183" lon="4.41284">
        <ele>570</ele>
        <time>2013-08-19T08:52:35Z</time>
      </trkpt>
      <trkpt lat="46.20185" lon="4.41282">
        <ele>569</ele>
        <time>2013-08-19T08:52:37Z</time>
      </trkpt>
      <trkpt lat="46.20189" lon="4.41276">
        <ele>569</ele>
        <time>2013-08-19T08:52:44Z</time>
      </trkpt>
      <trkpt lat="46.2019" lon="4.41275">
        <ele>569</ele>
        <time>2013-08-19T08:52:45Z</time>
      </trkpt>
      <trkpt lat="46.20192" lon="4.41264">
        <ele>569</ele>
        <time>2013-08-19T08:52:52Z</time>
      </trkpt>
      <trkpt lat="46.20193" lon="4.41263">
        <ele>568</ele>
        <time>2013-08-19T08:52:53Z</time>
      </trkpt>
      <trkpt lat="46.20197" lon="4.41256">
        <ele>569</ele>
        <time>2013-08-19T08:52:59Z</time>
      </trkpt>
      <trkpt lat="46.20199" lon="4.41246">
        <ele>562</ele>
        <time>2013-08-19T08:53:06Z</time>
      </trkpt>
      <trkpt lat="46.20201" lon="4.41241">
        <ele>562</ele>
        <time>2013-08-19T08:53:10Z</time>
      </trkpt>
      <trkpt lat="46.20202" lon="4.41239">
        <ele>562</ele>
        <time>2013-08-19T08:53:12Z</time>
      </trkpt>
      <trkpt lat="46.20202" lon="4.41238">
        <ele>562</ele>
        <time>2013-08-19T08:53:13Z</time>
      </trkpt>
      <trkpt lat="46.20204" lon="4.41235">
        <ele>562</ele>
        <time>2013-08-19T08:53:16Z</time>
      </trkpt>
      <trkpt lat="46.20204" lon="4.41232">
        <ele>562</ele>
        <time>2013-08-19T08:53:19Z</time>
      </trkpt>
      <trkpt lat="46.20203" lon="4.4123">
        <ele>562</ele>
        <time>2013-08-19T08:53:21Z</time>
      </trkpt>
      <trkpt lat="46.20203" lon="4.41228">
        <ele>562</ele>
        <time>2013-08-19T08:53:30Z</time>
      </trkpt>
      <trkpt lat="46.20204" lon="4.41222">
        <ele>562</ele>
        <time>2013-08-19T08:53:36Z</time>
      </trkpt>
      <trkpt lat="46.20206" lon="4.41218">
        <ele>562</ele>
        <time>2013-08-19T08:53:39Z</time>
      </trkpt>
      <trkpt lat="46.20207" lon="4.41213">
        <ele>562</ele>
        <time>2013-08-19T08:53:43Z</time>
      </trkpt>
      <trkpt lat="46.2021" lon="4.41204">
        <ele>561</ele>
        <time>2013-08-19T08:53:50Z</time>
      </trkpt>
      <trkpt lat="46.20211" lon="4.41199">
        <ele>561</ele>
        <time>2013-08-19T08:53:53Z</time>
      </trkpt>
      <trkpt lat="46.20213" lon="4.41194">
        <ele>561</ele>
        <time>2013-08-19T08:53:57Z</time>
      </trkpt>
      <trkpt lat="46.20216" lon="4.41185">
        <ele>561</ele>
        <time>2013-08-19T08:54:04Z</time>
      </trkpt>
      <trkpt lat="46.20218" lon="4.41178">
        <ele>561</ele>
        <time>2013-08-19T08:54:09Z</time>
      </trkpt>
      <trkpt lat="46.20218" lon="4.41175">
        <ele>561</ele>
        <time>2013-08-19T08:54:11Z</time>
      </trkpt>
      <trkpt lat="46.20219" lon="4.4117">
        <ele>561</ele>
        <time>2013-08-19T08:54:14Z</time>
      </trkpt>
      <trkpt lat="46.20221" lon="4.41167">
        <ele>561</ele>
        <time>2013-08-19T08:54:17Z</time>
      </trkpt>
      <trkpt lat="46.20222" lon="4.41166">
        <ele>554</ele>
        <time>2013-08-19T08:54:18Z</time>
      </trkpt>
      <trkpt lat="46.20223" lon="4.41159">
        <ele>554</ele>
        <time>2013-08-19T08:54:23Z</time>
      </trkpt>
      <trkpt lat="46.20228" lon="4.41152">
        <ele>554</ele>
        <time>2013-08-19T08:54:29Z</time>
      </trkpt>
      <trkpt lat="46.2023" lon="4.41148">
        <ele>554</ele>
        <time>2013-08-19T08:54:32Z</time>
      </trkpt>
      <trkpt lat="46.20231" lon="4.41144">
        <ele>554</ele>
        <time>2013-08-19T08:54:35Z</time>
      </trkpt>
      <trkpt lat="46.20232" lon="4.41144">
        <ele>554</ele>
        <time>2013-08-19T08:54:36Z</time>
      </trkpt>
      <trkpt lat="46.20232" lon="4.41142">
        <ele>554</ele>
        <time>2013-08-19T08:54:41Z</time>
      </trkpt>
      <trkpt lat="46.20233" lon="4.4114">
        <ele>554</ele>
        <time>2013-08-19T08:54:42Z</time>
      </trkpt>
      <trkpt lat="46.20236" lon="4.41136">
        <ele>553</ele>
        <time>2013-08-19T08:54:46Z</time>
      </trkpt>
      <trkpt lat="46.20236" lon="4.41136">
        <ele>553</ele>
        <time>2013-08-19T08:54:48Z</time>
      </trkpt>
      <trkpt lat="46.20239" lon="4.41131">
        <ele>553</ele>
        <time>2013-08-19T08:54:54Z</time>
      </trkpt>
      <trkpt lat="46.2024" lon="4.41131">
        <ele>553</ele>
        <time>2013-08-19T08:54:55Z</time>
      </trkpt>
      <trkpt lat="46.20241" lon="4.41127">
        <ele>553</ele>
        <time>2013-08-19T08:55:01Z</time>
      </trkpt>
      <trkpt lat="46.20245" lon="4.41122">
        <ele>552</ele>
        <time>2013-08-19T08:55:08Z</time>
      </trkpt>
      <trkpt lat="46.20249" lon="4.4111">
        <ele>551</ele>
        <time>2013-08-19T08:55:35Z</time>
      </trkpt>
      <trkpt lat="46.20253" lon="4.41105">
        <ele>555</ele>
        <time>2013-08-19T08:55:39Z</time>
      </trkpt>
      <trkpt lat="46.20258" lon="4.411">
        <ele>554</ele>
        <time>2013-08-19T08:55:44Z</time>
      </trkpt>
      <trkpt lat="46.2026" lon="4.41098">
        <ele>554</ele>
        <time>2013-08-19T08:55:46Z</time>
      </trkpt>
      <trkpt lat="46.20265" lon="4.41095">
        <ele>554</ele>
        <time>2013-08-19T08:55:50Z</time>
      </trkpt>
      <trkpt lat="46.20268" lon="4.41091">
        <ele>554</ele>
        <time>2013-08-19T08:55:53Z</time>
      </trkpt>
      <trkpt lat="46.2027" lon="4.41088">
        <ele>554</ele>
        <time>2013-08-19T08:55:56Z</time>
      </trkpt>
      <trkpt lat="46.20271" lon="4.41087">
        <ele>554</ele>
        <time>2013-08-19T08:55:57Z</time>
      </trkpt>
      <trkpt lat="46.20276" lon="4.4108">
        <ele>548</ele>
        <time>2013-08-19T08:56:03Z</time>
      </trkpt>
      <trkpt lat="46.20282" lon="4.41073">
        <ele>548</ele>
        <time>2013-08-19T08:56:10Z</time>
      </trkpt>
      <trkpt lat="46.20284" lon="4.4107">
        <ele>548</ele>
        <time>2013-08-19T08:56:12Z</time>
      </trkpt>
      <trkpt lat="46.20285" lon="4.41067">
        <ele>548</ele>
        <time>2013-08-19T08:56:14Z</time>
      </trkpt>
      <trkpt lat="46.20287" lon="4.41065">
        <ele>548</ele>
        <time>2013-08-19T08:56:16Z</time>
      </trkpt>
      <trkpt lat="46.20289" lon="4.41061">
        <ele>547</ele>
        <time>2013-08-19T08:56:19Z</time>
      </trkpt>
      <trkpt lat="46.2029" lon="4.41059">
        <ele>547</ele>
        <time>2013-08-19T08:56:21Z</time>
      </trkpt>
      <trkpt lat="46.20294" lon="4.41054">
        <ele>547</ele>
        <time>2013-08-19T08:56:24Z</time>
      </trkpt>
      <trkpt lat="46.20296" lon="4.41051">
        <ele>547</ele>
        <time>2013-08-19T08:56:26Z</time>
      </trkpt>
      <trkpt lat="46.20301" lon="4.4104">
        <ele>547</ele>
        <time>2013-08-19T08:56:33Z</time>
      </trkpt>
      <trkpt lat="46.20303" lon="4.41031">
        <ele>546</ele>
        <time>2013-08-19T08:56:38Z</time>
      </trkpt>
      <trkpt lat="46.20303" lon="4.41029">
        <ele>546</ele>
        <time>2013-08-19T08:56:39Z</time>
      </trkpt>
      <trkpt lat="46.20303" lon="4.41028">
        <ele>546</ele>
        <time>2013-08-19T08:56:40Z</time>
      </trkpt>
      <trkpt lat="46.20305" lon="4.41016">
        <ele>546</ele>
        <time>2013-08-19T08:56:47Z</time>
      </trkpt>
      <trkpt lat="46.20312" lon="4.41009">
        <ele>546</ele>
        <time>2013-08-19T08:56:53Z</time>
      </trkpt>
      <trkpt lat="46.20317" lon="4.41">
        <ele>545</ele>
        <time>2013-08-19T08:56:59Z</time>
      </trkpt>
      <trkpt lat="46.20322" lon="4.40992">
        <ele>542</ele>
        <time>2013-08-19T08:57:06Z</time>
      </trkpt>
      <trkpt lat="46.20323" lon="4.4099">
        <ele>542</ele>
        <time>2013-08-19T08:57:09Z</time>
      </trkpt>
      <trkpt lat="46.20324" lon="4.40988">
        <ele>542</ele>
        <time>2013-08-19T08:57:11Z</time>
      </trkpt>
      <trkpt lat="46.20324" lon="4.40987">
        <ele>542</ele>
        <time>2013-08-19T08:57:13Z</time>
      </trkpt>
      <trkpt lat="46.20324" lon="4.40985">
        <ele>542</ele>
        <time>2013-08-19T08:57:18Z</time>
      </trkpt>
      <trkpt lat="46.20326" lon="4.40988">
        <ele>542</ele>
        <time>2013-08-19T08:57:24Z</time>
      </trkpt>
      <trkpt lat="46.20324" lon="4.40984">
        <ele>542</ele>
        <time>2013-08-19T08:57:42Z</time>
      </trkpt>
      <trkpt lat="46.20325" lon="4.40976">
        <ele>541</ele>
        <time>2013-08-19T08:57:48Z</time>
      </trkpt>
      <trkpt lat="46.20325" lon="4.4097">
        <ele>541</ele>
        <time>2013-08-19T08:57:52Z</time>
      </trkpt>
      <trkpt lat="46.20326" lon="4.40966">
        <ele>540</ele>
        <time>2013-08-19T08:57:55Z</time>
      </trkpt>
      <trkpt lat="46.20327" lon="4.40956">
        <ele>540</ele>
        <time>2013-08-19T08:58:03Z</time>
      </trkpt>
      <trkpt lat="46.20329" lon="4.40947">
        <ele>539</ele>
        <time>2013-08-19T08:58:10Z</time>
      </trkpt>
      <trkpt lat="46.20329" lon="4.40944">
        <ele>539</ele>
        <time>2013-08-19T08:58:12Z</time>
      </trkpt>
      <trkpt lat="46.20329" lon="4.40934">
        <ele>538</ele>
        <time>2013-08-19T08:58:19Z</time>
      </trkpt>
      <trkpt lat="46.20329" lon="4.40919">
        <ele>537</ele>
        <time>2013-08-19T08:58:29Z</time>
      </trkpt>
      <trkpt lat="46.20329" lon="4.40917">
        <ele>537</ele>
        <time>2013-08-19T08:58:30Z</time>
      </trkpt>
      <trkpt lat="46.20328" lon="4.40905">
        <ele>536</ele>
        <time>2013-08-19T08:58:37Z</time>
      </trkpt>
      <trkpt lat="46.20328" lon="4.40892">
        <ele>535</ele>
        <time>2013-08-19T08:58:45Z</time>
      </trkpt>
      <trkpt lat="46.20328" lon="4.4089">
        <ele>535</ele>
        <time>2013-08-19T08:58:46Z</time>
      </trkpt>
      <trkpt lat="46.20328" lon="4.40874">
        <ele>535</ele>
        <time>2013-08-19T08:58:55Z</time>
      </trkpt>
      <trkpt lat="46.20328" lon="4.40863">
        <ele>534</ele>
        <time>2013-08-19T08:59:02Z</time>
      </trkpt>
      <trkpt lat="46.20328" lon="4.40861">
        <ele>534</ele>
        <time>2013-08-19T08:59:03Z</time>
      </trkpt>
      <trkpt lat="46.20327" lon="4.40846">
        <ele>534</ele>
        <time>2013-08-19T08:59:12Z</time>
      </trkpt>
      <trkpt lat="46.20327" lon="4.40845">
        <ele>534</ele>
        <time>2013-08-19T08:59:18Z</time>
      </trkpt>
      <trkpt lat="46.20328" lon="4.40839">
        <ele>534</ele>
        <time>2013-08-19T08:59:28Z</time>
      </trkpt>
      <trkpt lat="46.20329" lon="4.40838">
        <ele>534</ele>
        <time>2013-08-19T08:59:29Z</time>
      </trkpt>
      <trkpt lat="46.20329" lon="4.40834">
        <ele>534</ele>
        <time>2013-08-19T08:59:31Z</time>
      </trkpt>
      <trkpt lat="46.20327" lon="4.40832">
        <ele>533</ele>
        <time>2013-08-19T08:59:35Z</time>
      </trkpt>
      <trkpt lat="46.2033" lon="4.40826">
        <ele>533</ele>
        <time>2013-08-19T08:59:52Z</time>
      </trkpt>
      <trkpt lat="46.2033" lon="4.40818">
        <ele>532</ele>
        <time>2013-08-19T08:59:57Z</time>
      </trkpt>
      <trkpt lat="46.2033" lon="4.40816">
        <ele>532</ele>
        <time>2013-08-19T08:59:58Z</time>
      </trkpt>
      <trkpt lat="46.2033" lon="4.40813">
        <ele>532</ele>
        <time>2013-08-19T09:00:00Z</time>
      </trkpt>
      <trkpt lat="46.2033" lon="4.40811">
        <ele>532</ele>
        <time>2013-08-19T09:00:02Z</time>
      </trkpt>
      <trkpt lat="46.2033" lon="4.40804">
        <ele>532</ele>
        <time>2013-08-19T09:00:07Z</time>
      </trkpt>
      <trkpt lat="46.20331" lon="4.40795">
        <ele>531</ele>
        <time>2013-08-19T09:00:14Z</time>
      </trkpt>
      <trkpt lat="46.20331" lon="4.40786">
        <ele>531</ele>
        <time>2013-08-19T09:00:19Z</time>
      </trkpt>
      <trkpt lat="46.20331" lon="4.40779">
        <ele>531</ele>
        <time>2013-08-19T09:00:23Z</time>
      </trkpt>
      <trkpt lat="46.2033" lon="4.40768">
        <ele>532</ele>
        <time>2013-08-19T09:00:30Z</time>
      </trkpt>
      <trkpt lat="46.2033" lon="4.40759">
        <ele>532</ele>
        <time>2013-08-19T09:00:36Z</time>
      </trkpt>
      <trkpt lat="46.2033" lon="4.40756">
        <ele>532</ele>
        <time>2013-08-19T09:00:38Z</time>
      </trkpt>
      <trkpt lat="46.20331" lon="4.40751">
        <ele>533</ele>
        <time>2013-08-19T09:00:42Z</time>
      </trkpt>
      <trkpt lat="46.20331" lon="4.40748">
        <ele>532</ele>
        <time>2013-08-19T09:00:46Z</time>
      </trkpt>
      <trkpt lat="46.2033" lon="4.40741">
        <ele>531</ele>
        <time>2013-08-19T09:00:53Z</time>
      </trkpt>
      <trkpt lat="46.2033" lon="4.40738">
        <ele>531</ele>
        <time>2013-08-19T09:01:00Z</time>
      </trkpt>
      <trkpt lat="46.2033" lon="4.40733">
        <ele>531</ele>
        <time>2013-08-19T09:01:06Z</time>
      </trkpt>
      <trkpt lat="46.2033" lon="4.40728">
        <ele>530</ele>
        <time>2013-08-19T09:01:09Z</time>
      </trkpt>
      <trkpt lat="46.20329" lon="4.40725">
        <ele>530</ele>
        <time>2013-08-19T09:01:14Z</time>
      </trkpt>
      <trkpt lat="46.20328" lon="4.40721">
        <ele>530</ele>
        <time>2013-08-19T09:01:18Z</time>
      </trkpt>
      <trkpt lat="46.20328" lon="4.40714">
        <ele>530</ele>
        <time>2013-08-19T09:01:22Z</time>
      </trkpt>
      <trkpt lat="46.20328" lon="4.40709">
        <ele>529</ele>
        <time>2013-08-19T09:01:25Z</time>
      </trkpt>
      <trkpt lat="46.20327" lon="4.407">
        <ele>530</ele>
        <time>2013-08-19T09:01:30Z</time>
      </trkpt>
      <trkpt lat="46.20329" lon="4.40687">
        <ele>530</ele>
        <time>2013-08-19T09:01:37Z</time>
      </trkpt>
      <trkpt lat="46.20329" lon="4.40683">
        <ele>530</ele>
        <time>2013-08-19T09:01:39Z</time>
      </trkpt>
      <trkpt lat="46.2033" lon="4.40674">
        <ele>531</ele>
        <time>2013-08-19T09:01:44Z</time>
      </trkpt>
      <trkpt lat="46.20332" lon="4.40657">
        <ele>531</ele>
        <time>2013-08-19T09:01:53Z</time>
      </trkpt>
      <trkpt lat="46.20332" lon="4.40656">
        <ele>531</ele>
        <time>2013-08-19T09:01:54Z</time>
      </trkpt>
      <trkpt lat="46.20334" lon="4.40644">
        <ele>531</ele>
        <time>2013-08-19T09:02:01Z</time>
      </trkpt>
      <trkpt lat="46.20337" lon="4.40629">
        <ele>530</ele>
        <time>2013-08-19T09:02:09Z</time>
      </trkpt>
      <trkpt lat="46.20339" lon="4.40622">
        <ele>530</ele>
        <time>2013-08-19T09:02:13Z</time>
      </trkpt>
      <trkpt lat="46.2034" lon="4.40618">
        <ele>530</ele>
        <time>2013-08-19T09:02:15Z</time>
      </trkpt>
      <trkpt lat="46.20343" lon="4.40606">
        <ele>530</ele>
        <time>2013-08-19T09:02:21Z</time>
      </trkpt>
      <trkpt lat="46.20344" lon="4.40604">
        <ele>530</ele>
        <time>2013-08-19T09:02:22Z</time>
      </trkpt>
      <trkpt lat="46.20346" lon="4.40592">
        <ele>530</ele>
        <time>2013-08-19T09:02:28Z</time>
      </trkpt>
      <trkpt lat="46.20347" lon="4.40582">
        <ele>528</ele>
        <time>2013-08-19T09:02:33Z</time>
      </trkpt>
      <trkpt lat="46.20347" lon="4.40578">
        <ele>528</ele>
        <time>2013-08-19T09:02:35Z</time>
      </trkpt>
      <trkpt lat="46.20347" lon="4.40572">
        <ele>527</ele>
        <time>2013-08-19T09:02:38Z</time>
      </trkpt>
      <trkpt lat="46.20346" lon="4.40559">
        <ele>526</ele>
        <time>2013-08-19T09:02:44Z</time>
      </trkpt>
      <trkpt lat="46.20345" lon="4.40551">
        <ele>526</ele>
        <time>2013-08-19T09:02:47Z</time>
      </trkpt>
      <trkpt lat="46.20346" lon="4.40543">
        <ele>526</ele>
        <time>2013-08-19T09:02:51Z</time>
      </trkpt>
      <trkpt lat="46.20351" lon="4.4053">
        <ele>526</ele>
        <time>2013-08-19T09:02:58Z</time>
      </trkpt>
      <trkpt lat="46.20352" lon="4.40526">
        <ele>526</ele>
        <time>2013-08-19T09:03:00Z</time>
      </trkpt>
      <trkpt lat="46.20354" lon="4.40519">
        <ele>526</ele>
        <time>2013-08-19T09:03:04Z</time>
      </trkpt>
      <trkpt lat="46.20355" lon="4.40516">
        <ele>526</ele>
        <time>2013-08-19T09:03:06Z</time>
      </trkpt>
      <trkpt lat="46.20357" lon="4.40513">
        <ele>525</ele>
        <time>2013-08-19T09:03:08Z</time>
      </trkpt>
      <trkpt lat="46.20359" lon="4.40512">
        <ele>525</ele>
        <time>2013-08-19T09:03:10Z</time>
      </trkpt>
      <trkpt lat="46.20362" lon="4.40503">
        <ele>525</ele>
        <time>2013-08-19T09:03:15Z</time>
      </trkpt>
      <trkpt lat="46.20363" lon="4.40501">
        <ele>525</ele>
        <time>2013-08-19T09:03:16Z</time>
      </trkpt>
      <trkpt lat="46.20366" lon="4.40492">
        <ele>522</ele>
        <time>2013-08-19T09:03:22Z</time>
      </trkpt>
      <trkpt lat="46.2037" lon="4.40478">
        <ele>521</ele>
        <time>2013-08-19T09:03:30Z</time>
      </trkpt>
      <trkpt lat="46.20371" lon="4.40475">
        <ele>521</ele>
        <time>2013-08-19T09:03:33Z</time>
      </trkpt>
      <trkpt lat="46.20372" lon="4.40471">
        <ele>521</ele>
        <time>2013-08-19T09:03:36Z</time>
      </trkpt>
      <trkpt lat="46.20374" lon="4.40466">
        <ele>520</ele>
        <time>2013-08-19T09:03:40Z</time>
      </trkpt>
      <trkpt lat="46.20376" lon="4.40462">
        <ele>520</ele>
        <time>2013-08-19T09:03:43Z</time>
      </trkpt>
      <trkpt lat="46.20382" lon="4.40456">
        <ele>519</ele>
        <time>2013-08-19T09:03:49Z</time>
      </trkpt>
      <trkpt lat="46.20383" lon="4.40455">
        <ele>519</ele>
        <time>2013-08-19T09:03:51Z</time>
      </trkpt>
      <trkpt lat="46.20385" lon="4.40451">
        <ele>519</ele>
        <time>2013-08-19T09:03:55Z</time>
      </trkpt>
      <trkpt lat="46.20386" lon="4.4045">
        <ele>519</ele>
        <time>2013-08-19T09:03:56Z</time>
      </trkpt>
      <trkpt lat="46.2039" lon="4.40444">
        <ele>518</ele>
        <time>2013-08-19T09:04:01Z</time>
      </trkpt>
      <trkpt lat="46.20394" lon="4.40438">
        <ele>517</ele>
        <time>2013-08-19T09:04:06Z</time>
      </trkpt>
      <trkpt lat="46.20396" lon="4.40432">
        <ele>517</ele>
        <time>2013-08-19T09:04:11Z</time>
      </trkpt>
      <trkpt lat="46.20398" lon="4.40425">
        <ele>516</ele>
        <time>2013-08-19T09:04:16Z</time>
      </trkpt>
      <trkpt lat="46.20402" lon="4.40415">
        <ele>515</ele>
        <time>2013-08-19T09:04:22Z</time>
      </trkpt>
      <trkpt lat="46.20406" lon="4.40406">
        <ele>514</ele>
        <time>2013-08-19T09:04:28Z</time>
      </trkpt>
      <trkpt lat="46.20409" lon="4.40398">
        <ele>515</ele>
        <time>2013-08-19T09:04:33Z</time>
      </trkpt>
      <trkpt lat="46.20409" lon="4.40391">
        <ele>516</ele>
        <time>2013-08-19T09:04:37Z</time>
      </trkpt>
      <trkpt lat="46.2041" lon="4.4039">
        <ele>516</ele>
        <time>2013-08-19T09:04:38Z</time>
      </trkpt>
      <trkpt lat="46.20412" lon="4.4038">
        <ele>516</ele>
        <time>2013-08-19T09:04:43Z</time>
      </trkpt>
      <trkpt lat="46.20413" lon="4.40373">
        <ele>517</ele>
        <time>2013-08-19T09:04:47Z</time>
      </trkpt>
      <trkpt lat="46.20413" lon="4.40372">
        <ele>517</ele>
        <time>2013-08-19T09:04:48Z</time>
      </trkpt>
      <trkpt lat="46.20415" lon="4.40367">
        <ele>517</ele>
        <time>2013-08-19T09:04:52Z</time>
      </trkpt>
      <trkpt lat="46.20415" lon="4.40366">
        <ele>517</ele>
        <time>2013-08-19T09:04:53Z</time>
      </trkpt>
      <trkpt lat="46.20416" lon="4.40363">
        <ele>517</ele>
        <time>2013-08-19T09:04:55Z</time>
      </trkpt>
      <trkpt lat="46.20418" lon="4.40352">
        <ele>514</ele>
        <time>2013-08-19T09:05:02Z</time>
      </trkpt>
      <trkpt lat="46.20422" lon="4.40344">
        <ele>515</ele>
        <time>2013-08-19T09:05:07Z</time>
      </trkpt>
      <trkpt lat="46.20423" lon="4.40342">
        <ele>515</ele>
        <time>2013-08-19T09:05:08Z</time>
      </trkpt>
      <trkpt lat="46.20424" lon="4.40339">
        <ele>515</ele>
        <time>2013-08-19T09:05:11Z</time>
      </trkpt>
      <trkpt lat="46.20424" lon="4.40334">
        <ele>515</ele>
        <time>2013-08-19T09:05:14Z</time>
      </trkpt>
      <trkpt lat="46.20423" lon="4.40323">
        <ele>514</ele>
        <time>2013-08-19T09:05:20Z</time>
      </trkpt>
      <trkpt lat="46.20422" lon="4.40321">
        <ele>514</ele>
        <time>2013-08-19T09:05:21Z</time>
      </trkpt>
      <trkpt lat="46.20421" lon="4.40319">
        <ele>514</ele>
        <time>2013-08-19T09:05:22Z</time>
      </trkpt>
      <trkpt lat="46.20417" lon="4.40304">
        <ele>512</ele>
        <time>2013-08-19T09:05:29Z</time>
      </trkpt>
      <trkpt lat="46.20411" lon="4.40297">
        <ele>512</ele>
        <time>2013-08-19T09:05:33Z</time>
      </trkpt>
      <trkpt lat="46.20409" lon="4.40295">
        <ele>512</ele>
        <time>2013-08-19T09:05:34Z</time>
      </trkpt>
      <trkpt lat="46.20408" lon="4.40294">
        <ele>512</ele>
        <time>2013-08-19T09:05:35Z</time>
      </trkpt>
      <trkpt lat="46.20399" lon="4.40288">
        <ele>512</ele>
        <time>2013-08-19T09:05:42Z</time>
      </trkpt>
      <trkpt lat="46.20394" lon="4.40288">
        <ele>512</ele>
        <time>2013-08-19T09:05:45Z</time>
      </trkpt>
      <trkpt lat="46.2039" lon="4.40287">
        <ele>511</ele>
        <time>2013-08-19T09:05:47Z</time>
      </trkpt>
      <trkpt lat="46.20388" lon="4.40286">
        <ele>511</ele>
        <time>2013-08-19T09:05:48Z</time>
      </trkpt>
      <trkpt lat="46.20378" lon="4.40285">
        <ele>511</ele>
        <time>2013-08-19T09:05:55Z</time>
      </trkpt>
      <trkpt lat="46.20376" lon="4.40284">
        <ele>511</ele>
        <time>2013-08-19T09:05:57Z</time>
      </trkpt>
      <trkpt lat="46.20373" lon="4.40283">
        <ele>511</ele>
        <time>2013-08-19T09:06:00Z</time>
      </trkpt>
      <trkpt lat="46.2037" lon="4.40278">
        <ele>511</ele>
        <time>2013-08-19T09:06:06Z</time>
      </trkpt>
      <trkpt lat="46.20365" lon="4.40277">
        <ele>511</ele>
        <time>2013-08-19T09:06:13Z</time>
      </trkpt>
      <trkpt lat="46.20371" lon="4.40283">
        <ele>511</ele>
        <time>2013-08-19T09:06:29Z</time>
      </trkpt>
      <trkpt lat="46.20366" lon="4.40284">
        <ele>511</ele>
        <time>2013-08-19T09:06:42Z</time>
      </trkpt>
      <trkpt lat="46.2037" lon="4.4028">
        <ele>511</ele>
        <time>2013-08-19T09:06:48Z</time>
      </trkpt>
      <trkpt lat="46.20371" lon="4.40279">
        <ele>511</ele>
        <time>2013-08-19T09:06:49Z</time>
      </trkpt>
      <trkpt lat="46.20372" lon="4.40277">
        <ele>511</ele>
        <time>2013-08-19T09:06:54Z</time>
      </trkpt>
      <trkpt lat="46.20371" lon="4.40277">
        <ele>511</ele>
        <time>2013-08-19T09:07:01Z</time>
      </trkpt>
      <trkpt lat="46.2037" lon="4.40276">
        <ele>511</ele>
        <time>2013-08-19T09:07:32Z</time>
      </trkpt>
      <trkpt lat="46.20371" lon="4.40276">
        <ele>511</ele>
        <time>2013-08-19T09:07:37Z</time>
      </trkpt>
      <trkpt lat="46.20365" lon="4.4027">
        <ele>510</ele>
        <time>2013-08-19T09:08:36Z</time>
      </trkpt>
      <trkpt lat="46.20363" lon="4.40273">
        <ele>510</ele>
        <time>2013-08-19T09:08:39Z</time>
      </trkpt>
      <trkpt lat="46.20363" lon="4.40273">
        <ele>510</ele>
        <time>2013-08-19T09:08:40Z</time>
      </trkpt>
      <trkpt lat="46.20362" lon="4.40276">
        <ele>510</ele>
        <time>2013-08-19T09:08:45Z</time>
      </trkpt>
      <trkpt lat="46.20359" lon="4.4028">
        <ele>511</ele>
        <time>2013-08-19T09:08:51Z</time>
      </trkpt>
      <trkpt lat="46.20357" lon="4.40281">
        <ele>511</ele>
        <time>2013-08-19T09:08:53Z</time>
      </trkpt>
      <trkpt lat="46.20357" lon="4.40284">
        <ele>511</ele>
        <time>2013-08-19T09:08:56Z</time>
      </trkpt>
      <trkpt lat="46.20356" lon="4.40284">
        <ele>511</ele>
        <time>2013-08-19T09:09:05Z</time>
      </trkpt>
      <trkpt lat="46.20354" lon="4.40285">
        <ele>511</ele>
        <time>2013-08-19T09:09:29Z</time>
      </trkpt>
      <trkpt lat="46.20354" lon="4.40283">
        <ele>511</ele>
        <time>2013-08-19T09:09:30Z</time>
      </trkpt>
      <trkpt lat="46.20354" lon="4.40282">
        <ele>511</ele>
        <time>2013-08-19T09:09:31Z</time>
      </trkpt>
      <trkpt lat="46.20351" lon="4.40275">
        <ele>510</ele>
        <time>2013-08-19T09:09:37Z</time>
      </trkpt>
      <trkpt lat="46.2035" lon="4.40269">
        <ele>509</ele>
        <time>2013-08-19T09:09:43Z</time>
      </trkpt>
      <trkpt lat="46.20348" lon="4.40265">
        <ele>509</ele>
        <time>2013-08-19T09:09:51Z</time>
      </trkpt>
      <trkpt lat="46.20346" lon="4.40263">
        <ele>508</ele>
        <time>2013-08-19T09:09:56Z</time>
      </trkpt>
      <trkpt lat="46.20345" lon="4.40263">
        <ele>508</ele>
        <time>2013-08-19T09:09:57Z</time>
      </trkpt>
      <trkpt lat="46.20341" lon="4.40268">
        <ele>509</ele>
        <time>2013-08-19T09:10:06Z</time>
      </trkpt>
      <trkpt lat="46.20332" lon="4.40279">
        <ele>508</ele>
        <time>2013-08-19T09:10:14Z</time>
      </trkpt>
      <trkpt lat="46.20321" lon="4.40293">
        <ele>509</ele>
        <time>2013-08-19T09:10:24Z</time>
      </trkpt>
      <trkpt lat="46.20318" lon="4.40296">
        <ele>509</ele>
        <time>2013-08-19T09:10:26Z</time>
      </trkpt>
      <trkpt lat="46.20309" lon="4.40306">
        <ele>510</ele>
        <time>2013-08-19T09:10:33Z</time>
      </trkpt>
      <trkpt lat="46.20304" lon="4.40311">
        <ele>510</ele>
        <time>2013-08-19T09:10:37Z</time>
      </trkpt>
      <trkpt lat="46.20296" lon="4.4032">
        <ele>510</ele>
        <time>2013-08-19T09:10:43Z</time>
      </trkpt>
      <trkpt lat="46.20292" lon="4.40326">
        <ele>510</ele>
        <time>2013-08-19T09:10:48Z</time>
      </trkpt>
      <trkpt lat="46.20293" lon="4.40327">
        <ele>510</ele>
        <time>2013-08-19T09:10:50Z</time>
      </trkpt>
      <trkpt lat="46.20293" lon="4.40322">
        <ele>510</ele>
        <time>2013-08-19T09:10:57Z</time>
      </trkpt>
      <trkpt lat="46.20294" lon="4.40321">
        <ele>510</ele>
        <time>2013-08-19T09:10:58Z</time>
      </trkpt>
      <trkpt lat="46.20297" lon="4.40319">
        <ele>510</ele>
        <time>2013-08-19T09:11:03Z</time>
      </trkpt>
      <trkpt lat="46.20301" lon="4.40316">
        <ele>510</ele>
        <time>2013-08-19T09:11:08Z</time>
      </trkpt>
      <trkpt lat="46.20305" lon="4.40314">
        <ele>511</ele>
        <time>2013-08-19T09:11:12Z</time>
      </trkpt>
      <trkpt lat="46.20309" lon="4.40309">
        <ele>510</ele>
        <time>2013-08-19T09:11:16Z</time>
      </trkpt>
      <trkpt lat="46.20314" lon="4.40302">
        <ele>510</ele>
        <time>2013-08-19T09:11:21Z</time>
      </trkpt>
      <trkpt lat="46.20322" lon="4.40293">
        <ele>509</ele>
        <time>2013-08-19T09:11:29Z</time>
      </trkpt>
      <trkpt lat="46.20323" lon="4.40292">
        <ele>509</ele>
        <time>2013-08-19T09:11:30Z</time>
      </trkpt>
      <trkpt lat="46.20332" lon="4.40281">
        <ele>508</ele>
        <time>2013-08-19T09:11:39Z</time>
      </trkpt>
      <trkpt lat="46.20338" lon="4.40275">
        <ele>509</ele>
        <time>2013-08-19T09:11:45Z</time>
      </trkpt>
      <trkpt lat="46.20341" lon="4.40272">
        <ele>509</ele>
        <time>2013-08-19T09:11:48Z</time>
      </trkpt>
      <trkpt lat="46.20347" lon="4.40261">
        <ele>508</ele>
        <time>2013-08-19T09:11:55Z</time>
      </trkpt>
      <trkpt lat="46.20348" lon="4.4026">
        <ele>508</ele>
        <time>2013-08-19T09:11:56Z</time>
      </trkpt>
      <trkpt lat="46.20351" lon="4.40256">
        <ele>508</ele>
        <time>2013-08-19T09:11:59Z</time>
      </trkpt>
      <trkpt lat="46.20353" lon="4.40255">
        <ele>508</ele>
        <time>2013-08-19T09:12:00Z</time>
      </trkpt>
      <trkpt lat="46.20359" lon="4.40247">
        <ele>501</ele>
        <time>2013-08-19T09:12:06Z</time>
      </trkpt>
      <trkpt lat="46.20365" lon="4.4024">
        <ele>500</ele>
        <time>2013-08-19T09:12:12Z</time>
      </trkpt>
      <trkpt lat="46.20367" lon="4.40239">
        <ele>500</ele>
        <time>2013-08-19T09:12:13Z</time>
      </trkpt>
      <trkpt lat="46.20374" lon="4.40226">
        <ele>499</ele>
        <time>2013-08-19T09:12:20Z</time>
      </trkpt>
      <trkpt lat="46.20375" lon="4.40224">
        <ele>499</ele>
        <time>2013-08-19T09:12:21Z</time>
      </trkpt>
      <trkpt lat="46.2038" lon="4.40217">
        <ele>499</ele>
        <time>2013-08-19T09:12:25Z</time>
      </trkpt>
      <trkpt lat="46.20382" lon="4.40214">
        <ele>498</ele>
        <time>2013-08-19T09:12:27Z</time>
      </trkpt>
      <trkpt lat="46.20384" lon="4.40209">
        <ele>498</ele>
        <time>2013-08-19T09:12:30Z</time>
      </trkpt>
      <trkpt lat="46.20387" lon="4.40206">
        <ele>498</ele>
        <time>2013-08-19T09:12:32Z</time>
      </trkpt>
      <trkpt lat="46.20394" lon="4.40204">
        <ele>497</ele>
        <time>2013-08-19T09:12:37Z</time>
      </trkpt>
      <trkpt lat="46.20396" lon="4.40204">
        <ele>497</ele>
        <time>2013-08-19T09:12:38Z</time>
      </trkpt>
      <trkpt lat="46.20404" lon="4.40205">
        <ele>498</ele>
        <time>2013-08-19T09:12:43Z</time>
      </trkpt>
      <trkpt lat="46.20406" lon="4.40205">
        <ele>498</ele>
        <time>2013-08-19T09:12:44Z</time>
      </trkpt>
      <trkpt lat="46.20414" lon="4.40206">
        <ele>498</ele>
        <time>2013-08-19T09:12:50Z</time>
      </trkpt>
      <trkpt lat="46.20415" lon="4.40206">
        <ele>498</ele>
        <time>2013-08-19T09:12:51Z</time>
      </trkpt>
      <trkpt lat="46.20418" lon="4.40207">
        <ele>501</ele>
        <time>2013-08-19T09:12:57Z</time>
      </trkpt>
      <trkpt lat="46.20416" lon="4.40204">
        <ele>498</ele>
        <time>2013-08-19T09:13:02Z</time>
      </trkpt>
      <trkpt lat="46.20414" lon="4.40206">
        <ele>498</ele>
        <time>2013-08-19T09:13:08Z</time>
      </trkpt>
      <trkpt lat="46.20413" lon="4.40205">
        <ele>498</ele>
        <time>2013-08-19T09:13:14Z</time>
      </trkpt>
      <trkpt lat="46.20412" lon="4.40208">
        <ele>498</ele>
        <time>2013-08-19T09:13:21Z</time>
      </trkpt>
      <trkpt lat="46.20413" lon="4.40208">
        <ele>498</ele>
        <time>2013-08-19T09:13:22Z</time>
      </trkpt>
      <trkpt lat="46.20413" lon="4.40206">
        <ele>498</ele>
        <time>2013-08-19T09:13:23Z</time>
      </trkpt>
      <trkpt lat="46.20415" lon="4.40205">
        <ele>498</ele>
        <time>2013-08-19T09:13:25Z</time>
      </trkpt>
      <trkpt lat="46.20421" lon="4.40204">
        <ele>501</ele>
        <time>2013-08-19T09:13:33Z</time>
      </trkpt>
      <trkpt lat="46.20423" lon="4.40201">
        <ele>501</ele>
        <time>2013-08-19T09:13:43Z</time>
      </trkpt>
      <trkpt lat="46.20423" lon="4.40192">
        <ele>499</ele>
        <time>2013-08-19T09:13:59Z</time>
      </trkpt>
      <trkpt lat="46.20423" lon="4.40191">
        <ele>499</ele>
        <time>2013-08-19T09:14:00Z</time>
      </trkpt>
      <trkpt lat="46.20421" lon="4.40184">
        <ele>497</ele>
        <time>2013-08-19T09:14:07Z</time>
      </trkpt>
      <trkpt lat="46.20419" lon="4.40176">
        <ele>495</ele>
        <time>2013-08-19T09:14:13Z</time>
      </trkpt>
      <trkpt lat="46.20418" lon="4.40174">
        <ele>494</ele>
        <time>2013-08-19T09:14:14Z</time>
      </trkpt>
      <trkpt lat="46.20416" lon="4.40171">
        <ele>492</ele>
        <time>2013-08-19T09:14:17Z</time>
      </trkpt>
      <trkpt lat="46.20413" lon="4.40163">
        <ele>490</ele>
        <time>2013-08-19T09:14:22Z</time>
      </trkpt>
      <trkpt lat="46.20408" lon="4.4015">
        <ele>489</ele>
        <time>2013-08-19T09:14:30Z</time>
      </trkpt>
      <trkpt lat="46.20407" lon="4.40147">
        <ele>489</ele>
        <time>2013-08-19T09:14:32Z</time>
      </trkpt>
      <trkpt lat="46.20402" lon="4.40138">
        <ele>488</ele>
        <time>2013-08-19T09:14:37Z</time>
      </trkpt>
      <trkpt lat="46.20401" lon="4.40131">
        <ele>488</ele>
        <time>2013-08-19T09:14:43Z</time>
      </trkpt>
      <trkpt lat="46.20402" lon="4.40129">
        <ele>488</ele>
        <time>2013-08-19T09:14:45Z</time>
      </trkpt>
      <trkpt lat="46.20401" lon="4.40128">
        <ele>488</ele>
        <time>2013-08-19T09:14:47Z</time>
      </trkpt>
      <trkpt lat="46.20404" lon="4.40121">
        <ele>487</ele>
        <time>2013-08-19T09:14:53Z</time>
      </trkpt>
      <trkpt lat="46.20405" lon="4.40119">
        <ele>487</ele>
        <time>2013-08-19T09:14:55Z</time>
      </trkpt>
      <trkpt lat="46.20412" lon="4.40106">
        <ele>486</ele>
        <time>2013-08-19T09:15:05Z</time>
      </trkpt>
      <trkpt lat="46.20414" lon="4.40101">
        <ele>485</ele>
        <time>2013-08-19T09:15:08Z</time>
      </trkpt>
      <trkpt lat="46.20415" lon="4.40099">
        <ele>484</ele>
        <time>2013-08-19T09:15:10Z</time>
      </trkpt>
      <trkpt lat="46.20417" lon="4.40096">
        <ele>485</ele>
        <time>2013-08-19T09:15:12Z</time>
      </trkpt>
      <trkpt lat="46.20421" lon="4.4009">
        <ele>484</ele>
        <time>2013-08-19T09:15:17Z</time>
      </trkpt>
      <trkpt lat="46.20422" lon="4.40087">
        <ele>483</ele>
        <time>2013-08-19T09:15:19Z</time>
      </trkpt>
      <trkpt lat="46.20423" lon="4.4008">
        <ele>482</ele>
        <time>2013-08-19T09:15:23Z</time>
      </trkpt>
      <trkpt lat="46.20423" lon="4.4008">
        <ele>482</ele>
        <time>2013-08-19T09:15:24Z</time>
      </trkpt>
      <trkpt lat="46.20423" lon="4.40078">
        <ele>482</ele>
        <time>2013-08-19T09:15:25Z</time>
      </trkpt>
      <trkpt lat="46.20424" lon="4.40076">
        <ele>483</ele>
        <time>2013-08-19T09:15:26Z</time>
      </trkpt>
      <trkpt lat="46.20423" lon="4.40067">
        <ele>483</ele>
        <time>2013-08-19T09:15:30Z</time>
      </trkpt>
      <trkpt lat="46.20424" lon="4.40064">
        <ele>484</ele>
        <time>2013-08-19T09:15:32Z</time>
      </trkpt>
      <trkpt lat="46.20424" lon="4.40056">
        <ele>484</ele>
        <time>2013-08-19T09:15:38Z</time>
      </trkpt>
      <trkpt lat="46.20425" lon="4.40053">
        <ele>484</ele>
        <time>2013-08-19T09:15:39Z</time>
      </trkpt>
      <trkpt lat="46.20426" lon="4.40048">
        <ele>485</ele>
        <time>2013-08-19T09:15:40Z</time>
      </trkpt>
      <trkpt lat="46.20426" lon="4.40044">
        <ele>485</ele>
        <time>2013-08-19T09:15:43Z</time>
      </trkpt>
      <trkpt lat="46.20425" lon="4.40039">
        <ele>485</ele>
        <time>2013-08-19T09:15:44Z</time>
      </trkpt>
      <trkpt lat="46.20425" lon="4.40036">
        <ele>485</ele>
        <time>2013-08-19T09:15:47Z</time>
      </trkpt>
      <trkpt lat="46.20427" lon="4.40026">
        <ele>486</ele>
        <time>2013-08-19T09:15:52Z</time>
      </trkpt>
      <trkpt lat="46.20427" lon="4.40026">
        <ele>486</ele>
        <time>2013-08-19T09:15:53Z</time>
      </trkpt>
      <trkpt lat="46.2043" lon="4.40017">
        <ele>486</ele>
        <time>2013-08-19T09:15:58Z</time>
      </trkpt>
      <trkpt lat="46.20435" lon="4.40004">
        <ele>487</ele>
        <time>2013-08-19T09:16:05Z</time>
      </trkpt>
      <trkpt lat="46.20437" lon="4.4">
        <ele>487</ele>
        <time>2013-08-19T09:16:07Z</time>
      </trkpt>
      <trkpt lat="46.20441" lon="4.39991">
        <ele>487</ele>
        <time>2013-08-19T09:16:13Z</time>
      </trkpt>
      <trkpt lat="46.20446" lon="4.3998">
        <ele>486</ele>
        <time>2013-08-19T09:16:21Z</time>
      </trkpt>
      <trkpt lat="46.20446" lon="4.39976">
        <ele>486</ele>
        <time>2013-08-19T09:16:22Z</time>
      </trkpt>
      <trkpt lat="46.20446" lon="4.39972">
        <ele>486</ele>
        <time>2013-08-19T09:16:26Z</time>
      </trkpt>
      <trkpt lat="46.20447" lon="4.39968">
        <ele>486</ele>
        <time>2013-08-19T09:16:27Z</time>
      </trkpt>
      <trkpt lat="46.20451" lon="4.3996">
        <ele>486</ele>
        <time>2013-08-19T09:16:31Z</time>
      </trkpt>
      <trkpt lat="46.20455" lon="4.39953">
        <ele>486</ele>
        <time>2013-08-19T09:16:37Z</time>
      </trkpt>
      <trkpt lat="46.20457" lon="4.39948">
        <ele>486</ele>
        <time>2013-08-19T09:16:41Z</time>
      </trkpt>
      <trkpt lat="46.20463" lon="4.39941">
        <ele>485</ele>
        <time>2013-08-19T09:16:48Z</time>
      </trkpt>
      <trkpt lat="46.20467" lon="4.39934">
        <ele>485</ele>
        <time>2013-08-19T09:16:54Z</time>
      </trkpt>
      <trkpt lat="46.20468" lon="4.39932">
        <ele>485</ele>
        <time>2013-08-19T09:16:55Z</time>
      </trkpt>
      <trkpt lat="46.20469" lon="4.39926">
        <ele>484</ele>
        <time>2013-08-19T09:16:58Z</time>
      </trkpt>
      <trkpt lat="46.20471" lon="4.39922">
        <ele>484</ele>
        <time>2013-08-19T09:17:01Z</time>
      </trkpt>
      <trkpt lat="46.20471" lon="4.39922">
        <ele>484</ele>
        <time>2013-08-19T09:17:02Z</time>
      </trkpt>
      <trkpt lat="46.20475" lon="4.39914">
        <ele>484</ele>
        <time>2013-08-19T09:17:08Z</time>
      </trkpt>
      <trkpt lat="46.20477" lon="4.39912">
        <ele>483</ele>
        <time>2013-08-19T09:17:10Z</time>
      </trkpt>
      <trkpt lat="46.20481" lon="4.39904">
        <ele>483</ele>
        <time>2013-08-19T09:17:16Z</time>
      </trkpt>
      <trkpt lat="46.20483" lon="4.39898">
        <ele>483</ele>
        <time>2013-08-19T09:17:22Z</time>
      </trkpt>
      <trkpt lat="46.20483" lon="4.39897">
        <ele>483</ele>
        <time>2013-08-19T09:17:23Z</time>
      </trkpt>
      <trkpt lat="46.20484" lon="4.39895">
        <ele>484</ele>
        <time>2013-08-19T09:17:26Z</time>
      </trkpt>
      <trkpt lat="46.20486" lon="4.3989">
        <ele>484</ele>
        <time>2013-08-19T09:17:29Z</time>
      </trkpt>
      <trkpt lat="46.20486" lon="4.39889">
        <ele>484</ele>
        <time>2013-08-19T09:17:30Z</time>
      </trkpt>
      <trkpt lat="46.20487" lon="4.39888">
        <ele>484</ele>
        <time>2013-08-19T09:17:31Z</time>
      </trkpt>
      <trkpt lat="46.2049" lon="4.39878">
        <ele>484</ele>
        <time>2013-08-19T09:17:38Z</time>
      </trkpt>
      <trkpt lat="46.2049" lon="4.39876">
        <ele>484</ele>
        <time>2013-08-19T09:17:46Z</time>
      </trkpt>
      <trkpt lat="46.20491" lon="4.39871">
        <ele>484</ele>
        <time>2013-08-19T09:17:51Z</time>
      </trkpt>
      <trkpt lat="46.20492" lon="4.39867">
        <ele>484</ele>
        <time>2013-08-19T09:17:53Z</time>
      </trkpt>
      <trkpt lat="46.20493" lon="4.39866">
        <ele>484</ele>
        <time>2013-08-19T09:17:54Z</time>
      </trkpt>
      <trkpt lat="46.20495" lon="4.39861">
        <ele>483</ele>
        <time>2013-08-19T09:17:57Z</time>
      </trkpt>
      <trkpt lat="46.20499" lon="4.39849">
        <ele>481</ele>
        <time>2013-08-19T09:18:04Z</time>
      </trkpt>
      <trkpt lat="46.20501" lon="4.39844">
        <ele>477</ele>
        <time>2013-08-19T09:18:10Z</time>
      </trkpt>
      <trkpt lat="46.20502" lon="4.39842">
        <ele>477</ele>
        <time>2013-08-19T09:18:13Z</time>
      </trkpt>
      <trkpt lat="46.20501" lon="4.39839">
        <ele>477</ele>
        <time>2013-08-19T09:18:18Z</time>
      </trkpt>
      <trkpt lat="46.20501" lon="4.39835">
        <ele>477</ele>
        <time>2013-08-19T09:18:28Z</time>
      </trkpt>
      <trkpt lat="46.20502" lon="4.39829">
        <ele>477</ele>
        <time>2013-08-19T09:18:37Z</time>
      </trkpt>
      <trkpt lat="46.20506" lon="4.39823">
        <ele>476</ele>
        <time>2013-08-19T09:18:42Z</time>
      </trkpt>
      <trkpt lat="46.20507" lon="4.39822">
        <ele>476</ele>
        <time>2013-08-19T09:18:44Z</time>
      </trkpt>
      <trkpt lat="46.20507" lon="4.3982">
        <ele>476</ele>
        <time>2013-08-19T09:18:45Z</time>
      </trkpt>
      <trkpt lat="46.20511" lon="4.39813">
        <ele>476</ele>
        <time>2013-08-19T09:18:49Z</time>
      </trkpt>
      <trkpt lat="46.20514" lon="4.39807">
        <ele>476</ele>
        <time>2013-08-19T09:18:54Z</time>
      </trkpt>
      <trkpt lat="46.20515" lon="4.39805">
        <ele>476</ele>
        <time>2013-08-19T09:18:55Z</time>
      </trkpt>
      <trkpt lat="46.20518" lon="4.39798">
        <ele>476</ele>
        <time>2013-08-19T09:19:02Z</time>
      </trkpt>
      <trkpt lat="46.20518" lon="4.39794">
        <ele>476</ele>
        <time>2013-08-19T09:19:04Z</time>
      </trkpt>
      <trkpt lat="46.20519" lon="4.39792">
        <ele>476</ele>
        <time>2013-08-19T09:19:07Z</time>
      </trkpt>
      <trkpt lat="46.20519" lon="4.3979">
        <ele>476</ele>
        <time>2013-08-19T09:19:09Z</time>
      </trkpt>
      <trkpt lat="46.20521" lon="4.39787">
        <ele>476</ele>
        <time>2013-08-19T09:19:12Z</time>
      </trkpt>
      <trkpt lat="46.20523" lon="4.39783">
        <ele>476</ele>
        <time>2013-08-19T09:19:17Z</time>
      </trkpt>
      <trkpt lat="46.20524" lon="4.39777">
        <ele>476</ele>
        <time>2013-08-19T09:19:20Z</time>
      </trkpt>
      <trkpt lat="46.20524" lon="4.39773">
        <ele>476</ele>
        <time>2013-08-19T09:19:22Z</time>
      </trkpt>
      <trkpt lat="46.20527" lon="4.39766">
        <ele>476</ele>
        <time>2013-08-19T09:19:27Z</time>
      </trkpt>
      <trkpt lat="46.20529" lon="4.3976">
        <ele>476</ele>
        <time>2013-08-19T09:19:31Z</time>
      </trkpt>
      <trkpt lat="46.2053" lon="4.39758">
        <ele>476</ele>
        <time>2013-08-19T09:19:33Z</time>
      </trkpt>
      <trkpt lat="46.20533" lon="4.3975">
        <ele>476</ele>
        <time>2013-08-19T09:19:37Z</time>
      </trkpt>
      <trkpt lat="46.20533" lon="4.39749">
        <ele>478</ele>
        <time>2013-08-19T09:19:38Z</time>
      </trkpt>
      <trkpt lat="46.20534" lon="4.39743">
        <ele>478</ele>
        <time>2013-08-19T09:19:40Z</time>
      </trkpt>
      <trkpt lat="46.20535" lon="4.39741">
        <ele>478</ele>
        <time>2013-08-19T09:19:42Z</time>
      </trkpt>
      <trkpt lat="46.2054" lon="4.39731">
        <ele>477</ele>
        <time>2013-08-19T09:19:46Z</time>
      </trkpt>
      <trkpt lat="46.2054" lon="4.39731">
        <ele>477</ele>
        <time>2013-08-19T09:19:47Z</time>
      </trkpt>
      <trkpt lat="46.20542" lon="4.39724">
        <ele>477</ele>
        <time>2013-08-19T09:19:50Z</time>
      </trkpt>
      <trkpt lat="46.20544" lon="4.39721">
        <ele>477</ele>
        <time>2013-08-19T09:19:52Z</time>
      </trkpt>
      <trkpt lat="46.20545" lon="4.39719">
        <ele>477</ele>
        <time>2013-08-19T09:19:53Z</time>
      </trkpt>
      <trkpt lat="46.20546" lon="4.39717">
        <ele>477</ele>
        <time>2013-08-19T09:19:55Z</time>
      </trkpt>
      <trkpt lat="46.20549" lon="4.39715">
        <ele>477</ele>
        <time>2013-08-19T09:19:58Z</time>
      </trkpt>
      <trkpt lat="46.20552" lon="4.39709">
        <ele>477</ele>
        <time>2013-08-19T09:20:08Z</time>
      </trkpt>
      <trkpt lat="46.20556" lon="4.39703">
        <ele>477</ele>
        <time>2013-08-19T09:20:10Z</time>
      </trkpt>
      <trkpt lat="46.20557" lon="4.39699">
        <ele>477</ele>
        <time>2013-08-19T09:20:13Z</time>
      </trkpt>
      <trkpt lat="46.20558" lon="4.39696">
        <ele>477</ele>
        <time>2013-08-19T09:20:14Z</time>
      </trkpt>
      <trkpt lat="46.20563" lon="4.39686">
        <ele>476</ele>
        <time>2013-08-19T09:20:21Z</time>
      </trkpt>
      <trkpt lat="46.20565" lon="4.3968">
        <ele>476</ele>
        <time>2013-08-19T09:20:23Z</time>
      </trkpt>
      <trkpt lat="46.20567" lon="4.39672">
        <ele>476</ele>
        <time>2013-08-19T09:20:27Z</time>
      </trkpt>
      <trkpt lat="46.20573" lon="4.39663">
        <ele>478</ele>
        <time>2013-08-19T09:20:33Z</time>
      </trkpt>
      <trkpt lat="46.20575" lon="4.39658">
        <ele>478</ele>
        <time>2013-08-19T09:20:36Z</time>
      </trkpt>
      <trkpt lat="46.20577" lon="4.39652">
        <ele>479</ele>
        <time>2013-08-19T09:20:39Z</time>
      </trkpt>
      <trkpt lat="46.20579" lon="4.39647">
        <ele>480</ele>
        <time>2013-08-19T09:20:43Z</time>
      </trkpt>
      <trkpt lat="46.20579" lon="4.39645">
        <ele>480</ele>
        <time>2013-08-19T09:20:44Z</time>
      </trkpt>
      <trkpt lat="46.20581" lon="4.39644">
        <ele>481</ele>
        <time>2013-08-19T09:20:45Z</time>
      </trkpt>
      <trkpt lat="46.20584" lon="4.39639">
        <ele>474</ele>
        <time>2013-08-19T09:20:49Z</time>
      </trkpt>
      <trkpt lat="46.20584" lon="4.39639">
        <ele>474</ele>
        <time>2013-08-19T09:20:50Z</time>
      </trkpt>
      <trkpt lat="46.20586" lon="4.39635">
        <ele>474</ele>
        <time>2013-08-19T09:20:52Z</time>
      </trkpt>
      <trkpt lat="46.20589" lon="4.39631">
        <ele>474</ele>
        <time>2013-08-19T09:20:56Z</time>
      </trkpt>
      <trkpt lat="46.20592" lon="4.39619">
        <ele>475</ele>
        <time>2013-08-19T09:21:03Z</time>
      </trkpt>
      <trkpt lat="46.20593" lon="4.39617">
        <ele>475</ele>
        <time>2013-08-19T09:21:04Z</time>
      </trkpt>
      <trkpt lat="46.20593" lon="4.39615">
        <ele>475</ele>
        <time>2013-08-19T09:21:06Z</time>
      </trkpt>
      <trkpt lat="46.20595" lon="4.39612">
        <ele>476</ele>
        <time>2013-08-19T09:21:08Z</time>
      </trkpt>
      <trkpt lat="46.20596" lon="4.39611">
        <ele>476</ele>
        <time>2013-08-19T09:21:09Z</time>
      </trkpt>
      <trkpt lat="46.20599" lon="4.39605">
        <ele>476</ele>
        <time>2013-08-19T09:21:13Z</time>
      </trkpt>
      <trkpt lat="46.20604" lon="4.39598">
        <ele>476</ele>
        <time>2013-08-19T09:21:18Z</time>
      </trkpt>
      <trkpt lat="46.20606" lon="4.39593">
        <ele>476</ele>
        <time>2013-08-19T09:21:22Z</time>
      </trkpt>
      <trkpt lat="46.20606" lon="4.3959">
        <ele>476</ele>
        <time>2013-08-19T09:21:24Z</time>
      </trkpt>
      <trkpt lat="46.20606" lon="4.39587">
        <ele>477</ele>
        <time>2013-08-19T09:21:26Z</time>
      </trkpt>
      <trkpt lat="46.20606" lon="4.39578">
        <ele>481</ele>
        <time>2013-08-19T09:21:30Z</time>
      </trkpt>
      <trkpt lat="46.2061" lon="4.39572">
        <ele>481</ele>
        <time>2013-08-19T09:21:35Z</time>
      </trkpt>
      <trkpt lat="46.20611" lon="4.39569">
        <ele>481</ele>
        <time>2013-08-19T09:21:38Z</time>
      </trkpt>
      <trkpt lat="46.20611" lon="4.39558">
        <ele>481</ele>
        <time>2013-08-19T09:21:44Z</time>
      </trkpt>
      <trkpt lat="46.20611" lon="4.39557">
        <ele>481</ele>
        <time>2013-08-19T09:21:45Z</time>
      </trkpt>
      <trkpt lat="46.20611" lon="4.39549">
        <ele>481</ele>
        <time>2013-08-19T09:21:50Z</time>
      </trkpt>
      <trkpt lat="46.2061" lon="4.39543">
        <ele>482</ele>
        <time>2013-08-19T09:21:52Z</time>
      </trkpt>
      <trkpt lat="46.20612" lon="4.39536">
        <ele>482</ele>
        <time>2013-08-19T09:21:57Z</time>
      </trkpt>
      <trkpt lat="46.20613" lon="4.39534">
        <ele>482</ele>
        <time>2013-08-19T09:21:58Z</time>
      </trkpt>
      <trkpt lat="46.20614" lon="4.39531">
        <ele>482</ele>
        <time>2013-08-19T09:22:00Z</time>
      </trkpt>
      <trkpt lat="46.20615" lon="4.3953">
        <ele>483</ele>
        <time>2013-08-19T09:22:02Z</time>
      </trkpt>
      <trkpt lat="46.20617" lon="4.39526">
        <ele>483</ele>
        <time>2013-08-19T09:22:04Z</time>
      </trkpt>
      <trkpt lat="46.20619" lon="4.39523">
        <ele>482</ele>
        <time>2013-08-19T09:22:06Z</time>
      </trkpt>
      <trkpt lat="46.2062" lon="4.39521">
        <ele>482</ele>
        <time>2013-08-19T09:22:10Z</time>
      </trkpt>
      <trkpt lat="46.20624" lon="4.39518">
        <ele>482</ele>
        <time>2013-08-19T09:22:14Z</time>
      </trkpt>
      <trkpt lat="46.20625" lon="4.39512">
        <ele>482</ele>
        <time>2013-08-19T09:22:18Z</time>
      </trkpt>
      <trkpt lat="46.20625" lon="4.3951">
        <ele>482</ele>
        <time>2013-08-19T09:22:19Z</time>
      </trkpt>
      <trkpt lat="46.20625" lon="4.3951">
        <ele>482</ele>
        <time>2013-08-19T09:22:20Z</time>
      </trkpt>
      <trkpt lat="46.20625" lon="4.39507">
        <ele>482</ele>
        <time>2013-08-19T09:22:21Z</time>
      </trkpt>
      <trkpt lat="46.2063" lon="4.395">
        <ele>482</ele>
        <time>2013-08-19T09:22:26Z</time>
      </trkpt>
      <trkpt lat="46.20634" lon="4.39497">
        <ele>484</ele>
        <time>2013-08-19T09:22:29Z</time>
      </trkpt>
      <trkpt lat="46.20636" lon="4.39493">
        <ele>484</ele>
        <time>2013-08-19T09:22:32Z</time>
      </trkpt>
      <trkpt lat="46.20638" lon="4.39491">
        <ele>484</ele>
        <time>2013-08-19T09:22:34Z</time>
      </trkpt>
      <trkpt lat="46.20641" lon="4.39484">
        <ele>483</ele>
        <time>2013-08-19T09:22:38Z</time>
      </trkpt>
      <trkpt lat="46.20643" lon="4.39472">
        <ele>483</ele>
        <time>2013-08-19T09:22:45Z</time>
      </trkpt>
      <trkpt lat="46.20643" lon="4.39467">
        <ele>484</ele>
        <time>2013-08-19T09:22:49Z</time>
      </trkpt>
      <trkpt lat="46.20643" lon="4.39464">
        <ele>484</ele>
        <time>2013-08-19T09:22:50Z</time>
      </trkpt>
      <trkpt lat="46.20644" lon="4.39461">
        <ele>483</ele>
        <time>2013-08-19T09:22:52Z</time>
      </trkpt>
      <trkpt lat="46.20646" lon="4.39451">
        <ele>483</ele>
        <time>2013-08-19T09:23:00Z</time>
      </trkpt>
      <trkpt lat="46.20647" lon="4.39447">
        <ele>483</ele>
        <time>2013-08-19T09:23:03Z</time>
      </trkpt>
      <trkpt lat="46.20648" lon="4.39444">
        <ele>483</ele>
        <time>2013-08-19T09:23:05Z</time>
      </trkpt>
      <trkpt lat="46.20648" lon="4.39441">
        <ele>482</ele>
        <time>2013-08-19T09:23:07Z</time>
      </trkpt>
      <trkpt lat="46.20651" lon="4.39435">
        <ele>482</ele>
        <time>2013-08-19T09:23:13Z</time>
      </trkpt>
      <trkpt lat="46.2065" lon="4.39432">
        <ele>481</ele>
        <time>2013-08-19T09:23:15Z</time>
      </trkpt>
      <trkpt lat="46.2065" lon="4.3943">
        <ele>481</ele>
        <time>2013-08-19T09:23:16Z</time>
      </trkpt>
      <trkpt lat="46.2065" lon="4.39427">
        <ele>481</ele>
        <time>2013-08-19T09:23:18Z</time>
      </trkpt>
      <trkpt lat="46.2065" lon="4.39421">
        <ele>481</ele>
        <time>2013-08-19T09:23:23Z</time>
      </trkpt>
      <trkpt lat="46.20651" lon="4.3942">
        <ele>480</ele>
        <time>2013-08-19T09:23:25Z</time>
      </trkpt>
      <trkpt lat="46.2065" lon="4.39419">
        <ele>481</ele>
        <time>2013-08-19T09:23:28Z</time>
      </trkpt>
      <trkpt lat="46.20648" lon="4.39418">
        <ele>481</ele>
        <time>2013-08-19T09:23:29Z</time>
      </trkpt>
      <trkpt lat="46.20649" lon="4.39416">
        <ele>480</ele>
        <time>2013-08-19T09:23:31Z</time>
      </trkpt>
      <trkpt lat="46.20651" lon="4.39414">
        <ele>480</ele>
        <time>2013-08-19T09:23:33Z</time>
      </trkpt>
      <trkpt lat="46.20652" lon="4.39413">
        <ele>480</ele>
        <time>2013-08-19T09:23:34Z</time>
      </trkpt>
      <trkpt lat="46.20655" lon="4.39408">
        <ele>479</ele>
        <time>2013-08-19T09:23:38Z</time>
      </trkpt>
      <trkpt lat="46.20655" lon="4.39401">
        <ele>480</ele>
        <time>2013-08-19T09:23:42Z</time>
      </trkpt>
      <trkpt lat="46.20656" lon="4.39394">
        <ele>481</ele>
        <time>2013-08-19T09:23:48Z</time>
      </trkpt>
      <trkpt lat="46.20657" lon="4.39392">
        <ele>481</ele>
        <time>2013-08-19T09:23:50Z</time>
      </trkpt>
      <trkpt lat="46.20657" lon="4.39391">
        <ele>481</ele>
        <time>2013-08-19T09:23:51Z</time>
      </trkpt>
      <trkpt lat="46.20658" lon="4.39387">
        <ele>481</ele>
        <time>2013-08-19T09:23:56Z</time>
      </trkpt>
      <trkpt lat="46.2066" lon="4.39378">
        <ele>481</ele>
        <time>2013-08-19T09:24:10Z</time>
      </trkpt>
      <trkpt lat="46.20663" lon="4.3937">
        <ele>481</ele>
        <time>2013-08-19T09:24:17Z</time>
      </trkpt>
      <trkpt lat="46.20664" lon="4.39367">
        <ele>481</ele>
        <time>2013-08-19T09:24:19Z</time>
      </trkpt>
      <trkpt lat="46.20668" lon="4.39354">
        <ele>475</ele>
        <time>2013-08-19T09:24:29Z</time>
      </trkpt>
      <trkpt lat="46.20669" lon="4.39351">
        <ele>475</ele>
        <time>2013-08-19T09:24:32Z</time>
      </trkpt>
      <trkpt lat="46.2067" lon="4.39346">
        <ele>476</ele>
        <time>2013-08-19T09:24:36Z</time>
      </trkpt>
      <trkpt lat="46.20673" lon="4.39333">
        <ele>477</ele>
        <time>2013-08-19T09:24:45Z</time>
      </trkpt>
      <trkpt lat="46.20674" lon="4.39324">
        <ele>477</ele>
        <time>2013-08-19T09:24:52Z</time>
      </trkpt>
      <trkpt lat="46.20673" lon="4.39321">
        <ele>477</ele>
        <time>2013-08-19T09:24:54Z</time>
      </trkpt>
      <trkpt lat="46.20673" lon="4.39319">
        <ele>477</ele>
        <time>2013-08-19T09:24:55Z</time>
      </trkpt>
      <trkpt lat="46.20673" lon="4.39319">
        <ele>477</ele>
        <time>2013-08-19T09:24:56Z</time>
      </trkpt>
      <trkpt lat="46.20674" lon="4.39314">
        <ele>476</ele>
        <time>2013-08-19T09:24:59Z</time>
      </trkpt>
      <trkpt lat="46.20671" lon="4.39302">
        <ele>476</ele>
        <time>2013-08-19T09:25:06Z</time>
      </trkpt>
      <trkpt lat="46.20671" lon="4.39292">
        <ele>477</ele>
        <time>2013-08-19T09:25:12Z</time>
      </trkpt>
      <trkpt lat="46.2067" lon="4.39286">
        <ele>477</ele>
        <time>2013-08-19T09:25:16Z</time>
      </trkpt>
      <trkpt lat="46.20668" lon="4.39274">
        <ele>478</ele>
        <time>2013-08-19T09:25:23Z</time>
      </trkpt>
      <trkpt lat="46.20667" lon="4.39266">
        <ele>480</ele>
        <time>2013-08-19T09:25:29Z</time>
      </trkpt>
      <trkpt lat="46.20667" lon="4.39264">
        <ele>480</ele>
        <time>2013-08-19T09:25:30Z</time>
      </trkpt>
      <trkpt lat="46.20666" lon="4.39256">
        <ele>484</ele>
        <time>2013-08-19T09:25:35Z</time>
      </trkpt>
      <trkpt lat="46.20668" lon="4.39246">
        <ele>483</ele>
        <time>2013-08-19T09:25:42Z</time>
      </trkpt>
      <trkpt lat="46.20668" lon="4.39239">
        <ele>482</ele>
        <time>2013-08-19T09:25:47Z</time>
      </trkpt>
      <trkpt lat="46.20667" lon="4.39228">
        <ele>482</ele>
        <time>2013-08-19T09:25:54Z</time>
      </trkpt>
      <trkpt lat="46.20664" lon="4.39212">
        <ele>490</ele>
        <time>2013-08-19T09:26:04Z</time>
      </trkpt>
      <trkpt lat="46.20664" lon="4.39211">
        <ele>490</ele>
        <time>2013-08-19T09:26:05Z</time>
      </trkpt>
      <trkpt lat="46.20662" lon="4.39198">
        <ele>490</ele>
        <time>2013-08-19T09:26:13Z</time>
      </trkpt>
      <trkpt lat="46.20661" lon="4.39187">
        <ele>490</ele>
        <time>2013-08-19T09:26:19Z</time>
      </trkpt>
      <trkpt lat="46.20661" lon="4.39175">
        <ele>489</ele>
        <time>2013-08-19T09:26:26Z</time>
      </trkpt>
      <trkpt lat="46.20662" lon="4.39173">
        <ele>489</ele>
        <time>2013-08-19T09:26:27Z</time>
      </trkpt>
      <trkpt lat="46.20666" lon="4.39162">
        <ele>489</ele>
        <time>2013-08-19T09:26:34Z</time>
      </trkpt>
      <trkpt lat="46.20669" lon="4.39152">
        <ele>486</ele>
        <time>2013-08-19T09:26:41Z</time>
      </trkpt>
      <trkpt lat="46.20674" lon="4.39146">
        <ele>486</ele>
        <time>2013-08-19T09:26:48Z</time>
      </trkpt>
      <trkpt lat="46.20678" lon="4.39142">
        <ele>486</ele>
        <time>2013-08-19T09:26:52Z</time>
      </trkpt>
      <trkpt lat="46.20682" lon="4.39137">
        <ele>486</ele>
        <time>2013-08-19T09:26:57Z</time>
      </trkpt>
      <trkpt lat="46.20688" lon="4.39131">
        <ele>486</ele>
        <time>2013-08-19T09:27:05Z</time>
      </trkpt>
      <trkpt lat="46.20692" lon="4.39126">
        <ele>486</ele>
        <time>2013-08-19T09:27:09Z</time>
      </trkpt>
      <trkpt lat="46.20695" lon="4.39122">
        <ele>486</ele>
        <time>2013-08-19T09:27:12Z</time>
      </trkpt>
      <trkpt lat="46.20698" lon="4.39116">
        <ele>486</ele>
        <time>2013-08-19T09:27:17Z</time>
      </trkpt>
      <trkpt lat="46.20699" lon="4.39113">
        <ele>486</ele>
        <time>2013-08-19T09:27:19Z</time>
      </trkpt>
      <trkpt lat="46.20701" lon="4.39107">
        <ele>486</ele>
        <time>2013-08-19T09:27:23Z</time>
      </trkpt>
      <trkpt lat="46.20702" lon="4.39104">
        <ele>486</ele>
        <time>2013-08-19T09:27:26Z</time>
      </trkpt>
      <trkpt lat="46.20702" lon="4.39102">
        <ele>487</ele>
        <time>2013-08-19T09:27:27Z</time>
      </trkpt>
      <trkpt lat="46.20704" lon="4.39097">
        <ele>487</ele>
        <time>2013-08-19T09:27:31Z</time>
      </trkpt>
      <trkpt lat="46.20706" lon="4.39092">
        <ele>487</ele>
        <time>2013-08-19T09:27:34Z</time>
      </trkpt>
      <trkpt lat="46.20706" lon="4.39092">
        <ele>487</ele>
        <time>2013-08-19T09:27:35Z</time>
      </trkpt>
      <trkpt lat="46.20709" lon="4.3909">
        <ele>487</ele>
        <time>2013-08-19T09:27:39Z</time>
      </trkpt>
      <trkpt lat="46.20714" lon="4.3909">
        <ele>486</ele>
        <time>2013-08-19T09:27:44Z</time>
      </trkpt>
      <trkpt lat="46.20715" lon="4.3909">
        <ele>486</ele>
        <time>2013-08-19T09:27:45Z</time>
      </trkpt>
      <trkpt lat="46.20718" lon="4.39089">
        <ele>486</ele>
        <time>2013-08-19T09:27:50Z</time>
      </trkpt>
      <trkpt lat="46.20726" lon="4.39087">
        <ele>486</ele>
        <time>2013-08-19T09:27:57Z</time>
      </trkpt>
      <trkpt lat="46.20728" lon="4.39086">
        <ele>486</ele>
        <time>2013-08-19T09:27:59Z</time>
      </trkpt>
      <trkpt lat="46.20732" lon="4.39085">
        <ele>486</ele>
        <time>2013-08-19T09:28:04Z</time>
      </trkpt>
      <trkpt lat="46.20734" lon="4.39085">
        <ele>486</ele>
        <time>2013-08-19T09:28:05Z</time>
      </trkpt>
      <trkpt lat="46.2074" lon="4.39083">
        <ele>488</ele>
        <time>2013-08-19T09:28:10Z</time>
      </trkpt>
      <trkpt lat="46.20744" lon="4.39081">
        <ele>488</ele>
        <time>2013-08-19T09:28:14Z</time>
      </trkpt>
      <trkpt lat="46.20746" lon="4.39078">
        <ele>487</ele>
        <time>2013-08-19T09:28:17Z</time>
      </trkpt>
      <trkpt lat="46.20749" lon="4.39077">
        <ele>488</ele>
        <time>2013-08-19T09:28:19Z</time>
      </trkpt>
      <trkpt lat="46.20751" lon="4.39075">
        <ele>487</ele>
        <time>2013-08-19T09:28:21Z</time>
      </trkpt>
      <trkpt lat="46.20752" lon="4.39074">
        <ele>487</ele>
        <time>2013-08-19T09:28:23Z</time>
      </trkpt>
      <trkpt lat="46.20754" lon="4.39073">
        <ele>487</ele>
        <time>2013-08-19T09:28:25Z</time>
      </trkpt>
      <trkpt lat="46.20757" lon="4.39072">
        <ele>487</ele>
        <time>2013-08-19T09:28:27Z</time>
      </trkpt>
      <trkpt lat="46.20757" lon="4.39071">
        <ele>487</ele>
        <time>2013-08-19T09:28:28Z</time>
      </trkpt>
      <trkpt lat="46.20758" lon="4.39069">
        <ele>487</ele>
        <time>2013-08-19T09:28:30Z</time>
      </trkpt>
      <trkpt lat="46.20757" lon="4.39071">
        <ele>487</ele>
        <time>2013-08-19T09:29:53Z</time>
      </trkpt>
      <trkpt lat="46.20758" lon="4.3907">
        <ele>487</ele>
        <time>2013-08-19T09:30:04Z</time>
      </trkpt>
      <trkpt lat="46.20759" lon="4.39069">
        <ele>487</ele>
        <time>2013-08-19T09:30:06Z</time>
      </trkpt>
      <trkpt lat="46.20759" lon="4.39063">
        <ele>488</ele>
        <time>2013-08-19T09:30:18Z</time>
      </trkpt>
      <trkpt lat="46.20762" lon="4.39061">
        <ele>488</ele>
        <time>2013-08-19T09:30:39Z</time>
      </trkpt>
      <trkpt lat="46.20766" lon="4.39064">
        <ele>488</ele>
        <time>2013-08-19T09:30:48Z</time>
      </trkpt>
      <trkpt lat="46.20769" lon="4.39062">
        <ele>488</ele>
        <time>2013-08-19T09:30:53Z</time>
      </trkpt>
      <trkpt lat="46.20771" lon="4.39062">
        <ele>488</ele>
        <time>2013-08-19T09:30:55Z</time>
      </trkpt>
      <trkpt lat="46.20772" lon="4.39062">
        <ele>488</ele>
        <time>2013-08-19T09:31:02Z</time>
      </trkpt>
      <trkpt lat="46.20778" lon="4.39057">
        <ele>488</ele>
        <time>2013-08-19T09:31:10Z</time>
      </trkpt>
      <trkpt lat="46.20784" lon="4.39046">
        <ele>489</ele>
        <time>2013-08-19T09:31:17Z</time>
      </trkpt>
      <trkpt lat="46.20787" lon="4.39042">
        <ele>489</ele>
        <time>2013-08-19T09:31:21Z</time>
      </trkpt>
      <trkpt lat="46.20787" lon="4.3904">
        <ele>489</ele>
        <time>2013-08-19T09:31:23Z</time>
      </trkpt>
      <trkpt lat="46.20789" lon="4.39039">
        <ele>489</ele>
        <time>2013-08-19T09:31:29Z</time>
      </trkpt>
      <trkpt lat="46.20794" lon="4.39037">
        <ele>489</ele>
        <time>2013-08-19T09:31:35Z</time>
      </trkpt>
      <trkpt lat="46.20799" lon="4.39034">
        <ele>489</ele>
        <time>2013-08-19T09:31:40Z</time>
      </trkpt>
      <trkpt lat="46.20799" lon="4.39033">
        <ele>489</ele>
        <time>2013-08-19T09:31:41Z</time>
      </trkpt>
      <trkpt lat="46.208" lon="4.39033">
        <ele>489</ele>
        <time>2013-08-19T09:31:42Z</time>
      </trkpt>
      <trkpt lat="46.20803" lon="4.39031">
        <ele>489</ele>
        <time>2013-08-19T09:31:45Z</time>
      </trkpt>
      <trkpt lat="46.20807" lon="4.39028">
        <ele>489</ele>
        <time>2013-08-19T09:31:50Z</time>
      </trkpt>
      <trkpt lat="46.20808" lon="4.39028">
        <ele>489</ele>
        <time>2013-08-19T09:31:51Z</time>
      </trkpt>
      <trkpt lat="46.20815" lon="4.39022">
        <ele>489</ele>
        <time>2013-08-19T09:31:58Z</time>
      </trkpt>
      <trkpt lat="46.20816" lon="4.39021">
        <ele>489</ele>
        <time>2013-08-19T09:31:59Z</time>
      </trkpt>
      <trkpt lat="46.20824" lon="4.39015">
        <ele>490</ele>
        <time>2013-08-19T09:32:06Z</time>
      </trkpt>
      <trkpt lat="46.20829" lon="4.39011">
        <ele>490</ele>
        <time>2013-08-19T09:32:13Z</time>
      </trkpt>
      <trkpt lat="46.20833" lon="4.39008">
        <ele>490</ele>
        <time>2013-08-19T09:32:16Z</time>
      </trkpt>
      <trkpt lat="46.20837" lon="4.39004">
        <ele>489</ele>
        <time>2013-08-19T09:32:20Z</time>
      </trkpt>
      <trkpt lat="46.20842" lon="4.39002">
        <ele>489</ele>
        <time>2013-08-19T09:32:25Z</time>
      </trkpt>
      <trkpt lat="46.2085" lon="4.38997">
        <ele>490</ele>
        <time>2013-08-19T09:32:32Z</time>
      </trkpt>
      <trkpt lat="46.20858" lon="4.38991">
        <ele>489</ele>
        <time>2013-08-19T09:32:39Z</time>
      </trkpt>
      <trkpt lat="46.20865" lon="4.38985">
        <ele>489</ele>
        <time>2013-08-19T09:32:46Z</time>
      </trkpt>
      <trkpt lat="46.20866" lon="4.38985">
        <ele>489</ele>
        <time>2013-08-19T09:32:47Z</time>
      </trkpt>
      <trkpt lat="46.20867" lon="4.38984">
        <ele>489</ele>
        <time>2013-08-19T09:32:48Z</time>
      </trkpt>
      <trkpt lat="46.20871" lon="4.38981">
        <ele>488</ele>
        <time>2013-08-19T09:32:51Z</time>
      </trkpt>
      <trkpt lat="46.20877" lon="4.38975">
        <ele>488</ele>
        <time>2013-08-19T09:32:57Z</time>
      </trkpt>
      <trkpt lat="46.20879" lon="4.38968">
        <ele>488</ele>
        <time>2013-08-19T09:33:02Z</time>
      </trkpt>
      <trkpt lat="46.20879" lon="4.38967">
        <ele>488</ele>
        <time>2013-08-19T09:33:04Z</time>
      </trkpt>
      <trkpt lat="46.20879" lon="4.38967">
        <ele>488</ele>
        <time>2013-08-19T09:33:06Z</time>
      </trkpt>
      <trkpt lat="46.2088" lon="4.38964">
        <ele>488</ele>
        <time>2013-08-19T09:33:14Z</time>
      </trkpt>
      <trkpt lat="46.20885" lon="4.38965">
        <ele>488</ele>
        <time>2013-08-19T09:33:21Z</time>
      </trkpt>
      <trkpt lat="46.20889" lon="4.38968">
        <ele>487</ele>
        <time>2013-08-19T09:33:26Z</time>
      </trkpt>
      <trkpt lat="46.20896" lon="4.38969">
        <ele>487</ele>
        <time>2013-08-19T09:33:32Z</time>
      </trkpt>
      <trkpt lat="46.20897" lon="4.38969">
        <ele>487</ele>
        <time>2013-08-19T09:33:33Z</time>
      </trkpt>
      <trkpt lat="46.20905" lon="4.3897">
        <ele>486</ele>
        <time>2013-08-19T09:33:39Z</time>
      </trkpt>
      <trkpt lat="46.20906" lon="4.3897">
        <ele>486</ele>
        <time>2013-08-19T09:33:40Z</time>
      </trkpt>
      <trkpt lat="46.2091" lon="4.3897">
        <ele>486</ele>
        <time>2013-08-19T09:33:43Z</time>
      </trkpt>
      <trkpt lat="46.20911" lon="4.3897">
        <ele>486</ele>
        <time>2013-08-19T09:33:44Z</time>
      </trkpt>
      <trkpt lat="46.20915" lon="4.38969">
        <ele>486</ele>
        <time>2013-08-19T09:33:48Z</time>
      </trkpt>
      <trkpt lat="46.20916" lon="4.38968">
        <ele>486</ele>
        <time>2013-08-19T09:33:49Z</time>
      </trkpt>
      <trkpt lat="46.20921" lon="4.38968">
        <ele>478</ele>
        <time>2013-08-19T09:33:53Z</time>
      </trkpt>
      <trkpt lat="46.20923" lon="4.38968">
        <ele>478</ele>
        <time>2013-08-19T09:33:55Z</time>
      </trkpt>
      <trkpt lat="46.20926" lon="4.38967">
        <ele>477</ele>
        <time>2013-08-19T09:34:00Z</time>
      </trkpt>
      <trkpt lat="46.20931" lon="4.38966">
        <ele>477</ele>
        <time>2013-08-19T09:34:06Z</time>
      </trkpt>
      <trkpt lat="46.20933" lon="4.38965">
        <ele>477</ele>
        <time>2013-08-19T09:34:10Z</time>
      </trkpt>
      <trkpt lat="46.20934" lon="4.38965">
        <ele>477</ele>
        <time>2013-08-19T09:34:12Z</time>
      </trkpt>
      <trkpt lat="46.20938" lon="4.38964">
        <ele>477</ele>
        <time>2013-08-19T09:34:22Z</time>
      </trkpt>
      <trkpt lat="46.20942" lon="4.38962">
        <ele>476</ele>
        <time>2013-08-19T09:34:29Z</time>
      </trkpt>
      <trkpt lat="46.20947" lon="4.38961">
        <ele>476</ele>
        <time>2013-08-19T09:34:34Z</time>
      </trkpt>
      <trkpt lat="46.20949" lon="4.3896">
        <ele>476</ele>
        <time>2013-08-19T09:34:36Z</time>
      </trkpt>
      <trkpt lat="46.20951" lon="4.3896">
        <ele>476</ele>
        <time>2013-08-19T09:34:38Z</time>
      </trkpt>
      <trkpt lat="46.20952" lon="4.3896">
        <ele>476</ele>
        <time>2013-08-19T09:34:39Z</time>
      </trkpt>
      <trkpt lat="46.20956" lon="4.38962">
        <ele>475</ele>
        <time>2013-08-19T09:34:42Z</time>
      </trkpt>
      <trkpt lat="46.20957" lon="4.38962">
        <ele>475</ele>
        <time>2013-08-19T09:34:43Z</time>
      </trkpt>
      <trkpt lat="46.20961" lon="4.38965">
        <ele>475</ele>
        <time>2013-08-19T09:34:48Z</time>
      </trkpt>
      <trkpt lat="46.20965" lon="4.38968">
        <ele>474</ele>
        <time>2013-08-19T09:34:54Z</time>
      </trkpt>
      <trkpt lat="46.20966" lon="4.38968">
        <ele>474</ele>
        <time>2013-08-19T09:34:55Z</time>
      </trkpt>
      <trkpt lat="46.20968" lon="4.38968">
        <ele>474</ele>
        <time>2013-08-19T09:34:57Z</time>
      </trkpt>
      <trkpt lat="46.2097" lon="4.38967">
        <ele>474</ele>
        <time>2013-08-19T09:34:58Z</time>
      </trkpt>
      <trkpt lat="46.2097" lon="4.38965">
        <ele>474</ele>
        <time>2013-08-19T09:35:00Z</time>
      </trkpt>
      <trkpt lat="46.2097" lon="4.38963">
        <ele>474</ele>
        <time>2013-08-19T09:35:01Z</time>
      </trkpt>
      <trkpt lat="46.2097" lon="4.38955">
        <ele>474</ele>
        <time>2013-08-19T09:35:06Z</time>
      </trkpt>
      <trkpt lat="46.20968" lon="4.38943">
        <ele>475</ele>
        <time>2013-08-19T09:35:12Z</time>
      </trkpt>
      <trkpt lat="46.20967" lon="4.38941">
        <ele>475</ele>
        <time>2013-08-19T09:35:13Z</time>
      </trkpt>
      <trkpt lat="46.20968" lon="4.38932">
        <ele>475</ele>
        <time>2013-08-19T09:35:19Z</time>
      </trkpt>
      <trkpt lat="46.20968" lon="4.38929">
        <ele>475</ele>
        <time>2013-08-19T09:35:25Z</time>
      </trkpt>
      <trkpt lat="46.20968" lon="4.38923">
        <ele>474</ele>
        <time>2013-08-19T09:35:29Z</time>
      </trkpt>
      <trkpt lat="46.2097" lon="4.38919">
        <ele>474</ele>
        <time>2013-08-19T09:35:31Z</time>
      </trkpt>
      <trkpt lat="46.2097" lon="4.38914">
        <ele>476</ele>
        <time>2013-08-19T09:35:33Z</time>
      </trkpt>
      <trkpt lat="46.20971" lon="4.38913">
        <ele>476</ele>
        <time>2013-08-19T09:35:34Z</time>
      </trkpt>
      <trkpt lat="46.20971" lon="4.38912">
        <ele>476</ele>
        <time>2013-08-19T09:35:35Z</time>
      </trkpt>
      <trkpt lat="46.20971" lon="4.38907">
        <ele>476</ele>
        <time>2013-08-19T09:35:39Z</time>
      </trkpt>
      <trkpt lat="46.2097" lon="4.38906">
        <ele>476</ele>
        <time>2013-08-19T09:35:41Z</time>
      </trkpt>
      <trkpt lat="46.2097" lon="4.38902">
        <ele>476</ele>
        <time>2013-08-19T09:35:47Z</time>
      </trkpt>
      <trkpt lat="46.20972" lon="4.38898">
        <ele>476</ele>
        <time>2013-08-19T09:35:55Z</time>
      </trkpt>
      <trkpt lat="46.20973" lon="4.38895">
        <ele>476</ele>
        <time>2013-08-19T09:36:02Z</time>
      </trkpt>
      <trkpt lat="46.20973" lon="4.38895">
        <ele>476</ele>
        <time>2013-08-19T09:36:04Z</time>
      </trkpt>
      <trkpt lat="46.20976" lon="4.38893">
        <ele>475</ele>
        <time>2013-08-19T09:36:29Z</time>
      </trkpt>
      <trkpt lat="46.20975" lon="4.38891">
        <ele>476</ele>
        <time>2013-08-19T09:36:32Z</time>
      </trkpt>
      <trkpt lat="46.20975" lon="4.38894">
        <ele>475</ele>
        <time>2013-08-19T09:37:08Z</time>
      </trkpt>
      <trkpt lat="46.20975" lon="4.38889">
        <ele>476</ele>
        <time>2013-08-19T09:37:51Z</time>
      </trkpt>
      <trkpt lat="46.20975" lon="4.38885">
        <ele>476</ele>
        <time>2013-08-19T09:37:58Z</time>
      </trkpt>
      <trkpt lat="46.20976" lon="4.38881">
        <ele>476</ele>
        <time>2013-08-19T09:38:01Z</time>
      </trkpt>
      <trkpt lat="46.20976" lon="4.38875">
        <ele>476</ele>
        <time>2013-08-19T09:38:04Z</time>
      </trkpt>
      <trkpt lat="46.20976" lon="4.38874">
        <ele>476</ele>
        <time>2013-08-19T09:38:05Z</time>
      </trkpt>
      <trkpt lat="46.20977" lon="4.38866">
        <ele>476</ele>
        <time>2013-08-19T09:38:09Z</time>
      </trkpt>
      <trkpt lat="46.20977" lon="4.38865">
        <ele>476</ele>
        <time>2013-08-19T09:38:10Z</time>
      </trkpt>
      <trkpt lat="46.20979" lon="4.38858">
        <ele>475</ele>
        <time>2013-08-19T09:38:14Z</time>
      </trkpt>
      <trkpt lat="46.20983" lon="4.38851">
        <ele>475</ele>
        <time>2013-08-19T09:38:21Z</time>
      </trkpt>
      <trkpt lat="46.20984" lon="4.38851">
        <ele>475</ele>
        <time>2013-08-19T09:38:22Z</time>
      </trkpt>
      <trkpt lat="46.20985" lon="4.38851">
        <ele>475</ele>
        <time>2013-08-19T09:38:28Z</time>
      </trkpt>
      <trkpt lat="46.20992" lon="4.38846">
        <ele>473</ele>
        <time>2013-08-19T09:39:02Z</time>
      </trkpt>
      <trkpt lat="46.21" lon="4.38842">
        <ele>472</ele>
        <time>2013-08-19T09:39:09Z</time>
      </trkpt>
      <trkpt lat="46.21001" lon="4.38842">
        <ele>470</ele>
        <time>2013-08-19T09:39:10Z</time>
      </trkpt>
      <trkpt lat="46.21008" lon="4.38843">
        <ele>470</ele>
        <time>2013-08-19T09:39:16Z</time>
      </trkpt>
      <trkpt lat="46.21015" lon="4.38848">
        <ele>470</ele>
        <time>2013-08-19T09:39:23Z</time>
      </trkpt>
      <trkpt lat="46.21017" lon="4.38851">
        <ele>470</ele>
        <time>2013-08-19T09:39:25Z</time>
      </trkpt>
      <trkpt lat="46.21023" lon="4.38861">
        <ele>470</ele>
        <time>2013-08-19T09:39:31Z</time>
      </trkpt>
      <trkpt lat="46.21029" lon="4.38872">
        <ele>470</ele>
        <time>2013-08-19T09:39:38Z</time>
      </trkpt>
      <trkpt lat="46.2103" lon="4.38874">
        <ele>470</ele>
        <time>2013-08-19T09:39:39Z</time>
      </trkpt>
      <trkpt lat="46.21037" lon="4.38881">
        <ele>470</ele>
        <time>2013-08-19T09:39:46Z</time>
      </trkpt>
      <trkpt lat="46.21045" lon="4.38886">
        <ele>470</ele>
        <time>2013-08-19T09:39:53Z</time>
      </trkpt>
      <trkpt lat="46.21046" lon="4.38887">
        <ele>470</ele>
        <time>2013-08-19T09:39:54Z</time>
      </trkpt>
      <trkpt lat="46.21057" lon="4.38887">
        <ele>470</ele>
        <time>2013-08-19T09:40:02Z</time>
      </trkpt>
      <trkpt lat="46.21064" lon="4.38885">
        <ele>470</ele>
        <time>2013-08-19T09:40:07Z</time>
      </trkpt>
      <trkpt lat="46.21072" lon="4.38881">
        <ele>470</ele>
        <time>2013-08-19T09:40:14Z</time>
      </trkpt>
      <trkpt lat="46.21077" lon="4.3888">
        <ele>470</ele>
        <time>2013-08-19T09:40:19Z</time>
      </trkpt>
      <trkpt lat="46.2108" lon="4.3888">
        <ele>470</ele>
        <time>2013-08-19T09:40:21Z</time>
      </trkpt>
      <trkpt lat="46.21082" lon="4.38879">
        <ele>470</ele>
        <time>2013-08-19T09:40:23Z</time>
      </trkpt>
      <trkpt lat="46.21085" lon="4.38879">
        <ele>470</ele>
        <time>2013-08-19T09:40:26Z</time>
      </trkpt>
      <trkpt lat="46.21086" lon="4.38879">
        <ele>470</ele>
        <time>2013-08-19T09:40:27Z</time>
      </trkpt>
      <trkpt lat="46.2109" lon="4.38878">
        <ele>470</ele>
        <time>2013-08-19T09:40:32Z</time>
      </trkpt>
      <trkpt lat="46.21095" lon="4.38879">
        <ele>470</ele>
        <time>2013-08-19T09:40:37Z</time>
      </trkpt>
      <trkpt lat="46.21096" lon="4.38879">
        <ele>470</ele>
        <time>2013-08-19T09:40:38Z</time>
      </trkpt>
      <trkpt lat="46.21101" lon="4.38879">
        <ele>470</ele>
        <time>2013-08-19T09:40:42Z</time>
      </trkpt>
      <trkpt lat="46.21104" lon="4.38879">
        <ele>470</ele>
        <time>2013-08-19T09:40:44Z</time>
      </trkpt>
      <trkpt lat="46.21106" lon="4.38879">
        <ele>470</ele>
        <time>2013-08-19T09:40:46Z</time>
      </trkpt>
      <trkpt lat="46.21109" lon="4.38879">
        <ele>470</ele>
        <time>2013-08-19T09:40:48Z</time>
      </trkpt>
      <trkpt lat="46.21113" lon="4.38879">
        <ele>470</ele>
        <time>2013-08-19T09:40:52Z</time>
      </trkpt>
      <trkpt lat="46.2112" lon="4.3888">
        <ele>470</ele>
        <time>2013-08-19T09:40:57Z</time>
      </trkpt>
      <trkpt lat="46.21123" lon="4.3888">
        <ele>470</ele>
        <time>2013-08-19T09:41:00Z</time>
      </trkpt>
      <trkpt lat="46.21125" lon="4.38881">
        <ele>470</ele>
        <time>2013-08-19T09:41:01Z</time>
      </trkpt>
      <trkpt lat="46.2113" lon="4.38884">
        <ele>470</ele>
        <time>2013-08-19T09:41:07Z</time>
      </trkpt>
      <trkpt lat="46.21132" lon="4.38885">
        <ele>470</ele>
        <time>2013-08-19T09:41:09Z</time>
      </trkpt>
      <trkpt lat="46.21137" lon="4.38888">
        <ele>469</ele>
        <time>2013-08-19T09:41:13Z</time>
      </trkpt>
      <trkpt lat="46.21141" lon="4.38889">
        <ele>469</ele>
        <time>2013-08-19T09:41:15Z</time>
      </trkpt>
      <trkpt lat="46.21152" lon="4.38892">
        <ele>469</ele>
        <time>2013-08-19T09:41:22Z</time>
      </trkpt>
      <trkpt lat="46.21156" lon="4.38894">
        <ele>469</ele>
        <time>2013-08-19T09:41:25Z</time>
      </trkpt>
      <trkpt lat="46.2116" lon="4.38896">
        <ele>468</ele>
        <time>2013-08-19T09:41:29Z</time>
      </trkpt>
      <trkpt lat="46.21167" lon="4.389">
        <ele>468</ele>
        <time>2013-08-19T09:41:35Z</time>
      </trkpt>
      <trkpt lat="46.21173" lon="4.38905">
        <ele>467</ele>
        <time>2013-08-19T09:41:39Z</time>
      </trkpt>
      <trkpt lat="46.21174" lon="4.38906">
        <ele>467</ele>
        <time>2013-08-19T09:41:40Z</time>
      </trkpt>
      <trkpt lat="46.21181" lon="4.38912">
        <ele>467</ele>
        <time>2013-08-19T09:41:47Z</time>
      </trkpt>
      <trkpt lat="46.21187" lon="4.38916">
        <ele>467</ele>
        <time>2013-08-19T09:41:51Z</time>
      </trkpt>
      <trkpt lat="46.2119" lon="4.38918">
        <ele>461</ele>
        <time>2013-08-19T09:41:53Z</time>
      </trkpt>
      <trkpt lat="46.21196" lon="4.38923">
        <ele>461</ele>
        <time>2013-08-19T09:41:58Z</time>
      </trkpt>
      <trkpt lat="46.21202" lon="4.38929">
        <ele>460</ele>
        <time>2013-08-19T09:42:04Z</time>
      </trkpt>
      <trkpt lat="46.21206" lon="4.38931">
        <ele>460</ele>
        <time>2013-08-19T09:42:07Z</time>
      </trkpt>
      <trkpt lat="46.21208" lon="4.38933">
        <ele>460</ele>
        <time>2013-08-19T09:42:10Z</time>
      </trkpt>
      <trkpt lat="46.21218" lon="4.38941">
        <ele>459</ele>
        <time>2013-08-19T09:42:19Z</time>
      </trkpt>
      <trkpt lat="46.21223" lon="4.38942">
        <ele>459</ele>
        <time>2013-08-19T09:42:23Z</time>
      </trkpt>
      <trkpt lat="46.21225" lon="4.38944">
        <ele>459</ele>
        <time>2013-08-19T09:42:25Z</time>
      </trkpt>
      <trkpt lat="46.21233" lon="4.38947">
        <ele>459</ele>
        <time>2013-08-19T09:42:31Z</time>
      </trkpt>
      <trkpt lat="46.21237" lon="4.38949">
        <ele>458</ele>
        <time>2013-08-19T09:42:37Z</time>
      </trkpt>
      <trkpt lat="46.21241" lon="4.38949">
        <ele>458</ele>
        <time>2013-08-19T09:42:43Z</time>
      </trkpt>
      <trkpt lat="46.21243" lon="4.38949">
        <ele>458</ele>
        <time>2013-08-19T09:42:44Z</time>
      </trkpt>
      <trkpt lat="46.2125" lon="4.3895">
        <ele>456</ele>
        <time>2013-08-19T09:42:51Z</time>
      </trkpt>
      <trkpt lat="46.21257" lon="4.38949">
        <ele>457</ele>
        <time>2013-08-19T09:42:57Z</time>
      </trkpt>
      <trkpt lat="46.2126" lon="4.38948">
        <ele>457</ele>
        <time>2013-08-19T09:42:59Z</time>
      </trkpt>
      <trkpt lat="46.21265" lon="4.38948">
        <ele>457</ele>
        <time>2013-08-19T09:43:02Z</time>
      </trkpt>
      <trkpt lat="46.21273" lon="4.38947">
        <ele>456</ele>
        <time>2013-08-19T09:43:08Z</time>
      </trkpt>
      <trkpt lat="46.21279" lon="4.38946">
        <ele>456</ele>
        <time>2013-08-19T09:43:12Z</time>
      </trkpt>
      <trkpt lat="46.21283" lon="4.38946">
        <ele>456</ele>
        <time>2013-08-19T09:43:15Z</time>
      </trkpt>
      <trkpt lat="46.21293" lon="4.38946">
        <ele>456</ele>
        <time>2013-08-19T09:43:22Z</time>
      </trkpt>
      <trkpt lat="46.21297" lon="4.38946">
        <ele>456</ele>
        <time>2013-08-19T09:43:25Z</time>
      </trkpt>
      <trkpt lat="46.21302" lon="4.38945">
        <ele>456</ele>
        <time>2013-08-19T09:43:29Z</time>
      </trkpt>
      <trkpt lat="46.21312" lon="4.38943">
        <ele>456</ele>
        <time>2013-08-19T09:43:37Z</time>
      </trkpt>
      <trkpt lat="46.21316" lon="4.38942">
        <ele>457</ele>
        <time>2013-08-19T09:43:40Z</time>
      </trkpt>
      <trkpt lat="46.21324" lon="4.38942">
        <ele>457</ele>
        <time>2013-08-19T09:43:45Z</time>
      </trkpt>
      <trkpt lat="46.21334" lon="4.38942">
        <ele>455</ele>
        <time>2013-08-19T09:43:53Z</time>
      </trkpt>
      <trkpt lat="46.21335" lon="4.38942">
        <ele>455</ele>
        <time>2013-08-19T09:43:54Z</time>
      </trkpt>
      <trkpt lat="46.21346" lon="4.38941">
        <ele>455</ele>
        <time>2013-08-19T09:44:01Z</time>
      </trkpt>
      <trkpt lat="46.21353" lon="4.3894">
        <ele>455</ele>
        <time>2013-08-19T09:44:06Z</time>
      </trkpt>
      <trkpt lat="46.21357" lon="4.38939">
        <ele>455</ele>
        <time>2013-08-19T09:44:09Z</time>
      </trkpt>
      <trkpt lat="46.21366" lon="4.38936">
        <ele>454</ele>
        <time>2013-08-19T09:44:16Z</time>
      </trkpt>
      <trkpt lat="46.21372" lon="4.38934">
        <ele>454</ele>
        <time>2013-08-19T09:44:20Z</time>
      </trkpt>
      <trkpt lat="46.21379" lon="4.38931">
        <ele>454</ele>
        <time>2013-08-19T09:44:26Z</time>
      </trkpt>
      <trkpt lat="46.21388" lon="4.38927">
        <ele>455</ele>
        <time>2013-08-19T09:44:34Z</time>
      </trkpt>
      <trkpt lat="46.2139" lon="4.38926">
        <ele>455</ele>
        <time>2013-08-19T09:44:36Z</time>
      </trkpt>
      <trkpt lat="46.21391" lon="4.38926">
        <ele>455</ele>
        <time>2013-08-19T09:44:37Z</time>
      </trkpt>
      <trkpt lat="46.21393" lon="4.38925">
        <ele>455</ele>
        <time>2013-08-19T09:44:39Z</time>
      </trkpt>
      <trkpt lat="46.21406" lon="4.38918">
        <ele>457</ele>
        <time>2013-08-19T09:44:49Z</time>
      </trkpt>
      <trkpt lat="46.21407" lon="4.38918">
        <ele>457</ele>
        <time>2013-08-19T09:44:50Z</time>
      </trkpt>
      <trkpt lat="46.21417" lon="4.38914">
        <ele>459</ele>
        <time>2013-08-19T09:44:59Z</time>
      </trkpt>
      <trkpt lat="46.21424" lon="4.3891">
        <ele>460</ele>
        <time>2013-08-19T09:45:06Z</time>
      </trkpt>
      <trkpt lat="46.21426" lon="4.3891">
        <ele>460</ele>
        <time>2013-08-19T09:45:07Z</time>
      </trkpt>
      <trkpt lat="46.21429" lon="4.38909">
        <ele>461</ele>
        <time>2013-08-19T09:45:10Z</time>
      </trkpt>
      <trkpt lat="46.21434" lon="4.38907">
        <ele>461</ele>
        <time>2013-08-19T09:45:14Z</time>
      </trkpt>
      <trkpt lat="46.21437" lon="4.38905">
        <ele>461</ele>
        <time>2013-08-19T09:45:18Z</time>
      </trkpt>
      <trkpt lat="46.2144" lon="4.38905">
        <ele>461</ele>
        <time>2013-08-19T09:45:21Z</time>
      </trkpt>
      <trkpt lat="46.21444" lon="4.38905">
        <ele>461</ele>
        <time>2013-08-19T09:45:25Z</time>
      </trkpt>
      <trkpt lat="46.21445" lon="4.38904">
        <ele>461</ele>
        <time>2013-08-19T09:45:26Z</time>
      </trkpt>
      <trkpt lat="46.2145" lon="4.38902">
        <ele>461</ele>
        <time>2013-08-19T09:45:31Z</time>
      </trkpt>
      <trkpt lat="46.21453" lon="4.38901">
        <ele>461</ele>
        <time>2013-08-19T09:45:33Z</time>
      </trkpt>
      <trkpt lat="46.21458" lon="4.389">
        <ele>461</ele>
        <time>2013-08-19T09:45:37Z</time>
      </trkpt>
      <trkpt lat="46.21461" lon="4.389">
        <ele>460</ele>
        <time>2013-08-19T09:45:39Z</time>
      </trkpt>
      <trkpt lat="46.21462" lon="4.389">
        <ele>460</ele>
        <time>2013-08-19T09:45:40Z</time>
      </trkpt>
      <trkpt lat="46.21468" lon="4.38898">
        <ele>460</ele>
        <time>2013-08-19T09:45:45Z</time>
      </trkpt>
      <trkpt lat="46.21476" lon="4.38897">
        <ele>459</ele>
        <time>2013-08-19T09:45:51Z</time>
      </trkpt>
      <trkpt lat="46.21481" lon="4.38896">
        <ele>459</ele>
        <time>2013-08-19T09:45:56Z</time>
      </trkpt>
      <trkpt lat="46.21483" lon="4.38896">
        <ele>459</ele>
        <time>2013-08-19T09:45:58Z</time>
      </trkpt>
      <trkpt lat="46.21492" lon="4.38896">
        <ele>458</ele>
        <time>2013-08-19T09:46:04Z</time>
      </trkpt>
      <trkpt lat="46.21496" lon="4.38899">
        <ele>457</ele>
        <time>2013-08-19T09:46:08Z</time>
      </trkpt>
      <trkpt lat="46.215" lon="4.38901">
        <ele>454</ele>
        <time>2013-08-19T09:46:10Z</time>
      </trkpt>
      <trkpt lat="46.21505" lon="4.38902">
        <ele>454</ele>
        <time>2013-08-19T09:46:14Z</time>
      </trkpt>
      <trkpt lat="46.21509" lon="4.38903">
        <ele>454</ele>
        <time>2013-08-19T09:46:18Z</time>
      </trkpt>
      <trkpt lat="46.21514" lon="4.38902">
        <ele>455</ele>
        <time>2013-08-19T09:46:23Z</time>
      </trkpt>
      <trkpt lat="46.21515" lon="4.38901">
        <ele>455</ele>
        <time>2013-08-19T09:46:25Z</time>
      </trkpt>
      <trkpt lat="46.21517" lon="4.38902">
        <ele>455</ele>
        <time>2013-08-19T09:46:27Z</time>
      </trkpt>
      <trkpt lat="46.21518" lon="4.38901">
        <ele>455</ele>
        <time>2013-08-19T09:46:28Z</time>
      </trkpt>
      <trkpt lat="46.21519" lon="4.38901">
        <ele>455</ele>
        <time>2013-08-19T09:46:30Z</time>
      </trkpt>
      <trkpt lat="46.21522" lon="4.38901">
        <ele>455</ele>
        <time>2013-08-19T09:46:32Z</time>
      </trkpt>
      <trkpt lat="46.21527" lon="4.38902">
        <ele>456</ele>
        <time>2013-08-19T09:46:36Z</time>
      </trkpt>
      <trkpt lat="46.21531" lon="4.38903">
        <ele>456</ele>
        <time>2013-08-19T09:46:40Z</time>
      </trkpt>
      <trkpt lat="46.21533" lon="4.38903">
        <ele>456</ele>
        <time>2013-08-19T09:46:42Z</time>
      </trkpt>
      <trkpt lat="46.21536" lon="4.38905">
        <ele>456</ele>
        <time>2013-08-19T09:46:45Z</time>
      </trkpt>
      <trkpt lat="46.21538" lon="4.38906">
        <ele>456</ele>
        <time>2013-08-19T09:46:46Z</time>
      </trkpt>
      <trkpt lat="46.21542" lon="4.38909">
        <ele>456</ele>
        <time>2013-08-19T09:46:48Z</time>
      </trkpt>
      <trkpt lat="46.21551" lon="4.38917">
        <ele>447</ele>
        <time>2013-08-19T09:46:54Z</time>
      </trkpt>
      <trkpt lat="46.21553" lon="4.38918">
        <ele>447</ele>
        <time>2013-08-19T09:46:56Z</time>
      </trkpt>
      <trkpt lat="46.21555" lon="4.38921">
        <ele>447</ele>
        <time>2013-08-19T09:47:01Z</time>
      </trkpt>
      <trkpt lat="46.21563" lon="4.38927">
        <ele>447</ele>
        <time>2013-08-19T09:47:08Z</time>
      </trkpt>
      <trkpt lat="46.21569" lon="4.38932">
        <ele>447</ele>
        <time>2013-08-19T09:47:13Z</time>
      </trkpt>
      <trkpt lat="46.21571" lon="4.38933">
        <ele>447</ele>
        <time>2013-08-19T09:47:15Z</time>
      </trkpt>
      <trkpt lat="46.21578" lon="4.38936">
        <ele>447</ele>
        <time>2013-08-19T09:47:22Z</time>
      </trkpt>
      <trkpt lat="46.21578" lon="4.38937">
        <ele>447</ele>
        <time>2013-08-19T09:47:23Z</time>
      </trkpt>
      <trkpt lat="46.21581" lon="4.38937">
        <ele>447</ele>
        <time>2013-08-19T09:47:26Z</time>
      </trkpt>
      <trkpt lat="46.21584" lon="4.38936">
        <ele>448</ele>
        <time>2013-08-19T09:47:28Z</time>
      </trkpt>
      <trkpt lat="46.21586" lon="4.38937">
        <ele>448</ele>
        <time>2013-08-19T09:47:32Z</time>
      </trkpt>
      <trkpt lat="46.21587" lon="4.38937">
        <ele>448</ele>
        <time>2013-08-19T09:47:33Z</time>
      </trkpt>
      <trkpt lat="46.21595" lon="4.38934">
        <ele>448</ele>
        <time>2013-08-19T09:47:40Z</time>
      </trkpt>
      <trkpt lat="46.21596" lon="4.38934">
        <ele>448</ele>
        <time>2013-08-19T09:47:41Z</time>
      </trkpt>
      <trkpt lat="46.216" lon="4.38933">
        <ele>448</ele>
        <time>2013-08-19T09:47:45Z</time>
      </trkpt>
      <trkpt lat="46.21601" lon="4.38933">
        <ele>448</ele>
        <time>2013-08-19T09:47:46Z</time>
      </trkpt>
      <trkpt lat="46.21602" lon="4.38934">
        <ele>448</ele>
        <time>2013-08-19T09:47:47Z</time>
      </trkpt>
      <trkpt lat="46.21606" lon="4.38934">
        <ele>448</ele>
        <time>2013-08-19T09:47:49Z</time>
      </trkpt>
      <trkpt lat="46.21611" lon="4.38934">
        <ele>447</ele>
        <time>2013-08-19T09:47:51Z</time>
      </trkpt>
      <trkpt lat="46.2162" lon="4.38938">
        <ele>447</ele>
        <time>2013-08-19T09:47:57Z</time>
      </trkpt>
      <trkpt lat="46.21625" lon="4.38939">
        <ele>447</ele>
        <time>2013-08-19T09:48:01Z</time>
      </trkpt>
      <trkpt lat="46.21627" lon="4.3894">
        <ele>447</ele>
        <time>2013-08-19T09:48:04Z</time>
      </trkpt>
      <trkpt lat="46.21629" lon="4.3894">
        <ele>447</ele>
        <time>2013-08-19T09:48:05Z</time>
      </trkpt>
      <trkpt lat="46.21633" lon="4.38941">
        <ele>447</ele>
        <time>2013-08-19T09:48:08Z</time>
      </trkpt>
      <trkpt lat="46.21635" lon="4.38942">
        <ele>447</ele>
        <time>2013-08-19T09:48:10Z</time>
      </trkpt>
      <trkpt lat="46.21646" lon="4.38944">
        <ele>447</ele>
        <time>2013-08-19T09:48:15Z</time>
      </trkpt>
      <trkpt lat="46.21649" lon="4.38947">
        <ele>447</ele>
        <time>2013-08-19T09:48:18Z</time>
      </trkpt>
      <trkpt lat="46.21655" lon="4.38952">
        <ele>447</ele>
        <time>2013-08-19T09:48:24Z</time>
      </trkpt>
      <trkpt lat="46.21656" lon="4.38953">
        <ele>447</ele>
        <time>2013-08-19T09:48:25Z</time>
      </trkpt>
      <trkpt lat="46.21657" lon="4.3896">
        <ele>446</ele>
        <time>2013-08-19T09:48:29Z</time>
      </trkpt>
      <trkpt lat="46.21656" lon="4.38962">
        <ele>446</ele>
        <time>2013-08-19T09:48:30Z</time>
      </trkpt>
      <trkpt lat="46.21656" lon="4.38962">
        <ele>446</ele>
        <time>2013-08-19T09:48:31Z</time>
      </trkpt>
      <trkpt lat="46.21653" lon="4.3896">
        <ele>446</ele>
        <time>2013-08-19T09:48:55Z</time>
      </trkpt>
      <trkpt lat="46.21657" lon="4.38966">
        <ele>446</ele>
        <time>2013-08-19T09:49:20Z</time>
      </trkpt>
      <trkpt lat="46.2166" lon="4.38967">
        <ele>446</ele>
        <time>2013-08-19T09:49:25Z</time>
      </trkpt>
      <trkpt lat="46.21661" lon="4.38974">
        <ele>445</ele>
        <time>2013-08-19T09:49:30Z</time>
      </trkpt>
      <trkpt lat="46.21662" lon="4.38975">
        <ele>445</ele>
        <time>2013-08-19T09:49:31Z</time>
      </trkpt>
      <trkpt lat="46.21664" lon="4.38976">
        <ele>445</ele>
        <time>2013-08-19T09:49:36Z</time>
      </trkpt>
      <trkpt lat="46.21668" lon="4.38978">
        <ele>446</ele>
        <time>2013-08-19T09:49:43Z</time>
      </trkpt>
      <trkpt lat="46.21671" lon="4.38979">
        <ele>446</ele>
        <time>2013-08-19T09:49:49Z</time>
      </trkpt>
      <trkpt lat="46.21674" lon="4.38976">
        <ele>446</ele>
        <time>2013-08-19T09:49:54Z</time>
      </trkpt>
      <trkpt lat="46.21677" lon="4.38973">
        <ele>447</ele>
        <time>2013-08-19T09:49:59Z</time>
      </trkpt>
      <trkpt lat="46.21678" lon="4.38972">
        <ele>447</ele>
        <time>2013-08-19T09:50:00Z</time>
      </trkpt>
      <trkpt lat="46.21679" lon="4.38971">
        <ele>447</ele>
        <time>2013-08-19T09:50:04Z</time>
      </trkpt>
      <trkpt lat="46.21681" lon="4.3897">
        <ele>447</ele>
        <time>2013-08-19T09:50:06Z</time>
      </trkpt>
      <trkpt lat="46.21687" lon="4.38966">
        <ele>447</ele>
        <time>2013-08-19T09:50:12Z</time>
      </trkpt>
      <trkpt lat="46.21692" lon="4.38965">
        <ele>447</ele>
        <time>2013-08-19T09:50:17Z</time>
      </trkpt>
      <trkpt lat="46.21692" lon="4.38965">
        <ele>447</ele>
        <time>2013-08-19T09:50:18Z</time>
      </trkpt>
      <trkpt lat="46.21692" lon="4.38964">
        <ele>447</ele>
        <time>2013-08-19T09:50:19Z</time>
      </trkpt>
      <trkpt lat="46.21695" lon="4.38964">
        <ele>447</ele>
        <time>2013-08-19T09:50:21Z</time>
      </trkpt>
      <trkpt lat="46.21696" lon="4.38964">
        <ele>448</ele>
        <time>2013-08-19T09:50:23Z</time>
      </trkpt>
      <trkpt lat="46.21698" lon="4.38964">
        <ele>448</ele>
        <time>2013-08-19T09:50:24Z</time>
      </trkpt>
      <trkpt lat="46.21703" lon="4.38964">
        <ele>448</ele>
        <time>2013-08-19T09:50:29Z</time>
      </trkpt>
      <trkpt lat="46.21706" lon="4.38964">
        <ele>448</ele>
        <time>2013-08-19T09:50:32Z</time>
      </trkpt>
      <trkpt lat="46.21711" lon="4.38965">
        <ele>448</ele>
        <time>2013-08-19T09:50:35Z</time>
      </trkpt>
      <trkpt lat="46.21715" lon="4.38967">
        <ele>448</ele>
        <time>2013-08-19T09:50:38Z</time>
      </trkpt>
      <trkpt lat="46.21719" lon="4.38968">
        <ele>448</ele>
        <time>2013-08-19T09:50:41Z</time>
      </trkpt>
      <trkpt lat="46.2172" lon="4.38968">
        <ele>448</ele>
        <time>2013-08-19T09:50:42Z</time>
      </trkpt>
      <trkpt lat="46.21722" lon="4.38967">
        <ele>448</ele>
        <time>2013-08-19T09:50:44Z</time>
      </trkpt>
      <trkpt lat="46.21726" lon="4.38966">
        <ele>448</ele>
        <time>2013-08-19T09:50:48Z</time>
      </trkpt>
      <trkpt lat="46.2173" lon="4.38966">
        <ele>448</ele>
        <time>2013-08-19T09:50:52Z</time>
      </trkpt>
      <trkpt lat="46.21734" lon="4.38966">
        <ele>448</ele>
        <time>2013-08-19T09:50:55Z</time>
      </trkpt>
      <trkpt lat="46.21735" lon="4.38966">
        <ele>448</ele>
        <time>2013-08-19T09:50:57Z</time>
      </trkpt>
      <trkpt lat="46.21738" lon="4.38966">
        <ele>448</ele>
        <time>2013-08-19T09:51:00Z</time>
      </trkpt>
      <trkpt lat="46.21739" lon="4.38966">
        <ele>448</ele>
        <time>2013-08-19T09:51:01Z</time>
      </trkpt>
      <trkpt lat="46.21743" lon="4.38965">
        <ele>448</ele>
        <time>2013-08-19T09:51:06Z</time>
      </trkpt>
      <trkpt lat="46.21744" lon="4.38965">
        <ele>448</ele>
        <time>2013-08-19T09:51:07Z</time>
      </trkpt>
      <trkpt lat="46.21752" lon="4.38961">
        <ele>453</ele>
        <time>2013-08-19T09:51:13Z</time>
      </trkpt>
      <trkpt lat="46.21753" lon="4.3896">
        <ele>453</ele>
        <time>2013-08-19T09:51:14Z</time>
      </trkpt>
      <trkpt lat="46.2176" lon="4.38956">
        <ele>453</ele>
        <time>2013-08-19T09:51:21Z</time>
      </trkpt>
      <trkpt lat="46.21768" lon="4.38953">
        <ele>453</ele>
        <time>2013-08-19T09:51:28Z</time>
      </trkpt>
      <trkpt lat="46.2177" lon="4.38953">
        <ele>453</ele>
        <time>2013-08-19T09:51:29Z</time>
      </trkpt>
      <trkpt lat="46.21773" lon="4.38953">
        <ele>454</ele>
        <time>2013-08-19T09:51:32Z</time>
      </trkpt>
      <trkpt lat="46.21776" lon="4.38951">
        <ele>454</ele>
        <time>2013-08-19T09:51:35Z</time>
      </trkpt>
      <trkpt lat="46.21777" lon="4.3895">
        <ele>454</ele>
        <time>2013-08-19T09:51:36Z</time>
      </trkpt>
      <trkpt lat="46.21784" lon="4.38946">
        <ele>454</ele>
        <time>2013-08-19T09:51:41Z</time>
      </trkpt>
      <trkpt lat="46.21786" lon="4.38946">
        <ele>454</ele>
        <time>2013-08-19T09:51:43Z</time>
      </trkpt>
      <trkpt lat="46.21786" lon="4.38944">
        <ele>454</ele>
        <time>2013-08-19T09:51:45Z</time>
      </trkpt>
      <trkpt lat="46.21787" lon="4.38943">
        <ele>454</ele>
        <time>2013-08-19T09:51:46Z</time>
      </trkpt>
      <trkpt lat="46.21789" lon="4.38943">
        <ele>454</ele>
        <time>2013-08-19T09:51:47Z</time>
      </trkpt>
      <trkpt lat="46.21795" lon="4.38945">
        <ele>455</ele>
        <time>2013-08-19T09:51:53Z</time>
      </trkpt>
      <trkpt lat="46.21801" lon="4.38945">
        <ele>455</ele>
        <time>2013-08-19T09:52:00Z</time>
      </trkpt>
      <trkpt lat="46.21804" lon="4.38943">
        <ele>455</ele>
        <time>2013-08-19T09:52:03Z</time>
      </trkpt>
      <trkpt lat="46.21805" lon="4.38941">
        <ele>455</ele>
        <time>2013-08-19T09:52:05Z</time>
      </trkpt>
      <trkpt lat="46.21806" lon="4.38941">
        <ele>455</ele>
        <time>2013-08-19T09:52:06Z</time>
      </trkpt>
      <trkpt lat="46.21807" lon="4.38939">
        <ele>455</ele>
        <time>2013-08-19T09:52:07Z</time>
      </trkpt>
      <trkpt lat="46.21808" lon="4.38937">
        <ele>455</ele>
        <time>2013-08-19T09:52:09Z</time>
      </trkpt>
      <trkpt lat="46.2181" lon="4.38933">
        <ele>454</ele>
        <time>2013-08-19T09:52:13Z</time>
      </trkpt>
      <trkpt lat="46.21815" lon="4.38925">
        <ele>454</ele>
        <time>2013-08-19T09:52:20Z</time>
      </trkpt>
      <trkpt lat="46.21817" lon="4.38921">
        <ele>453</ele>
        <time>2013-08-19T09:52:23Z</time>
      </trkpt>
      <trkpt lat="46.21817" lon="4.38919">
        <ele>453</ele>
        <time>2013-08-19T09:52:24Z</time>
      </trkpt>
      <trkpt lat="46.21819" lon="4.38916">
        <ele>452</ele>
        <time>2013-08-19T09:52:26Z</time>
      </trkpt>
      <trkpt lat="46.21823" lon="4.38906">
        <ele>453</ele>
        <time>2013-08-19T09:52:33Z</time>
      </trkpt>
      <trkpt lat="46.21828" lon="4.38902">
        <ele>453</ele>
        <time>2013-08-19T09:52:38Z</time>
      </trkpt>
      <trkpt lat="46.21829" lon="4.38898">
        <ele>453</ele>
        <time>2013-08-19T09:52:40Z</time>
      </trkpt>
      <trkpt lat="46.21829" lon="4.38897">
        <ele>453</ele>
        <time>2013-08-19T09:52:41Z</time>
      </trkpt>
      <trkpt lat="46.2183" lon="4.38895">
        <ele>453</ele>
        <time>2013-08-19T09:52:43Z</time>
      </trkpt>
      <trkpt lat="46.21832" lon="4.38894">
        <ele>454</ele>
        <time>2013-08-19T09:52:46Z</time>
      </trkpt>
      <trkpt lat="46.21835" lon="4.38891">
        <ele>455</ele>
        <time>2013-08-19T09:52:50Z</time>
      </trkpt>
      <trkpt lat="46.21838" lon="4.3889">
        <ele>455</ele>
        <time>2013-08-19T09:52:52Z</time>
      </trkpt>
      <trkpt lat="46.21843" lon="4.38891">
        <ele>455</ele>
        <time>2013-08-19T09:52:56Z</time>
      </trkpt>
      <trkpt lat="46.21844" lon="4.38889">
        <ele>455</ele>
        <time>2013-08-19T09:52:58Z</time>
      </trkpt>
      <trkpt lat="46.21847" lon="4.38886">
        <ele>455</ele>
        <time>2013-08-19T09:53:01Z</time>
      </trkpt>
      <trkpt lat="46.21848" lon="4.38887">
        <ele>455</ele>
        <time>2013-08-19T09:53:02Z</time>
      </trkpt>
      <trkpt lat="46.21851" lon="4.38888">
        <ele>455</ele>
        <time>2013-08-19T09:53:05Z</time>
      </trkpt>
      <trkpt lat="46.21853" lon="4.38887">
        <ele>455</ele>
        <time>2013-08-19T09:53:07Z</time>
      </trkpt>
      <trkpt lat="46.21861" lon="4.38886">
        <ele>456</ele>
        <time>2013-08-19T09:53:12Z</time>
      </trkpt>
      <trkpt lat="46.21867" lon="4.38886">
        <ele>456</ele>
        <time>2013-08-19T09:53:15Z</time>
      </trkpt>
      <trkpt lat="46.21871" lon="4.38887">
        <ele>456</ele>
        <time>2013-08-19T09:53:18Z</time>
      </trkpt>
      <trkpt lat="46.21879" lon="4.38888">
        <ele>456</ele>
        <time>2013-08-19T09:53:24Z</time>
      </trkpt>
      <trkpt lat="46.21879" lon="4.38887">
        <ele>456</ele>
        <time>2013-08-19T09:53:25Z</time>
      </trkpt>
      <trkpt lat="46.21883" lon="4.38886">
        <ele>457</ele>
        <time>2013-08-19T09:53:28Z</time>
      </trkpt>
      <trkpt lat="46.21884" lon="4.38885">
        <ele>457</ele>
        <time>2013-08-19T09:53:29Z</time>
      </trkpt>
      <trkpt lat="46.21891" lon="4.38886">
        <ele>457</ele>
        <time>2013-08-19T09:53:35Z</time>
      </trkpt>
      <trkpt lat="46.21896" lon="4.38886">
        <ele>457</ele>
        <time>2013-08-19T09:53:39Z</time>
      </trkpt>
      <trkpt lat="46.219" lon="4.38884">
        <ele>457</ele>
        <time>2013-08-19T09:53:43Z</time>
      </trkpt>
      <trkpt lat="46.21903" lon="4.38881">
        <ele>457</ele>
        <time>2013-08-19T09:53:46Z</time>
      </trkpt>
      <trkpt lat="46.21903" lon="4.38881">
        <ele>457</ele>
        <time>2013-08-19T09:53:47Z</time>
      </trkpt>
      <trkpt lat="46.21907" lon="4.38879">
        <ele>457</ele>
        <time>2013-08-19T09:53:50Z</time>
      </trkpt>
      <trkpt lat="46.21913" lon="4.38873">
        <ele>456</ele>
        <time>2013-08-19T09:53:56Z</time>
      </trkpt>
      <trkpt lat="46.21915" lon="4.38872">
        <ele>456</ele>
        <time>2013-08-19T09:53:58Z</time>
      </trkpt>
      <trkpt lat="46.21917" lon="4.38873">
        <ele>462</ele>
        <time>2013-08-19T09:54:00Z</time>
      </trkpt>
      <trkpt lat="46.21918" lon="4.38873">
        <ele>462</ele>
        <time>2013-08-19T09:54:01Z</time>
      </trkpt>
      <trkpt lat="46.2192" lon="4.38873">
        <ele>462</ele>
        <time>2013-08-19T09:54:03Z</time>
      </trkpt>
      <trkpt lat="46.21922" lon="4.38873">
        <ele>462</ele>
        <time>2013-08-19T09:54:05Z</time>
      </trkpt>
      <trkpt lat="46.21923" lon="4.38873">
        <ele>462</ele>
        <time>2013-08-19T09:54:06Z</time>
      </trkpt>
      <trkpt lat="46.21924" lon="4.38872">
        <ele>462</ele>
        <time>2013-08-19T09:54:09Z</time>
      </trkpt>
      <trkpt lat="46.21926" lon="4.38871">
        <ele>462</ele>
        <time>2013-08-19T09:54:11Z</time>
      </trkpt>
      <trkpt lat="46.21922" lon="4.38856">
        <ele>458</ele>
        <time>2013-08-19T09:54:29Z</time>
      </trkpt>
      <trkpt lat="46.21919" lon="4.38849">
        <ele>456</ele>
        <time>2013-08-19T09:54:33Z</time>
      </trkpt>
      <trkpt lat="46.21921" lon="4.38846">
        <ele>455</ele>
        <time>2013-08-19T09:54:38Z</time>
      </trkpt>
      <trkpt lat="46.21921" lon="4.38843">
        <ele>454</ele>
        <time>2013-08-19T09:54:41Z</time>
      </trkpt>
      <trkpt lat="46.21922" lon="4.38841">
        <ele>454</ele>
        <time>2013-08-19T09:54:42Z</time>
      </trkpt>
      <trkpt lat="46.21924" lon="4.3884">
        <ele>454</ele>
        <time>2013-08-19T09:54:43Z</time>
      </trkpt>
      <trkpt lat="46.21925" lon="4.38839">
        <ele>454</ele>
        <time>2013-08-19T09:54:44Z</time>
      </trkpt>
      <trkpt lat="46.21931" lon="4.38837">
        <ele>456</ele>
        <time>2013-08-19T09:54:47Z</time>
      </trkpt>
      <trkpt lat="46.21933" lon="4.38836">
        <ele>456</ele>
        <time>2013-08-19T09:54:50Z</time>
      </trkpt>
      <trkpt lat="46.21936" lon="4.38836">
        <ele>457</ele>
        <time>2013-08-19T09:54:53Z</time>
      </trkpt>
      <trkpt lat="46.21938" lon="4.38833">
        <ele>457</ele>
        <time>2013-08-19T09:54:55Z</time>
      </trkpt>
      <trkpt lat="46.2194" lon="4.38831">
        <ele>451</ele>
        <time>2013-08-19T09:54:57Z</time>
      </trkpt>
      <trkpt lat="46.21942" lon="4.38829">
        <ele>451</ele>
        <time>2013-08-19T09:54:59Z</time>
      </trkpt>
      <trkpt lat="46.21942" lon="4.38827">
        <ele>451</ele>
        <time>2013-08-19T09:55:00Z</time>
      </trkpt>
      <trkpt lat="46.21943" lon="4.38825">
        <ele>451</ele>
        <time>2013-08-19T09:55:01Z</time>
      </trkpt>
      <trkpt lat="46.21946" lon="4.38824">
        <ele>451</ele>
        <time>2013-08-19T09:55:03Z</time>
      </trkpt>
      <trkpt lat="46.2195" lon="4.38821">
        <ele>452</ele>
        <time>2013-08-19T09:55:06Z</time>
      </trkpt>
      <trkpt lat="46.21951" lon="4.38821">
        <ele>452</ele>
        <time>2013-08-19T09:55:07Z</time>
      </trkpt>
      <trkpt lat="46.21953" lon="4.3882">
        <ele>452</ele>
        <time>2013-08-19T09:55:12Z</time>
      </trkpt>
      <trkpt lat="46.21955" lon="4.38815">
        <ele>452</ele>
        <time>2013-08-19T09:55:15Z</time>
      </trkpt>
      <trkpt lat="46.21957" lon="4.38815">
        <ele>452</ele>
        <time>2013-08-19T09:55:16Z</time>
      </trkpt>
      <trkpt lat="46.21959" lon="4.38812">
        <ele>452</ele>
        <time>2013-08-19T09:55:19Z</time>
      </trkpt>
      <trkpt lat="46.2196" lon="4.3881">
        <ele>452</ele>
        <time>2013-08-19T09:55:21Z</time>
      </trkpt>
      <trkpt lat="46.21959" lon="4.38806">
        <ele>452</ele>
        <time>2013-08-19T09:55:23Z</time>
      </trkpt>
      <trkpt lat="46.21958" lon="4.38803">
        <ele>452</ele>
        <time>2013-08-19T09:55:25Z</time>
      </trkpt>
      <trkpt lat="46.21957" lon="4.38799">
        <ele>452</ele>
        <time>2013-08-19T09:55:27Z</time>
      </trkpt>
      <trkpt lat="46.21957" lon="4.38797">
        <ele>452</ele>
        <time>2013-08-19T09:55:29Z</time>
      </trkpt>
      <trkpt lat="46.21959" lon="4.38796">
        <ele>452</ele>
        <time>2013-08-19T09:55:32Z</time>
      </trkpt>
      <trkpt lat="46.21962" lon="4.38792">
        <ele>451</ele>
        <time>2013-08-19T09:55:35Z</time>
      </trkpt>
      <trkpt lat="46.21963" lon="4.3879">
        <ele>451</ele>
        <time>2013-08-19T09:55:36Z</time>
      </trkpt>
      <trkpt lat="46.21965" lon="4.38789">
        <ele>451</ele>
        <time>2013-08-19T09:55:37Z</time>
      </trkpt>
      <trkpt lat="46.21967" lon="4.38788">
        <ele>451</ele>
        <time>2013-08-19T09:55:39Z</time>
      </trkpt>
      <trkpt lat="46.21968" lon="4.38787">
        <ele>451</ele>
        <time>2013-08-19T09:55:41Z</time>
      </trkpt>
      <trkpt lat="46.21969" lon="4.38779">
        <ele>450</ele>
        <time>2013-08-19T09:55:47Z</time>
      </trkpt>
      <trkpt lat="46.21972" lon="4.38776">
        <ele>450</ele>
        <time>2013-08-19T09:55:50Z</time>
      </trkpt>
      <trkpt lat="46.21972" lon="4.38774">
        <ele>450</ele>
        <time>2013-08-19T09:55:51Z</time>
      </trkpt>
      <trkpt lat="46.21973" lon="4.38772">
        <ele>449</ele>
        <time>2013-08-19T09:55:53Z</time>
      </trkpt>
      <trkpt lat="46.21973" lon="4.38768">
        <ele>449</ele>
        <time>2013-08-19T09:55:56Z</time>
      </trkpt>
      <trkpt lat="46.21973" lon="4.38767">
        <ele>449</ele>
        <time>2013-08-19T09:55:57Z</time>
      </trkpt>
      <trkpt lat="46.21974" lon="4.38765">
        <ele>449</ele>
        <time>2013-08-19T09:55:59Z</time>
      </trkpt>
      <trkpt lat="46.21975" lon="4.38761">
        <ele>448</ele>
        <time>2013-08-19T09:56:01Z</time>
      </trkpt>
      <trkpt lat="46.21976" lon="4.3876">
        <ele>448</ele>
        <time>2013-08-19T09:56:02Z</time>
      </trkpt>
      <trkpt lat="46.21978" lon="4.38758">
        <ele>448</ele>
        <time>2013-08-19T09:56:04Z</time>
      </trkpt>
      <trkpt lat="46.2198" lon="4.38757">
        <ele>447</ele>
        <time>2013-08-19T09:56:06Z</time>
      </trkpt>
      <trkpt lat="46.21986" lon="4.38752">
        <ele>445</ele>
        <time>2013-08-19T09:56:11Z</time>
      </trkpt>
      <trkpt lat="46.21987" lon="4.38749">
        <ele>446</ele>
        <time>2013-08-19T09:56:13Z</time>
      </trkpt>
      <trkpt lat="46.21987" lon="4.38752">
        <ele>445</ele>
        <time>2013-08-19T09:56:19Z</time>
      </trkpt>
      <trkpt lat="46.21991" lon="4.38751">
        <ele>443</ele>
        <time>2013-08-19T09:56:31Z</time>
      </trkpt>
      <trkpt lat="46.21989" lon="4.38756">
        <ele>444</ele>
        <time>2013-08-19T09:57:02Z</time>
      </trkpt>
      <trkpt lat="46.21989" lon="4.38749">
        <ele>445</ele>
        <time>2013-08-19T09:57:08Z</time>
      </trkpt>
      <trkpt lat="46.2199" lon="4.38747">
        <ele>445</ele>
        <time>2013-08-19T09:57:11Z</time>
      </trkpt>
      <trkpt lat="46.2199" lon="4.38745">
        <ele>445</ele>
        <time>2013-08-19T09:57:13Z</time>
      </trkpt>
      <trkpt lat="46.2199" lon="4.38741">
        <ele>447</ele>
        <time>2013-08-19T09:57:16Z</time>
      </trkpt>
      <trkpt lat="46.21991" lon="4.38737">
        <ele>447</ele>
        <time>2013-08-19T09:57:19Z</time>
      </trkpt>
      <trkpt lat="46.21992" lon="4.38736">
        <ele>447</ele>
        <time>2013-08-19T09:57:20Z</time>
      </trkpt>
      <trkpt lat="46.21997" lon="4.3873">
        <ele>448</ele>
        <time>2013-08-19T09:57:25Z</time>
      </trkpt>
      <trkpt lat="46.21999" lon="4.38729">
        <ele>449</ele>
        <time>2013-08-19T09:57:26Z</time>
      </trkpt>
      <trkpt lat="46.22" lon="4.38727">
        <ele>443</ele>
        <time>2013-08-19T09:57:27Z</time>
      </trkpt>
      <trkpt lat="46.22005" lon="4.38721">
        <ele>443</ele>
        <time>2013-08-19T09:57:31Z</time>
      </trkpt>
      <trkpt lat="46.22005" lon="4.38719">
        <ele>444</ele>
        <time>2013-08-19T09:57:33Z</time>
      </trkpt>
      <trkpt lat="46.22005" lon="4.38715">
        <ele>444</ele>
        <time>2013-08-19T09:57:35Z</time>
      </trkpt>
      <trkpt lat="46.22007" lon="4.38712">
        <ele>444</ele>
        <time>2013-08-19T09:57:37Z</time>
      </trkpt>
      <trkpt lat="46.22008" lon="4.38712">
        <ele>444</ele>
        <time>2013-08-19T09:57:39Z</time>
      </trkpt>
      <trkpt lat="46.2201" lon="4.38706">
        <ele>445</ele>
        <time>2013-08-19T09:57:43Z</time>
      </trkpt>
      <trkpt lat="46.22011" lon="4.38703">
        <ele>445</ele>
        <time>2013-08-19T09:57:46Z</time>
      </trkpt>
      <trkpt lat="46.22013" lon="4.38701">
        <ele>445</ele>
        <time>2013-08-19T09:57:47Z</time>
      </trkpt>
      <trkpt lat="46.22015" lon="4.38698">
        <ele>445</ele>
        <time>2013-08-19T09:57:50Z</time>
      </trkpt>
      <trkpt lat="46.22017" lon="4.38697">
        <ele>445</ele>
        <time>2013-08-19T09:57:53Z</time>
      </trkpt>
      <trkpt lat="46.22022" lon="4.38693">
        <ele>445</ele>
        <time>2013-08-19T09:57:57Z</time>
      </trkpt>
      <trkpt lat="46.22027" lon="4.3869">
        <ele>445</ele>
        <time>2013-08-19T09:58:00Z</time>
      </trkpt>
      <trkpt lat="46.2203" lon="4.3869">
        <ele>445</ele>
        <time>2013-08-19T09:58:01Z</time>
      </trkpt>
      <trkpt lat="46.22034" lon="4.38686">
        <ele>445</ele>
        <time>2013-08-19T09:58:05Z</time>
      </trkpt>
      <trkpt lat="46.22034" lon="4.38685">
        <ele>445</ele>
        <time>2013-08-19T09:58:06Z</time>
      </trkpt>
      <trkpt lat="46.2204" lon="4.38681">
        <ele>445</ele>
        <time>2013-08-19T09:58:13Z</time>
      </trkpt>
      <trkpt lat="46.22041" lon="4.3868">
        <ele>445</ele>
        <time>2013-08-19T09:58:14Z</time>
      </trkpt>
      <trkpt lat="46.22046" lon="4.38676">
        <ele>444</ele>
        <time>2013-08-19T09:58:18Z</time>
      </trkpt>
      <trkpt lat="46.22049" lon="4.38674">
        <ele>444</ele>
        <time>2013-08-19T09:58:21Z</time>
      </trkpt>
      <trkpt lat="46.2205" lon="4.38674">
        <ele>444</ele>
        <time>2013-08-19T09:58:22Z</time>
      </trkpt>
      <trkpt lat="46.22054" lon="4.38673">
        <ele>444</ele>
        <time>2013-08-19T09:58:27Z</time>
      </trkpt>
      <trkpt lat="46.22064" lon="4.38671">
        <ele>443</ele>
        <time>2013-08-19T09:58:33Z</time>
      </trkpt>
      <trkpt lat="46.22064" lon="4.3867">
        <ele>443</ele>
        <time>2013-08-19T09:58:34Z</time>
      </trkpt>
      <trkpt lat="46.22066" lon="4.38669">
        <ele>443</ele>
        <time>2013-08-19T09:58:37Z</time>
      </trkpt>
      <trkpt lat="46.22067" lon="4.38669">
        <ele>442</ele>
        <time>2013-08-19T09:58:38Z</time>
      </trkpt>
      <trkpt lat="46.22071" lon="4.38668">
        <ele>442</ele>
        <time>2013-08-19T09:58:41Z</time>
      </trkpt>
      <trkpt lat="46.22073" lon="4.38667">
        <ele>442</ele>
        <time>2013-08-19T09:58:43Z</time>
      </trkpt>
      <trkpt lat="46.22075" lon="4.38667">
        <ele>445</ele>
        <time>2013-08-19T09:58:46Z</time>
      </trkpt>
      <trkpt lat="46.22078" lon="4.38667">
        <ele>441</ele>
        <time>2013-08-19T09:58:49Z</time>
      </trkpt>
      <trkpt lat="46.2208" lon="4.38667">
        <ele>441</ele>
        <time>2013-08-19T09:58:52Z</time>
      </trkpt>
      <trkpt lat="46.22083" lon="4.38668">
        <ele>440</ele>
        <time>2013-08-19T09:58:56Z</time>
      </trkpt>
      <trkpt lat="46.22086" lon="4.38668">
        <ele>440</ele>
        <time>2013-08-19T09:58:59Z</time>
      </trkpt>
      <trkpt lat="46.22087" lon="4.38668">
        <ele>441</ele>
        <time>2013-08-19T09:59:00Z</time>
      </trkpt>
      <trkpt lat="46.2209" lon="4.3867">
        <ele>441</ele>
        <time>2013-08-19T09:59:04Z</time>
      </trkpt>
      <trkpt lat="46.22091" lon="4.3867">
        <ele>441</ele>
        <time>2013-08-19T09:59:05Z</time>
      </trkpt>
      <trkpt lat="46.22097" lon="4.38672">
        <ele>442</ele>
        <time>2013-08-19T09:59:10Z</time>
      </trkpt>
      <trkpt lat="46.22098" lon="4.38673">
        <ele>442</ele>
        <time>2013-08-19T09:59:12Z</time>
      </trkpt>
      <trkpt lat="46.22101" lon="4.38675">
        <ele>442</ele>
        <time>2013-08-19T09:59:15Z</time>
      </trkpt>
      <trkpt lat="46.22102" lon="4.38676">
        <ele>442</ele>
        <time>2013-08-19T09:59:17Z</time>
      </trkpt>
      <trkpt lat="46.22108" lon="4.38678">
        <ele>442</ele>
        <time>2013-08-19T09:59:23Z</time>
      </trkpt>
      <trkpt lat="46.2211" lon="4.38678">
        <ele>442</ele>
        <time>2013-08-19T09:59:25Z</time>
      </trkpt>
      <trkpt lat="46.22115" lon="4.38679">
        <ele>443</ele>
        <time>2013-08-19T09:59:29Z</time>
      </trkpt>
      <trkpt lat="46.22119" lon="4.38678">
        <ele>443</ele>
        <time>2013-08-19T09:59:33Z</time>
      </trkpt>
      <trkpt lat="46.2212" lon="4.38678">
        <ele>443</ele>
        <time>2013-08-19T09:59:34Z</time>
      </trkpt>
      <trkpt lat="46.22123" lon="4.38676">
        <ele>443</ele>
        <time>2013-08-19T09:59:38Z</time>
      </trkpt>
      <trkpt lat="46.22125" lon="4.38676">
        <ele>443</ele>
        <time>2013-08-19T09:59:40Z</time>
      </trkpt>
      <trkpt lat="46.22126" lon="4.38676">
        <ele>443</ele>
        <time>2013-08-19T09:59:41Z</time>
      </trkpt>
      <trkpt lat="46.22132" lon="4.38673">
        <ele>443</ele>
        <time>2013-08-19T09:59:47Z</time>
      </trkpt>
      <trkpt lat="46.22136" lon="4.38671">
        <ele>443</ele>
        <time>2013-08-19T09:59:52Z</time>
      </trkpt>
      <trkpt lat="46.22138" lon="4.38668">
        <ele>442</ele>
        <time>2013-08-19T09:59:55Z</time>
      </trkpt>
      <trkpt lat="46.22146" lon="4.38662">
        <ele>446</ele>
        <time>2013-08-19T10:00:02Z</time>
      </trkpt>
      <trkpt lat="46.22153" lon="4.3866">
        <ele>445</ele>
        <time>2013-08-19T10:00:09Z</time>
      </trkpt>
      <trkpt lat="46.22154" lon="4.38659">
        <ele>445</ele>
        <time>2013-08-19T10:00:10Z</time>
      </trkpt>
      <trkpt lat="46.22158" lon="4.38657">
        <ele>445</ele>
        <time>2013-08-19T10:00:14Z</time>
      </trkpt>
      <trkpt lat="46.22162" lon="4.38655">
        <ele>445</ele>
        <time>2013-08-19T10:00:18Z</time>
      </trkpt>
      <trkpt lat="46.22166" lon="4.38649">
        <ele>446</ele>
        <time>2013-08-19T10:00:23Z</time>
      </trkpt>
      <trkpt lat="46.22168" lon="4.38648">
        <ele>446</ele>
        <time>2013-08-19T10:00:25Z</time>
      </trkpt>
      <trkpt lat="46.22169" lon="4.38647">
        <ele>446</ele>
        <time>2013-08-19T10:00:26Z</time>
      </trkpt>
      <trkpt lat="46.22169" lon="4.38646">
        <ele>446</ele>
        <time>2013-08-19T10:00:27Z</time>
      </trkpt>
      <trkpt lat="46.22172" lon="4.38644">
        <ele>446</ele>
        <time>2013-08-19T10:00:30Z</time>
      </trkpt>
      <trkpt lat="46.22176" lon="4.38639">
        <ele>447</ele>
        <time>2013-08-19T10:00:37Z</time>
      </trkpt>
      <trkpt lat="46.2218" lon="4.38633">
        <ele>448</ele>
        <time>2013-08-19T10:00:44Z</time>
      </trkpt>
      <trkpt lat="46.22182" lon="4.38629">
        <ele>448</ele>
        <time>2013-08-19T10:00:47Z</time>
      </trkpt>
      <trkpt lat="46.22183" lon="4.38626">
        <ele>449</ele>
        <time>2013-08-19T10:00:49Z</time>
      </trkpt>
      <trkpt lat="46.22185" lon="4.38623">
        <ele>449</ele>
        <time>2013-08-19T10:00:52Z</time>
      </trkpt>
      <trkpt lat="46.22189" lon="4.38614">
        <ele>450</ele>
        <time>2013-08-19T10:01:00Z</time>
      </trkpt>
      <trkpt lat="46.22192" lon="4.38607">
        <ele>450</ele>
        <time>2013-08-19T10:01:07Z</time>
      </trkpt>
      <trkpt lat="46.22193" lon="4.38605">
        <ele>450</ele>
        <time>2013-08-19T10:01:09Z</time>
      </trkpt>
      <trkpt lat="46.22196" lon="4.38597">
        <ele>451</ele>
        <time>2013-08-19T10:01:16Z</time>
      </trkpt>
      <trkpt lat="46.22199" lon="4.38592">
        <ele>451</ele>
        <time>2013-08-19T10:01:21Z</time>
      </trkpt>
      <trkpt lat="46.222" lon="4.3859">
        <ele>451</ele>
        <time>2013-08-19T10:01:23Z</time>
      </trkpt>
      <trkpt lat="46.22202" lon="4.38584">
        <ele>451</ele>
        <time>2013-08-19T10:01:29Z</time>
      </trkpt>
      <trkpt lat="46.22202" lon="4.38582">
        <ele>456</ele>
        <time>2013-08-19T10:01:31Z</time>
      </trkpt>
      <trkpt lat="46.22204" lon="4.38579">
        <ele>456</ele>
        <time>2013-08-19T10:01:35Z</time>
      </trkpt>
      <trkpt lat="46.22207" lon="4.38573">
        <ele>456</ele>
        <time>2013-08-19T10:01:42Z</time>
      </trkpt>
      <trkpt lat="46.22209" lon="4.38568">
        <ele>456</ele>
        <time>2013-08-19T10:01:47Z</time>
      </trkpt>
      <trkpt lat="46.2221" lon="4.38566">
        <ele>456</ele>
        <time>2013-08-19T10:01:49Z</time>
      </trkpt>
      <trkpt lat="46.22212" lon="4.38562">
        <ele>456</ele>
        <time>2013-08-19T10:01:52Z</time>
      </trkpt>
      <trkpt lat="46.22212" lon="4.38561">
        <ele>456</ele>
        <time>2013-08-19T10:01:53Z</time>
      </trkpt>
      <trkpt lat="46.22212" lon="4.3856">
        <ele>456</ele>
        <time>2013-08-19T10:01:54Z</time>
      </trkpt>
      <trkpt lat="46.22213" lon="4.38559">
        <ele>456</ele>
        <time>2013-08-19T10:01:55Z</time>
      </trkpt>
      <trkpt lat="46.22215" lon="4.38551">
        <ele>457</ele>
        <time>2013-08-19T10:02:00Z</time>
      </trkpt>
      <trkpt lat="46.22216" lon="4.3855">
        <ele>457</ele>
        <time>2013-08-19T10:02:02Z</time>
      </trkpt>
      <trkpt lat="46.22217" lon="4.38549">
        <ele>457</ele>
        <time>2013-08-19T10:02:03Z</time>
      </trkpt>
      <trkpt lat="46.22221" lon="4.38542">
        <ele>457</ele>
        <time>2013-08-19T10:02:08Z</time>
      </trkpt>
      <trkpt lat="46.22222" lon="4.38541">
        <ele>457</ele>
        <time>2013-08-19T10:02:10Z</time>
      </trkpt>
      <trkpt lat="46.22223" lon="4.3854">
        <ele>457</ele>
        <time>2013-08-19T10:02:12Z</time>
      </trkpt>
      <trkpt lat="46.22224" lon="4.38539">
        <ele>457</ele>
        <time>2013-08-19T10:02:13Z</time>
      </trkpt>
      <trkpt lat="46.22224" lon="4.38537">
        <ele>457</ele>
        <time>2013-08-19T10:02:14Z</time>
      </trkpt>
      <trkpt lat="46.22225" lon="4.38532">
        <ele>457</ele>
        <time>2013-08-19T10:02:19Z</time>
      </trkpt>
      <trkpt lat="46.22228" lon="4.38529">
        <ele>457</ele>
        <time>2013-08-19T10:02:22Z</time>
      </trkpt>
      <trkpt lat="46.22229" lon="4.38526">
        <ele>457</ele>
        <time>2013-08-19T10:02:24Z</time>
      </trkpt>
      <trkpt lat="46.22229" lon="4.38524">
        <ele>457</ele>
        <time>2013-08-19T10:02:26Z</time>
      </trkpt>
      <trkpt lat="46.22228" lon="4.38522">
        <ele>457</ele>
        <time>2013-08-19T10:02:29Z</time>
      </trkpt>
      <trkpt lat="46.22229" lon="4.3852">
        <ele>457</ele>
        <time>2013-08-19T10:02:30Z</time>
      </trkpt>
      <trkpt lat="46.2223" lon="4.38519">
        <ele>457</ele>
        <time>2013-08-19T10:02:31Z</time>
      </trkpt>
      <trkpt lat="46.22232" lon="4.38518">
        <ele>457</ele>
        <time>2013-08-19T10:02:33Z</time>
      </trkpt>
      <trkpt lat="46.22234" lon="4.38515">
        <ele>457</ele>
        <time>2013-08-19T10:02:36Z</time>
      </trkpt>
      <trkpt lat="46.22237" lon="4.38513">
        <ele>457</ele>
        <time>2013-08-19T10:02:39Z</time>
      </trkpt>
      <trkpt lat="46.22239" lon="4.3851">
        <ele>456</ele>
        <time>2013-08-19T10:02:42Z</time>
      </trkpt>
      <trkpt lat="46.2224" lon="4.38509">
        <ele>456</ele>
        <time>2013-08-19T10:02:43Z</time>
      </trkpt>
      <trkpt lat="46.22244" lon="4.38506">
        <ele>456</ele>
        <time>2013-08-19T10:02:47Z</time>
      </trkpt>
      <trkpt lat="46.22248" lon="4.38501">
        <ele>455</ele>
        <time>2013-08-19T10:02:52Z</time>
      </trkpt>
      <trkpt lat="46.22249" lon="4.38497">
        <ele>457</ele>
        <time>2013-08-19T10:02:54Z</time>
      </trkpt>
      <trkpt lat="46.22254" lon="4.38489">
        <ele>456</ele>
        <time>2013-08-19T10:03:02Z</time>
      </trkpt>
      <trkpt lat="46.22256" lon="4.38487">
        <ele>456</ele>
        <time>2013-08-19T10:03:04Z</time>
      </trkpt>
      <trkpt lat="46.22257" lon="4.38487">
        <ele>457</ele>
        <time>2013-08-19T10:03:05Z</time>
      </trkpt>
      <trkpt lat="46.22259" lon="4.38483">
        <ele>457</ele>
        <time>2013-08-19T10:03:09Z</time>
      </trkpt>
      <trkpt lat="46.22261" lon="4.38481">
        <ele>457</ele>
        <time>2013-08-19T10:03:12Z</time>
      </trkpt>
      <trkpt lat="46.22262" lon="4.3848">
        <ele>457</ele>
        <time>2013-08-19T10:03:13Z</time>
      </trkpt>
      <trkpt lat="46.22264" lon="4.38478">
        <ele>457</ele>
        <time>2013-08-19T10:03:16Z</time>
      </trkpt>
      <trkpt lat="46.2227" lon="4.38469">
        <ele>458</ele>
        <time>2013-08-19T10:03:24Z</time>
      </trkpt>
      <trkpt lat="46.22275" lon="4.38462">
        <ele>458</ele>
        <time>2013-08-19T10:03:30Z</time>
      </trkpt>
      <trkpt lat="46.22276" lon="4.38461">
        <ele>458</ele>
        <time>2013-08-19T10:03:31Z</time>
      </trkpt>
      <trkpt lat="46.2228" lon="4.38456">
        <ele>459</ele>
        <time>2013-08-19T10:03:36Z</time>
      </trkpt>
      <trkpt lat="46.22281" lon="4.38454">
        <ele>459</ele>
        <time>2013-08-19T10:03:38Z</time>
      </trkpt>
      <trkpt lat="46.22283" lon="4.3845">
        <ele>459</ele>
        <time>2013-08-19T10:03:41Z</time>
      </trkpt>
      <trkpt lat="46.22285" lon="4.38445">
        <ele>459</ele>
        <time>2013-08-19T10:03:45Z</time>
      </trkpt>
      <trkpt lat="46.22286" lon="4.38441">
        <ele>459</ele>
        <time>2013-08-19T10:03:48Z</time>
      </trkpt>
      <trkpt lat="46.22287" lon="4.3844">
        <ele>459</ele>
        <time>2013-08-19T10:03:50Z</time>
      </trkpt>
      <trkpt lat="46.22289" lon="4.38438">
        <ele>459</ele>
        <time>2013-08-19T10:03:53Z</time>
      </trkpt>
      <trkpt lat="46.2229" lon="4.38435">
        <ele>459</ele>
        <time>2013-08-19T10:03:55Z</time>
      </trkpt>
      <trkpt lat="46.22293" lon="4.38431">
        <ele>459</ele>
        <time>2013-08-19T10:04:00Z</time>
      </trkpt>
      <trkpt lat="46.22294" lon="4.3843">
        <ele>459</ele>
        <time>2013-08-19T10:04:01Z</time>
      </trkpt>
      <trkpt lat="46.22295" lon="4.38426">
        <ele>459</ele>
        <time>2013-08-19T10:04:04Z</time>
      </trkpt>
      <trkpt lat="46.22298" lon="4.38422">
        <ele>459</ele>
        <time>2013-08-19T10:04:08Z</time>
      </trkpt>
      <trkpt lat="46.22298" lon="4.38422">
        <ele>458</ele>
        <time>2013-08-19T10:04:09Z</time>
      </trkpt>
      <trkpt lat="46.223" lon="4.38419">
        <ele>458</ele>
        <time>2013-08-19T10:04:12Z</time>
      </trkpt>
      <trkpt lat="46.223" lon="4.38418">
        <ele>458</ele>
        <time>2013-08-19T10:04:13Z</time>
      </trkpt>
      <trkpt lat="46.223" lon="4.38418">
        <ele>458</ele>
        <time>2013-08-19T10:04:14Z</time>
      </trkpt>
      <trkpt lat="46.22305" lon="4.38409">
        <ele>462</ele>
        <time>2013-08-19T10:04:22Z</time>
      </trkpt>
      <trkpt lat="46.22306" lon="4.38408">
        <ele>462</ele>
        <time>2013-08-19T10:04:23Z</time>
      </trkpt>
      <trkpt lat="46.22308" lon="4.38401">
        <ele>462</ele>
        <time>2013-08-19T10:04:28Z</time>
      </trkpt>
      <trkpt lat="46.22309" lon="4.384">
        <ele>462</ele>
        <time>2013-08-19T10:04:29Z</time>
      </trkpt>
      <trkpt lat="46.2231" lon="4.38397">
        <ele>462</ele>
        <time>2013-08-19T10:04:31Z</time>
      </trkpt>
      <trkpt lat="46.2231" lon="4.38394">
        <ele>462</ele>
        <time>2013-08-19T10:04:34Z</time>
      </trkpt>
      <trkpt lat="46.22311" lon="4.38393">
        <ele>462</ele>
        <time>2013-08-19T10:04:35Z</time>
      </trkpt>
      <trkpt lat="46.22312" lon="4.38386">
        <ele>463</ele>
        <time>2013-08-19T10:04:40Z</time>
      </trkpt>
      <trkpt lat="46.22312" lon="4.38383">
        <ele>463</ele>
        <time>2013-08-19T10:04:42Z</time>
      </trkpt>
      <trkpt lat="46.22315" lon="4.38376">
        <ele>463</ele>
        <time>2013-08-19T10:04:48Z</time>
      </trkpt>
      <trkpt lat="46.22316" lon="4.38373">
        <ele>463</ele>
        <time>2013-08-19T10:04:50Z</time>
      </trkpt>
      <trkpt lat="46.22316" lon="4.3836">
        <ele>463</ele>
        <time>2013-08-19T10:04:57Z</time>
      </trkpt>
      <trkpt lat="46.22316" lon="4.38355">
        <ele>463</ele>
        <time>2013-08-19T10:05:01Z</time>
      </trkpt>
      <trkpt lat="46.22316" lon="4.38354">
        <ele>463</ele>
        <time>2013-08-19T10:05:02Z</time>
      </trkpt>
      <trkpt lat="46.22317" lon="4.3835">
        <ele>463</ele>
        <time>2013-08-19T10:05:05Z</time>
      </trkpt>
      <trkpt lat="46.22316" lon="4.38343">
        <ele>463</ele>
        <time>2013-08-19T10:05:09Z</time>
      </trkpt>
      <trkpt lat="46.22314" lon="4.38332">
        <ele>462</ele>
        <time>2013-08-19T10:05:16Z</time>
      </trkpt>
      <trkpt lat="46.22313" lon="4.38323">
        <ele>463</ele>
        <time>2013-08-19T10:05:21Z</time>
      </trkpt>
      <trkpt lat="46.22313" lon="4.38318">
        <ele>463</ele>
        <time>2013-08-19T10:05:25Z</time>
      </trkpt>
      <trkpt lat="46.22311" lon="4.38308">
        <ele>463</ele>
        <time>2013-08-19T10:05:32Z</time>
      </trkpt>
      <trkpt lat="46.22308" lon="4.38298">
        <ele>463</ele>
        <time>2013-08-19T10:05:39Z</time>
      </trkpt>
      <trkpt lat="46.22308" lon="4.38297">
        <ele>463</ele>
        <time>2013-08-19T10:05:40Z</time>
      </trkpt>
      <trkpt lat="46.22307" lon="4.38286">
        <ele>463</ele>
        <time>2013-08-19T10:05:46Z</time>
      </trkpt>
      <trkpt lat="46.22307" lon="4.38285">
        <ele>463</ele>
        <time>2013-08-19T10:05:47Z</time>
      </trkpt>
      <trkpt lat="46.22304" lon="4.38274">
        <ele>463</ele>
        <time>2013-08-19T10:05:54Z</time>
      </trkpt>
      <trkpt lat="46.22303" lon="4.38272">
        <ele>463</ele>
        <time>2013-08-19T10:05:55Z</time>
      </trkpt>
      <trkpt lat="46.22297" lon="4.38261">
        <ele>463</ele>
        <time>2013-08-19T10:06:04Z</time>
      </trkpt>
      <trkpt lat="46.22291" lon="4.38253">
        <ele>463</ele>
        <time>2013-08-19T10:06:12Z</time>
      </trkpt>
      <trkpt lat="46.2229" lon="4.3825">
        <ele>464</ele>
        <time>2013-08-19T10:06:14Z</time>
      </trkpt>
      <trkpt lat="46.22288" lon="4.38245">
        <ele>458</ele>
        <time>2013-08-19T10:06:18Z</time>
      </trkpt>
      <trkpt lat="46.22282" lon="4.38237">
        <ele>459</ele>
        <time>2013-08-19T10:06:25Z</time>
      </trkpt>
      <trkpt lat="46.22279" lon="4.38232">
        <ele>459</ele>
        <time>2013-08-19T10:06:29Z</time>
      </trkpt>
      <trkpt lat="46.22277" lon="4.3823">
        <ele>459</ele>
        <time>2013-08-19T10:06:31Z</time>
      </trkpt>
      <trkpt lat="46.22274" lon="4.38223">
        <ele>459</ele>
        <time>2013-08-19T10:06:37Z</time>
      </trkpt>
      <trkpt lat="46.22272" lon="4.3822">
        <ele>458</ele>
        <time>2013-08-19T10:06:40Z</time>
      </trkpt>
      <trkpt lat="46.22268" lon="4.38213">
        <ele>458</ele>
        <time>2013-08-19T10:06:45Z</time>
      </trkpt>
      <trkpt lat="46.22267" lon="4.38212">
        <ele>458</ele>
        <time>2013-08-19T10:06:46Z</time>
      </trkpt>
      <trkpt lat="46.22265" lon="4.38211">
        <ele>458</ele>
        <time>2013-08-19T10:06:48Z</time>
      </trkpt>
      <trkpt lat="46.22265" lon="4.3821">
        <ele>458</ele>
        <time>2013-08-19T10:06:51Z</time>
      </trkpt>
      <trkpt lat="46.2227" lon="4.38206">
        <ele>457</ele>
        <time>2013-08-19T10:07:05Z</time>
      </trkpt>
      <trkpt lat="46.22268" lon="4.382">
        <ele>457</ele>
        <time>2013-08-19T10:07:30Z</time>
      </trkpt>
      <trkpt lat="46.22266" lon="4.38194">
        <ele>457</ele>
        <time>2013-08-19T10:07:34Z</time>
      </trkpt>
      <trkpt lat="46.22266" lon="4.38193">
        <ele>457</ele>
        <time>2013-08-19T10:07:35Z</time>
      </trkpt>
      <trkpt lat="46.22264" lon="4.3819">
        <ele>457</ele>
        <time>2013-08-19T10:07:38Z</time>
      </trkpt>
      <trkpt lat="46.2226" lon="4.38187">
        <ele>458</ele>
        <time>2013-08-19T10:07:42Z</time>
      </trkpt>
      <trkpt lat="46.22255" lon="4.3818">
        <ele>459</ele>
        <time>2013-08-19T10:07:49Z</time>
      </trkpt>
      <trkpt lat="46.22251" lon="4.38175">
        <ele>459</ele>
        <time>2013-08-19T10:07:55Z</time>
      </trkpt>
      <trkpt lat="46.2225" lon="4.38173">
        <ele>463</ele>
        <time>2013-08-19T10:07:57Z</time>
      </trkpt>
      <trkpt lat="46.22246" lon="4.3817">
        <ele>463</ele>
        <time>2013-08-19T10:08:01Z</time>
      </trkpt>
      <trkpt lat="46.22242" lon="4.38166">
        <ele>460</ele>
        <time>2013-08-19T10:08:06Z</time>
      </trkpt>
      <trkpt lat="46.22239" lon="4.38163">
        <ele>460</ele>
        <time>2013-08-19T10:08:09Z</time>
      </trkpt>
      <trkpt lat="46.22236" lon="4.38157">
        <ele>459</ele>
        <time>2013-08-19T10:08:14Z</time>
      </trkpt>
      <trkpt lat="46.22231" lon="4.38154">
        <ele>459</ele>
        <time>2013-08-19T10:08:18Z</time>
      </trkpt>
      <trkpt lat="46.22226" lon="4.38146">
        <ele>459</ele>
        <time>2013-08-19T10:08:25Z</time>
      </trkpt>
      <trkpt lat="46.22222" lon="4.38139">
        <ele>458</ele>
        <time>2013-08-19T10:08:30Z</time>
      </trkpt>
      <trkpt lat="46.22222" lon="4.38137">
        <ele>458</ele>
        <time>2013-08-19T10:08:31Z</time>
      </trkpt>
      <trkpt lat="46.22219" lon="4.38136">
        <ele>458</ele>
        <time>2013-08-19T10:08:33Z</time>
      </trkpt>
      <trkpt lat="46.22216" lon="4.38131">
        <ele>458</ele>
        <time>2013-08-19T10:08:38Z</time>
      </trkpt>
      <trkpt lat="46.22216" lon="4.38129">
        <ele>458</ele>
        <time>2013-08-19T10:08:39Z</time>
      </trkpt>
      <trkpt lat="46.2221" lon="4.38123">
        <ele>457</ele>
        <time>2013-08-19T10:08:45Z</time>
      </trkpt>
      <trkpt lat="46.2221" lon="4.38121">
        <ele>457</ele>
        <time>2013-08-19T10:08:46Z</time>
      </trkpt>
      <trkpt lat="46.22206" lon="4.38114">
        <ele>457</ele>
        <time>2013-08-19T10:08:51Z</time>
      </trkpt>
      <trkpt lat="46.22202" lon="4.38106">
        <ele>457</ele>
        <time>2013-08-19T10:08:57Z</time>
      </trkpt>
      <trkpt lat="46.22199" lon="4.38102">
        <ele>457</ele>
        <time>2013-08-19T10:09:00Z</time>
      </trkpt>
      <trkpt lat="46.22198" lon="4.38101">
        <ele>457</ele>
        <time>2013-08-19T10:09:01Z</time>
      </trkpt>
      <trkpt lat="46.22198" lon="4.381">
        <ele>457</ele>
        <time>2013-08-19T10:09:02Z</time>
      </trkpt>
      <trkpt lat="46.22197" lon="4.38099">
        <ele>457</ele>
        <time>2013-08-19T10:09:03Z</time>
      </trkpt>
      <trkpt lat="46.22192" lon="4.38093">
        <ele>457</ele>
        <time>2013-08-19T10:09:08Z</time>
      </trkpt>
      <trkpt lat="46.22191" lon="4.3809">
        <ele>457</ele>
        <time>2013-08-19T10:09:10Z</time>
      </trkpt>
      <trkpt lat="46.22189" lon="4.38086">
        <ele>457</ele>
        <time>2013-08-19T10:09:14Z</time>
      </trkpt>
      <trkpt lat="46.22189" lon="4.38085">
        <ele>457</ele>
        <time>2013-08-19T10:09:15Z</time>
      </trkpt>
      <trkpt lat="46.22186" lon="4.38079">
        <ele>449</ele>
        <time>2013-08-19T10:09:19Z</time>
      </trkpt>
      <trkpt lat="46.22185" lon="4.38077">
        <ele>449</ele>
        <time>2013-08-19T10:09:20Z</time>
      </trkpt>
      <trkpt lat="46.22182" lon="4.38071">
        <ele>449</ele>
        <time>2013-08-19T10:09:25Z</time>
      </trkpt>
      <trkpt lat="46.22181" lon="4.3807">
        <ele>449</ele>
        <time>2013-08-19T10:09:26Z</time>
      </trkpt>
      <trkpt lat="46.22177" lon="4.38063">
        <ele>448</ele>
        <time>2013-08-19T10:09:31Z</time>
      </trkpt>
      <trkpt lat="46.22176" lon="4.38062">
        <ele>448</ele>
        <time>2013-08-19T10:09:32Z</time>
      </trkpt>
      <trkpt lat="46.22174" lon="4.38058">
        <ele>448</ele>
        <time>2013-08-19T10:09:34Z</time>
      </trkpt>
      <trkpt lat="46.22172" lon="4.38056">
        <ele>447</ele>
        <time>2013-08-19T10:09:36Z</time>
      </trkpt>
      <trkpt lat="46.2217" lon="4.38053">
        <ele>447</ele>
        <time>2013-08-19T10:09:39Z</time>
      </trkpt>
      <trkpt lat="46.22168" lon="4.38047">
        <ele>446</ele>
        <time>2013-08-19T10:09:43Z</time>
      </trkpt>
      <trkpt lat="46.22167" lon="4.38046">
        <ele>446</ele>
        <time>2013-08-19T10:09:44Z</time>
      </trkpt>
      <trkpt lat="46.22164" lon="4.38042">
        <ele>458</ele>
        <time>2013-08-19T10:09:48Z</time>
      </trkpt>
      <trkpt lat="46.22163" lon="4.38037">
        <ele>457</ele>
        <time>2013-08-19T10:09:51Z</time>
      </trkpt>
      <trkpt lat="46.22162" lon="4.38032">
        <ele>456</ele>
        <time>2013-08-19T10:09:54Z</time>
      </trkpt>
      <trkpt lat="46.22159" lon="4.38021">
        <ele>455</ele>
        <time>2013-08-19T10:10:01Z</time>
      </trkpt>
      <trkpt lat="46.22157" lon="4.38019">
        <ele>454</ele>
        <time>2013-08-19T10:10:03Z</time>
      </trkpt>
      <trkpt lat="46.22156" lon="4.38017">
        <ele>454</ele>
        <time>2013-08-19T10:10:04Z</time>
      </trkpt>
      <trkpt lat="46.22157" lon="4.38014">
        <ele>453</ele>
        <time>2013-08-19T10:10:06Z</time>
      </trkpt>
      <trkpt lat="46.22157" lon="4.38011">
        <ele>453</ele>
        <time>2013-08-19T10:10:08Z</time>
      </trkpt>
      <trkpt lat="46.22156" lon="4.3801">
        <ele>452</ele>
        <time>2013-08-19T10:10:09Z</time>
      </trkpt>
      <trkpt lat="46.22157" lon="4.38008">
        <ele>452</ele>
        <time>2013-08-19T10:10:10Z</time>
      </trkpt>
      <trkpt lat="46.22156" lon="4.38006">
        <ele>452</ele>
        <time>2013-08-19T10:10:11Z</time>
      </trkpt>
      <trkpt lat="46.22153" lon="4.38">
        <ele>447</ele>
        <time>2013-08-19T10:10:15Z</time>
      </trkpt>
      <trkpt lat="46.22152" lon="4.37996">
        <ele>447</ele>
        <time>2013-08-19T10:10:17Z</time>
      </trkpt>
      <trkpt lat="46.2215" lon="4.37993">
        <ele>447</ele>
        <time>2013-08-19T10:10:20Z</time>
      </trkpt>
      <trkpt lat="46.22149" lon="4.37989">
        <ele>447</ele>
        <time>2013-08-19T10:10:22Z</time>
      </trkpt>
      <trkpt lat="46.22149" lon="4.37987">
        <ele>447</ele>
        <time>2013-08-19T10:10:23Z</time>
      </trkpt>
      <trkpt lat="46.22148" lon="4.37986">
        <ele>447</ele>
        <time>2013-08-19T10:10:24Z</time>
      </trkpt>
      <trkpt lat="46.22147" lon="4.37983">
        <ele>447</ele>
        <time>2013-08-19T10:10:26Z</time>
      </trkpt>
      <trkpt lat="46.22145" lon="4.37981">
        <ele>448</ele>
        <time>2013-08-19T10:10:28Z</time>
      </trkpt>
      <trkpt lat="46.22142" lon="4.37976">
        <ele>448</ele>
        <time>2013-08-19T10:10:32Z</time>
      </trkpt>
      <trkpt lat="46.22141" lon="4.37974">
        <ele>448</ele>
        <time>2013-08-19T10:10:33Z</time>
      </trkpt>
      <trkpt lat="46.2214" lon="4.37971">
        <ele>447</ele>
        <time>2013-08-19T10:10:35Z</time>
      </trkpt>
      <trkpt lat="46.22138" lon="4.37967">
        <ele>447</ele>
        <time>2013-08-19T10:10:38Z</time>
      </trkpt>
      <trkpt lat="46.22137" lon="4.37965">
        <ele>447</ele>
        <time>2013-08-19T10:10:39Z</time>
      </trkpt>
      <trkpt lat="46.22137" lon="4.37952">
        <ele>446</ele>
        <time>2013-08-19T10:10:45Z</time>
      </trkpt>
      <trkpt lat="46.22136" lon="4.3795">
        <ele>446</ele>
        <time>2013-08-19T10:10:46Z</time>
      </trkpt>
      <trkpt lat="46.22135" lon="4.37944">
        <ele>446</ele>
        <time>2013-08-19T10:10:50Z</time>
      </trkpt>
      <trkpt lat="46.22133" lon="4.37942">
        <ele>446</ele>
        <time>2013-08-19T10:10:52Z</time>
      </trkpt>
      <trkpt lat="46.22132" lon="4.3794">
        <ele>446</ele>
        <time>2013-08-19T10:10:54Z</time>
      </trkpt>
      <trkpt lat="46.2213" lon="4.37937">
        <ele>446</ele>
        <time>2013-08-19T10:10:56Z</time>
      </trkpt>
      <trkpt lat="46.22128" lon="4.37933">
        <ele>446</ele>
        <time>2013-08-19T10:10:58Z</time>
      </trkpt>
      <trkpt lat="46.22128" lon="4.37931">
        <ele>446</ele>
        <time>2013-08-19T10:11:00Z</time>
      </trkpt>
      <trkpt lat="46.22125" lon="4.37924">
        <ele>446</ele>
        <time>2013-08-19T10:11:04Z</time>
      </trkpt>
      <trkpt lat="46.22122" lon="4.37917">
        <ele>446</ele>
        <time>2013-08-19T10:11:09Z</time>
      </trkpt>
      <trkpt lat="46.22121" lon="4.37914">
        <ele>442</ele>
        <time>2013-08-19T10:11:11Z</time>
      </trkpt>
      <trkpt lat="46.22116" lon="4.37905">
        <ele>443</ele>
        <time>2013-08-19T10:11:18Z</time>
      </trkpt>
      <trkpt lat="46.22113" lon="4.37899">
        <ele>443</ele>
        <time>2013-08-19T10:11:24Z</time>
      </trkpt>
      <trkpt lat="46.22111" lon="4.37893">
        <ele>443</ele>
        <time>2013-08-19T10:11:28Z</time>
      </trkpt>
      <trkpt lat="46.22111" lon="4.37892">
        <ele>443</ele>
        <time>2013-08-19T10:11:29Z</time>
      </trkpt>
      <trkpt lat="46.2211" lon="4.37888">
        <ele>443</ele>
        <time>2013-08-19T10:11:31Z</time>
      </trkpt>
      <trkpt lat="46.22106" lon="4.37879">
        <ele>443</ele>
        <time>2013-08-19T10:11:38Z</time>
      </trkpt>
      <trkpt lat="46.22105" lon="4.37876">
        <ele>443</ele>
        <time>2013-08-19T10:11:41Z</time>
      </trkpt>
      <trkpt lat="46.22105" lon="4.37874">
        <ele>443</ele>
        <time>2013-08-19T10:11:42Z</time>
      </trkpt>
      <trkpt lat="46.22105" lon="4.37868">
        <ele>443</ele>
        <time>2013-08-19T10:11:46Z</time>
      </trkpt>
      <trkpt lat="46.22106" lon="4.37865">
        <ele>443</ele>
        <time>2013-08-19T10:11:48Z</time>
      </trkpt>
      <trkpt lat="46.22104" lon="4.37859">
        <ele>443</ele>
        <time>2013-08-19T10:11:53Z</time>
      </trkpt>
      <trkpt lat="46.22103" lon="4.37858">
        <ele>444</ele>
        <time>2013-08-19T10:11:54Z</time>
      </trkpt>
      <trkpt lat="46.22103" lon="4.3785">
        <ele>444</ele>
        <time>2013-08-19T10:11:59Z</time>
      </trkpt>
      <trkpt lat="46.22105" lon="4.37848">
        <ele>444</ele>
        <time>2013-08-19T10:12:01Z</time>
      </trkpt>
      <trkpt lat="46.22106" lon="4.37842">
        <ele>444</ele>
        <time>2013-08-19T10:12:04Z</time>
      </trkpt>
      <trkpt lat="46.22105" lon="4.37839">
        <ele>444</ele>
        <time>2013-08-19T10:12:06Z</time>
      </trkpt>
      <trkpt lat="46.22105" lon="4.37831">
        <ele>443</ele>
        <time>2013-08-19T10:12:11Z</time>
      </trkpt>
      <trkpt lat="46.22105" lon="4.37829">
        <ele>443</ele>
        <time>2013-08-19T10:12:12Z</time>
      </trkpt>
      <trkpt lat="46.22103" lon="4.37822">
        <ele>444</ele>
        <time>2013-08-19T10:12:17Z</time>
      </trkpt>
      <trkpt lat="46.22101" lon="4.37817">
        <ele>443</ele>
        <time>2013-08-19T10:12:20Z</time>
      </trkpt>
      <trkpt lat="46.221" lon="4.37812">
        <ele>443</ele>
        <time>2013-08-19T10:12:23Z</time>
      </trkpt>
      <trkpt lat="46.221" lon="4.3781">
        <ele>443</ele>
        <time>2013-08-19T10:12:24Z</time>
      </trkpt>
      <trkpt lat="46.22097" lon="4.37799">
        <ele>442</ele>
        <time>2013-08-19T10:12:30Z</time>
      </trkpt>
      <trkpt lat="46.22095" lon="4.37791">
        <ele>442</ele>
        <time>2013-08-19T10:12:35Z</time>
      </trkpt>
      <trkpt lat="46.22091" lon="4.37781">
        <ele>443</ele>
        <time>2013-08-19T10:12:42Z</time>
      </trkpt>
      <trkpt lat="46.22089" lon="4.37778">
        <ele>443</ele>
        <time>2013-08-19T10:12:44Z</time>
      </trkpt>
      <trkpt lat="46.22087" lon="4.37774">
        <ele>443</ele>
        <time>2013-08-19T10:12:47Z</time>
      </trkpt>
      <trkpt lat="46.22084" lon="4.37768">
        <ele>444</ele>
        <time>2013-08-19T10:12:51Z</time>
      </trkpt>
      <trkpt lat="46.22084" lon="4.37767">
        <ele>445</ele>
        <time>2013-08-19T10:12:52Z</time>
      </trkpt>
      <trkpt lat="46.22082" lon="4.37765">
        <ele>454</ele>
        <time>2013-08-19T10:12:54Z</time>
      </trkpt>
      <trkpt lat="46.22082" lon="4.37763">
        <ele>454</ele>
        <time>2013-08-19T10:12:55Z</time>
      </trkpt>
      <trkpt lat="46.22078" lon="4.37754">
        <ele>452</ele>
        <time>2013-08-19T10:13:01Z</time>
      </trkpt>
      <trkpt lat="46.22074" lon="4.37747">
        <ele>451</ele>
        <time>2013-08-19T10:13:06Z</time>
      </trkpt>
      <trkpt lat="46.22071" lon="4.37741">
        <ele>452</ele>
        <time>2013-08-19T10:13:10Z</time>
      </trkpt>
      <trkpt lat="46.22068" lon="4.37736">
        <ele>453</ele>
        <time>2013-08-19T10:13:13Z</time>
      </trkpt>
      <trkpt lat="46.22067" lon="4.37731">
        <ele>453</ele>
        <time>2013-08-19T10:13:16Z</time>
      </trkpt>
      <trkpt lat="46.22064" lon="4.37724">
        <ele>454</ele>
        <time>2013-08-19T10:13:21Z</time>
      </trkpt>
      <trkpt lat="46.22064" lon="4.37721">
        <ele>454</ele>
        <time>2013-08-19T10:13:23Z</time>
      </trkpt>
      <trkpt lat="46.22062" lon="4.37715">
        <ele>454</ele>
        <time>2013-08-19T10:13:26Z</time>
      </trkpt>
      <trkpt lat="46.22061" lon="4.3771">
        <ele>454</ele>
        <time>2013-08-19T10:13:29Z</time>
      </trkpt>
      <trkpt lat="46.2206" lon="4.37707">
        <ele>453</ele>
        <time>2013-08-19T10:13:31Z</time>
      </trkpt>
      <trkpt lat="46.2206" lon="4.37705">
        <ele>453</ele>
        <time>2013-08-19T10:13:33Z</time>
      </trkpt>
      <trkpt lat="46.22059" lon="4.37704">
        <ele>453</ele>
        <time>2013-08-19T10:13:34Z</time>
      </trkpt>
      <trkpt lat="46.22058" lon="4.37698">
        <ele>453</ele>
        <time>2013-08-19T10:13:37Z</time>
      </trkpt>
      <trkpt lat="46.22055" lon="4.37689">
        <ele>453</ele>
        <time>2013-08-19T10:13:42Z</time>
      </trkpt>
      <trkpt lat="46.22051" lon="4.37681">
        <ele>453</ele>
        <time>2013-08-19T10:13:47Z</time>
      </trkpt>
      <trkpt lat="46.2205" lon="4.37677">
        <ele>453</ele>
        <time>2013-08-19T10:13:49Z</time>
      </trkpt>
      <trkpt lat="46.22051" lon="4.37673">
        <ele>453</ele>
        <time>2013-08-19T10:13:52Z</time>
      </trkpt>
      <trkpt lat="46.22049" lon="4.37664">
        <ele>451</ele>
        <time>2013-08-19T10:13:57Z</time>
      </trkpt>
      <trkpt lat="46.2205" lon="4.3766">
        <ele>451</ele>
        <time>2013-08-19T10:13:59Z</time>
      </trkpt>
      <trkpt lat="46.22051" lon="4.37655">
        <ele>450</ele>
        <time>2013-08-19T10:14:02Z</time>
      </trkpt>
      <trkpt lat="46.2205" lon="4.3765">
        <ele>450</ele>
        <time>2013-08-19T10:14:04Z</time>
      </trkpt>
      <trkpt lat="46.22051" lon="4.37645">
        <ele>450</ele>
        <time>2013-08-19T10:14:06Z</time>
      </trkpt>
      <trkpt lat="46.2205" lon="4.37641">
        <ele>451</ele>
        <time>2013-08-19T10:14:08Z</time>
      </trkpt>
      <trkpt lat="46.22048" lon="4.37629">
        <ele>451</ele>
        <time>2013-08-19T10:14:16Z</time>
      </trkpt>
      <trkpt lat="46.22048" lon="4.37628">
        <ele>451</ele>
        <time>2013-08-19T10:14:17Z</time>
      </trkpt>
      <trkpt lat="46.22048" lon="4.37622">
        <ele>451</ele>
        <time>2013-08-19T10:14:20Z</time>
      </trkpt>
      <trkpt lat="46.22048" lon="4.37621">
        <ele>451</ele>
        <time>2013-08-19T10:14:21Z</time>
      </trkpt>
      <trkpt lat="46.22047" lon="4.37618">
        <ele>451</ele>
        <time>2013-08-19T10:14:23Z</time>
      </trkpt>
      <trkpt lat="46.22048" lon="4.37616">
        <ele>450</ele>
        <time>2013-08-19T10:14:24Z</time>
      </trkpt>
      <trkpt lat="46.22048" lon="4.37614">
        <ele>450</ele>
        <time>2013-08-19T10:14:25Z</time>
      </trkpt>
      <trkpt lat="46.22048" lon="4.3761">
        <ele>450</ele>
        <time>2013-08-19T10:14:27Z</time>
      </trkpt>
      <trkpt lat="46.22047" lon="4.37605">
        <ele>450</ele>
        <time>2013-08-19T10:14:30Z</time>
      </trkpt>
      <trkpt lat="46.22047" lon="4.37594">
        <ele>450</ele>
        <time>2013-08-19T10:14:36Z</time>
      </trkpt>
      <trkpt lat="46.22046" lon="4.37589">
        <ele>450</ele>
        <time>2013-08-19T10:14:39Z</time>
      </trkpt>
      <trkpt lat="46.22043" lon="4.37576">
        <ele>449</ele>
        <time>2013-08-19T10:14:45Z</time>
      </trkpt>
      <trkpt lat="46.22042" lon="4.37565">
        <ele>449</ele>
        <time>2013-08-19T10:14:53Z</time>
      </trkpt>
      <trkpt lat="46.22042" lon="4.37564">
        <ele>449</ele>
        <time>2013-08-19T10:14:54Z</time>
      </trkpt>
      <trkpt lat="46.2204" lon="4.37554">
        <ele>450</ele>
        <time>2013-08-19T10:15:01Z</time>
      </trkpt>
      <trkpt lat="46.22039" lon="4.37543">
        <ele>450</ele>
        <time>2013-08-19T10:15:09Z</time>
      </trkpt>
      <trkpt lat="46.22039" lon="4.37537">
        <ele>449</ele>
        <time>2013-08-19T10:15:12Z</time>
      </trkpt>
      <trkpt lat="46.22038" lon="4.37536">
        <ele>449</ele>
        <time>2013-08-19T10:15:13Z</time>
      </trkpt>
      <trkpt lat="46.22038" lon="4.37535">
        <ele>449</ele>
        <time>2013-08-19T10:15:14Z</time>
      </trkpt>
      <trkpt lat="46.22038" lon="4.37532">
        <ele>449</ele>
        <time>2013-08-19T10:15:16Z</time>
      </trkpt>
      <trkpt lat="46.22038" lon="4.37521">
        <ele>449</ele>
        <time>2013-08-19T10:15:22Z</time>
      </trkpt>
      <trkpt lat="46.22038" lon="4.3752">
        <ele>449</ele>
        <time>2013-08-19T10:15:23Z</time>
      </trkpt>
      <trkpt lat="46.22037" lon="4.37512">
        <ele>449</ele>
        <time>2013-08-19T10:15:28Z</time>
      </trkpt>
      <trkpt lat="46.22037" lon="4.3751">
        <ele>450</ele>
        <time>2013-08-19T10:15:29Z</time>
      </trkpt>
      <trkpt lat="46.22036" lon="4.37504">
        <ele>450</ele>
        <time>2013-08-19T10:15:34Z</time>
      </trkpt>
      <trkpt lat="46.22036" lon="4.37502">
        <ele>450</ele>
        <time>2013-08-19T10:15:35Z</time>
      </trkpt>
      <trkpt lat="46.22035" lon="4.37495">
        <ele>449</ele>
        <time>2013-08-19T10:15:40Z</time>
      </trkpt>
      <trkpt lat="46.22035" lon="4.37489">
        <ele>449</ele>
        <time>2013-08-19T10:15:44Z</time>
      </trkpt>
      <trkpt lat="46.22035" lon="4.37484">
        <ele>449</ele>
        <time>2013-08-19T10:15:47Z</time>
      </trkpt>
      <trkpt lat="46.22034" lon="4.3748">
        <ele>449</ele>
        <time>2013-08-19T10:15:50Z</time>
      </trkpt>
      <trkpt lat="46.22034" lon="4.37471">
        <ele>448</ele>
        <time>2013-08-19T10:15:55Z</time>
      </trkpt>
      <trkpt lat="46.22034" lon="4.37467">
        <ele>448</ele>
        <time>2013-08-19T10:15:58Z</time>
      </trkpt>
      <trkpt lat="46.22033" lon="4.37464">
        <ele>448</ele>
        <time>2013-08-19T10:16:00Z</time>
      </trkpt>
      <trkpt lat="46.22033" lon="4.37457">
        <ele>448</ele>
        <time>2013-08-19T10:16:04Z</time>
      </trkpt>
      <trkpt lat="46.22033" lon="4.37453">
        <ele>448</ele>
        <time>2013-08-19T10:16:07Z</time>
      </trkpt>
      <trkpt lat="46.22031" lon="4.3744">
        <ele>449</ele>
        <time>2013-08-19T10:16:15Z</time>
      </trkpt>
      <trkpt lat="46.2203" lon="4.37431">
        <ele>449</ele>
        <time>2013-08-19T10:16:21Z</time>
      </trkpt>
      <trkpt lat="46.22029" lon="4.37427">
        <ele>450</ele>
        <time>2013-08-19T10:16:24Z</time>
      </trkpt>
      <trkpt lat="46.22027" lon="4.37415">
        <ele>449</ele>
        <time>2013-08-19T10:16:32Z</time>
      </trkpt>
      <trkpt lat="46.22027" lon="4.37405">
        <ele>449</ele>
        <time>2013-08-19T10:16:37Z</time>
      </trkpt>
      <trkpt lat="46.22026" lon="4.37402">
        <ele>449</ele>
        <time>2013-08-19T10:16:39Z</time>
      </trkpt>
      <trkpt lat="46.22024" lon="4.37389">
        <ele>448</ele>
        <time>2013-08-19T10:16:46Z</time>
      </trkpt>
      <trkpt lat="46.22022" lon="4.3738">
        <ele>448</ele>
        <time>2013-08-19T10:16:51Z</time>
      </trkpt>
      <trkpt lat="46.22021" lon="4.37375">
        <ele>448</ele>
        <time>2013-08-19T10:16:54Z</time>
      </trkpt>
      <trkpt lat="46.22018" lon="4.37363">
        <ele>448</ele>
        <time>2013-08-19T10:17:02Z</time>
      </trkpt>
      <trkpt lat="46.22016" lon="4.37354">
        <ele>448</ele>
        <time>2013-08-19T10:17:07Z</time>
      </trkpt>
      <trkpt lat="46.22014" lon="4.37349">
        <ele>448</ele>
        <time>2013-08-19T10:17:10Z</time>
      </trkpt>
      <trkpt lat="46.2201" lon="4.37339">
        <ele>449</ele>
        <time>2013-08-19T10:17:16Z</time>
      </trkpt>
      <trkpt lat="46.22008" lon="4.3733">
        <ele>449</ele>
        <time>2013-08-19T10:17:22Z</time>
      </trkpt>
      <trkpt lat="46.22007" lon="4.37326">
        <ele>449</ele>
        <time>2013-08-19T10:17:24Z</time>
      </trkpt>
      <trkpt lat="46.22005" lon="4.37315">
        <ele>448</ele>
        <time>2013-08-19T10:17:30Z</time>
      </trkpt>
      <trkpt lat="46.22004" lon="4.37313">
        <ele>447</ele>
        <time>2013-08-19T10:17:31Z</time>
      </trkpt>
      <trkpt lat="46.22003" lon="4.37304">
        <ele>446</ele>
        <time>2013-08-19T10:17:36Z</time>
      </trkpt>
      <trkpt lat="46.22002" lon="4.373">
        <ele>446</ele>
        <time>2013-08-19T10:17:38Z</time>
      </trkpt>
      <trkpt lat="46.22" lon="4.37284">
        <ele>459</ele>
        <time>2013-08-19T10:17:47Z</time>
      </trkpt>
      <trkpt lat="46.21998" lon="4.37277">
        <ele>459</ele>
        <time>2013-08-19T10:17:51Z</time>
      </trkpt>
      <trkpt lat="46.21997" lon="4.37272">
        <ele>458</ele>
        <time>2013-08-19T10:17:54Z</time>
      </trkpt>
      <trkpt lat="46.21997" lon="4.37263">
        <ele>456</ele>
        <time>2013-08-19T10:18:00Z</time>
      </trkpt>
      <trkpt lat="46.21998" lon="4.37262">
        <ele>456</ele>
        <time>2013-08-19T10:18:01Z</time>
      </trkpt>
      <trkpt lat="46.22" lon="4.37261">
        <ele>456</ele>
        <time>2013-08-19T10:18:07Z</time>
      </trkpt>
      <trkpt lat="46.22004" lon="4.37259">
        <ele>448</ele>
        <time>2013-08-19T10:18:16Z</time>
      </trkpt>
      <trkpt lat="46.22005" lon="4.37258">
        <ele>449</ele>
        <time>2013-08-19T10:18:17Z</time>
      </trkpt>
      <trkpt lat="46.2201" lon="4.37254">
        <ele>448</ele>
        <time>2013-08-19T10:18:22Z</time>
      </trkpt>
      <trkpt lat="46.22014" lon="4.37252">
        <ele>447</ele>
        <time>2013-08-19T10:18:29Z</time>
      </trkpt>
      <trkpt lat="46.22016" lon="4.3725">
        <ele>445</ele>
        <time>2013-08-19T10:18:33Z</time>
      </trkpt>
      <trkpt lat="46.22021" lon="4.37249">
        <ele>444</ele>
        <time>2013-08-19T10:18:41Z</time>
      </trkpt>
      <trkpt lat="46.22021" lon="4.37247">
        <ele>444</ele>
        <time>2013-08-19T10:18:45Z</time>
      </trkpt>
      <trkpt lat="46.22026" lon="4.37245">
        <ele>443</ele>
        <time>2013-08-19T10:18:57Z</time>
      </trkpt>
      <trkpt lat="46.22029" lon="4.37244">
        <ele>443</ele>
        <time>2013-08-19T10:19:04Z</time>
      </trkpt>
      <trkpt lat="46.22034" lon="4.37241">
        <ele>442</ele>
        <time>2013-08-19T10:19:34Z</time>
      </trkpt>
      <trkpt lat="46.22038" lon="4.37239">
        <ele>441</ele>
        <time>2013-08-19T10:19:45Z</time>
      </trkpt>
      <trkpt lat="46.22039" lon="4.37239">
        <ele>441</ele>
        <time>2013-08-19T10:19:46Z</time>
      </trkpt>
      <trkpt lat="46.2204" lon="4.37235">
        <ele>440</ele>
        <time>2013-08-19T10:21:00Z</time>
      </trkpt>
      <trkpt lat="46.22038" lon="4.37236">
        <ele>441</ele>
        <time>2013-08-19T10:21:06Z</time>
      </trkpt>
      <trkpt lat="46.22037" lon="4.37238">
        <ele>441</ele>
        <time>2013-08-19T10:21:18Z</time>
      </trkpt>
      <trkpt lat="46.2204" lon="4.37237">
        <ele>440</ele>
        <time>2013-08-19T10:21:39Z</time>
      </trkpt>
      <trkpt lat="46.22042" lon="4.37236">
        <ele>440</ele>
        <time>2013-08-19T10:22:06Z</time>
      </trkpt>
      <trkpt lat="46.22041" lon="4.37237">
        <ele>440</ele>
        <time>2013-08-19T10:22:10Z</time>
      </trkpt>
      <trkpt lat="46.22037" lon="4.37238">
        <ele>441</ele>
        <time>2013-08-19T10:22:15Z</time>
      </trkpt>
      <trkpt lat="46.22036" lon="4.37239">
        <ele>441</ele>
        <time>2013-08-19T10:22:16Z</time>
      </trkpt>
      <trkpt lat="46.22035" lon="4.37238">
        <ele>441</ele>
        <time>2013-08-19T10:22:22Z</time>
      </trkpt>
      <trkpt lat="46.22033" lon="4.37237">
        <ele>442</ele>
        <time>2013-08-19T10:22:53Z</time>
      </trkpt>
      <trkpt lat="46.22035" lon="4.37233">
        <ele>441</ele>
        <time>2013-08-19T10:24:04Z</time>
      </trkpt>
      <trkpt lat="46.22036" lon="4.37234">
        <ele>441</ele>
        <time>2013-08-19T10:24:15Z</time>
      </trkpt>
      <trkpt lat="46.22037" lon="4.37234">
        <ele>441</ele>
        <time>2013-08-19T10:24:16Z</time>
      </trkpt>
      <trkpt lat="46.22041" lon="4.37231">
        <ele>440</ele>
        <time>2013-08-19T10:24:21Z</time>
      </trkpt>
      <trkpt lat="46.22044" lon="4.3723">
        <ele>440</ele>
        <time>2013-08-19T10:24:25Z</time>
      </trkpt>
      <trkpt lat="46.22046" lon="4.3723">
        <ele>440</ele>
        <time>2013-08-19T10:24:27Z</time>
      </trkpt>
      <trkpt lat="46.22051" lon="4.37227">
        <ele>439</ele>
        <time>2013-08-19T10:24:32Z</time>
      </trkpt>
      <trkpt lat="46.22052" lon="4.37226">
        <ele>439</ele>
        <time>2013-08-19T10:24:34Z</time>
      </trkpt>
      <trkpt lat="46.22053" lon="4.37224">
        <ele>439</ele>
        <time>2013-08-19T10:24:36Z</time>
      </trkpt>
      <trkpt lat="46.22054" lon="4.37223">
        <ele>439</ele>
        <time>2013-08-19T10:24:37Z</time>
      </trkpt>
      <trkpt lat="46.22057" lon="4.37221">
        <ele>438</ele>
        <time>2013-08-19T10:24:40Z</time>
      </trkpt>
      <trkpt lat="46.22059" lon="4.37221">
        <ele>438</ele>
        <time>2013-08-19T10:24:43Z</time>
      </trkpt>
      <trkpt lat="46.22064" lon="4.37219">
        <ele>438</ele>
        <time>2013-08-19T10:24:49Z</time>
      </trkpt>
      <trkpt lat="46.22069" lon="4.37218">
        <ele>437</ele>
        <time>2013-08-19T10:24:54Z</time>
      </trkpt>
      <trkpt lat="46.22071" lon="4.37217">
        <ele>437</ele>
        <time>2013-08-19T10:24:56Z</time>
      </trkpt>
      <trkpt lat="46.22075" lon="4.37214">
        <ele>437</ele>
        <time>2013-08-19T10:25:01Z</time>
      </trkpt>
      <trkpt lat="46.22077" lon="4.37214">
        <ele>437</ele>
        <time>2013-08-19T10:25:06Z</time>
      </trkpt>
      <trkpt lat="46.22085" lon="4.3721">
        <ele>427</ele>
        <time>2013-08-19T10:25:14Z</time>
      </trkpt>
      <trkpt lat="46.22087" lon="4.37208">
        <ele>426</ele>
        <time>2013-08-19T10:25:17Z</time>
      </trkpt>
      <trkpt lat="46.2209" lon="4.37207">
        <ele>426</ele>
        <time>2013-08-19T10:25:20Z</time>
      </trkpt>
      <trkpt lat="46.22096" lon="4.37205">
        <ele>426</ele>
        <time>2013-08-19T10:25:27Z</time>
      </trkpt>
      <trkpt lat="46.22099" lon="4.37204">
        <ele>426</ele>
        <time>2013-08-19T10:25:30Z</time>
      </trkpt>
      <trkpt lat="46.22101" lon="4.37203">
        <ele>426</ele>
        <time>2013-08-19T10:25:32Z</time>
      </trkpt>
      <trkpt lat="46.22102" lon="4.37203">
        <ele>425</ele>
        <time>2013-08-19T10:25:33Z</time>
      </trkpt>
      <trkpt lat="46.22105" lon="4.37201">
        <ele>425</ele>
        <time>2013-08-19T10:25:36Z</time>
      </trkpt>
      <trkpt lat="46.22109" lon="4.37198">
        <ele>425</ele>
        <time>2013-08-19T10:25:40Z</time>
      </trkpt>
      <trkpt lat="46.22117" lon="4.37194">
        <ele>424</ele>
        <time>2013-08-19T10:25:46Z</time>
      </trkpt>
      <trkpt lat="46.22121" lon="4.37191">
        <ele>424</ele>
        <time>2013-08-19T10:25:50Z</time>
      </trkpt>
      <trkpt lat="46.22124" lon="4.3719">
        <ele>423</ele>
        <time>2013-08-19T10:25:52Z</time>
      </trkpt>
      <trkpt lat="46.22125" lon="4.37189">
        <ele>423</ele>
        <time>2013-08-19T10:25:53Z</time>
      </trkpt>
      <trkpt lat="46.2213" lon="4.37183">
        <ele>423</ele>
        <time>2013-08-19T10:25:58Z</time>
      </trkpt>
      <trkpt lat="46.22137" lon="4.37183">
        <ele>422</ele>
        <time>2013-08-19T10:26:03Z</time>
      </trkpt>
      <trkpt lat="46.22138" lon="4.37182">
        <ele>422</ele>
        <time>2013-08-19T10:26:04Z</time>
      </trkpt>
      <trkpt lat="46.22142" lon="4.3718">
        <ele>421</ele>
        <time>2013-08-19T10:26:07Z</time>
      </trkpt>
      <trkpt lat="46.22144" lon="4.37179">
        <ele>421</ele>
        <time>2013-08-19T10:26:09Z</time>
      </trkpt>
      <trkpt lat="46.22149" lon="4.37177">
        <ele>420</ele>
        <time>2013-08-19T10:26:13Z</time>
      </trkpt>
      <trkpt lat="46.22153" lon="4.37177">
        <ele>419</ele>
        <time>2013-08-19T10:26:16Z</time>
      </trkpt>
      <trkpt lat="46.22156" lon="4.37178">
        <ele>419</ele>
        <time>2013-08-19T10:26:19Z</time>
      </trkpt>
      <trkpt lat="46.22159" lon="4.37179">
        <ele>419</ele>
        <time>2013-08-19T10:26:22Z</time>
      </trkpt>
      <trkpt lat="46.22161" lon="4.37179">
        <ele>419</ele>
        <time>2013-08-19T10:26:28Z</time>
      </trkpt>
      <trkpt lat="46.22165" lon="4.37178">
        <ele>418</ele>
        <time>2013-08-19T10:26:47Z</time>
      </trkpt>
      <trkpt lat="46.22166" lon="4.3718">
        <ele>418</ele>
        <time>2013-08-19T10:26:54Z</time>
      </trkpt>
      <trkpt lat="46.22163" lon="4.37183">
        <ele>419</ele>
        <time>2013-08-19T10:27:19Z</time>
      </trkpt>
      <trkpt lat="46.22162" lon="4.37182">
        <ele>419</ele>
        <time>2013-08-19T10:27:27Z</time>
      </trkpt>
      <trkpt lat="46.22159" lon="4.37182">
        <ele>419</ele>
        <time>2013-08-19T10:27:30Z</time>
      </trkpt>
      <trkpt lat="46.22159" lon="4.37182">
        <ele>419</ele>
        <time>2013-08-19T10:27:31Z</time>
      </trkpt>
      <trkpt lat="46.22155" lon="4.37183">
        <ele>420</ele>
        <time>2013-08-19T10:27:35Z</time>
      </trkpt>
      <trkpt lat="46.22154" lon="4.37184">
        <ele>420</ele>
        <time>2013-08-19T10:27:36Z</time>
      </trkpt>
      <trkpt lat="46.2216" lon="4.37183">
        <ele>419</ele>
        <time>2013-08-19T10:28:01Z</time>
      </trkpt>
      <trkpt lat="46.22157" lon="4.37183">
        <ele>419</ele>
        <time>2013-08-19T10:28:07Z</time>
      </trkpt>
      <trkpt lat="46.22154" lon="4.37185">
        <ele>420</ele>
        <time>2013-08-19T10:28:20Z</time>
      </trkpt>
      <trkpt lat="46.22152" lon="4.37185">
        <ele>420</ele>
        <time>2013-08-19T10:28:24Z</time>
      </trkpt>
      <trkpt lat="46.22155" lon="4.37185">
        <ele>420</ele>
        <time>2013-08-19T10:28:50Z</time>
      </trkpt>
      <trkpt lat="46.22158" lon="4.37184">
        <ele>420</ele>
        <time>2013-08-19T10:28:53Z</time>
      </trkpt>
      <trkpt lat="46.22163" lon="4.37183">
        <ele>419</ele>
        <time>2013-08-19T10:28:58Z</time>
      </trkpt>
      <trkpt lat="46.22163" lon="4.37183">
        <ele>419</ele>
        <time>2013-08-19T10:28:59Z</time>
      </trkpt>
      <trkpt lat="46.22171" lon="4.37181">
        <ele>413</ele>
        <time>2013-08-19T10:29:06Z</time>
      </trkpt>
      <trkpt lat="46.22173" lon="4.37179">
        <ele>413</ele>
        <time>2013-08-19T10:29:10Z</time>
      </trkpt>
      <trkpt lat="46.22176" lon="4.37177">
        <ele>413</ele>
        <time>2013-08-19T10:29:12Z</time>
      </trkpt>
      <trkpt lat="46.22181" lon="4.37174">
        <ele>413</ele>
        <time>2013-08-19T10:29:17Z</time>
      </trkpt>
      <trkpt lat="46.22183" lon="4.37172">
        <ele>413</ele>
        <time>2013-08-19T10:29:19Z</time>
      </trkpt>
      <trkpt lat="46.22183" lon="4.37171">
        <ele>413</ele>
        <time>2013-08-19T10:29:20Z</time>
      </trkpt>
      <trkpt lat="46.22187" lon="4.37165">
        <ele>412</ele>
        <time>2013-08-19T10:29:24Z</time>
      </trkpt>
      <trkpt lat="46.22188" lon="4.37164">
        <ele>412</ele>
        <time>2013-08-19T10:29:25Z</time>
      </trkpt>
      <trkpt lat="46.22191" lon="4.37158">
        <ele>412</ele>
        <time>2013-08-19T10:29:28Z</time>
      </trkpt>
      <trkpt lat="46.22192" lon="4.37156">
        <ele>411</ele>
        <time>2013-08-19T10:29:30Z</time>
      </trkpt>
      <trkpt lat="46.22195" lon="4.37148">
        <ele>411</ele>
        <time>2013-08-19T10:29:36Z</time>
      </trkpt>
      <trkpt lat="46.22198" lon="4.37143">
        <ele>411</ele>
        <time>2013-08-19T10:29:40Z</time>
      </trkpt>
      <trkpt lat="46.222" lon="4.3714">
        <ele>411</ele>
        <time>2013-08-19T10:29:42Z</time>
      </trkpt>
      <trkpt lat="46.22204" lon="4.37132">
        <ele>410</ele>
        <time>2013-08-19T10:29:47Z</time>
      </trkpt>
      <trkpt lat="46.22207" lon="4.37126">
        <ele>410</ele>
        <time>2013-08-19T10:29:51Z</time>
      </trkpt>
      <trkpt lat="46.22208" lon="4.37122">
        <ele>410</ele>
        <time>2013-08-19T10:29:53Z</time>
      </trkpt>
      <trkpt lat="46.22209" lon="4.37121">
        <ele>410</ele>
        <time>2013-08-19T10:29:54Z</time>
      </trkpt>
      <trkpt lat="46.2221" lon="4.3712">
        <ele>410</ele>
        <time>2013-08-19T10:29:55Z</time>
      </trkpt>
      <trkpt lat="46.22215" lon="4.37114">
        <ele>410</ele>
        <time>2013-08-19T10:30:00Z</time>
      </trkpt>
      <trkpt lat="46.22215" lon="4.37112">
        <ele>410</ele>
        <time>2013-08-19T10:30:01Z</time>
      </trkpt>
      <trkpt lat="46.2222" lon="4.37101">
        <ele>409</ele>
        <time>2013-08-19T10:30:09Z</time>
      </trkpt>
      <trkpt lat="46.22224" lon="4.37093">
        <ele>409</ele>
        <time>2013-08-19T10:30:14Z</time>
      </trkpt>
      <trkpt lat="46.22229" lon="4.37086">
        <ele>408</ele>
        <time>2013-08-19T10:30:20Z</time>
      </trkpt>
      <trkpt lat="46.22231" lon="4.37084">
        <ele>408</ele>
        <time>2013-08-19T10:30:22Z</time>
      </trkpt>
      <trkpt lat="46.22232" lon="4.37081">
        <ele>409</ele>
        <time>2013-08-19T10:30:25Z</time>
      </trkpt>
      <trkpt lat="46.22233" lon="4.37079">
        <ele>409</ele>
        <time>2013-08-19T10:30:26Z</time>
      </trkpt>
      <trkpt lat="46.22234" lon="4.37078">
        <ele>409</ele>
        <time>2013-08-19T10:30:27Z</time>
      </trkpt>
      <trkpt lat="46.22237" lon="4.37074">
        <ele>408</ele>
        <time>2013-08-19T10:30:32Z</time>
      </trkpt>
      <trkpt lat="46.22243" lon="4.37068">
        <ele>408</ele>
        <time>2013-08-19T10:30:36Z</time>
      </trkpt>
      <trkpt lat="46.22243" lon="4.37066">
        <ele>409</ele>
        <time>2013-08-19T10:30:37Z</time>
      </trkpt>
      <trkpt lat="46.22244" lon="4.37064">
        <ele>409</ele>
        <time>2013-08-19T10:30:38Z</time>
      </trkpt>
      <trkpt lat="46.22244" lon="4.37062">
        <ele>409</ele>
        <time>2013-08-19T10:30:39Z</time>
      </trkpt>
      <trkpt lat="46.22251" lon="4.37056">
        <ele>406</ele>
        <time>2013-08-19T10:30:44Z</time>
      </trkpt>
      <trkpt lat="46.22257" lon="4.37049">
        <ele>406</ele>
        <time>2013-08-19T10:30:50Z</time>
      </trkpt>
      <trkpt lat="46.22258" lon="4.37046">
        <ele>406</ele>
        <time>2013-08-19T10:30:52Z</time>
      </trkpt>
      <trkpt lat="46.22259" lon="4.37044">
        <ele>406</ele>
        <time>2013-08-19T10:30:53Z</time>
      </trkpt>
      <trkpt lat="46.22261" lon="4.37042">
        <ele>406</ele>
        <time>2013-08-19T10:30:55Z</time>
      </trkpt>
      <trkpt lat="46.22262" lon="4.3704">
        <ele>406</ele>
        <time>2013-08-19T10:30:56Z</time>
      </trkpt>
      <trkpt lat="46.22262" lon="4.37035">
        <ele>406</ele>
        <time>2013-08-19T10:30:59Z</time>
      </trkpt>
      <trkpt lat="46.22262" lon="4.37031">
        <ele>406</ele>
        <time>2013-08-19T10:31:01Z</time>
      </trkpt>
      <trkpt lat="46.22264" lon="4.37024">
        <ele>406</ele>
        <time>2013-08-19T10:31:07Z</time>
      </trkpt>
      <trkpt lat="46.22263" lon="4.37021">
        <ele>406</ele>
        <time>2013-08-19T10:31:09Z</time>
      </trkpt>
      <trkpt lat="46.22263" lon="4.37011">
        <ele>407</ele>
        <time>2013-08-19T10:31:14Z</time>
      </trkpt>
      <trkpt lat="46.22264" lon="4.37003">
        <ele>407</ele>
        <time>2013-08-19T10:31:18Z</time>
      </trkpt>
      <trkpt lat="46.22265" lon="4.36999">
        <ele>408</ele>
        <time>2013-08-19T10:31:20Z</time>
      </trkpt>
      <trkpt lat="46.22266" lon="4.36997">
        <ele>408</ele>
        <time>2013-08-19T10:31:23Z</time>
      </trkpt>
      <trkpt lat="46.22267" lon="4.36994">
        <ele>408</ele>
        <time>2013-08-19T10:31:26Z</time>
      </trkpt>
      <trkpt lat="46.22271" lon="4.36987">
        <ele>408</ele>
        <time>2013-08-19T10:31:30Z</time>
      </trkpt>
      <trkpt lat="46.22272" lon="4.36984">
        <ele>408</ele>
        <time>2013-08-19T10:31:32Z</time>
      </trkpt>
      <trkpt lat="46.22276" lon="4.3698">
        <ele>408</ele>
        <time>2013-08-19T10:31:36Z</time>
      </trkpt>
      <trkpt lat="46.22279" lon="4.3698">
        <ele>408</ele>
        <time>2013-08-19T10:31:38Z</time>
      </trkpt>
      <trkpt lat="46.22283" lon="4.36981">
        <ele>408</ele>
        <time>2013-08-19T10:31:42Z</time>
      </trkpt>
      <trkpt lat="46.22287" lon="4.36981">
        <ele>408</ele>
        <time>2013-08-19T10:31:45Z</time>
      </trkpt>
      <trkpt lat="46.22295" lon="4.36984">
        <ele>407</ele>
        <time>2013-08-19T10:31:52Z</time>
      </trkpt>
      <trkpt lat="46.22298" lon="4.36985">
        <ele>407</ele>
        <time>2013-08-19T10:31:54Z</time>
      </trkpt>
      <trkpt lat="46.22305" lon="4.36986">
        <ele>407</ele>
        <time>2013-08-19T10:31:59Z</time>
      </trkpt>
      <trkpt lat="46.22312" lon="4.36987">
        <ele>406</ele>
        <time>2013-08-19T10:32:05Z</time>
      </trkpt>
      <trkpt lat="46.22313" lon="4.36987">
        <ele>406</ele>
        <time>2013-08-19T10:32:06Z</time>
      </trkpt>
      <trkpt lat="46.22316" lon="4.36987">
        <ele>406</ele>
        <time>2013-08-19T10:32:08Z</time>
      </trkpt>
      <trkpt lat="46.2232" lon="4.36987">
        <ele>406</ele>
        <time>2013-08-19T10:32:11Z</time>
      </trkpt>
      <trkpt lat="46.22321" lon="4.36987">
        <ele>405</ele>
        <time>2013-08-19T10:32:12Z</time>
      </trkpt>
      <trkpt lat="46.2233" lon="4.36987">
        <ele>405</ele>
        <time>2013-08-19T10:32:19Z</time>
      </trkpt>
      <trkpt lat="46.22335" lon="4.36986">
        <ele>408</ele>
        <time>2013-08-19T10:32:23Z</time>
      </trkpt>
      <trkpt lat="46.22337" lon="4.36988">
        <ele>408</ele>
        <time>2013-08-19T10:32:25Z</time>
      </trkpt>
      <trkpt lat="46.22339" lon="4.36989">
        <ele>408</ele>
        <time>2013-08-19T10:32:27Z</time>
      </trkpt>
      <trkpt lat="46.22343" lon="4.36997">
        <ele>407</ele>
        <time>2013-08-19T10:32:32Z</time>
      </trkpt>
      <trkpt lat="46.22346" lon="4.37007">
        <ele>411</ele>
        <time>2013-08-19T10:32:37Z</time>
      </trkpt>
      <trkpt lat="46.22346" lon="4.37009">
        <ele>412</ele>
        <time>2013-08-19T10:32:38Z</time>
      </trkpt>
      <trkpt lat="46.22346" lon="4.37013">
        <ele>413</ele>
        <time>2013-08-19T10:32:40Z</time>
      </trkpt>
      <trkpt lat="46.22346" lon="4.37021">
        <ele>415</ele>
        <time>2013-08-19T10:32:46Z</time>
      </trkpt>
      <trkpt lat="46.22344" lon="4.37029">
        <ele>416</ele>
        <time>2013-08-19T10:32:52Z</time>
      </trkpt>
      <trkpt lat="46.22344" lon="4.37032">
        <ele>416</ele>
        <time>2013-08-19T10:32:56Z</time>
      </trkpt>
      <trkpt lat="46.22345" lon="4.37036">
        <ele>417</ele>
        <time>2013-08-19T10:32:58Z</time>
      </trkpt>
      <trkpt lat="46.22347" lon="4.37042">
        <ele>417</ele>
        <time>2013-08-19T10:33:02Z</time>
      </trkpt>
      <trkpt lat="46.22348" lon="4.37046">
        <ele>418</ele>
        <time>2013-08-19T10:33:05Z</time>
      </trkpt>
      <trkpt lat="46.22347" lon="4.3706">
        <ele>417</ele>
        <time>2013-08-19T10:33:12Z</time>
      </trkpt>
      <trkpt lat="46.22348" lon="4.37068">
        <ele>416</ele>
        <time>2013-08-19T10:33:16Z</time>
      </trkpt>
      <trkpt lat="46.2235" lon="4.37081">
        <ele>415</ele>
        <time>2013-08-19T10:33:22Z</time>
      </trkpt>
      <trkpt lat="46.22351" lon="4.37085">
        <ele>417</ele>
        <time>2013-08-19T10:33:24Z</time>
      </trkpt>
      <trkpt lat="46.22352" lon="4.37091">
        <ele>418</ele>
        <time>2013-08-19T10:33:27Z</time>
      </trkpt>
      <trkpt lat="46.22352" lon="4.37094">
        <ele>418</ele>
        <time>2013-08-19T10:33:29Z</time>
      </trkpt>
      <trkpt lat="46.2235" lon="4.37109">
        <ele>420</ele>
        <time>2013-08-19T10:33:37Z</time>
      </trkpt>
      <trkpt lat="46.2235" lon="4.37111">
        <ele>420</ele>
        <time>2013-08-19T10:33:38Z</time>
      </trkpt>
      <trkpt lat="46.22346" lon="4.37122">
        <ele>420</ele>
        <time>2013-08-19T10:33:44Z</time>
      </trkpt>
      <trkpt lat="46.22343" lon="4.37135">
        <ele>419</ele>
        <time>2013-08-19T10:33:52Z</time>
      </trkpt>
      <trkpt lat="46.2234" lon="4.37146">
        <ele>416</ele>
        <time>2013-08-19T10:33:59Z</time>
      </trkpt>
      <trkpt lat="46.22337" lon="4.37158">
        <ele>412</ele>
        <time>2013-08-19T10:34:06Z</time>
      </trkpt>
      <trkpt lat="46.22337" lon="4.37161">
        <ele>410</ele>
        <time>2013-08-19T10:34:08Z</time>
      </trkpt>
      <trkpt lat="46.22335" lon="4.37169">
        <ele>407</ele>
        <time>2013-08-19T10:34:13Z</time>
      </trkpt>
      <trkpt lat="46.22332" lon="4.37182">
        <ele>405</ele>
        <time>2013-08-19T10:34:21Z</time>
      </trkpt>
      <trkpt lat="46.22333" lon="4.37187">
        <ele>405</ele>
        <time>2013-08-19T10:34:24Z</time>
      </trkpt>
      <trkpt lat="46.22333" lon="4.37193">
        <ele>405</ele>
        <time>2013-08-19T10:34:28Z</time>
      </trkpt>
      <trkpt lat="46.22336" lon="4.37204">
        <ele>417</ele>
        <time>2013-08-19T10:34:35Z</time>
      </trkpt>
      <trkpt lat="46.22339" lon="4.37211">
        <ele>417</ele>
        <time>2013-08-19T10:34:41Z</time>
      </trkpt>
      <trkpt lat="46.2234" lon="4.37213">
        <ele>417</ele>
        <time>2013-08-19T10:34:43Z</time>
      </trkpt>
      <trkpt lat="46.22342" lon="4.37223">
        <ele>417</ele>
        <time>2013-08-19T10:34:50Z</time>
      </trkpt>
      <trkpt lat="46.22342" lon="4.37234">
        <ele>414</ele>
        <time>2013-08-19T10:34:57Z</time>
      </trkpt>
      <trkpt lat="46.22342" lon="4.37236">
        <ele>414</ele>
        <time>2013-08-19T10:34:58Z</time>
      </trkpt>
      <trkpt lat="46.22339" lon="4.3725">
        <ele>410</ele>
        <time>2013-08-19T10:35:07Z</time>
      </trkpt>
      <trkpt lat="46.22339" lon="4.37252">
        <ele>409</ele>
        <time>2013-08-19T10:35:09Z</time>
      </trkpt>
      <trkpt lat="46.22338" lon="4.37252">
        <ele>409</ele>
        <time>2013-08-19T10:35:14Z</time>
      </trkpt>
      <trkpt lat="46.22338" lon="4.37257">
        <ele>410</ele>
        <time>2013-08-19T10:36:09Z</time>
      </trkpt>
      <trkpt lat="46.22337" lon="4.37272">
        <ele>414</ele>
        <time>2013-08-19T10:36:18Z</time>
      </trkpt>
      <trkpt lat="46.22337" lon="4.37284">
        <ele>416</ele>
        <time>2013-08-19T10:36:25Z</time>
      </trkpt>
      <trkpt lat="46.22337" lon="4.37291">
        <ele>416</ele>
        <time>2013-08-19T10:36:29Z</time>
      </trkpt>
      <trkpt lat="46.22336" lon="4.37301">
        <ele>416</ele>
        <time>2013-08-19T10:36:35Z</time>
      </trkpt>
      <trkpt lat="46.22335" lon="4.37306">
        <ele>416</ele>
        <time>2013-08-19T10:36:38Z</time>
      </trkpt>
      <trkpt lat="46.22334" lon="4.3731">
        <ele>416</ele>
        <time>2013-08-19T10:36:41Z</time>
      </trkpt>
      <trkpt lat="46.22333" lon="4.37314">
        <ele>410</ele>
        <time>2013-08-19T10:36:44Z</time>
      </trkpt>
      <trkpt lat="46.22332" lon="4.37318">
        <ele>410</ele>
        <time>2013-08-19T10:36:47Z</time>
      </trkpt>
      <trkpt lat="46.2233" lon="4.37323">
        <ele>410</ele>
        <time>2013-08-19T10:36:51Z</time>
      </trkpt>
      <trkpt lat="46.2233" lon="4.37325">
        <ele>410</ele>
        <time>2013-08-19T10:36:54Z</time>
      </trkpt>
      <trkpt lat="46.22329" lon="4.37329">
        <ele>410</ele>
        <time>2013-08-19T10:36:57Z</time>
      </trkpt>
      <trkpt lat="46.2233" lon="4.37334">
        <ele>411</ele>
        <time>2013-08-19T10:37:01Z</time>
      </trkpt>
      <trkpt lat="46.2233" lon="4.37335">
        <ele>411</ele>
        <time>2013-08-19T10:37:02Z</time>
      </trkpt>
      <trkpt lat="46.2233" lon="4.37338">
        <ele>411</ele>
        <time>2013-08-19T10:37:05Z</time>
      </trkpt>
      <trkpt lat="46.2233" lon="4.37341">
        <ele>411</ele>
        <time>2013-08-19T10:37:07Z</time>
      </trkpt>
      <trkpt lat="46.22331" lon="4.37343">
        <ele>411</ele>
        <time>2013-08-19T10:37:09Z</time>
      </trkpt>
      <trkpt lat="46.22332" lon="4.37346">
        <ele>411</ele>
        <time>2013-08-19T10:37:11Z</time>
      </trkpt>
      <trkpt lat="46.22333" lon="4.37349">
        <ele>412</ele>
        <time>2013-08-19T10:37:14Z</time>
      </trkpt>
      <trkpt lat="46.22333" lon="4.3735">
        <ele>412</ele>
        <time>2013-08-19T10:37:15Z</time>
      </trkpt>
      <trkpt lat="46.22335" lon="4.37356">
        <ele>417</ele>
        <time>2013-08-19T10:37:20Z</time>
      </trkpt>
      <trkpt lat="46.22336" lon="4.37357">
        <ele>418</ele>
        <time>2013-08-19T10:37:21Z</time>
      </trkpt>
      <trkpt lat="46.22337" lon="4.37359">
        <ele>418</ele>
        <time>2013-08-19T10:37:22Z</time>
      </trkpt>
      <trkpt lat="46.22339" lon="4.37366">
        <ele>419</ele>
        <time>2013-08-19T10:37:27Z</time>
      </trkpt>
      <trkpt lat="46.22341" lon="4.37376">
        <ele>419</ele>
        <time>2013-08-19T10:37:34Z</time>
      </trkpt>
      <trkpt lat="46.22344" lon="4.3738">
        <ele>420</ele>
        <time>2013-08-19T10:37:38Z</time>
      </trkpt>
      <trkpt lat="46.22345" lon="4.37382">
        <ele>420</ele>
        <time>2013-08-19T10:37:39Z</time>
      </trkpt>
      <trkpt lat="46.22345" lon="4.37386">
        <ele>420</ele>
        <time>2013-08-19T10:37:41Z</time>
      </trkpt>
      <trkpt lat="46.22345" lon="4.37399">
        <ele>419</ele>
        <time>2013-08-19T10:37:49Z</time>
      </trkpt>
      <trkpt lat="46.22345" lon="4.37406">
        <ele>419</ele>
        <time>2013-08-19T10:37:55Z</time>
      </trkpt>
      <trkpt lat="46.22345" lon="4.37408">
        <ele>419</ele>
        <time>2013-08-19T10:37:56Z</time>
      </trkpt>
      <trkpt lat="46.22345" lon="4.37411">
        <ele>418</ele>
        <time>2013-08-19T10:37:59Z</time>
      </trkpt>
      <trkpt lat="46.22345" lon="4.37412">
        <ele>418</ele>
        <time>2013-08-19T10:38:00Z</time>
      </trkpt>
      <trkpt lat="46.22344" lon="4.37417">
        <ele>421</ele>
        <time>2013-08-19T10:38:04Z</time>
      </trkpt>
      <trkpt lat="46.22344" lon="4.3742">
        <ele>421</ele>
        <time>2013-08-19T10:38:06Z</time>
      </trkpt>
      <trkpt lat="46.22346" lon="4.37428">
        <ele>424</ele>
        <time>2013-08-19T10:38:12Z</time>
      </trkpt>
      <trkpt lat="46.22346" lon="4.37429">
        <ele>424</ele>
        <time>2013-08-19T10:38:13Z</time>
      </trkpt>
      <trkpt lat="46.22347" lon="4.37434">
        <ele>425</ele>
        <time>2013-08-19T10:38:18Z</time>
      </trkpt>
      <trkpt lat="46.22347" lon="4.37434">
        <ele>425</ele>
        <time>2013-08-19T10:38:19Z</time>
      </trkpt>
      <trkpt lat="46.22347" lon="4.37435">
        <ele>426</ele>
        <time>2013-08-19T10:38:27Z</time>
      </trkpt>
      <trkpt lat="46.22347" lon="4.37431">
        <ele>425</ele>
        <time>2013-08-19T10:38:33Z</time>
      </trkpt>
      <trkpt lat="46.22347" lon="4.37437">
        <ele>426</ele>
        <time>2013-08-19T10:38:39Z</time>
      </trkpt>
      <trkpt lat="46.22345" lon="4.37445">
        <ele>427</ele>
        <time>2013-08-19T10:38:46Z</time>
      </trkpt>
      <trkpt lat="46.22345" lon="4.37447">
        <ele>428</ele>
        <time>2013-08-19T10:38:47Z</time>
      </trkpt>
      <trkpt lat="46.22346" lon="4.3745">
        <ele>428</ele>
        <time>2013-08-19T10:38:49Z</time>
      </trkpt>
      <trkpt lat="46.22346" lon="4.37453">
        <ele>429</ele>
        <time>2013-08-19T10:38:51Z</time>
      </trkpt>
      <trkpt lat="46.22346" lon="4.3746">
        <ele>429</ele>
        <time>2013-08-19T10:38:54Z</time>
      </trkpt>
      <trkpt lat="46.22345" lon="4.37464">
        <ele>430</ele>
        <time>2013-08-19T10:38:57Z</time>
      </trkpt>
      <trkpt lat="46.22345" lon="4.37467">
        <ele>430</ele>
        <time>2013-08-19T10:38:59Z</time>
      </trkpt>
      <trkpt lat="46.22345" lon="4.37474">
        <ele>430</ele>
        <time>2013-08-19T10:39:03Z</time>
      </trkpt>
      <trkpt lat="46.22343" lon="4.37479">
        <ele>430</ele>
        <time>2013-08-19T10:39:05Z</time>
      </trkpt>
      <trkpt lat="46.2234" lon="4.37484">
        <ele>430</ele>
        <time>2013-08-19T10:39:08Z</time>
      </trkpt>
      <trkpt lat="46.22335" lon="4.37491">
        <ele>429</ele>
        <time>2013-08-19T10:39:14Z</time>
      </trkpt>
      <trkpt lat="46.22334" lon="4.37496">
        <ele>429</ele>
        <time>2013-08-19T10:39:19Z</time>
      </trkpt>
      <trkpt lat="46.22333" lon="4.37499">
        <ele>428</ele>
        <time>2013-08-19T10:39:21Z</time>
      </trkpt>
      <trkpt lat="46.22332" lon="4.37501">
        <ele>428</ele>
        <time>2013-08-19T10:39:22Z</time>
      </trkpt>
      <trkpt lat="46.22331" lon="4.37504">
        <ele>427</ele>
        <time>2013-08-19T10:39:25Z</time>
      </trkpt>
      <trkpt lat="46.22327" lon="4.37518">
        <ele>426</ele>
        <time>2013-08-19T10:39:33Z</time>
      </trkpt>
      <trkpt lat="46.22324" lon="4.37526">
        <ele>426</ele>
        <time>2013-08-19T10:39:38Z</time>
      </trkpt>
      <trkpt lat="46.22321" lon="4.37534">
        <ele>426</ele>
        <time>2013-08-19T10:39:43Z</time>
      </trkpt>
      <trkpt lat="46.2232" lon="4.37536">
        <ele>426</ele>
        <time>2013-08-19T10:39:44Z</time>
      </trkpt>
      <trkpt lat="46.22317" lon="4.37544">
        <ele>427</ele>
        <time>2013-08-19T10:39:51Z</time>
      </trkpt>
      <trkpt lat="46.22318" lon="4.37551">
        <ele>428</ele>
        <time>2013-08-19T10:39:56Z</time>
      </trkpt>
      <trkpt lat="46.22317" lon="4.37554">
        <ele>428</ele>
        <time>2013-08-19T10:39:58Z</time>
      </trkpt>
      <trkpt lat="46.22317" lon="4.37556">
        <ele>428</ele>
        <time>2013-08-19T10:40:00Z</time>
      </trkpt>
      <trkpt lat="46.22318" lon="4.37559">
        <ele>429</ele>
        <time>2013-08-19T10:40:02Z</time>
      </trkpt>
      <trkpt lat="46.22318" lon="4.37562">
        <ele>430</ele>
        <time>2013-08-19T10:40:04Z</time>
      </trkpt>
      <trkpt lat="46.22318" lon="4.37564">
        <ele>430</ele>
        <time>2013-08-19T10:40:06Z</time>
      </trkpt>
      <trkpt lat="46.22318" lon="4.37567">
        <ele>431</ele>
        <time>2013-08-19T10:40:08Z</time>
      </trkpt>
      <trkpt lat="46.22317" lon="4.37569">
        <ele>431</ele>
        <time>2013-08-19T10:40:09Z</time>
      </trkpt>
      <trkpt lat="46.22315" lon="4.37577">
        <ele>431</ele>
        <time>2013-08-19T10:40:15Z</time>
      </trkpt>
      <trkpt lat="46.22312" lon="4.37587">
        <ele>434</ele>
        <time>2013-08-19T10:40:20Z</time>
      </trkpt>
      <trkpt lat="46.22313" lon="4.3759">
        <ele>434</ele>
        <time>2013-08-19T10:40:21Z</time>
      </trkpt>
      <trkpt lat="46.22307" lon="4.376">
        <ele>432</ele>
        <time>2013-08-19T10:40:25Z</time>
      </trkpt>
      <trkpt lat="46.22306" lon="4.37602">
        <ele>432</ele>
        <time>2013-08-19T10:40:26Z</time>
      </trkpt>
      <trkpt lat="46.22307" lon="4.37608">
        <ele>432</ele>
        <time>2013-08-19T10:40:30Z</time>
      </trkpt>
      <trkpt lat="46.22308" lon="4.37611">
        <ele>432</ele>
        <time>2013-08-19T10:40:31Z</time>
      </trkpt>
      <trkpt lat="46.22305" lon="4.37618">
        <ele>432</ele>
        <time>2013-08-19T10:40:35Z</time>
      </trkpt>
      <trkpt lat="46.22304" lon="4.3762">
        <ele>432</ele>
        <time>2013-08-19T10:40:38Z</time>
      </trkpt>
      <trkpt lat="46.22304" lon="4.37622">
        <ele>432</ele>
        <time>2013-08-19T10:40:39Z</time>
      </trkpt>
      <trkpt lat="46.22307" lon="4.37627">
        <ele>432</ele>
        <time>2013-08-19T10:40:42Z</time>
      </trkpt>
      <trkpt lat="46.22308" lon="4.37627">
        <ele>432</ele>
        <time>2013-08-19T10:40:43Z</time>
      </trkpt>
      <trkpt lat="46.22307" lon="4.37631">
        <ele>432</ele>
        <time>2013-08-19T10:40:47Z</time>
      </trkpt>
      <trkpt lat="46.22306" lon="4.37633">
        <ele>432</ele>
        <time>2013-08-19T10:40:48Z</time>
      </trkpt>
      <trkpt lat="46.22307" lon="4.37636">
        <ele>433</ele>
        <time>2013-08-19T10:40:50Z</time>
      </trkpt>
      <trkpt lat="46.22308" lon="4.37639">
        <ele>433</ele>
        <time>2013-08-19T10:40:52Z</time>
      </trkpt>
      <trkpt lat="46.22305" lon="4.37648">
        <ele>433</ele>
        <time>2013-08-19T10:40:56Z</time>
      </trkpt>
      <trkpt lat="46.22305" lon="4.37649">
        <ele>433</ele>
        <time>2013-08-19T10:40:57Z</time>
      </trkpt>
      <trkpt lat="46.22304" lon="4.3765">
        <ele>433</ele>
        <time>2013-08-19T10:40:58Z</time>
      </trkpt>
      <trkpt lat="46.22304" lon="4.37652">
        <ele>433</ele>
        <time>2013-08-19T10:40:59Z</time>
      </trkpt>
      <trkpt lat="46.22302" lon="4.37656">
        <ele>433</ele>
        <time>2013-08-19T10:41:02Z</time>
      </trkpt>
      <trkpt lat="46.22302" lon="4.37658">
        <ele>433</ele>
        <time>2013-08-19T10:41:03Z</time>
      </trkpt>
      <trkpt lat="46.22298" lon="4.37664">
        <ele>432</ele>
        <time>2013-08-19T10:41:08Z</time>
      </trkpt>
      <trkpt lat="46.22298" lon="4.37665">
        <ele>432</ele>
        <time>2013-08-19T10:41:09Z</time>
      </trkpt>
      <trkpt lat="46.22297" lon="4.37667">
        <ele>431</ele>
        <time>2013-08-19T10:41:10Z</time>
      </trkpt>
      <trkpt lat="46.22296" lon="4.37672">
        <ele>431</ele>
        <time>2013-08-19T10:41:13Z</time>
      </trkpt>
      <trkpt lat="46.22297" lon="4.37674">
        <ele>431</ele>
        <time>2013-08-19T10:41:15Z</time>
      </trkpt>
      <trkpt lat="46.22297" lon="4.37675">
        <ele>431</ele>
        <time>2013-08-19T10:41:16Z</time>
      </trkpt>
      <trkpt lat="46.22296" lon="4.37677">
        <ele>431</ele>
        <time>2013-08-19T10:41:17Z</time>
      </trkpt>
      <trkpt lat="46.22292" lon="4.37688">
        <ele>429</ele>
        <time>2013-08-19T10:41:22Z</time>
      </trkpt>
      <trkpt lat="46.22291" lon="4.3769">
        <ele>429</ele>
        <time>2013-08-19T10:41:23Z</time>
      </trkpt>
      <trkpt lat="46.22293" lon="4.37696">
        <ele>429</ele>
        <time>2013-08-19T10:41:29Z</time>
      </trkpt>
      <trkpt lat="46.22291" lon="4.37702">
        <ele>429</ele>
        <time>2013-08-19T10:41:34Z</time>
      </trkpt>
      <trkpt lat="46.22291" lon="4.37704">
        <ele>429</ele>
        <time>2013-08-19T10:41:36Z</time>
      </trkpt>
      <trkpt lat="46.22288" lon="4.3771">
        <ele>428</ele>
        <time>2013-08-19T10:41:40Z</time>
      </trkpt>
      <trkpt lat="46.22285" lon="4.37715">
        <ele>427</ele>
        <time>2013-08-19T10:41:43Z</time>
      </trkpt>
      <trkpt lat="46.22282" lon="4.37722">
        <ele>427</ele>
        <time>2013-08-19T10:41:48Z</time>
      </trkpt>
      <trkpt lat="46.22283" lon="4.37724">
        <ele>427</ele>
        <time>2013-08-19T10:41:50Z</time>
      </trkpt>
      <trkpt lat="46.22284" lon="4.37724">
        <ele>427</ele>
        <time>2013-08-19T10:41:51Z</time>
      </trkpt>
      <trkpt lat="46.22285" lon="4.37725">
        <ele>427</ele>
        <time>2013-08-19T10:41:52Z</time>
      </trkpt>
      <trkpt lat="46.22289" lon="4.37729">
        <ele>428</ele>
        <time>2013-08-19T10:41:56Z</time>
      </trkpt>
      <trkpt lat="46.2229" lon="4.3773">
        <ele>428</ele>
        <time>2013-08-19T10:41:57Z</time>
      </trkpt>
      <trkpt lat="46.22293" lon="4.37734">
        <ele>428</ele>
        <time>2013-08-19T10:42:01Z</time>
      </trkpt>
      <trkpt lat="46.22291" lon="4.37741">
        <ele>428</ele>
        <time>2013-08-19T10:42:04Z</time>
      </trkpt>
      <trkpt lat="46.2229" lon="4.3775">
        <ele>427</ele>
        <time>2013-08-19T10:42:08Z</time>
      </trkpt>
      <trkpt lat="46.2229" lon="4.37752">
        <ele>423</ele>
        <time>2013-08-19T10:42:09Z</time>
      </trkpt>
      <trkpt lat="46.2229" lon="4.37754">
        <ele>424</ele>
        <time>2013-08-19T10:42:10Z</time>
      </trkpt>
      <trkpt lat="46.22293" lon="4.37762">
        <ele>424</ele>
        <time>2013-08-19T10:42:15Z</time>
      </trkpt>
      <trkpt lat="46.22296" lon="4.37764">
        <ele>425</ele>
        <time>2013-08-19T10:42:16Z</time>
      </trkpt>
      <trkpt lat="46.22298" lon="4.37769">
        <ele>425</ele>
        <time>2013-08-19T10:42:19Z</time>
      </trkpt>
      <trkpt lat="46.22297" lon="4.3777">
        <ele>425</ele>
        <time>2013-08-19T10:42:20Z</time>
      </trkpt>
      <trkpt lat="46.22296" lon="4.37773">
        <ele>424</ele>
        <time>2013-08-19T10:42:23Z</time>
      </trkpt>
      <trkpt lat="46.22295" lon="4.37775">
        <ele>424</ele>
        <time>2013-08-19T10:42:24Z</time>
      </trkpt>
      <trkpt lat="46.22295" lon="4.37776">
        <ele>424</ele>
        <time>2013-08-19T10:42:25Z</time>
      </trkpt>
      <trkpt lat="46.22302" lon="4.37779">
        <ele>425</ele>
        <time>2013-08-19T10:42:31Z</time>
      </trkpt>
      <trkpt lat="46.22303" lon="4.37784">
        <ele>425</ele>
        <time>2013-08-19T10:42:35Z</time>
      </trkpt>
      <trkpt lat="46.22302" lon="4.37786">
        <ele>425</ele>
        <time>2013-08-19T10:42:36Z</time>
      </trkpt>
      <trkpt lat="46.22302" lon="4.37788">
        <ele>424</ele>
        <time>2013-08-19T10:42:38Z</time>
      </trkpt>
      <trkpt lat="46.22302" lon="4.3779">
        <ele>424</ele>
        <time>2013-08-19T10:42:40Z</time>
      </trkpt>
      <trkpt lat="46.22302" lon="4.37795">
        <ele>424</ele>
        <time>2013-08-19T10:42:44Z</time>
      </trkpt>
      <trkpt lat="46.22302" lon="4.37798">
        <ele>424</ele>
        <time>2013-08-19T10:42:46Z</time>
      </trkpt>
      <trkpt lat="46.22302" lon="4.378">
        <ele>424</ele>
        <time>2013-08-19T10:42:47Z</time>
      </trkpt>
      <trkpt lat="46.22303" lon="4.37802">
        <ele>424</ele>
        <time>2013-08-19T10:42:48Z</time>
      </trkpt>
      <trkpt lat="46.22303" lon="4.37804">
        <ele>424</ele>
        <time>2013-08-19T10:42:50Z</time>
      </trkpt>
      <trkpt lat="46.22303" lon="4.37806">
        <ele>424</ele>
        <time>2013-08-19T10:42:52Z</time>
      </trkpt>
      <trkpt lat="46.22303" lon="4.37812">
        <ele>424</ele>
        <time>2013-08-19T10:42:56Z</time>
      </trkpt>
      <trkpt lat="46.22303" lon="4.37813">
        <ele>424</ele>
        <time>2013-08-19T10:42:57Z</time>
      </trkpt>
      <trkpt lat="46.22305" lon="4.37819">
        <ele>424</ele>
        <time>2013-08-19T10:43:01Z</time>
      </trkpt>
      <trkpt lat="46.22305" lon="4.37821">
        <ele>424</ele>
        <time>2013-08-19T10:43:02Z</time>
      </trkpt>
      <trkpt lat="46.22308" lon="4.37827">
        <ele>425</ele>
        <time>2013-08-19T10:43:04Z</time>
      </trkpt>
      <trkpt lat="46.22309" lon="4.37829">
        <ele>425</ele>
        <time>2013-08-19T10:43:05Z</time>
      </trkpt>
      <trkpt lat="46.22309" lon="4.37837">
        <ele>423</ele>
        <time>2013-08-19T10:43:11Z</time>
      </trkpt>
      <trkpt lat="46.22311" lon="4.3784">
        <ele>423</ele>
        <time>2013-08-19T10:43:13Z</time>
      </trkpt>
      <trkpt lat="46.22312" lon="4.3784">
        <ele>423</ele>
        <time>2013-08-19T10:43:16Z</time>
      </trkpt>
      <trkpt lat="46.22315" lon="4.37845">
        <ele>423</ele>
        <time>2013-08-19T10:43:21Z</time>
      </trkpt>
      <trkpt lat="46.22316" lon="4.3785">
        <ele>423</ele>
        <time>2013-08-19T10:43:24Z</time>
      </trkpt>
      <trkpt lat="46.22316" lon="4.37851">
        <ele>423</ele>
        <time>2013-08-19T10:43:25Z</time>
      </trkpt>
      <trkpt lat="46.22316" lon="4.37861">
        <ele>422</ele>
        <time>2013-08-19T10:43:30Z</time>
      </trkpt>
      <trkpt lat="46.22316" lon="4.37872">
        <ele>421</ele>
        <time>2013-08-19T10:43:36Z</time>
      </trkpt>
      <trkpt lat="46.22317" lon="4.37877">
        <ele>421</ele>
        <time>2013-08-19T10:43:38Z</time>
      </trkpt>
      <trkpt lat="46.22317" lon="4.37884">
        <ele>421</ele>
        <time>2013-08-19T10:43:41Z</time>
      </trkpt>
      <trkpt lat="46.22318" lon="4.37899">
        <ele>421</ele>
        <time>2013-08-19T10:43:47Z</time>
      </trkpt>
      <trkpt lat="46.22317" lon="4.37904">
        <ele>421</ele>
        <time>2013-08-19T10:43:50Z</time>
      </trkpt>
      <trkpt lat="46.22318" lon="4.37905">
        <ele>421</ele>
        <time>2013-08-19T10:43:51Z</time>
      </trkpt>
      <trkpt lat="46.2232" lon="4.37906">
        <ele>421</ele>
        <time>2013-08-19T10:43:53Z</time>
      </trkpt>
      <trkpt lat="46.22319" lon="4.37912">
        <ele>421</ele>
        <time>2013-08-19T10:43:57Z</time>
      </trkpt>
      <trkpt lat="46.22319" lon="4.37914">
        <ele>421</ele>
        <time>2013-08-19T10:43:59Z</time>
      </trkpt>
      <trkpt lat="46.22318" lon="4.37917">
        <ele>420</ele>
        <time>2013-08-19T10:44:01Z</time>
      </trkpt>
      <trkpt lat="46.22318" lon="4.3792">
        <ele>420</ele>
        <time>2013-08-19T10:44:03Z</time>
      </trkpt>
      <trkpt lat="46.2232" lon="4.37922">
        <ele>420</ele>
        <time>2013-08-19T10:44:06Z</time>
      </trkpt>
      <trkpt lat="46.22321" lon="4.37926">
        <ele>420</ele>
        <time>2013-08-19T10:44:09Z</time>
      </trkpt>
      <trkpt lat="46.22321" lon="4.37929">
        <ele>420</ele>
        <time>2013-08-19T10:44:11Z</time>
      </trkpt>
      <trkpt lat="46.22321" lon="4.3793">
        <ele>420</ele>
        <time>2013-08-19T10:44:12Z</time>
      </trkpt>
      <trkpt lat="46.22324" lon="4.37933">
        <ele>420</ele>
        <time>2013-08-19T10:44:15Z</time>
      </trkpt>
      <trkpt lat="46.22327" lon="4.37941">
        <ele>419</ele>
        <time>2013-08-19T10:44:19Z</time>
      </trkpt>
      <trkpt lat="46.22329" lon="4.37947">
        <ele>419</ele>
        <time>2013-08-19T10:44:22Z</time>
      </trkpt>
      <trkpt lat="46.22329" lon="4.37951">
        <ele>419</ele>
        <time>2013-08-19T10:44:24Z</time>
      </trkpt>
      <trkpt lat="46.22328" lon="4.37954">
        <ele>419</ele>
        <time>2013-08-19T10:44:26Z</time>
      </trkpt>
      <trkpt lat="46.22328" lon="4.37955">
        <ele>419</ele>
        <time>2013-08-19T10:44:27Z</time>
      </trkpt>
      <trkpt lat="46.22329" lon="4.37956">
        <ele>418</ele>
        <time>2013-08-19T10:44:29Z</time>
      </trkpt>
      <trkpt lat="46.2233" lon="4.37957">
        <ele>418</ele>
        <time>2013-08-19T10:44:30Z</time>
      </trkpt>
      <trkpt lat="46.22334" lon="4.37961">
        <ele>431</ele>
        <time>2013-08-19T10:44:34Z</time>
      </trkpt>
      <trkpt lat="46.22342" lon="4.37969">
        <ele>431</ele>
        <time>2013-08-19T10:44:39Z</time>
      </trkpt>
      <trkpt lat="46.22343" lon="4.37973">
        <ele>430</ele>
        <time>2013-08-19T10:44:41Z</time>
      </trkpt>
      <trkpt lat="46.22344" lon="4.37975">
        <ele>430</ele>
        <time>2013-08-19T10:44:42Z</time>
      </trkpt>
      <trkpt lat="46.22346" lon="4.37977">
        <ele>430</ele>
        <time>2013-08-19T10:44:44Z</time>
      </trkpt>
      <trkpt lat="46.22355" lon="4.37983">
        <ele>431</ele>
        <time>2013-08-19T10:44:50Z</time>
      </trkpt>
      <trkpt lat="46.22355" lon="4.37984">
        <ele>431</ele>
        <time>2013-08-19T10:44:51Z</time>
      </trkpt>
      <trkpt lat="46.22355" lon="4.37985">
        <ele>431</ele>
        <time>2013-08-19T10:44:52Z</time>
      </trkpt>
      <trkpt lat="46.22355" lon="4.37988">
        <ele>430</ele>
        <time>2013-08-19T10:44:54Z</time>
      </trkpt>
      <trkpt lat="46.22354" lon="4.37991">
        <ele>429</ele>
        <time>2013-08-19T10:44:55Z</time>
      </trkpt>
      <trkpt lat="46.22351" lon="4.37998">
        <ele>428</ele>
        <time>2013-08-19T10:44:58Z</time>
      </trkpt>
      <trkpt lat="46.22352" lon="4.37999">
        <ele>428</ele>
        <time>2013-08-19T10:44:59Z</time>
      </trkpt>
      <trkpt lat="46.22358" lon="4.38007">
        <ele>426</ele>
        <time>2013-08-19T10:45:04Z</time>
      </trkpt>
      <trkpt lat="46.22358" lon="4.38009">
        <ele>426</ele>
        <time>2013-08-19T10:45:06Z</time>
      </trkpt>
      <trkpt lat="46.22357" lon="4.3801">
        <ele>426</ele>
        <time>2013-08-19T10:45:07Z</time>
      </trkpt>
      <trkpt lat="46.22358" lon="4.38011">
        <ele>426</ele>
        <time>2013-08-19T10:45:08Z</time>
      </trkpt>
      <trkpt lat="46.22361" lon="4.38013">
        <ele>427</ele>
        <time>2013-08-19T10:45:11Z</time>
      </trkpt>
      <trkpt lat="46.22361" lon="4.38015">
        <ele>427</ele>
        <time>2013-08-19T10:45:12Z</time>
      </trkpt>
      <trkpt lat="46.22365" lon="4.38019">
        <ele>428</ele>
        <time>2013-08-19T10:45:15Z</time>
      </trkpt>
      <trkpt lat="46.22364" lon="4.3802">
        <ele>428</ele>
        <time>2013-08-19T10:45:17Z</time>
      </trkpt>
      <trkpt lat="46.22365" lon="4.38028">
        <ele>428</ele>
        <time>2013-08-19T10:45:23Z</time>
      </trkpt>
      <trkpt lat="46.22369" lon="4.38033">
        <ele>429</ele>
        <time>2013-08-19T10:45:28Z</time>
      </trkpt>
      <trkpt lat="46.22369" lon="4.38036">
        <ele>429</ele>
        <time>2013-08-19T10:45:29Z</time>
      </trkpt>
      <trkpt lat="46.22368" lon="4.38038">
        <ele>428</ele>
        <time>2013-08-19T10:45:30Z</time>
      </trkpt>
      <trkpt lat="46.22369" lon="4.38045">
        <ele>428</ele>
        <time>2013-08-19T10:45:33Z</time>
      </trkpt>
      <trkpt lat="46.2237" lon="4.38048">
        <ele>428</ele>
        <time>2013-08-19T10:45:35Z</time>
      </trkpt>
      <trkpt lat="46.22371" lon="4.3805">
        <ele>429</ele>
        <time>2013-08-19T10:45:36Z</time>
      </trkpt>
      <trkpt lat="46.22373" lon="4.38054">
        <ele>429</ele>
        <time>2013-08-19T10:45:39Z</time>
      </trkpt>
      <trkpt lat="46.22375" lon="4.38059">
        <ele>429</ele>
        <time>2013-08-19T10:45:42Z</time>
      </trkpt>
      <trkpt lat="46.22375" lon="4.38062">
        <ele>429</ele>
        <time>2013-08-19T10:45:43Z</time>
      </trkpt>
      <trkpt lat="46.22376" lon="4.38072">
        <ele>428</ele>
        <time>2013-08-19T10:45:49Z</time>
      </trkpt>
      <trkpt lat="46.22377" lon="4.38084">
        <ele>427</ele>
        <time>2013-08-19T10:45:55Z</time>
      </trkpt>
      <trkpt lat="46.22377" lon="4.38087">
        <ele>427</ele>
        <time>2013-08-19T10:45:58Z</time>
      </trkpt>
      <trkpt lat="46.2238" lon="4.38092">
        <ele>427</ele>
        <time>2013-08-19T10:46:01Z</time>
      </trkpt>
      <trkpt lat="46.22381" lon="4.38101">
        <ele>428</ele>
        <time>2013-08-19T10:46:05Z</time>
      </trkpt>
      <trkpt lat="46.22383" lon="4.38105">
        <ele>428</ele>
        <time>2013-08-19T10:46:07Z</time>
      </trkpt>
      <trkpt lat="46.22386" lon="4.38109">
        <ele>428</ele>
        <time>2013-08-19T10:46:10Z</time>
      </trkpt>
      <trkpt lat="46.22391" lon="4.3811">
        <ele>428</ele>
        <time>2013-08-19T10:46:12Z</time>
      </trkpt>
      <trkpt lat="46.22397" lon="4.38114">
        <ele>428</ele>
        <time>2013-08-19T10:46:17Z</time>
      </trkpt>
      <trkpt lat="46.22398" lon="4.38117">
        <ele>428</ele>
        <time>2013-08-19T10:46:18Z</time>
      </trkpt>
      <trkpt lat="46.22404" lon="4.3812">
        <ele>428</ele>
        <time>2013-08-19T10:46:24Z</time>
      </trkpt>
      <trkpt lat="46.22406" lon="4.38122">
        <ele>428</ele>
        <time>2013-08-19T10:46:29Z</time>
      </trkpt>
      <trkpt lat="46.22406" lon="4.38127">
        <ele>428</ele>
        <time>2013-08-19T10:46:31Z</time>
      </trkpt>
      <trkpt lat="46.22408" lon="4.38131">
        <ele>427</ele>
        <time>2013-08-19T10:46:34Z</time>
      </trkpt>
      <trkpt lat="46.22408" lon="4.38133">
        <ele>427</ele>
        <time>2013-08-19T10:46:36Z</time>
      </trkpt>
      <trkpt lat="46.22411" lon="4.38134">
        <ele>427</ele>
        <time>2013-08-19T10:46:39Z</time>
      </trkpt>
      <trkpt lat="46.22412" lon="4.38135">
        <ele>427</ele>
        <time>2013-08-19T10:46:40Z</time>
      </trkpt>
      <trkpt lat="46.22414" lon="4.38139">
        <ele>427</ele>
        <time>2013-08-19T10:46:45Z</time>
      </trkpt>
      <trkpt lat="46.22415" lon="4.3814">
        <ele>427</ele>
        <time>2013-08-19T10:46:46Z</time>
      </trkpt>
      <trkpt lat="46.22418" lon="4.38143">
        <ele>433</ele>
        <time>2013-08-19T10:46:50Z</time>
      </trkpt>
      <trkpt lat="46.22418" lon="4.38144">
        <ele>433</ele>
        <time>2013-08-19T10:46:51Z</time>
      </trkpt>
      <trkpt lat="46.2242" lon="4.3815">
        <ele>431</ele>
        <time>2013-08-19T10:46:54Z</time>
      </trkpt>
      <trkpt lat="46.2242" lon="4.38152">
        <ele>430</ele>
        <time>2013-08-19T10:46:55Z</time>
      </trkpt>
      <trkpt lat="46.22424" lon="4.38157">
        <ele>429</ele>
        <time>2013-08-19T10:46:58Z</time>
      </trkpt>
      <trkpt lat="46.22424" lon="4.38158">
        <ele>429</ele>
        <time>2013-08-19T10:46:59Z</time>
      </trkpt>
      <trkpt lat="46.22426" lon="4.38161">
        <ele>429</ele>
        <time>2013-08-19T10:47:02Z</time>
      </trkpt>
      <trkpt lat="46.22428" lon="4.38162">
        <ele>429</ele>
        <time>2013-08-19T10:47:03Z</time>
      </trkpt>
      <trkpt lat="46.22431" lon="4.38174">
        <ele>425</ele>
        <time>2013-08-19T10:47:08Z</time>
      </trkpt>
      <trkpt lat="46.22431" lon="4.38175">
        <ele>426</ele>
        <time>2013-08-19T10:47:09Z</time>
      </trkpt>
      <trkpt lat="46.22431" lon="4.38182">
        <ele>426</ele>
        <time>2013-08-19T10:47:13Z</time>
      </trkpt>
      <trkpt lat="46.2243" lon="4.38184">
        <ele>426</ele>
        <time>2013-08-19T10:47:14Z</time>
      </trkpt>
      <trkpt lat="46.22429" lon="4.38184">
        <ele>426</ele>
        <time>2013-08-19T10:47:19Z</time>
      </trkpt>
      <trkpt lat="46.2242" lon="4.3819">
        <ele>426</ele>
        <time>2013-08-19T10:47:30Z</time>
      </trkpt>
      <trkpt lat="46.22421" lon="4.38184">
        <ele>425</ele>
        <time>2013-08-19T10:47:34Z</time>
      </trkpt>
      <trkpt lat="46.22421" lon="4.38178">
        <ele>425</ele>
        <time>2013-08-19T10:47:43Z</time>
      </trkpt>
      <trkpt lat="46.22421" lon="4.38178">
        <ele>425</ele>
        <time>2013-08-19T10:47:44Z</time>
      </trkpt>
      <trkpt lat="46.22418" lon="4.38179">
        <ele>424</ele>
        <time>2013-08-19T10:47:49Z</time>
      </trkpt>
      <trkpt lat="46.22417" lon="4.38182">
        <ele>425</ele>
        <time>2013-08-19T10:48:06Z</time>
      </trkpt>
      <trkpt lat="46.22409" lon="4.38181">
        <ele>427</ele>
        <time>2013-08-19T10:48:11Z</time>
      </trkpt>
      <trkpt lat="46.2241" lon="4.3818">
        <ele>426</ele>
        <time>2013-08-19T10:48:15Z</time>
      </trkpt>
      <trkpt lat="46.22413" lon="4.38177">
        <ele>425</ele>
        <time>2013-08-19T10:48:27Z</time>
      </trkpt>
      <trkpt lat="46.22413" lon="4.38176">
        <ele>425</ele>
        <time>2013-08-19T10:49:06Z</time>
      </trkpt>
      <trkpt lat="46.22412" lon="4.38176">
        <ele>426</ele>
        <time>2013-08-19T10:49:07Z</time>
      </trkpt>
      <trkpt lat="46.22414" lon="4.38176">
        <ele>425</ele>
        <time>2013-08-19T10:49:11Z</time>
      </trkpt>
      <trkpt lat="46.22418" lon="4.38178">
        <ele>424</ele>
        <time>2013-08-19T10:49:16Z</time>
      </trkpt>
      <trkpt lat="46.22421" lon="4.38179">
        <ele>425</ele>
        <time>2013-08-19T10:49:20Z</time>
      </trkpt>
      <trkpt lat="46.22425" lon="4.38178">
        <ele>425</ele>
        <time>2013-08-19T10:49:40Z</time>
      </trkpt>
      <trkpt lat="46.22419" lon="4.38179">
        <ele>425</ele>
        <time>2013-08-19T10:49:44Z</time>
      </trkpt>
      <trkpt lat="46.22417" lon="4.3818">
        <ele>425</ele>
        <time>2013-08-19T10:49:46Z</time>
      </trkpt>
      <trkpt lat="46.22413" lon="4.3818">
        <ele>426</ele>
        <time>2013-08-19T10:49:49Z</time>
      </trkpt>
      <trkpt lat="46.22415" lon="4.38182">
        <ele>426</ele>
        <time>2013-08-19T10:49:56Z</time>
      </trkpt>
      <trkpt lat="46.22416" lon="4.38182">
        <ele>426</ele>
        <time>2013-08-19T10:49:57Z</time>
      </trkpt>
      <trkpt lat="46.22418" lon="4.38186">
        <ele>425</ele>
        <time>2013-08-19T10:50:00Z</time>
      </trkpt>
      <trkpt lat="46.22418" lon="4.38186">
        <ele>425</ele>
        <time>2013-08-19T10:50:01Z</time>
      </trkpt>
      <trkpt lat="46.22414" lon="4.38182">
        <ele>427</ele>
        <time>2013-08-19T10:50:11Z</time>
      </trkpt>
      <trkpt lat="46.2241" lon="4.38178">
        <ele>426</ele>
        <time>2013-08-19T10:50:15Z</time>
      </trkpt>
      <trkpt lat="46.22409" lon="4.38179">
        <ele>427</ele>
        <time>2013-08-19T10:50:16Z</time>
      </trkpt>
      <trkpt lat="46.22408" lon="4.3818">
        <ele>427</ele>
        <time>2013-08-19T10:50:17Z</time>
      </trkpt>
      <trkpt lat="46.22407" lon="4.38182">
        <ele>427</ele>
        <time>2013-08-19T10:50:19Z</time>
      </trkpt>
      <trkpt lat="46.22408" lon="4.38183">
        <ele>427</ele>
        <time>2013-08-19T10:50:20Z</time>
      </trkpt>
      <trkpt lat="46.2241" lon="4.38184">
        <ele>427</ele>
        <time>2013-08-19T10:50:21Z</time>
      </trkpt>
      <trkpt lat="46.22413" lon="4.38189">
        <ele>428</ele>
        <time>2013-08-19T10:50:25Z</time>
      </trkpt>
      <trkpt lat="46.22418" lon="4.38198">
        <ele>426</ele>
        <time>2013-08-19T10:50:32Z</time>
      </trkpt>
      <trkpt lat="46.2242" lon="4.38202">
        <ele>426</ele>
        <time>2013-08-19T10:50:35Z</time>
      </trkpt>
      <trkpt lat="46.2242" lon="4.38202">
        <ele>426</ele>
        <time>2013-08-19T10:50:39Z</time>
      </trkpt>
      <trkpt lat="46.22419" lon="4.38201">
        <ele>426</ele>
        <time>2013-08-19T10:50:48Z</time>
      </trkpt>
      <trkpt lat="46.2242" lon="4.38194">
        <ele>426</ele>
        <time>2013-08-19T10:51:39Z</time>
      </trkpt>
      <trkpt lat="46.22432" lon="4.38168">
        <ele>426</ele>
        <time>2013-08-19T11:29:38Z</time>
      </trkpt>
      <trkpt lat="46.22431" lon="4.38179">
        <ele>426</ele>
        <time>2013-08-19T11:30:31Z</time>
      </trkpt>
      <trkpt lat="46.22447" lon="4.38174">
        <ele>428</ele>
        <time>2013-08-19T11:30:55Z</time>
      </trkpt>
      <trkpt lat="46.22447" lon="4.38175">
        <ele>428</ele>
        <time>2013-08-19T11:30:59Z</time>
      </trkpt>
      <trkpt lat="46.22446" lon="4.3818">
        <ele>428</ele>
        <time>2013-08-19T11:31:07Z</time>
      </trkpt>
      <trkpt lat="46.22451" lon="4.38183">
        <ele>429</ele>
        <time>2013-08-19T11:31:14Z</time>
      </trkpt>
      <trkpt lat="46.22454" lon="4.38186">
        <ele>429</ele>
        <time>2013-08-19T11:31:18Z</time>
      </trkpt>
      <trkpt lat="46.22456" lon="4.38188">
        <ele>429</ele>
        <time>2013-08-19T11:31:20Z</time>
      </trkpt>
      <trkpt lat="46.22458" lon="4.38192">
        <ele>429</ele>
        <time>2013-08-19T11:31:26Z</time>
      </trkpt>
      <trkpt lat="46.2246" lon="4.38194">
        <ele>429</ele>
        <time>2013-08-19T11:31:28Z</time>
      </trkpt>
      <trkpt lat="46.22461" lon="4.38194">
        <ele>430</ele>
        <time>2013-08-19T11:31:29Z</time>
      </trkpt>
      <trkpt lat="46.22467" lon="4.38199">
        <ele>430</ele>
        <time>2013-08-19T11:31:35Z</time>
      </trkpt>
      <trkpt lat="46.2247" lon="4.38202">
        <ele>430</ele>
        <time>2013-08-19T11:31:39Z</time>
      </trkpt>
      <trkpt lat="46.22472" lon="4.38204">
        <ele>430</ele>
        <time>2013-08-19T11:31:42Z</time>
      </trkpt>
      <trkpt lat="46.22473" lon="4.38206">
        <ele>430</ele>
        <time>2013-08-19T11:31:43Z</time>
      </trkpt>
      <trkpt lat="46.22476" lon="4.38211">
        <ele>430</ele>
        <time>2013-08-19T11:31:46Z</time>
      </trkpt>
      <trkpt lat="46.22481" lon="4.38221">
        <ele>429</ele>
        <time>2013-08-19T11:31:50Z</time>
      </trkpt>
      <trkpt lat="46.22486" lon="4.38227">
        <ele>429</ele>
        <time>2013-08-19T11:31:56Z</time>
      </trkpt>
      <trkpt lat="46.22487" lon="4.38228">
        <ele>429</ele>
        <time>2013-08-19T11:31:57Z</time>
      </trkpt>
      <trkpt lat="46.22487" lon="4.3823">
        <ele>429</ele>
        <time>2013-08-19T11:31:59Z</time>
      </trkpt>
      <trkpt lat="46.22488" lon="4.38231">
        <ele>429</ele>
        <time>2013-08-19T11:32:00Z</time>
      </trkpt>
      <trkpt lat="46.22494" lon="4.38239">
        <ele>429</ele>
        <time>2013-08-19T11:32:06Z</time>
      </trkpt>
      <trkpt lat="46.22498" lon="4.38244">
        <ele>428</ele>
        <time>2013-08-19T11:32:11Z</time>
      </trkpt>
      <trkpt lat="46.225" lon="4.38248">
        <ele>430</ele>
        <time>2013-08-19T11:32:15Z</time>
      </trkpt>
      <trkpt lat="46.22502" lon="4.38248">
        <ele>430</ele>
        <time>2013-08-19T11:32:17Z</time>
      </trkpt>
      <trkpt lat="46.22502" lon="4.3825">
        <ele>429</ele>
        <time>2013-08-19T11:32:18Z</time>
      </trkpt>
      <trkpt lat="46.22506" lon="4.38261">
        <ele>431</ele>
        <time>2013-08-19T11:32:26Z</time>
      </trkpt>
      <trkpt lat="46.22507" lon="4.38266">
        <ele>432</ele>
        <time>2013-08-19T11:32:31Z</time>
      </trkpt>
      <trkpt lat="46.22507" lon="4.38268">
        <ele>432</ele>
        <time>2013-08-19T11:32:32Z</time>
      </trkpt>
      <trkpt lat="46.22507" lon="4.38272">
        <ele>432</ele>
        <time>2013-08-19T11:32:36Z</time>
      </trkpt>
      <trkpt lat="46.22507" lon="4.38275">
        <ele>432</ele>
        <time>2013-08-19T11:32:38Z</time>
      </trkpt>
      <trkpt lat="46.22507" lon="4.38278">
        <ele>432</ele>
        <time>2013-08-19T11:32:40Z</time>
      </trkpt>
      <trkpt lat="46.22506" lon="4.38279">
        <ele>432</ele>
        <time>2013-08-19T11:32:41Z</time>
      </trkpt>
      <trkpt lat="46.22503" lon="4.38283">
        <ele>432</ele>
        <time>2013-08-19T11:32:44Z</time>
      </trkpt>
      <trkpt lat="46.225" lon="4.38286">
        <ele>425</ele>
        <time>2013-08-19T11:32:48Z</time>
      </trkpt>
      <trkpt lat="46.22498" lon="4.3829">
        <ele>425</ele>
        <time>2013-08-19T11:32:52Z</time>
      </trkpt>
      <trkpt lat="46.22495" lon="4.38292">
        <ele>424</ele>
        <time>2013-08-19T11:32:55Z</time>
      </trkpt>
      <trkpt lat="46.22497" lon="4.38293">
        <ele>424</ele>
        <time>2013-08-19T11:32:58Z</time>
      </trkpt>
      <trkpt lat="46.22504" lon="4.38304">
        <ele>431</ele>
        <time>2013-08-19T11:33:11Z</time>
      </trkpt>
      <trkpt lat="46.22506" lon="4.38307">
        <ele>430</ele>
        <time>2013-08-19T11:33:14Z</time>
      </trkpt>
      <trkpt lat="46.22507" lon="4.3831">
        <ele>430</ele>
        <time>2013-08-19T11:33:16Z</time>
      </trkpt>
      <trkpt lat="46.22508" lon="4.38313">
        <ele>429</ele>
        <time>2013-08-19T11:33:19Z</time>
      </trkpt>
      <trkpt lat="46.22505" lon="4.38321">
        <ele>427</ele>
        <time>2013-08-19T11:33:24Z</time>
      </trkpt>
      <trkpt lat="46.22503" lon="4.38323">
        <ele>426</ele>
        <time>2013-08-19T11:33:26Z</time>
      </trkpt>
      <trkpt lat="46.22502" lon="4.38324">
        <ele>426</ele>
        <time>2013-08-19T11:33:27Z</time>
      </trkpt>
      <trkpt lat="46.22501" lon="4.38328">
        <ele>424</ele>
        <time>2013-08-19T11:33:30Z</time>
      </trkpt>
      <trkpt lat="46.22503" lon="4.38335">
        <ele>422</ele>
        <time>2013-08-19T11:33:35Z</time>
      </trkpt>
      <trkpt lat="46.22505" lon="4.38339">
        <ele>424</ele>
        <time>2013-08-19T11:33:38Z</time>
      </trkpt>
      <trkpt lat="46.22503" lon="4.38348">
        <ele>426</ele>
        <time>2013-08-19T11:33:44Z</time>
      </trkpt>
      <trkpt lat="46.22503" lon="4.38357">
        <ele>427</ele>
        <time>2013-08-19T11:33:51Z</time>
      </trkpt>
      <trkpt lat="46.22504" lon="4.38358">
        <ele>427</ele>
        <time>2013-08-19T11:33:52Z</time>
      </trkpt>
      <trkpt lat="46.22507" lon="4.38361">
        <ele>428</ele>
        <time>2013-08-19T11:33:54Z</time>
      </trkpt>
      <trkpt lat="46.22517" lon="4.38367">
        <ele>429</ele>
        <time>2013-08-19T11:33:58Z</time>
      </trkpt>
      <trkpt lat="46.22519" lon="4.38369">
        <ele>429</ele>
        <time>2013-08-19T11:33:59Z</time>
      </trkpt>
      <trkpt lat="46.22524" lon="4.38375">
        <ele>430</ele>
        <time>2013-08-19T11:34:03Z</time>
      </trkpt>
      <trkpt lat="46.22524" lon="4.38376">
        <ele>430</ele>
        <time>2013-08-19T11:34:04Z</time>
      </trkpt>
      <trkpt lat="46.22524" lon="4.38378">
        <ele>430</ele>
        <time>2013-08-19T11:34:05Z</time>
      </trkpt>
      <trkpt lat="46.22525" lon="4.38379">
        <ele>430</ele>
        <time>2013-08-19T11:34:06Z</time>
      </trkpt>
      <trkpt lat="46.22526" lon="4.38381">
        <ele>430</ele>
        <time>2013-08-19T11:34:07Z</time>
      </trkpt>
      <trkpt lat="46.22529" lon="4.38383">
        <ele>430</ele>
        <time>2013-08-19T11:34:09Z</time>
      </trkpt>
      <trkpt lat="46.22532" lon="4.38387">
        <ele>431</ele>
        <time>2013-08-19T11:34:11Z</time>
      </trkpt>
      <trkpt lat="46.22537" lon="4.38395">
        <ele>431</ele>
        <time>2013-08-19T11:34:16Z</time>
      </trkpt>
      <trkpt lat="46.22538" lon="4.38396">
        <ele>431</ele>
        <time>2013-08-19T11:34:17Z</time>
      </trkpt>
      <trkpt lat="46.22539" lon="4.38401">
        <ele>431</ele>
        <time>2013-08-19T11:34:20Z</time>
      </trkpt>
      <trkpt lat="46.2254" lon="4.38407">
        <ele>431</ele>
        <time>2013-08-19T11:34:24Z</time>
      </trkpt>
      <trkpt lat="46.22542" lon="4.38409">
        <ele>432</ele>
        <time>2013-08-19T11:34:25Z</time>
      </trkpt>
      <trkpt lat="46.22544" lon="4.38413">
        <ele>432</ele>
        <time>2013-08-19T11:34:28Z</time>
      </trkpt>
      <trkpt lat="46.22544" lon="4.38416">
        <ele>432</ele>
        <time>2013-08-19T11:34:30Z</time>
      </trkpt>
      <trkpt lat="46.22545" lon="4.38418">
        <ele>431</ele>
        <time>2013-08-19T11:34:31Z</time>
      </trkpt>
      <trkpt lat="46.22547" lon="4.38424">
        <ele>432</ele>
        <time>2013-08-19T11:34:35Z</time>
      </trkpt>
      <trkpt lat="46.22548" lon="4.38427">
        <ele>432</ele>
        <time>2013-08-19T11:34:37Z</time>
      </trkpt>
      <trkpt lat="46.22553" lon="4.38435">
        <ele>432</ele>
        <time>2013-08-19T11:34:44Z</time>
      </trkpt>
      <trkpt lat="46.22553" lon="4.38435">
        <ele>432</ele>
        <time>2013-08-19T11:34:45Z</time>
      </trkpt>
      <trkpt lat="46.22555" lon="4.38443">
        <ele>432</ele>
        <time>2013-08-19T11:34:58Z</time>
      </trkpt>
      <trkpt lat="46.22555" lon="4.3845">
        <ele>432</ele>
        <time>2013-08-19T11:35:03Z</time>
      </trkpt>
      <trkpt lat="46.22556" lon="4.38451">
        <ele>431</ele>
        <time>2013-08-19T11:35:04Z</time>
      </trkpt>
      <trkpt lat="46.22556" lon="4.38452">
        <ele>431</ele>
        <time>2013-08-19T11:35:05Z</time>
      </trkpt>
      <trkpt lat="46.22556" lon="4.38457">
        <ele>431</ele>
        <time>2013-08-19T11:35:08Z</time>
      </trkpt>
      <trkpt lat="46.22556" lon="4.38464">
        <ele>431</ele>
        <time>2013-08-19T11:35:12Z</time>
      </trkpt>
      <trkpt lat="46.22555" lon="4.38467">
        <ele>431</ele>
        <time>2013-08-19T11:35:14Z</time>
      </trkpt>
      <trkpt lat="46.22555" lon="4.38471">
        <ele>431</ele>
        <time>2013-08-19T11:35:17Z</time>
      </trkpt>
      <trkpt lat="46.22555" lon="4.38473">
        <ele>431</ele>
        <time>2013-08-19T11:35:19Z</time>
      </trkpt>
      <trkpt lat="46.22555" lon="4.38475">
        <ele>431</ele>
        <time>2013-08-19T11:35:20Z</time>
      </trkpt>
      <trkpt lat="46.22555" lon="4.38476">
        <ele>431</ele>
        <time>2013-08-19T11:35:21Z</time>
      </trkpt>
      <trkpt lat="46.22555" lon="4.38481">
        <ele>430</ele>
        <time>2013-08-19T11:35:27Z</time>
      </trkpt>
      <trkpt lat="46.22557" lon="4.38486">
        <ele>430</ele>
        <time>2013-08-19T11:35:31Z</time>
      </trkpt>
      <trkpt lat="46.2256" lon="4.38496">
        <ele>430</ele>
        <time>2013-08-19T11:35:37Z</time>
      </trkpt>
      <trkpt lat="46.2256" lon="4.38497">
        <ele>430</ele>
        <time>2013-08-19T11:35:38Z</time>
      </trkpt>
      <trkpt lat="46.22559" lon="4.38498">
        <ele>430</ele>
        <time>2013-08-19T11:35:39Z</time>
      </trkpt>
      <trkpt lat="46.22558" lon="4.38502">
        <ele>429</ele>
        <time>2013-08-19T11:35:42Z</time>
      </trkpt>
      <trkpt lat="46.2256" lon="4.38511">
        <ele>429</ele>
        <time>2013-08-19T11:35:48Z</time>
      </trkpt>
      <trkpt lat="46.2256" lon="4.38512">
        <ele>429</ele>
        <time>2013-08-19T11:35:49Z</time>
      </trkpt>
      <trkpt lat="46.22561" lon="4.38513">
        <ele>429</ele>
        <time>2013-08-19T11:35:50Z</time>
      </trkpt>
      <trkpt lat="46.22562" lon="4.38517">
        <ele>429</ele>
        <time>2013-08-19T11:35:53Z</time>
      </trkpt>
      <trkpt lat="46.22566" lon="4.38519">
        <ele>429</ele>
        <time>2013-08-19T11:35:57Z</time>
      </trkpt>
      <trkpt lat="46.22569" lon="4.3852">
        <ele>429</ele>
        <time>2013-08-19T11:35:59Z</time>
      </trkpt>
      <trkpt lat="46.22571" lon="4.38523">
        <ele>429</ele>
        <time>2013-08-19T11:36:02Z</time>
      </trkpt>
      <trkpt lat="46.22574" lon="4.38525">
        <ele>429</ele>
        <time>2013-08-19T11:36:04Z</time>
      </trkpt>
      <trkpt lat="46.22575" lon="4.38526">
        <ele>429</ele>
        <time>2013-08-19T11:36:05Z</time>
      </trkpt>
      <trkpt lat="46.22575" lon="4.38527">
        <ele>429</ele>
        <time>2013-08-19T11:36:06Z</time>
      </trkpt>
      <trkpt lat="46.22579" lon="4.38531">
        <ele>428</ele>
        <time>2013-08-19T11:36:09Z</time>
      </trkpt>
      <trkpt lat="46.22584" lon="4.38539">
        <ele>431</ele>
        <time>2013-08-19T11:36:15Z</time>
      </trkpt>
      <trkpt lat="46.22585" lon="4.3854">
        <ele>431</ele>
        <time>2013-08-19T11:36:16Z</time>
      </trkpt>
      <trkpt lat="46.22586" lon="4.38545">
        <ele>431</ele>
        <time>2013-08-19T11:36:19Z</time>
      </trkpt>
      <trkpt lat="46.22593" lon="4.3856">
        <ele>430</ele>
        <time>2013-08-19T11:36:33Z</time>
      </trkpt>
      <trkpt lat="46.22594" lon="4.38562">
        <ele>429</ele>
        <time>2013-08-19T11:36:34Z</time>
      </trkpt>
      <trkpt lat="46.22597" lon="4.38578">
        <ele>427</ele>
        <time>2013-08-19T11:36:45Z</time>
      </trkpt>
      <trkpt lat="46.22598" lon="4.38581">
        <ele>427</ele>
        <time>2013-08-19T11:36:46Z</time>
      </trkpt>
      <trkpt lat="46.22598" lon="4.38589">
        <ele>425</ele>
        <time>2013-08-19T11:36:50Z</time>
      </trkpt>
      <trkpt lat="46.22598" lon="4.38591">
        <ele>425</ele>
        <time>2013-08-19T11:36:51Z</time>
      </trkpt>
      <trkpt lat="46.22594" lon="4.38599">
        <ele>425</ele>
        <time>2013-08-19T11:36:56Z</time>
      </trkpt>
      <trkpt lat="46.22592" lon="4.38603">
        <ele>426</ele>
        <time>2013-08-19T11:36:59Z</time>
      </trkpt>
      <trkpt lat="46.22589" lon="4.38605">
        <ele>426</ele>
        <time>2013-08-19T11:37:01Z</time>
      </trkpt>
      <trkpt lat="46.22588" lon="4.38607">
        <ele>426</ele>
        <time>2013-08-19T11:37:02Z</time>
      </trkpt>
      <trkpt lat="46.22584" lon="4.38611">
        <ele>426</ele>
        <time>2013-08-19T11:37:05Z</time>
      </trkpt>
      <trkpt lat="46.22584" lon="4.38613">
        <ele>426</ele>
        <time>2013-08-19T11:37:06Z</time>
      </trkpt>
      <trkpt lat="46.22582" lon="4.38616">
        <ele>426</ele>
        <time>2013-08-19T11:37:08Z</time>
      </trkpt>
      <trkpt lat="46.22575" lon="4.38619">
        <ele>426</ele>
        <time>2013-08-19T11:37:14Z</time>
      </trkpt>
      <trkpt lat="46.22569" lon="4.3862">
        <ele>426</ele>
        <time>2013-08-19T11:37:18Z</time>
      </trkpt>
      <trkpt lat="46.22564" lon="4.38621">
        <ele>426</ele>
        <time>2013-08-19T11:37:21Z</time>
      </trkpt>
      <trkpt lat="46.22561" lon="4.38621">
        <ele>427</ele>
        <time>2013-08-19T11:37:22Z</time>
      </trkpt>
      <trkpt lat="46.22555" lon="4.38624">
        <ele>427</ele>
        <time>2013-08-19T11:37:26Z</time>
      </trkpt>
      <trkpt lat="46.22558" lon="4.3863">
        <ele>427</ele>
        <time>2013-08-19T11:37:32Z</time>
      </trkpt>
      <trkpt lat="46.22556" lon="4.38636">
        <ele>427</ele>
        <time>2013-08-19T11:37:36Z</time>
      </trkpt>
      <trkpt lat="46.22554" lon="4.38639">
        <ele>427</ele>
        <time>2013-08-19T11:37:38Z</time>
      </trkpt>
      <trkpt lat="46.22553" lon="4.38643">
        <ele>427</ele>
        <time>2013-08-19T11:37:41Z</time>
      </trkpt>
      <trkpt lat="46.22552" lon="4.38644">
        <ele>427</ele>
        <time>2013-08-19T11:37:42Z</time>
      </trkpt>
      <trkpt lat="46.22549" lon="4.38645">
        <ele>427</ele>
        <time>2013-08-19T11:37:44Z</time>
      </trkpt>
      <trkpt lat="46.22544" lon="4.38648">
        <ele>427</ele>
        <time>2013-08-19T11:37:46Z</time>
      </trkpt>
      <trkpt lat="46.22538" lon="4.3865">
        <ele>428</ele>
        <time>2013-08-19T11:37:49Z</time>
      </trkpt>
      <trkpt lat="46.22539" lon="4.38652">
        <ele>428</ele>
        <time>2013-08-19T11:37:50Z</time>
      </trkpt>
      <trkpt lat="46.22539" lon="4.38654">
        <ele>428</ele>
        <time>2013-08-19T11:37:51Z</time>
      </trkpt>
      <trkpt lat="46.22543" lon="4.38662">
        <ele>427</ele>
        <time>2013-08-19T11:37:55Z</time>
      </trkpt>
      <trkpt lat="46.22545" lon="4.38664">
        <ele>427</ele>
        <time>2013-08-19T11:37:56Z</time>
      </trkpt>
      <trkpt lat="46.22547" lon="4.38671">
        <ele>428</ele>
        <time>2013-08-19T11:38:01Z</time>
      </trkpt>
      <trkpt lat="46.22547" lon="4.38673">
        <ele>428</ele>
        <time>2013-08-19T11:38:03Z</time>
      </trkpt>
      <trkpt lat="46.22549" lon="4.38674">
        <ele>428</ele>
        <time>2013-08-19T11:38:04Z</time>
      </trkpt>
      <trkpt lat="46.22548" lon="4.38676">
        <ele>429</ele>
        <time>2013-08-19T11:38:06Z</time>
      </trkpt>
      <trkpt lat="46.22554" lon="4.3868">
        <ele>428</ele>
        <time>2013-08-19T11:38:08Z</time>
      </trkpt>
      <trkpt lat="46.2258" lon="4.38697">
        <ele>429</ele>
        <time>2013-08-19T11:38:19Z</time>
      </trkpt>
      <trkpt lat="46.22601" lon="4.38702">
        <ele>435</ele>
        <time>2013-08-19T11:38:21Z</time>
      </trkpt>
      <trkpt lat="46.22614" lon="4.38705">
        <ele>436</ele>
        <time>2013-08-19T11:38:23Z</time>
      </trkpt>
      <trkpt lat="46.22617" lon="4.38706">
        <ele>436</ele>
        <time>2013-08-19T11:38:24Z</time>
      </trkpt>
      <trkpt lat="46.22623" lon="4.38708">
        <ele>437</ele>
        <time>2013-08-19T11:38:25Z</time>
      </trkpt>
      <trkpt lat="46.22622" lon="4.38709">
        <ele>437</ele>
        <time>2013-08-19T11:38:26Z</time>
      </trkpt>
      <trkpt lat="46.22603" lon="4.38716">
        <ele>437</ele>
        <time>2013-08-19T11:38:39Z</time>
      </trkpt>
      <trkpt lat="46.22608" lon="4.38715">
        <ele>437</ele>
        <time>2013-08-19T11:38:41Z</time>
      </trkpt>
      <trkpt lat="46.22617" lon="4.38714">
        <ele>437</ele>
        <time>2013-08-19T11:38:44Z</time>
      </trkpt>
      <trkpt lat="46.22614" lon="4.38709">
        <ele>436</ele>
        <time>2013-08-19T11:38:48Z</time>
      </trkpt>
      <trkpt lat="46.22614" lon="4.38701">
        <ele>435</ele>
        <time>2013-08-19T11:38:54Z</time>
      </trkpt>
      <trkpt lat="46.22618" lon="4.38693">
        <ele>435</ele>
        <time>2013-08-19T11:38:59Z</time>
      </trkpt>
      <trkpt lat="46.22621" lon="4.38691">
        <ele>435</ele>
        <time>2013-08-19T11:39:00Z</time>
      </trkpt>
      <trkpt lat="46.22625" lon="4.38689">
        <ele>435</ele>
        <time>2013-08-19T11:39:02Z</time>
      </trkpt>
      <trkpt lat="46.22626" lon="4.38688">
        <ele>435</ele>
        <time>2013-08-19T11:39:03Z</time>
      </trkpt>
      <trkpt lat="46.22627" lon="4.38685">
        <ele>435</ele>
        <time>2013-08-19T11:39:05Z</time>
      </trkpt>
      <trkpt lat="46.22626" lon="4.38681">
        <ele>434</ele>
        <time>2013-08-19T11:39:07Z</time>
      </trkpt>
      <trkpt lat="46.22625" lon="4.38678">
        <ele>434</ele>
        <time>2013-08-19T11:39:09Z</time>
      </trkpt>
      <trkpt lat="46.22626" lon="4.38673">
        <ele>434</ele>
        <time>2013-08-19T11:39:12Z</time>
      </trkpt>
      <trkpt lat="46.22629" lon="4.38671">
        <ele>434</ele>
        <time>2013-08-19T11:39:16Z</time>
      </trkpt>
      <trkpt lat="46.2263" lon="4.38671">
        <ele>434</ele>
        <time>2013-08-19T11:39:17Z</time>
      </trkpt>
      <trkpt lat="46.22631" lon="4.38668">
        <ele>434</ele>
        <time>2013-08-19T11:39:20Z</time>
      </trkpt>
      <trkpt lat="46.22632" lon="4.38665">
        <ele>429</ele>
        <time>2013-08-19T11:39:23Z</time>
      </trkpt>
      <trkpt lat="46.22633" lon="4.38662">
        <ele>429</ele>
        <time>2013-08-19T11:39:25Z</time>
      </trkpt>
      <trkpt lat="46.22639" lon="4.38661">
        <ele>430</ele>
        <time>2013-08-19T11:39:40Z</time>
      </trkpt>
      <trkpt lat="46.22644" lon="4.3866">
        <ele>430</ele>
        <time>2013-08-19T11:39:46Z</time>
      </trkpt>
      <trkpt lat="46.22647" lon="4.38665">
        <ele>430</ele>
        <time>2013-08-19T11:39:49Z</time>
      </trkpt>
      <trkpt lat="46.22647" lon="4.38668">
        <ele>435</ele>
        <time>2013-08-19T11:39:52Z</time>
      </trkpt>
      <trkpt lat="46.22656" lon="4.38683">
        <ele>435</ele>
        <time>2013-08-19T11:40:17Z</time>
      </trkpt>
      <trkpt lat="46.22658" lon="4.38683">
        <ele>435</ele>
        <time>2013-08-19T11:40:18Z</time>
      </trkpt>
      <trkpt lat="46.2266" lon="4.38683">
        <ele>435</ele>
        <time>2013-08-19T11:40:19Z</time>
      </trkpt>
      <trkpt lat="46.22662" lon="4.38683">
        <ele>435</ele>
        <time>2013-08-19T11:40:20Z</time>
      </trkpt>
      <trkpt lat="46.22676" lon="4.38679">
        <ele>438</ele>
        <time>2013-08-19T11:40:35Z</time>
      </trkpt>
      <trkpt lat="46.22676" lon="4.38679">
        <ele>438</ele>
        <time>2013-08-19T11:40:37Z</time>
      </trkpt>
      <trkpt lat="46.22678" lon="4.38677">
        <ele>438</ele>
        <time>2013-08-19T11:40:39Z</time>
      </trkpt>
      <trkpt lat="46.22692" lon="4.38677">
        <ele>440</ele>
        <time>2013-08-19T11:40:43Z</time>
      </trkpt>
      <trkpt lat="46.22695" lon="4.38681">
        <ele>441</ele>
        <time>2013-08-19T11:40:45Z</time>
      </trkpt>
      <trkpt lat="46.22712" lon="4.38683">
        <ele>442</ele>
        <time>2013-08-19T11:40:48Z</time>
      </trkpt>
      <trkpt lat="46.22715" lon="4.38684">
        <ele>442</ele>
        <time>2013-08-19T11:40:49Z</time>
      </trkpt>
      <trkpt lat="46.22716" lon="4.38685">
        <ele>442</ele>
        <time>2013-08-19T11:40:50Z</time>
      </trkpt>
      <trkpt lat="46.22722" lon="4.38689">
        <ele>442</ele>
        <time>2013-08-19T11:40:52Z</time>
      </trkpt>
      <trkpt lat="46.2273" lon="4.38695">
        <ele>443</ele>
        <time>2013-08-19T11:40:59Z</time>
      </trkpt>
      <trkpt lat="46.22731" lon="4.38699">
        <ele>443</ele>
        <time>2013-08-19T11:41:03Z</time>
      </trkpt>
      <trkpt lat="46.22742" lon="4.38703">
        <ele>444</ele>
        <time>2013-08-19T11:41:13Z</time>
      </trkpt>
      <trkpt lat="46.22742" lon="4.38709">
        <ele>445</ele>
        <time>2013-08-19T11:41:16Z</time>
      </trkpt>
      <trkpt lat="46.22742" lon="4.38716">
        <ele>445</ele>
        <time>2013-08-19T11:41:20Z</time>
      </trkpt>
      <trkpt lat="46.22741" lon="4.38721">
        <ele>446</ele>
        <time>2013-08-19T11:41:23Z</time>
      </trkpt>
      <trkpt lat="46.22741" lon="4.38726">
        <ele>447</ele>
        <time>2013-08-19T11:41:29Z</time>
      </trkpt>
      <trkpt lat="46.22754" lon="4.38718">
        <ele>448</ele>
        <time>2013-08-19T11:41:42Z</time>
      </trkpt>
      <trkpt lat="46.22756" lon="4.38715">
        <ele>447</ele>
        <time>2013-08-19T11:41:44Z</time>
      </trkpt>
      <trkpt lat="46.22758" lon="4.38712">
        <ele>447</ele>
        <time>2013-08-19T11:41:45Z</time>
      </trkpt>
      <trkpt lat="46.22763" lon="4.38706">
        <ele>446</ele>
        <time>2013-08-19T11:41:49Z</time>
      </trkpt>
      <trkpt lat="46.22775" lon="4.38701">
        <ele>446</ele>
        <time>2013-08-19T11:41:56Z</time>
      </trkpt>
      <trkpt lat="46.22779" lon="4.38698">
        <ele>446</ele>
        <time>2013-08-19T11:41:59Z</time>
      </trkpt>
      <trkpt lat="46.22779" lon="4.38696">
        <ele>446</ele>
        <time>2013-08-19T11:42:00Z</time>
      </trkpt>
      <trkpt lat="46.22783" lon="4.38701">
        <ele>446</ele>
        <time>2013-08-19T11:42:06Z</time>
      </trkpt>
      <trkpt lat="46.22809" lon="4.38709">
        <ele>447</ele>
        <time>2013-08-19T11:42:26Z</time>
      </trkpt>
      <trkpt lat="46.22808" lon="4.38709">
        <ele>447</ele>
        <time>2013-08-19T11:42:29Z</time>
      </trkpt>
      <trkpt lat="46.22809" lon="4.38709">
        <ele>447</ele>
        <time>2013-08-19T11:42:30Z</time>
      </trkpt>
      <trkpt lat="46.22803" lon="4.38715">
        <ele>448</ele>
        <time>2013-08-19T11:42:34Z</time>
      </trkpt>
      <trkpt lat="46.22799" lon="4.38717">
        <ele>448</ele>
        <time>2013-08-19T11:42:37Z</time>
      </trkpt>
      <trkpt lat="46.22807" lon="4.38719">
        <ele>448</ele>
        <time>2013-08-19T11:42:40Z</time>
      </trkpt>
      <trkpt lat="46.22825" lon="4.38724">
        <ele>450</ele>
        <time>2013-08-19T11:42:51Z</time>
      </trkpt>
      <trkpt lat="46.22826" lon="4.38728">
        <ele>450</ele>
        <time>2013-08-19T11:42:55Z</time>
      </trkpt>
      <trkpt lat="46.22826" lon="4.38728">
        <ele>450</ele>
        <time>2013-08-19T11:42:56Z</time>
      </trkpt>
      <trkpt lat="46.22831" lon="4.3873">
        <ele>451</ele>
        <time>2013-08-19T11:43:00Z</time>
      </trkpt>
      <trkpt lat="46.22831" lon="4.38732">
        <ele>451</ele>
        <time>2013-08-19T11:43:01Z</time>
      </trkpt>
      <trkpt lat="46.22834" lon="4.38734">
        <ele>453</ele>
        <time>2013-08-19T11:43:04Z</time>
      </trkpt>
      <trkpt lat="46.22835" lon="4.38737">
        <ele>453</ele>
        <time>2013-08-19T11:43:06Z</time>
      </trkpt>
      <trkpt lat="46.22836" lon="4.3874">
        <ele>454</ele>
        <time>2013-08-19T11:43:08Z</time>
      </trkpt>
      <trkpt lat="46.22838" lon="4.38741">
        <ele>454</ele>
        <time>2013-08-19T11:43:09Z</time>
      </trkpt>
      <trkpt lat="46.2284" lon="4.38742">
        <ele>454</ele>
        <time>2013-08-19T11:43:11Z</time>
      </trkpt>
      <trkpt lat="46.22843" lon="4.38742">
        <ele>454</ele>
        <time>2013-08-19T11:43:13Z</time>
      </trkpt>
      <trkpt lat="46.22842" lon="4.38744">
        <ele>454</ele>
        <time>2013-08-19T11:43:16Z</time>
      </trkpt>
      <trkpt lat="46.22842" lon="4.38746">
        <ele>454</ele>
        <time>2013-08-19T11:43:18Z</time>
      </trkpt>
      <trkpt lat="46.22845" lon="4.38754">
        <ele>457</ele>
        <time>2013-08-19T11:43:25Z</time>
      </trkpt>
      <trkpt lat="46.22848" lon="4.38756">
        <ele>457</ele>
        <time>2013-08-19T11:43:28Z</time>
      </trkpt>
      <trkpt lat="46.22851" lon="4.38758">
        <ele>458</ele>
        <time>2013-08-19T11:43:30Z</time>
      </trkpt>
      <trkpt lat="46.22852" lon="4.38759">
        <ele>458</ele>
        <time>2013-08-19T11:43:31Z</time>
      </trkpt>
      <trkpt lat="46.22853" lon="4.38761">
        <ele>458</ele>
        <time>2013-08-19T11:43:33Z</time>
      </trkpt>
      <trkpt lat="46.22855" lon="4.38763">
        <ele>458</ele>
        <time>2013-08-19T11:43:37Z</time>
      </trkpt>
      <trkpt lat="46.22854" lon="4.38764">
        <ele>458</ele>
        <time>2013-08-19T11:43:38Z</time>
      </trkpt>
      <trkpt lat="46.22859" lon="4.38768">
        <ele>458</ele>
        <time>2013-08-19T11:43:44Z</time>
      </trkpt>
      <trkpt lat="46.22867" lon="4.38772">
        <ele>459</ele>
        <time>2013-08-19T11:43:50Z</time>
      </trkpt>
      <trkpt lat="46.22869" lon="4.38774">
        <ele>459</ele>
        <time>2013-08-19T11:43:52Z</time>
      </trkpt>
      <trkpt lat="46.22867" lon="4.38775">
        <ele>459</ele>
        <time>2013-08-19T11:43:53Z</time>
      </trkpt>
      <trkpt lat="46.22866" lon="4.38777">
        <ele>459</ele>
        <time>2013-08-19T11:43:57Z</time>
      </trkpt>
      <trkpt lat="46.22869" lon="4.3878">
        <ele>459</ele>
        <time>2013-08-19T11:44:02Z</time>
      </trkpt>
      <trkpt lat="46.22877" lon="4.38782">
        <ele>459</ele>
        <time>2013-08-19T11:44:06Z</time>
      </trkpt>
      <trkpt lat="46.22879" lon="4.38782">
        <ele>459</ele>
        <time>2013-08-19T11:44:07Z</time>
      </trkpt>
      <trkpt lat="46.22883" lon="4.38783">
        <ele>459</ele>
        <time>2013-08-19T11:44:09Z</time>
      </trkpt>
      <trkpt lat="46.22882" lon="4.38785">
        <ele>459</ele>
        <time>2013-08-19T11:44:12Z</time>
      </trkpt>
      <trkpt lat="46.22882" lon="4.38786">
        <ele>459</ele>
        <time>2013-08-19T11:44:13Z</time>
      </trkpt>
      <trkpt lat="46.22885" lon="4.38788">
        <ele>460</ele>
        <time>2013-08-19T11:44:15Z</time>
      </trkpt>
      <trkpt lat="46.22886" lon="4.38789">
        <ele>460</ele>
        <time>2013-08-19T11:44:16Z</time>
      </trkpt>
      <trkpt lat="46.22889" lon="4.38793">
        <ele>460</ele>
        <time>2013-08-19T11:44:19Z</time>
      </trkpt>
      <trkpt lat="46.22894" lon="4.38796">
        <ele>460</ele>
        <time>2013-08-19T11:44:23Z</time>
      </trkpt>
      <trkpt lat="46.22896" lon="4.38796">
        <ele>460</ele>
        <time>2013-08-19T11:44:24Z</time>
      </trkpt>
      <trkpt lat="46.22899" lon="4.38799">
        <ele>461</ele>
        <time>2013-08-19T11:44:28Z</time>
      </trkpt>
      <trkpt lat="46.229" lon="4.38801">
        <ele>461</ele>
        <time>2013-08-19T11:44:32Z</time>
      </trkpt>
      <trkpt lat="46.22901" lon="4.38805">
        <ele>461</ele>
        <time>2013-08-19T11:44:39Z</time>
      </trkpt>
      <trkpt lat="46.22904" lon="4.38806">
        <ele>461</ele>
        <time>2013-08-19T11:44:44Z</time>
      </trkpt>
      <trkpt lat="46.22909" lon="4.3881">
        <ele>462</ele>
        <time>2013-08-19T11:44:48Z</time>
      </trkpt>
      <trkpt lat="46.22913" lon="4.38816">
        <ele>463</ele>
        <time>2013-08-19T11:44:54Z</time>
      </trkpt>
      <trkpt lat="46.22916" lon="4.38822">
        <ele>464</ele>
        <time>2013-08-19T11:44:58Z</time>
      </trkpt>
      <trkpt lat="46.22917" lon="4.38824">
        <ele>466</ele>
        <time>2013-08-19T11:45:00Z</time>
      </trkpt>
      <trkpt lat="46.22919" lon="4.38833">
        <ele>467</ele>
        <time>2013-08-19T11:45:14Z</time>
      </trkpt>
      <trkpt lat="46.22919" lon="4.38837">
        <ele>468</ele>
        <time>2013-08-19T11:45:19Z</time>
      </trkpt>
      <trkpt lat="46.22922" lon="4.38838">
        <ele>468</ele>
        <time>2013-08-19T11:45:23Z</time>
      </trkpt>
      <trkpt lat="46.22926" lon="4.3884">
        <ele>469</ele>
        <time>2013-08-19T11:45:26Z</time>
      </trkpt>
      <trkpt lat="46.22928" lon="4.38842">
        <ele>469</ele>
        <time>2013-08-19T11:45:27Z</time>
      </trkpt>
      <trkpt lat="46.22933" lon="4.38845">
        <ele>470</ele>
        <time>2013-08-19T11:45:30Z</time>
      </trkpt>
      <trkpt lat="46.2294" lon="4.38849">
        <ele>470</ele>
        <time>2013-08-19T11:45:34Z</time>
      </trkpt>
      <trkpt lat="46.22941" lon="4.3885">
        <ele>470</ele>
        <time>2013-08-19T11:45:35Z</time>
      </trkpt>
      <trkpt lat="46.22954" lon="4.38856">
        <ele>471</ele>
        <time>2013-08-19T11:45:41Z</time>
      </trkpt>
      <trkpt lat="46.22956" lon="4.38858">
        <ele>471</ele>
        <time>2013-08-19T11:45:42Z</time>
      </trkpt>
      <trkpt lat="46.22962" lon="4.38858">
        <ele>472</ele>
        <time>2013-08-19T11:45:44Z</time>
      </trkpt>
      <trkpt lat="46.22962" lon="4.3886">
        <ele>472</ele>
        <time>2013-08-19T11:45:46Z</time>
      </trkpt>
      <trkpt lat="46.22963" lon="4.38861">
        <ele>472</ele>
        <time>2013-08-19T11:45:48Z</time>
      </trkpt>
      <trkpt lat="46.22969" lon="4.38863">
        <ele>472</ele>
        <time>2013-08-19T11:45:51Z</time>
      </trkpt>
      <trkpt lat="46.22976" lon="4.38866">
        <ele>472</ele>
        <time>2013-08-19T11:45:54Z</time>
      </trkpt>
      <trkpt lat="46.2298" lon="4.38868">
        <ele>473</ele>
        <time>2013-08-19T11:45:57Z</time>
      </trkpt>
      <trkpt lat="46.22975" lon="4.38871">
        <ele>473</ele>
        <time>2013-08-19T11:46:03Z</time>
      </trkpt>
      <trkpt lat="46.22973" lon="4.38872">
        <ele>473</ele>
        <time>2013-08-19T11:46:04Z</time>
      </trkpt>
      <trkpt lat="46.22972" lon="4.38877">
        <ele>473</ele>
        <time>2013-08-19T11:46:07Z</time>
      </trkpt>
      <trkpt lat="46.22976" lon="4.3888">
        <ele>473</ele>
        <time>2013-08-19T11:46:12Z</time>
      </trkpt>
      <trkpt lat="46.22977" lon="4.38882">
        <ele>474</ele>
        <time>2013-08-19T11:46:14Z</time>
      </trkpt>
      <trkpt lat="46.22977" lon="4.38882">
        <ele>474</ele>
        <time>2013-08-19T11:46:15Z</time>
      </trkpt>
      <trkpt lat="46.2298" lon="4.38883">
        <ele>474</ele>
        <time>2013-08-19T11:46:17Z</time>
      </trkpt>
      <trkpt lat="46.22982" lon="4.38883">
        <ele>474</ele>
        <time>2013-08-19T11:46:19Z</time>
      </trkpt>
      <trkpt lat="46.22984" lon="4.38886">
        <ele>474</ele>
        <time>2013-08-19T11:46:23Z</time>
      </trkpt>
      <trkpt lat="46.22986" lon="4.38894">
        <ele>475</ele>
        <time>2013-08-19T11:46:28Z</time>
      </trkpt>
      <trkpt lat="46.22993" lon="4.38897">
        <ele>476</ele>
        <time>2013-08-19T11:46:32Z</time>
      </trkpt>
      <trkpt lat="46.22989" lon="4.389">
        <ele>476</ele>
        <time>2013-08-19T11:46:35Z</time>
      </trkpt>
      <trkpt lat="46.22986" lon="4.38902">
        <ele>476</ele>
        <time>2013-08-19T11:46:37Z</time>
      </trkpt>
      <trkpt lat="46.22985" lon="4.38909">
        <ele>477</ele>
        <time>2013-08-19T11:46:43Z</time>
      </trkpt>
      <trkpt lat="46.22984" lon="4.3891">
        <ele>477</ele>
        <time>2013-08-19T11:46:44Z</time>
      </trkpt>
      <trkpt lat="46.22983" lon="4.38918">
        <ele>480</ele>
        <time>2013-08-19T11:46:48Z</time>
      </trkpt>
      <trkpt lat="46.22982" lon="4.3892">
        <ele>480</ele>
        <time>2013-08-19T11:46:50Z</time>
      </trkpt>
      <trkpt lat="46.22982" lon="4.38923">
        <ele>480</ele>
        <time>2013-08-19T11:46:52Z</time>
      </trkpt>
      <trkpt lat="46.22982" lon="4.38926">
        <ele>480</ele>
        <time>2013-08-19T11:46:54Z</time>
      </trkpt>
      <trkpt lat="46.22982" lon="4.38926">
        <ele>480</ele>
        <time>2013-08-19T11:46:55Z</time>
      </trkpt>
      <trkpt lat="46.22981" lon="4.38931">
        <ele>480</ele>
        <time>2013-08-19T11:46:58Z</time>
      </trkpt>
      <trkpt lat="46.22983" lon="4.38934">
        <ele>480</ele>
        <time>2013-08-19T11:47:02Z</time>
      </trkpt>
      <trkpt lat="46.23006" lon="4.38936">
        <ele>487</ele>
        <time>2013-08-19T11:47:08Z</time>
      </trkpt>
      <trkpt lat="46.23011" lon="4.38937">
        <ele>488</ele>
        <time>2013-08-19T11:47:10Z</time>
      </trkpt>
      <trkpt lat="46.23013" lon="4.38937">
        <ele>488</ele>
        <time>2013-08-19T11:47:11Z</time>
      </trkpt>
      <trkpt lat="46.23015" lon="4.38938">
        <ele>488</ele>
        <time>2013-08-19T11:47:13Z</time>
      </trkpt>
      <trkpt lat="46.2302" lon="4.38938">
        <ele>488</ele>
        <time>2013-08-19T11:47:15Z</time>
      </trkpt>
      <trkpt lat="46.23027" lon="4.38938">
        <ele>489</ele>
        <time>2013-08-19T11:47:19Z</time>
      </trkpt>
      <trkpt lat="46.23024" lon="4.38941">
        <ele>489</ele>
        <time>2013-08-19T11:47:25Z</time>
      </trkpt>
      <trkpt lat="46.23022" lon="4.38943">
        <ele>489</ele>
        <time>2013-08-19T11:47:28Z</time>
      </trkpt>
      <trkpt lat="46.23019" lon="4.38945">
        <ele>489</ele>
        <time>2013-08-19T11:47:30Z</time>
      </trkpt>
      <trkpt lat="46.23018" lon="4.38946">
        <ele>489</ele>
        <time>2013-08-19T11:47:31Z</time>
      </trkpt>
      <trkpt lat="46.23017" lon="4.38945">
        <ele>489</ele>
        <time>2013-08-19T11:47:32Z</time>
      </trkpt>
      <trkpt lat="46.23017" lon="4.38949">
        <ele>489</ele>
        <time>2013-08-19T11:47:36Z</time>
      </trkpt>
      <trkpt lat="46.23027" lon="4.38954">
        <ele>490</ele>
        <time>2013-08-19T11:47:42Z</time>
      </trkpt>
      <trkpt lat="46.2303" lon="4.38958">
        <ele>491</ele>
        <time>2013-08-19T11:47:45Z</time>
      </trkpt>
      <trkpt lat="46.23031" lon="4.3896">
        <ele>491</ele>
        <time>2013-08-19T11:47:47Z</time>
      </trkpt>
      <trkpt lat="46.23032" lon="4.3896">
        <ele>491</ele>
        <time>2013-08-19T11:47:48Z</time>
      </trkpt>
      <trkpt lat="46.23032" lon="4.38961">
        <ele>491</ele>
        <time>2013-08-19T11:47:53Z</time>
      </trkpt>
      <trkpt lat="46.23034" lon="4.38962">
        <ele>491</ele>
        <time>2013-08-19T11:47:54Z</time>
      </trkpt>
      <trkpt lat="46.23036" lon="4.38961">
        <ele>491</ele>
        <time>2013-08-19T11:47:57Z</time>
      </trkpt>
      <trkpt lat="46.23038" lon="4.38962">
        <ele>491</ele>
        <time>2013-08-19T11:47:59Z</time>
      </trkpt>
      <trkpt lat="46.23042" lon="4.38962">
        <ele>492</ele>
        <time>2013-08-19T11:48:01Z</time>
      </trkpt>
      <trkpt lat="46.23048" lon="4.38959">
        <ele>492</ele>
        <time>2013-08-19T11:48:03Z</time>
      </trkpt>
      <trkpt lat="46.23049" lon="4.38959">
        <ele>492</ele>
        <time>2013-08-19T11:48:04Z</time>
      </trkpt>
      <trkpt lat="46.23055" lon="4.3896">
        <ele>493</ele>
        <time>2013-08-19T11:48:10Z</time>
      </trkpt>
      <trkpt lat="46.23058" lon="4.38963">
        <ele>493</ele>
        <time>2013-08-19T11:48:13Z</time>
      </trkpt>
      <trkpt lat="46.23063" lon="4.38964">
        <ele>493</ele>
        <time>2013-08-19T11:48:17Z</time>
      </trkpt>
      <trkpt lat="46.23066" lon="4.38967">
        <ele>494</ele>
        <time>2013-08-19T11:48:21Z</time>
      </trkpt>
      <trkpt lat="46.23068" lon="4.38967">
        <ele>494</ele>
        <time>2013-08-19T11:48:23Z</time>
      </trkpt>
      <trkpt lat="46.2307" lon="4.38968">
        <ele>494</ele>
        <time>2013-08-19T11:48:25Z</time>
      </trkpt>
      <trkpt lat="46.23072" lon="4.38969">
        <ele>495</ele>
        <time>2013-08-19T11:48:27Z</time>
      </trkpt>
      <trkpt lat="46.23074" lon="4.38969">
        <ele>495</ele>
        <time>2013-08-19T11:48:28Z</time>
      </trkpt>
      <trkpt lat="46.2308" lon="4.38968">
        <ele>495</ele>
        <time>2013-08-19T11:48:32Z</time>
      </trkpt>
      <trkpt lat="46.23082" lon="4.3897">
        <ele>495</ele>
        <time>2013-08-19T11:48:34Z</time>
      </trkpt>
      <trkpt lat="46.23085" lon="4.38971">
        <ele>501</ele>
        <time>2013-08-19T11:48:36Z</time>
      </trkpt>
      <trkpt lat="46.23088" lon="4.38969">
        <ele>501</ele>
        <time>2013-08-19T11:48:38Z</time>
      </trkpt>
      <trkpt lat="46.23089" lon="4.3897">
        <ele>501</ele>
        <time>2013-08-19T11:48:39Z</time>
      </trkpt>
      <trkpt lat="46.23096" lon="4.38974">
        <ele>501</ele>
        <time>2013-08-19T11:48:46Z</time>
      </trkpt>
      <trkpt lat="46.23103" lon="4.38976">
        <ele>502</ele>
        <time>2013-08-19T11:48:52Z</time>
      </trkpt>
      <trkpt lat="46.23105" lon="4.38975">
        <ele>502</ele>
        <time>2013-08-19T11:48:53Z</time>
      </trkpt>
      <trkpt lat="46.2311" lon="4.3898">
        <ele>502</ele>
        <time>2013-08-19T11:49:00Z</time>
      </trkpt>
      <trkpt lat="46.23113" lon="4.38981">
        <ele>502</ele>
        <time>2013-08-19T11:49:02Z</time>
      </trkpt>
      <trkpt lat="46.23117" lon="4.38983">
        <ele>502</ele>
        <time>2013-08-19T11:49:06Z</time>
      </trkpt>
      <trkpt lat="46.23119" lon="4.38985">
        <ele>502</ele>
        <time>2013-08-19T11:49:09Z</time>
      </trkpt>
      <trkpt lat="46.23122" lon="4.38986">
        <ele>503</ele>
        <time>2013-08-19T11:49:12Z</time>
      </trkpt>
      <trkpt lat="46.23126" lon="4.38987">
        <ele>503</ele>
        <time>2013-08-19T11:49:16Z</time>
      </trkpt>
      <trkpt lat="46.23133" lon="4.38988">
        <ele>503</ele>
        <time>2013-08-19T11:49:23Z</time>
      </trkpt>
      <trkpt lat="46.23139" lon="4.38987">
        <ele>504</ele>
        <time>2013-08-19T11:49:27Z</time>
      </trkpt>
      <trkpt lat="46.23142" lon="4.3899">
        <ele>504</ele>
        <time>2013-08-19T11:49:31Z</time>
      </trkpt>
      <trkpt lat="46.23144" lon="4.38991">
        <ele>505</ele>
        <time>2013-08-19T11:49:33Z</time>
      </trkpt>
      <trkpt lat="46.23146" lon="4.38992">
        <ele>505</ele>
        <time>2013-08-19T11:49:36Z</time>
      </trkpt>
      <trkpt lat="46.23149" lon="4.38995">
        <ele>506</ele>
        <time>2013-08-19T11:49:40Z</time>
      </trkpt>
      <trkpt lat="46.23151" lon="4.38996">
        <ele>506</ele>
        <time>2013-08-19T11:49:42Z</time>
      </trkpt>
      <trkpt lat="46.23153" lon="4.38998">
        <ele>506</ele>
        <time>2013-08-19T11:49:46Z</time>
      </trkpt>
      <trkpt lat="46.23153" lon="4.38999">
        <ele>506</ele>
        <time>2013-08-19T11:49:47Z</time>
      </trkpt>
      <trkpt lat="46.23154" lon="4.39">
        <ele>510</ele>
        <time>2013-08-19T11:49:52Z</time>
      </trkpt>
      <trkpt lat="46.23154" lon="4.39001">
        <ele>510</ele>
        <time>2013-08-19T11:49:56Z</time>
      </trkpt>
      <trkpt lat="46.23153" lon="4.39009">
        <ele>510</ele>
        <time>2013-08-19T11:50:28Z</time>
      </trkpt>
      <trkpt lat="46.23152" lon="4.39011">
        <ele>511</ele>
        <time>2013-08-19T11:50:29Z</time>
      </trkpt>
      <trkpt lat="46.23149" lon="4.39017">
        <ele>511</ele>
        <time>2013-08-19T11:50:34Z</time>
      </trkpt>
      <trkpt lat="46.23145" lon="4.39022">
        <ele>511</ele>
        <time>2013-08-19T11:50:38Z</time>
      </trkpt>
      <trkpt lat="46.23142" lon="4.39025">
        <ele>511</ele>
        <time>2013-08-19T11:50:40Z</time>
      </trkpt>
      <trkpt lat="46.23137" lon="4.39032">
        <ele>511</ele>
        <time>2013-08-19T11:50:47Z</time>
      </trkpt>
      <trkpt lat="46.23135" lon="4.39035">
        <ele>511</ele>
        <time>2013-08-19T11:50:52Z</time>
      </trkpt>
      <trkpt lat="46.23133" lon="4.39038">
        <ele>511</ele>
        <time>2013-08-19T11:50:58Z</time>
      </trkpt>
      <trkpt lat="46.23132" lon="4.39041">
        <ele>511</ele>
        <time>2013-08-19T11:51:00Z</time>
      </trkpt>
      <trkpt lat="46.23129" lon="4.39046">
        <ele>511</ele>
        <time>2013-08-19T11:51:04Z</time>
      </trkpt>
      <trkpt lat="46.23123" lon="4.39055">
        <ele>512</ele>
        <time>2013-08-19T11:51:10Z</time>
      </trkpt>
      <trkpt lat="46.23119" lon="4.3906">
        <ele>511</ele>
        <time>2013-08-19T11:51:13Z</time>
      </trkpt>
      <trkpt lat="46.23114" lon="4.39063">
        <ele>511</ele>
        <time>2013-08-19T11:51:17Z</time>
      </trkpt>
      <trkpt lat="46.23112" lon="4.3907">
        <ele>511</ele>
        <time>2013-08-19T11:51:22Z</time>
      </trkpt>
      <trkpt lat="46.23111" lon="4.39071">
        <ele>511</ele>
        <time>2013-08-19T11:51:24Z</time>
      </trkpt>
      <trkpt lat="46.23108" lon="4.39074">
        <ele>511</ele>
        <time>2013-08-19T11:51:27Z</time>
      </trkpt>
      <trkpt lat="46.23107" lon="4.39074">
        <ele>511</ele>
        <time>2013-08-19T11:51:28Z</time>
      </trkpt>
      <trkpt lat="46.23105" lon="4.39078">
        <ele>511</ele>
        <time>2013-08-19T11:51:32Z</time>
      </trkpt>
      <trkpt lat="46.23104" lon="4.3908">
        <ele>511</ele>
        <time>2013-08-19T11:51:34Z</time>
      </trkpt>
      <trkpt lat="46.23104" lon="4.39083">
        <ele>511</ele>
        <time>2013-08-19T11:51:36Z</time>
      </trkpt>
      <trkpt lat="46.23104" lon="4.39085">
        <ele>515</ele>
        <time>2013-08-19T11:51:38Z</time>
      </trkpt>
      <trkpt lat="46.23105" lon="4.39087">
        <ele>515</ele>
        <time>2013-08-19T11:51:40Z</time>
      </trkpt>
      <trkpt lat="46.23105" lon="4.39094">
        <ele>515</ele>
        <time>2013-08-19T11:51:46Z</time>
      </trkpt>
      <trkpt lat="46.23106" lon="4.39101">
        <ele>516</ele>
        <time>2013-08-19T11:51:51Z</time>
      </trkpt>
      <trkpt lat="46.23106" lon="4.39103">
        <ele>516</ele>
        <time>2013-08-19T11:51:53Z</time>
      </trkpt>
      <trkpt lat="46.23107" lon="4.39104">
        <ele>516</ele>
        <time>2013-08-19T11:51:55Z</time>
      </trkpt>
      <trkpt lat="46.23108" lon="4.39106">
        <ele>516</ele>
        <time>2013-08-19T11:51:56Z</time>
      </trkpt>
      <trkpt lat="46.23109" lon="4.39111">
        <ele>517</ele>
        <time>2013-08-19T11:51:59Z</time>
      </trkpt>
      <trkpt lat="46.23109" lon="4.39115">
        <ele>517</ele>
        <time>2013-08-19T11:52:03Z</time>
      </trkpt>
      <trkpt lat="46.2311" lon="4.39122">
        <ele>517</ele>
        <time>2013-08-19T11:52:07Z</time>
      </trkpt>
      <trkpt lat="46.2311" lon="4.39123">
        <ele>518</ele>
        <time>2013-08-19T11:52:08Z</time>
      </trkpt>
      <trkpt lat="46.23111" lon="4.39129">
        <ele>518</ele>
        <time>2013-08-19T11:52:13Z</time>
      </trkpt>
      <trkpt lat="46.2311" lon="4.39132">
        <ele>518</ele>
        <time>2013-08-19T11:52:15Z</time>
      </trkpt>
      <trkpt lat="46.23109" lon="4.39136">
        <ele>518</ele>
        <time>2013-08-19T11:52:17Z</time>
      </trkpt>
      <trkpt lat="46.23109" lon="4.3914">
        <ele>518</ele>
        <time>2013-08-19T11:52:19Z</time>
      </trkpt>
      <trkpt lat="46.23109" lon="4.39142">
        <ele>518</ele>
        <time>2013-08-19T11:52:21Z</time>
      </trkpt>
      <trkpt lat="46.23112" lon="4.39147">
        <ele>518</ele>
        <time>2013-08-19T11:52:26Z</time>
      </trkpt>
      <trkpt lat="46.23113" lon="4.39148">
        <ele>518</ele>
        <time>2013-08-19T11:52:27Z</time>
      </trkpt>
      <trkpt lat="46.23114" lon="4.3915">
        <ele>518</ele>
        <time>2013-08-19T11:52:28Z</time>
      </trkpt>
      <trkpt lat="46.23115" lon="4.39153">
        <ele>519</ele>
        <time>2013-08-19T11:52:31Z</time>
      </trkpt>
      <trkpt lat="46.23116" lon="4.39154">
        <ele>519</ele>
        <time>2013-08-19T11:52:32Z</time>
      </trkpt>
      <trkpt lat="46.23117" lon="4.39158">
        <ele>519</ele>
        <time>2013-08-19T11:52:36Z</time>
      </trkpt>
      <trkpt lat="46.23119" lon="4.39161">
        <ele>519</ele>
        <time>2013-08-19T11:52:38Z</time>
      </trkpt>
      <trkpt lat="46.23123" lon="4.39167">
        <ele>524</ele>
        <time>2013-08-19T11:52:42Z</time>
      </trkpt>
      <trkpt lat="46.23124" lon="4.39169">
        <ele>524</ele>
        <time>2013-08-19T11:52:43Z</time>
      </trkpt>
      <trkpt lat="46.23124" lon="4.39171">
        <ele>525</ele>
        <time>2013-08-19T11:52:46Z</time>
      </trkpt>
      <trkpt lat="46.23121" lon="4.39176">
        <ele>524</ele>
        <time>2013-08-19T11:52:51Z</time>
      </trkpt>
      <trkpt lat="46.23121" lon="4.39182">
        <ele>524</ele>
        <time>2013-08-19T11:52:57Z</time>
      </trkpt>
      <trkpt lat="46.23122" lon="4.39184">
        <ele>525</ele>
        <time>2013-08-19T11:52:59Z</time>
      </trkpt>
      <trkpt lat="46.23124" lon="4.39191">
        <ele>525</ele>
        <time>2013-08-19T11:53:05Z</time>
      </trkpt>
      <trkpt lat="46.23124" lon="4.39192">
        <ele>525</ele>
        <time>2013-08-19T11:53:06Z</time>
      </trkpt>
      <trkpt lat="46.23125" lon="4.39202">
        <ele>526</ele>
        <time>2013-08-19T11:53:12Z</time>
      </trkpt>
      <trkpt lat="46.23126" lon="4.39203">
        <ele>526</ele>
        <time>2013-08-19T11:53:13Z</time>
      </trkpt>
      <trkpt lat="46.23128" lon="4.39209">
        <ele>526</ele>
        <time>2013-08-19T11:53:18Z</time>
      </trkpt>
      <trkpt lat="46.23131" lon="4.39217">
        <ele>527</ele>
        <time>2013-08-19T11:53:23Z</time>
      </trkpt>
      <trkpt lat="46.23132" lon="4.39219">
        <ele>527</ele>
        <time>2013-08-19T11:53:25Z</time>
      </trkpt>
      <trkpt lat="46.23131" lon="4.3922">
        <ele>527</ele>
        <time>2013-08-19T11:53:26Z</time>
      </trkpt>
      <trkpt lat="46.23131" lon="4.39227">
        <ele>528</ele>
        <time>2013-08-19T11:53:32Z</time>
      </trkpt>
      <trkpt lat="46.23131" lon="4.39229">
        <ele>528</ele>
        <time>2013-08-19T11:53:33Z</time>
      </trkpt>
      <trkpt lat="46.23129" lon="4.39236">
        <ele>528</ele>
        <time>2013-08-19T11:53:38Z</time>
      </trkpt>
      <trkpt lat="46.2313" lon="4.39239">
        <ele>528</ele>
        <time>2013-08-19T11:53:40Z</time>
      </trkpt>
      <trkpt lat="46.23125" lon="4.39249">
        <ele>527</ele>
        <time>2013-08-19T11:53:45Z</time>
      </trkpt>
      <trkpt lat="46.23124" lon="4.39251">
        <ele>533</ele>
        <time>2013-08-19T11:53:46Z</time>
      </trkpt>
      <trkpt lat="46.23123" lon="4.39252">
        <ele>532</ele>
        <time>2013-08-19T11:53:47Z</time>
      </trkpt>
      <trkpt lat="46.23122" lon="4.39257">
        <ele>532</ele>
        <time>2013-08-19T11:53:50Z</time>
      </trkpt>
      <trkpt lat="46.2312" lon="4.39268">
        <ele>533</ele>
        <time>2013-08-19T11:53:56Z</time>
      </trkpt>
      <trkpt lat="46.23124" lon="4.39277">
        <ele>534</ele>
        <time>2013-08-19T11:54:02Z</time>
      </trkpt>
      <trkpt lat="46.23125" lon="4.3929">
        <ele>535</ele>
        <time>2013-08-19T11:54:09Z</time>
      </trkpt>
      <trkpt lat="46.23124" lon="4.39297">
        <ele>535</ele>
        <time>2013-08-19T11:54:13Z</time>
      </trkpt>
      <trkpt lat="46.23125" lon="4.39309">
        <ele>536</ele>
        <time>2013-08-19T11:54:21Z</time>
      </trkpt>
      <trkpt lat="46.23129" lon="4.39313">
        <ele>537</ele>
        <time>2013-08-19T11:54:26Z</time>
      </trkpt>
      <trkpt lat="46.23134" lon="4.39312">
        <ele>537</ele>
        <time>2013-08-19T11:54:29Z</time>
      </trkpt>
      <trkpt lat="46.23176" lon="4.39281">
        <ele>546</ele>
        <time>2013-08-19T11:55:06Z</time>
      </trkpt>
      <trkpt lat="46.23171" lon="4.39279">
        <ele>546</ele>
        <time>2013-08-19T11:55:15Z</time>
      </trkpt>
      <trkpt lat="46.2318" lon="4.39272">
        <ele>545</ele>
        <time>2013-08-19T11:55:19Z</time>
      </trkpt>
      <trkpt lat="46.23185" lon="4.39268">
        <ele>545</ele>
        <time>2013-08-19T11:55:22Z</time>
      </trkpt>
      <trkpt lat="46.23189" lon="4.39267">
        <ele>545</ele>
        <time>2013-08-19T11:55:24Z</time>
      </trkpt>
      <trkpt lat="46.23189" lon="4.39268">
        <ele>546</ele>
        <time>2013-08-19T11:55:25Z</time>
      </trkpt>
      <trkpt lat="46.2319" lon="4.39269">
        <ele>546</ele>
        <time>2013-08-19T11:55:26Z</time>
      </trkpt>
      <trkpt lat="46.23188" lon="4.39271">
        <ele>546</ele>
        <time>2013-08-19T11:55:27Z</time>
      </trkpt>
      <trkpt lat="46.23191" lon="4.39277">
        <ele>546</ele>
        <time>2013-08-19T11:55:31Z</time>
      </trkpt>
      <trkpt lat="46.23193" lon="4.3928">
        <ele>547</ele>
        <time>2013-08-19T11:55:33Z</time>
      </trkpt>
      <trkpt lat="46.2319" lon="4.39289">
        <ele>547</ele>
        <time>2013-08-19T11:55:39Z</time>
      </trkpt>
      <trkpt lat="46.23187" lon="4.39293">
        <ele>547</ele>
        <time>2013-08-19T11:55:43Z</time>
      </trkpt>
      <trkpt lat="46.2319" lon="4.39293">
        <ele>547</ele>
        <time>2013-08-19T11:55:46Z</time>
      </trkpt>
      <trkpt lat="46.23197" lon="4.39289">
        <ele>548</ele>
        <time>2013-08-19T11:55:49Z</time>
      </trkpt>
      <trkpt lat="46.23198" lon="4.39291">
        <ele>548</ele>
        <time>2013-08-19T11:55:55Z</time>
      </trkpt>
      <trkpt lat="46.232" lon="4.3929">
        <ele>548</ele>
        <time>2013-08-19T11:55:59Z</time>
      </trkpt>
      <trkpt lat="46.232" lon="4.39291">
        <ele>548</ele>
        <time>2013-08-19T11:56:01Z</time>
      </trkpt>
      <trkpt lat="46.232" lon="4.39296">
        <ele>548</ele>
        <time>2013-08-19T11:56:05Z</time>
      </trkpt>
      <trkpt lat="46.23197" lon="4.393">
        <ele>548</ele>
        <time>2013-08-19T11:56:09Z</time>
      </trkpt>
      <trkpt lat="46.23197" lon="4.39306">
        <ele>548</ele>
        <time>2013-08-19T11:56:13Z</time>
      </trkpt>
      <trkpt lat="46.23197" lon="4.39307">
        <ele>549</ele>
        <time>2013-08-19T11:56:14Z</time>
      </trkpt>
      <trkpt lat="46.23199" lon="4.39315">
        <ele>549</ele>
        <time>2013-08-19T11:56:21Z</time>
      </trkpt>
      <trkpt lat="46.23199" lon="4.39316">
        <ele>549</ele>
        <time>2013-08-19T11:56:22Z</time>
      </trkpt>
      <trkpt lat="46.23202" lon="4.39324">
        <ele>549</ele>
        <time>2013-08-19T11:56:30Z</time>
      </trkpt>
      <trkpt lat="46.23205" lon="4.39332">
        <ele>550</ele>
        <time>2013-08-19T11:56:37Z</time>
      </trkpt>
      <trkpt lat="46.23207" lon="4.39336">
        <ele>556</ele>
        <time>2013-08-19T11:56:42Z</time>
      </trkpt>
      <trkpt lat="46.23208" lon="4.39339">
        <ele>556</ele>
        <time>2013-08-19T11:56:45Z</time>
      </trkpt>
      <trkpt lat="46.23209" lon="4.39341">
        <ele>556</ele>
        <time>2013-08-19T11:56:47Z</time>
      </trkpt>
      <trkpt lat="46.23212" lon="4.39352">
        <ele>557</ele>
        <time>2013-08-19T11:56:55Z</time>
      </trkpt>
      <trkpt lat="46.23212" lon="4.39355">
        <ele>557</ele>
        <time>2013-08-19T11:56:57Z</time>
      </trkpt>
      <trkpt lat="46.23213" lon="4.3936">
        <ele>558</ele>
        <time>2013-08-19T11:57:03Z</time>
      </trkpt>
      <trkpt lat="46.23212" lon="4.39362">
        <ele>558</ele>
        <time>2013-08-19T11:57:05Z</time>
      </trkpt>
      <trkpt lat="46.2321" lon="4.39366">
        <ele>558</ele>
        <time>2013-08-19T11:57:10Z</time>
      </trkpt>
      <trkpt lat="46.23209" lon="4.39369">
        <ele>558</ele>
        <time>2013-08-19T11:57:12Z</time>
      </trkpt>
      <trkpt lat="46.23206" lon="4.39373">
        <ele>558</ele>
        <time>2013-08-19T11:57:16Z</time>
      </trkpt>
      <trkpt lat="46.23206" lon="4.39375">
        <ele>558</ele>
        <time>2013-08-19T11:57:17Z</time>
      </trkpt>
      <trkpt lat="46.23204" lon="4.39381">
        <ele>558</ele>
        <time>2013-08-19T11:57:21Z</time>
      </trkpt>
      <trkpt lat="46.23202" lon="4.39383">
        <ele>558</ele>
        <time>2013-08-19T11:57:23Z</time>
      </trkpt>
      <trkpt lat="46.23202" lon="4.39385">
        <ele>558</ele>
        <time>2013-08-19T11:57:24Z</time>
      </trkpt>
      <trkpt lat="46.23201" lon="4.39387">
        <ele>558</ele>
        <time>2013-08-19T11:57:26Z</time>
      </trkpt>
      <trkpt lat="46.23201" lon="4.39387">
        <ele>558</ele>
        <time>2013-08-19T11:57:29Z</time>
      </trkpt>
      <trkpt lat="46.232" lon="4.39388">
        <ele>558</ele>
        <time>2013-08-19T11:58:41Z</time>
      </trkpt>
      <trkpt lat="46.23199" lon="4.39386">
        <ele>558</ele>
        <time>2013-08-19T11:58:49Z</time>
      </trkpt>
      <trkpt lat="46.2321" lon="4.39378">
        <ele>558</ele>
        <time>2013-08-19T11:59:08Z</time>
      </trkpt>
      <trkpt lat="46.23211" lon="4.39378">
        <ele>558</ele>
        <time>2013-08-19T11:59:10Z</time>
      </trkpt>
      <trkpt lat="46.23211" lon="4.39379">
        <ele>558</ele>
        <time>2013-08-19T11:59:11Z</time>
      </trkpt>
      <trkpt lat="46.23201" lon="4.39387">
        <ele>558</ele>
        <time>2013-08-19T11:59:42Z</time>
      </trkpt>
      <trkpt lat="46.2321" lon="4.39381">
        <ele>558</ele>
        <time>2013-08-19T12:00:13Z</time>
      </trkpt>
      <trkpt lat="46.23209" lon="4.39382">
        <ele>558</ele>
        <time>2013-08-19T12:00:14Z</time>
      </trkpt>
      <trkpt lat="46.23207" lon="4.39386">
        <ele>558</ele>
        <time>2013-08-19T12:00:17Z</time>
      </trkpt>
      <trkpt lat="46.23206" lon="4.39388">
        <ele>559</ele>
        <time>2013-08-19T12:00:19Z</time>
      </trkpt>
      <trkpt lat="46.23206" lon="4.39391">
        <ele>559</ele>
        <time>2013-08-19T12:00:22Z</time>
      </trkpt>
      <trkpt lat="46.23211" lon="4.39402">
        <ele>559</ele>
        <time>2013-08-19T12:00:29Z</time>
      </trkpt>
      <trkpt lat="46.23213" lon="4.39407">
        <ele>560</ele>
        <time>2013-08-19T12:00:32Z</time>
      </trkpt>
      <trkpt lat="46.23213" lon="4.39408">
        <ele>560</ele>
        <time>2013-08-19T12:00:33Z</time>
      </trkpt>
      <trkpt lat="46.23215" lon="4.39414">
        <ele>560</ele>
        <time>2013-08-19T12:00:36Z</time>
      </trkpt>
      <trkpt lat="46.2322" lon="4.39419">
        <ele>566</ele>
        <time>2013-08-19T12:00:42Z</time>
      </trkpt>
      <trkpt lat="46.23227" lon="4.39425">
        <ele>567</ele>
        <time>2013-08-19T12:00:50Z</time>
      </trkpt>
      <trkpt lat="46.23235" lon="4.39427">
        <ele>567</ele>
        <time>2013-08-19T12:00:57Z</time>
      </trkpt>
      <trkpt lat="46.23243" lon="4.39429">
        <ele>567</ele>
        <time>2013-08-19T12:01:04Z</time>
      </trkpt>
      <trkpt lat="46.23245" lon="4.39429">
        <ele>567</ele>
        <time>2013-08-19T12:01:06Z</time>
      </trkpt>
      <trkpt lat="46.23249" lon="4.3943">
        <ele>567</ele>
        <time>2013-08-19T12:01:09Z</time>
      </trkpt>
      <trkpt lat="46.23252" lon="4.39434">
        <ele>571</ele>
        <time>2013-08-19T12:01:13Z</time>
      </trkpt>
      <trkpt lat="46.23253" lon="4.39437">
        <ele>571</ele>
        <time>2013-08-19T12:01:15Z</time>
      </trkpt>
      <trkpt lat="46.23254" lon="4.39442">
        <ele>572</ele>
        <time>2013-08-19T12:01:18Z</time>
      </trkpt>
      <trkpt lat="46.23255" lon="4.39448">
        <ele>573</ele>
        <time>2013-08-19T12:01:22Z</time>
      </trkpt>
      <trkpt lat="46.23255" lon="4.39449">
        <ele>573</ele>
        <time>2013-08-19T12:01:23Z</time>
      </trkpt>
      <trkpt lat="46.23256" lon="4.39462">
        <ele>574</ele>
        <time>2013-08-19T12:01:31Z</time>
      </trkpt>
      <trkpt lat="46.23258" lon="4.39472">
        <ele>575</ele>
        <time>2013-08-19T12:01:37Z</time>
      </trkpt>
      <trkpt lat="46.23258" lon="4.39473">
        <ele>575</ele>
        <time>2013-08-19T12:01:38Z</time>
      </trkpt>
      <trkpt lat="46.23258" lon="4.39475">
        <ele>575</ele>
        <time>2013-08-19T12:01:40Z</time>
      </trkpt>
      <trkpt lat="46.23259" lon="4.3948">
        <ele>575</ele>
        <time>2013-08-19T12:01:43Z</time>
      </trkpt>
      <trkpt lat="46.23262" lon="4.39485">
        <ele>576</ele>
        <time>2013-08-19T12:01:47Z</time>
      </trkpt>
      <trkpt lat="46.23263" lon="4.39489">
        <ele>576</ele>
        <time>2013-08-19T12:01:49Z</time>
      </trkpt>
      <trkpt lat="46.23266" lon="4.39496">
        <ele>576</ele>
        <time>2013-08-19T12:01:54Z</time>
      </trkpt>
      <trkpt lat="46.23267" lon="4.39499">
        <ele>576</ele>
        <time>2013-08-19T12:01:56Z</time>
      </trkpt>
      <trkpt lat="46.2327" lon="4.39508">
        <ele>579</ele>
        <time>2013-08-19T12:02:03Z</time>
      </trkpt>
      <trkpt lat="46.23273" lon="4.3952">
        <ele>579</ele>
        <time>2013-08-19T12:02:13Z</time>
      </trkpt>
      <trkpt lat="46.23273" lon="4.39521">
        <ele>579</ele>
        <time>2013-08-19T12:02:14Z</time>
      </trkpt>
      <trkpt lat="46.23272" lon="4.39524">
        <ele>579</ele>
        <time>2013-08-19T12:02:16Z</time>
      </trkpt>
      <trkpt lat="46.2327" lon="4.39527">
        <ele>579</ele>
        <time>2013-08-19T12:02:20Z</time>
      </trkpt>
      <trkpt lat="46.23269" lon="4.39528">
        <ele>579</ele>
        <time>2013-08-19T12:02:21Z</time>
      </trkpt>
      <trkpt lat="46.23268" lon="4.39528">
        <ele>579</ele>
        <time>2013-08-19T12:02:23Z</time>
      </trkpt>
      <trkpt lat="46.23267" lon="4.39528">
        <ele>579</ele>
        <time>2013-08-19T12:02:25Z</time>
      </trkpt>
      <trkpt lat="46.23264" lon="4.39531">
        <ele>579</ele>
        <time>2013-08-19T12:02:48Z</time>
      </trkpt>
      <trkpt lat="46.2326" lon="4.39534">
        <ele>579</ele>
        <time>2013-08-19T12:02:52Z</time>
      </trkpt>
      <trkpt lat="46.23259" lon="4.39535">
        <ele>579</ele>
        <time>2013-08-19T12:02:53Z</time>
      </trkpt>
      <trkpt lat="46.23253" lon="4.39537">
        <ele>579</ele>
        <time>2013-08-19T12:03:00Z</time>
      </trkpt>
      <trkpt lat="46.2325" lon="4.39543">
        <ele>574</ele>
        <time>2013-08-19T12:03:06Z</time>
      </trkpt>
      <trkpt lat="46.23247" lon="4.39546">
        <ele>574</ele>
        <time>2013-08-19T12:03:10Z</time>
      </trkpt>
      <trkpt lat="46.23245" lon="4.39548">
        <ele>574</ele>
        <time>2013-08-19T12:03:12Z</time>
      </trkpt>
      <trkpt lat="46.2324" lon="4.39552">
        <ele>574</ele>
        <time>2013-08-19T12:03:16Z</time>
      </trkpt>
      <trkpt lat="46.23232" lon="4.39558">
        <ele>574</ele>
        <time>2013-08-19T12:03:22Z</time>
      </trkpt>
      <trkpt lat="46.23228" lon="4.39561">
        <ele>574</ele>
        <time>2013-08-19T12:03:25Z</time>
      </trkpt>
      <trkpt lat="46.23225" lon="4.39564">
        <ele>574</ele>
        <time>2013-08-19T12:03:28Z</time>
      </trkpt>
      <trkpt lat="46.2322" lon="4.39567">
        <ele>574</ele>
        <time>2013-08-19T12:03:32Z</time>
      </trkpt>
      <trkpt lat="46.23216" lon="4.39569">
        <ele>574</ele>
        <time>2013-08-19T12:03:35Z</time>
      </trkpt>
      <trkpt lat="46.23211" lon="4.39573">
        <ele>574</ele>
        <time>2013-08-19T12:03:39Z</time>
      </trkpt>
      <trkpt lat="46.23209" lon="4.39576">
        <ele>574</ele>
        <time>2013-08-19T12:03:43Z</time>
      </trkpt>
      <trkpt lat="46.23204" lon="4.3958">
        <ele>573</ele>
        <time>2013-08-19T12:03:48Z</time>
      </trkpt>
      <trkpt lat="46.23203" lon="4.39581">
        <ele>573</ele>
        <time>2013-08-19T12:03:49Z</time>
      </trkpt>
      <trkpt lat="46.23198" lon="4.39586">
        <ele>573</ele>
        <time>2013-08-19T12:03:54Z</time>
      </trkpt>
      <trkpt lat="46.23196" lon="4.39588">
        <ele>573</ele>
        <time>2013-08-19T12:03:56Z</time>
      </trkpt>
      <trkpt lat="46.2319" lon="4.39593">
        <ele>573</ele>
        <time>2013-08-19T12:04:02Z</time>
      </trkpt>
      <trkpt lat="46.23183" lon="4.396">
        <ele>573</ele>
        <time>2013-08-19T12:04:09Z</time>
      </trkpt>
      <trkpt lat="46.23181" lon="4.39601">
        <ele>573</ele>
        <time>2013-08-19T12:04:11Z</time>
      </trkpt>
      <trkpt lat="46.23177" lon="4.39606">
        <ele>573</ele>
        <time>2013-08-19T12:04:16Z</time>
      </trkpt>
      <trkpt lat="46.23169" lon="4.39615">
        <ele>573</ele>
        <time>2013-08-19T12:04:24Z</time>
      </trkpt>
      <trkpt lat="46.23167" lon="4.39618">
        <ele>573</ele>
        <time>2013-08-19T12:04:26Z</time>
      </trkpt>
      <trkpt lat="46.23161" lon="4.39625">
        <ele>573</ele>
        <time>2013-08-19T12:04:32Z</time>
      </trkpt>
      <trkpt lat="46.23153" lon="4.39636">
        <ele>573</ele>
        <time>2013-08-19T12:04:41Z</time>
      </trkpt>
      <trkpt lat="46.23145" lon="4.39643">
        <ele>573</ele>
        <time>2013-08-19T12:04:49Z</time>
      </trkpt>
      <trkpt lat="46.23138" lon="4.39651">
        <ele>573</ele>
        <time>2013-08-19T12:04:57Z</time>
      </trkpt>
      <trkpt lat="46.23138" lon="4.39651">
        <ele>573</ele>
        <time>2013-08-19T12:04:58Z</time>
      </trkpt>
      <trkpt lat="46.23131" lon="4.39658">
        <ele>573</ele>
        <time>2013-08-19T12:05:05Z</time>
      </trkpt>
      <trkpt lat="46.23124" lon="4.39666">
        <ele>573</ele>
        <time>2013-08-19T12:05:13Z</time>
      </trkpt>
      <trkpt lat="46.23123" lon="4.39667">
        <ele>573</ele>
        <time>2013-08-19T12:05:14Z</time>
      </trkpt>
      <trkpt lat="46.23119" lon="4.3967">
        <ele>575</ele>
        <time>2013-08-19T12:05:18Z</time>
      </trkpt>
      <trkpt lat="46.23118" lon="4.39672">
        <ele>575</ele>
        <time>2013-08-19T12:05:20Z</time>
      </trkpt>
      <trkpt lat="46.23111" lon="4.39679">
        <ele>575</ele>
        <time>2013-08-19T12:05:27Z</time>
      </trkpt>
      <trkpt lat="46.23108" lon="4.39683">
        <ele>575</ele>
        <time>2013-08-19T12:05:31Z</time>
      </trkpt>
      <trkpt lat="46.23104" lon="4.39686">
        <ele>575</ele>
        <time>2013-08-19T12:05:35Z</time>
      </trkpt>
      <trkpt lat="46.23097" lon="4.39691">
        <ele>575</ele>
        <time>2013-08-19T12:05:42Z</time>
      </trkpt>
      <trkpt lat="46.23094" lon="4.39693">
        <ele>575</ele>
        <time>2013-08-19T12:05:45Z</time>
      </trkpt>
      <trkpt lat="46.23091" lon="4.39694">
        <ele>575</ele>
        <time>2013-08-19T12:05:48Z</time>
      </trkpt>
      <trkpt lat="46.2309" lon="4.39694">
        <ele>575</ele>
        <time>2013-08-19T12:05:49Z</time>
      </trkpt>
      <trkpt lat="46.23087" lon="4.39697">
        <ele>575</ele>
        <time>2013-08-19T12:05:53Z</time>
      </trkpt>
      <trkpt lat="46.23085" lon="4.39698">
        <ele>575</ele>
        <time>2013-08-19T12:05:56Z</time>
      </trkpt>
      <trkpt lat="46.23081" lon="4.39699">
        <ele>577</ele>
        <time>2013-08-19T12:06:00Z</time>
      </trkpt>
      <trkpt lat="46.23076" lon="4.39705">
        <ele>577</ele>
        <time>2013-08-19T12:06:08Z</time>
      </trkpt>
      <trkpt lat="46.23075" lon="4.39707">
        <ele>577</ele>
        <time>2013-08-19T12:06:09Z</time>
      </trkpt>
      <trkpt lat="46.23072" lon="4.39711">
        <ele>577</ele>
        <time>2013-08-19T12:06:14Z</time>
      </trkpt>
      <trkpt lat="46.23071" lon="4.39711">
        <ele>577</ele>
        <time>2013-08-19T12:06:16Z</time>
      </trkpt>
      <trkpt lat="46.23069" lon="4.39712">
        <ele>578</ele>
        <time>2013-08-19T12:06:22Z</time>
      </trkpt>
      <trkpt lat="46.23063" lon="4.39717">
        <ele>578</ele>
        <time>2013-08-19T12:06:29Z</time>
      </trkpt>
      <trkpt lat="46.23059" lon="4.39721">
        <ele>578</ele>
        <time>2013-08-19T12:06:34Z</time>
      </trkpt>
      <trkpt lat="46.23057" lon="4.39723">
        <ele>578</ele>
        <time>2013-08-19T12:06:36Z</time>
      </trkpt>
      <trkpt lat="46.23051" lon="4.3973">
        <ele>579</ele>
        <time>2013-08-19T12:06:43Z</time>
      </trkpt>
      <trkpt lat="46.23044" lon="4.39736">
        <ele>579</ele>
        <time>2013-08-19T12:06:50Z</time>
      </trkpt>
      <trkpt lat="46.23037" lon="4.39742">
        <ele>579</ele>
        <time>2013-08-19T12:06:57Z</time>
      </trkpt>
      <trkpt lat="46.23035" lon="4.39744">
        <ele>580</ele>
        <time>2013-08-19T12:07:00Z</time>
      </trkpt>
      <trkpt lat="46.23034" lon="4.39745">
        <ele>580</ele>
        <time>2013-08-19T12:07:02Z</time>
      </trkpt>
      <trkpt lat="46.23029" lon="4.3975">
        <ele>580</ele>
        <time>2013-08-19T12:07:08Z</time>
      </trkpt>
      <trkpt lat="46.23028" lon="4.39751">
        <ele>584</ele>
        <time>2013-08-19T12:07:09Z</time>
      </trkpt>
      <trkpt lat="46.23026" lon="4.39753">
        <ele>585</ele>
        <time>2013-08-19T12:07:11Z</time>
      </trkpt>
      <trkpt lat="46.23022" lon="4.3976">
        <ele>585</ele>
        <time>2013-08-19T12:07:16Z</time>
      </trkpt>
      <trkpt lat="46.23019" lon="4.39771">
        <ele>585</ele>
        <time>2013-08-19T12:07:24Z</time>
      </trkpt>
      <trkpt lat="46.23018" lon="4.39773">
        <ele>585</ele>
        <time>2013-08-19T12:07:25Z</time>
      </trkpt>
      <trkpt lat="46.23017" lon="4.39781">
        <ele>585</ele>
        <time>2013-08-19T12:07:30Z</time>
      </trkpt>
      <trkpt lat="46.23014" lon="4.39796">
        <ele>586</ele>
        <time>2013-08-19T12:07:38Z</time>
      </trkpt>
      <trkpt lat="46.23013" lon="4.39799">
        <ele>586</ele>
        <time>2013-08-19T12:07:40Z</time>
      </trkpt>
      <trkpt lat="46.23011" lon="4.3981">
        <ele>587</ele>
        <time>2013-08-19T12:07:46Z</time>
      </trkpt>
      <trkpt lat="46.2301" lon="4.39813">
        <ele>587</ele>
        <time>2013-08-19T12:07:48Z</time>
      </trkpt>
      <trkpt lat="46.23008" lon="4.39817">
        <ele>588</ele>
        <time>2013-08-19T12:07:51Z</time>
      </trkpt>
      <trkpt lat="46.23005" lon="4.39822">
        <ele>589</ele>
        <time>2013-08-19T12:07:55Z</time>
      </trkpt>
      <trkpt lat="46.23001" lon="4.3983">
        <ele>590</ele>
        <time>2013-08-19T12:08:00Z</time>
      </trkpt>
      <trkpt lat="46.22993" lon="4.39839">
        <ele>592</ele>
        <time>2013-08-19T12:08:08Z</time>
      </trkpt>
      <trkpt lat="46.22992" lon="4.3984">
        <ele>593</ele>
        <time>2013-08-19T12:08:09Z</time>
      </trkpt>
      <trkpt lat="46.22986" lon="4.39845">
        <ele>593</ele>
        <time>2013-08-19T12:08:16Z</time>
      </trkpt>
      <trkpt lat="46.22978" lon="4.39849">
        <ele>594</ele>
        <time>2013-08-19T12:08:24Z</time>
      </trkpt>
      <trkpt lat="46.22976" lon="4.3985">
        <ele>594</ele>
        <time>2013-08-19T12:08:26Z</time>
      </trkpt>
      <trkpt lat="46.22972" lon="4.39852">
        <ele>595</ele>
        <time>2013-08-19T12:08:30Z</time>
      </trkpt>
      <trkpt lat="46.22971" lon="4.39853">
        <ele>595</ele>
        <time>2013-08-19T12:08:31Z</time>
      </trkpt>
      <trkpt lat="46.22963" lon="4.39856">
        <ele>595</ele>
        <time>2013-08-19T12:08:38Z</time>
      </trkpt>
      <trkpt lat="46.2296" lon="4.39858">
        <ele>595</ele>
        <time>2013-08-19T12:08:41Z</time>
      </trkpt>
      <trkpt lat="46.22958" lon="4.39858">
        <ele>595</ele>
        <time>2013-08-19T12:08:43Z</time>
      </trkpt>
      <trkpt lat="46.22955" lon="4.39859">
        <ele>595</ele>
        <time>2013-08-19T12:08:46Z</time>
      </trkpt>
      <trkpt lat="46.22946" lon="4.39858">
        <ele>595</ele>
        <time>2013-08-19T12:08:53Z</time>
      </trkpt>
      <trkpt lat="46.2294" lon="4.39858">
        <ele>596</ele>
        <time>2013-08-19T12:08:58Z</time>
      </trkpt>
      <trkpt lat="46.22939" lon="4.39858">
        <ele>596</ele>
        <time>2013-08-19T12:08:59Z</time>
      </trkpt>
      <trkpt lat="46.22935" lon="4.39858">
        <ele>596</ele>
        <time>2013-08-19T12:09:02Z</time>
      </trkpt>
      <trkpt lat="46.22933" lon="4.39858">
        <ele>596</ele>
        <time>2013-08-19T12:09:04Z</time>
      </trkpt>
      <trkpt lat="46.22932" lon="4.39857">
        <ele>596</ele>
        <time>2013-08-19T12:09:10Z</time>
      </trkpt>
      <trkpt lat="46.22927" lon="4.39859">
        <ele>596</ele>
        <time>2013-08-19T12:09:17Z</time>
      </trkpt>
      <trkpt lat="46.22923" lon="4.39859">
        <ele>596</ele>
        <time>2013-08-19T12:09:21Z</time>
      </trkpt>
      <trkpt lat="46.22917" lon="4.39859">
        <ele>596</ele>
        <time>2013-08-19T12:09:26Z</time>
      </trkpt>
      <trkpt lat="46.22909" lon="4.39862">
        <ele>594</ele>
        <time>2013-08-19T12:09:34Z</time>
      </trkpt>
      <trkpt lat="46.22908" lon="4.39863">
        <ele>594</ele>
        <time>2013-08-19T12:09:35Z</time>
      </trkpt>
      <trkpt lat="46.22905" lon="4.39864">
        <ele>594</ele>
        <time>2013-08-19T12:09:38Z</time>
      </trkpt>
      <trkpt lat="46.22903" lon="4.39865">
        <ele>594</ele>
        <time>2013-08-19T12:09:40Z</time>
      </trkpt>
      <trkpt lat="46.22902" lon="4.39867">
        <ele>594</ele>
        <time>2013-08-19T12:09:48Z</time>
      </trkpt>
      <trkpt lat="46.22899" lon="4.39866">
        <ele>594</ele>
        <time>2013-08-19T12:10:02Z</time>
      </trkpt>
      <trkpt lat="46.22897" lon="4.39865">
        <ele>594</ele>
        <time>2013-08-19T12:10:04Z</time>
      </trkpt>
      <trkpt lat="46.22892" lon="4.39865">
        <ele>594</ele>
        <time>2013-08-19T12:10:08Z</time>
      </trkpt>
      <trkpt lat="46.22891" lon="4.39865">
        <ele>594</ele>
        <time>2013-08-19T12:10:09Z</time>
      </trkpt>
      <trkpt lat="46.22889" lon="4.39867">
        <ele>594</ele>
        <time>2013-08-19T12:10:14Z</time>
      </trkpt>
      <trkpt lat="46.22888" lon="4.39867">
        <ele>594</ele>
        <time>2013-08-19T12:10:15Z</time>
      </trkpt>
      <trkpt lat="46.22883" lon="4.39869">
        <ele>593</ele>
        <time>2013-08-19T12:10:20Z</time>
      </trkpt>
      <trkpt lat="46.22874" lon="4.39875">
        <ele>593</ele>
        <time>2013-08-19T12:10:29Z</time>
      </trkpt>
      <trkpt lat="46.22873" lon="4.39876">
        <ele>593</ele>
        <time>2013-08-19T12:10:30Z</time>
      </trkpt>
      <trkpt lat="46.22867" lon="4.39886">
        <ele>593</ele>
        <time>2013-08-19T12:10:38Z</time>
      </trkpt>
      <trkpt lat="46.22864" lon="4.39896">
        <ele>593</ele>
        <time>2013-08-19T12:10:45Z</time>
      </trkpt>
      <trkpt lat="46.22863" lon="4.39899">
        <ele>593</ele>
        <time>2013-08-19T12:10:47Z</time>
      </trkpt>
      <trkpt lat="46.22862" lon="4.3991">
        <ele>593</ele>
        <time>2013-08-19T12:10:52Z</time>
      </trkpt>
      <trkpt lat="46.22858" lon="4.39919">
        <ele>595</ele>
        <time>2013-08-19T12:10:58Z</time>
      </trkpt>
      <trkpt lat="46.22858" lon="4.39921">
        <ele>595</ele>
        <time>2013-08-19T12:10:59Z</time>
      </trkpt>
      <trkpt lat="46.22856" lon="4.39923">
        <ele>595</ele>
        <time>2013-08-19T12:11:01Z</time>
      </trkpt>
      <trkpt lat="46.22853" lon="4.39931">
        <ele>595</ele>
        <time>2013-08-19T12:11:05Z</time>
      </trkpt>
      <trkpt lat="46.22851" lon="4.39941">
        <ele>595</ele>
        <time>2013-08-19T12:11:11Z</time>
      </trkpt>
      <trkpt lat="46.22848" lon="4.39947">
        <ele>595</ele>
        <time>2013-08-19T12:11:14Z</time>
      </trkpt>
      <trkpt lat="46.22845" lon="4.39952">
        <ele>595</ele>
        <time>2013-08-19T12:11:18Z</time>
      </trkpt>
      <trkpt lat="46.22842" lon="4.39957">
        <ele>595</ele>
        <time>2013-08-19T12:11:21Z</time>
      </trkpt>
      <trkpt lat="46.22841" lon="4.3996">
        <ele>595</ele>
        <time>2013-08-19T12:11:23Z</time>
      </trkpt>
      <trkpt lat="46.22837" lon="4.39969">
        <ele>595</ele>
        <time>2013-08-19T12:11:28Z</time>
      </trkpt>
      <trkpt lat="46.2283" lon="4.39975">
        <ele>588</ele>
        <time>2013-08-19T12:11:34Z</time>
      </trkpt>
      <trkpt lat="46.22827" lon="4.39982">
        <ele>588</ele>
        <time>2013-08-19T12:11:41Z</time>
      </trkpt>
      <trkpt lat="46.22824" lon="4.39987">
        <ele>589</ele>
        <time>2013-08-19T12:11:46Z</time>
      </trkpt>
      <trkpt lat="46.22821" lon="4.39993">
        <ele>589</ele>
        <time>2013-08-19T12:11:51Z</time>
      </trkpt>
      <trkpt lat="46.22817" lon="4.39998">
        <ele>588</ele>
        <time>2013-08-19T12:11:57Z</time>
      </trkpt>
      <trkpt lat="46.22815" lon="4.40002">
        <ele>589</ele>
        <time>2013-08-19T12:12:03Z</time>
      </trkpt>
      <trkpt lat="46.22814" lon="4.40003">
        <ele>589</ele>
        <time>2013-08-19T12:12:04Z</time>
      </trkpt>
      <trkpt lat="46.22813" lon="4.40007">
        <ele>589</ele>
        <time>2013-08-19T12:12:06Z</time>
      </trkpt>
      <trkpt lat="46.22811" lon="4.40009">
        <ele>588</ele>
        <time>2013-08-19T12:12:09Z</time>
      </trkpt>
      <trkpt lat="46.22808" lon="4.40017">
        <ele>588</ele>
        <time>2013-08-19T12:12:14Z</time>
      </trkpt>
      <trkpt lat="46.22801" lon="4.40027">
        <ele>587</ele>
        <time>2013-08-19T12:12:22Z</time>
      </trkpt>
      <trkpt lat="46.22801" lon="4.40027">
        <ele>587</ele>
        <time>2013-08-19T12:12:24Z</time>
      </trkpt>
      <trkpt lat="46.22798" lon="4.40032">
        <ele>586</ele>
        <time>2013-08-19T12:12:30Z</time>
      </trkpt>
      <trkpt lat="46.22797" lon="4.40033">
        <ele>586</ele>
        <time>2013-08-19T12:12:31Z</time>
      </trkpt>
      <trkpt lat="46.22794" lon="4.40038">
        <ele>586</ele>
        <time>2013-08-19T12:12:35Z</time>
      </trkpt>
      <trkpt lat="46.2279" lon="4.40043">
        <ele>586</ele>
        <time>2013-08-19T12:12:40Z</time>
      </trkpt>
      <trkpt lat="46.22789" lon="4.40044">
        <ele>586</ele>
        <time>2013-08-19T12:12:41Z</time>
      </trkpt>
      <trkpt lat="46.22784" lon="4.4005">
        <ele>585</ele>
        <time>2013-08-19T12:12:46Z</time>
      </trkpt>
      <trkpt lat="46.22783" lon="4.40053">
        <ele>585</ele>
        <time>2013-08-19T12:12:48Z</time>
      </trkpt>
      <trkpt lat="46.22782" lon="4.40054">
        <ele>585</ele>
        <time>2013-08-19T12:12:49Z</time>
      </trkpt>
      <trkpt lat="46.22778" lon="4.4006">
        <ele>585</ele>
        <time>2013-08-19T12:12:53Z</time>
      </trkpt>
      <trkpt lat="46.22778" lon="4.40061">
        <ele>585</ele>
        <time>2013-08-19T12:12:54Z</time>
      </trkpt>
      <trkpt lat="46.22776" lon="4.40063">
        <ele>584</ele>
        <time>2013-08-19T12:12:56Z</time>
      </trkpt>
      <trkpt lat="46.22774" lon="4.40066">
        <ele>584</ele>
        <time>2013-08-19T12:12:58Z</time>
      </trkpt>
      <trkpt lat="46.22768" lon="4.40072">
        <ele>583</ele>
        <time>2013-08-19T12:13:04Z</time>
      </trkpt>
      <trkpt lat="46.22768" lon="4.40073">
        <ele>583</ele>
        <time>2013-08-19T12:13:05Z</time>
      </trkpt>
      <trkpt lat="46.22766" lon="4.40075">
        <ele>583</ele>
        <time>2013-08-19T12:13:08Z</time>
      </trkpt>
      <trkpt lat="46.22764" lon="4.40076">
        <ele>583</ele>
        <time>2013-08-19T12:13:10Z</time>
      </trkpt>
      <trkpt lat="46.22761" lon="4.40078">
        <ele>582</ele>
        <time>2013-08-19T12:13:13Z</time>
      </trkpt>
      <trkpt lat="46.22758" lon="4.40084">
        <ele>582</ele>
        <time>2013-08-19T12:13:17Z</time>
      </trkpt>
      <trkpt lat="46.22754" lon="4.40086">
        <ele>581</ele>
        <time>2013-08-19T12:13:21Z</time>
      </trkpt>
      <trkpt lat="46.22753" lon="4.40088">
        <ele>581</ele>
        <time>2013-08-19T12:13:22Z</time>
      </trkpt>
      <trkpt lat="46.22747" lon="4.40096">
        <ele>578</ele>
        <time>2013-08-19T12:13:30Z</time>
      </trkpt>
      <trkpt lat="46.22746" lon="4.40097">
        <ele>578</ele>
        <time>2013-08-19T12:13:31Z</time>
      </trkpt>
      <trkpt lat="46.2274" lon="4.40104">
        <ele>577</ele>
        <time>2013-08-19T12:13:37Z</time>
      </trkpt>
      <trkpt lat="46.22735" lon="4.40108">
        <ele>577</ele>
        <time>2013-08-19T12:13:44Z</time>
      </trkpt>
      <trkpt lat="46.22731" lon="4.40113">
        <ele>576</ele>
        <time>2013-08-19T12:13:48Z</time>
      </trkpt>
      <trkpt lat="46.2273" lon="4.40113">
        <ele>576</ele>
        <time>2013-08-19T12:13:49Z</time>
      </trkpt>
      <trkpt lat="46.22729" lon="4.40115">
        <ele>576</ele>
        <time>2013-08-19T12:13:51Z</time>
      </trkpt>
      <trkpt lat="46.22722" lon="4.40122">
        <ele>576</ele>
        <time>2013-08-19T12:13:57Z</time>
      </trkpt>
      <trkpt lat="46.22717" lon="4.40127">
        <ele>576</ele>
        <time>2013-08-19T12:14:01Z</time>
      </trkpt>
      <trkpt lat="46.22716" lon="4.40128">
        <ele>576</ele>
        <time>2013-08-19T12:14:02Z</time>
      </trkpt>
      <trkpt lat="46.22715" lon="4.40129">
        <ele>576</ele>
        <time>2013-08-19T12:14:03Z</time>
      </trkpt>
      <trkpt lat="46.22714" lon="4.4013">
        <ele>576</ele>
        <time>2013-08-19T12:14:04Z</time>
      </trkpt>
      <trkpt lat="46.2271" lon="4.40137">
        <ele>575</ele>
        <time>2013-08-19T12:14:08Z</time>
      </trkpt>
      <trkpt lat="46.22706" lon="4.40143">
        <ele>575</ele>
        <time>2013-08-19T12:14:12Z</time>
      </trkpt>
      <trkpt lat="46.22703" lon="4.40147">
        <ele>575</ele>
        <time>2013-08-19T12:14:15Z</time>
      </trkpt>
      <trkpt lat="46.22693" lon="4.4016">
        <ele>575</ele>
        <time>2013-08-19T12:14:25Z</time>
      </trkpt>
      <trkpt lat="46.2269" lon="4.40165">
        <ele>575</ele>
        <time>2013-08-19T12:14:29Z</time>
      </trkpt>
      <trkpt lat="46.22685" lon="4.40168">
        <ele>576</ele>
        <time>2013-08-19T12:14:33Z</time>
      </trkpt>
      <trkpt lat="46.22682" lon="4.40169">
        <ele>576</ele>
        <time>2013-08-19T12:14:38Z</time>
      </trkpt>
      <trkpt lat="46.22676" lon="4.40176">
        <ele>575</ele>
        <time>2013-08-19T12:14:44Z</time>
      </trkpt>
      <trkpt lat="46.22675" lon="4.40178">
        <ele>575</ele>
        <time>2013-08-19T12:14:46Z</time>
      </trkpt>
      <trkpt lat="46.22671" lon="4.40183">
        <ele>576</ele>
        <time>2013-08-19T12:14:49Z</time>
      </trkpt>
      <trkpt lat="46.2267" lon="4.40183">
        <ele>576</ele>
        <time>2013-08-19T12:14:50Z</time>
      </trkpt>
      <trkpt lat="46.22669" lon="4.40184">
        <ele>576</ele>
        <time>2013-08-19T12:14:54Z</time>
      </trkpt>
      <trkpt lat="46.22662" lon="4.40188">
        <ele>574</ele>
        <time>2013-08-19T12:15:01Z</time>
      </trkpt>
      <trkpt lat="46.2266" lon="4.40193">
        <ele>574</ele>
        <time>2013-08-19T12:15:05Z</time>
      </trkpt>
      <trkpt lat="46.22658" lon="4.40196">
        <ele>574</ele>
        <time>2013-08-19T12:15:07Z</time>
      </trkpt>
      <trkpt lat="46.22656" lon="4.40199">
        <ele>574</ele>
        <time>2013-08-19T12:15:10Z</time>
      </trkpt>
      <trkpt lat="46.22655" lon="4.40202">
        <ele>575</ele>
        <time>2013-08-19T12:15:13Z</time>
      </trkpt>
      <trkpt lat="46.22648" lon="4.40202">
        <ele>574</ele>
        <time>2013-08-19T12:15:19Z</time>
      </trkpt>
      <trkpt lat="46.22643" lon="4.402">
        <ele>574</ele>
        <time>2013-08-19T12:15:21Z</time>
      </trkpt>
      <trkpt lat="46.22621" lon="4.40226">
        <ele>575</ele>
        <time>2013-08-19T12:15:45Z</time>
      </trkpt>
      <trkpt lat="46.22623" lon="4.40226">
        <ele>575</ele>
        <time>2013-08-19T12:15:46Z</time>
      </trkpt>
      <trkpt lat="46.22624" lon="4.40227">
        <ele>575</ele>
        <time>2013-08-19T12:15:48Z</time>
      </trkpt>
      <trkpt lat="46.22624" lon="4.4023">
        <ele>575</ele>
        <time>2013-08-19T12:15:51Z</time>
      </trkpt>
      <trkpt lat="46.22625" lon="4.40237">
        <ele>575</ele>
        <time>2013-08-19T12:16:10Z</time>
      </trkpt>
      <trkpt lat="46.22626" lon="4.40235">
        <ele>575</ele>
        <time>2013-08-19T12:16:12Z</time>
      </trkpt>
      <trkpt lat="46.22626" lon="4.40235">
        <ele>575</ele>
        <time>2013-08-19T12:16:16Z</time>
      </trkpt>
      <trkpt lat="46.22626" lon="4.4024">
        <ele>575</ele>
        <time>2013-08-19T12:16:27Z</time>
      </trkpt>
      <trkpt lat="46.22613" lon="4.40258">
        <ele>577</ele>
        <time>2013-08-19T12:50:59Z</time>
      </trkpt>
      <trkpt lat="46.22609" lon="4.40265">
        <ele>577</ele>
        <time>2013-08-19T12:51:04Z</time>
      </trkpt>
      <trkpt lat="46.22608" lon="4.40266">
        <ele>577</ele>
        <time>2013-08-19T12:51:05Z</time>
      </trkpt>
      <trkpt lat="46.22606" lon="4.40268">
        <ele>577</ele>
        <time>2013-08-19T12:51:09Z</time>
      </trkpt>
      <trkpt lat="46.22604" lon="4.4027">
        <ele>577</ele>
        <time>2013-08-19T12:51:13Z</time>
      </trkpt>
      <trkpt lat="46.22602" lon="4.40273">
        <ele>577</ele>
        <time>2013-08-19T12:51:15Z</time>
      </trkpt>
      <trkpt lat="46.22601" lon="4.40274">
        <ele>577</ele>
        <time>2013-08-19T12:51:16Z</time>
      </trkpt>
      <trkpt lat="46.22595" lon="4.40277">
        <ele>577</ele>
        <time>2013-08-19T12:51:24Z</time>
      </trkpt>
      <trkpt lat="46.22589" lon="4.40281">
        <ele>577</ele>
        <time>2013-08-19T12:51:31Z</time>
      </trkpt>
      <trkpt lat="46.22586" lon="4.40283">
        <ele>578</ele>
        <time>2013-08-19T12:51:33Z</time>
      </trkpt>
      <trkpt lat="46.22581" lon="4.40289">
        <ele>580</ele>
        <time>2013-08-19T12:51:38Z</time>
      </trkpt>
      <trkpt lat="46.22576" lon="4.40295">
        <ele>580</ele>
        <time>2013-08-19T12:51:44Z</time>
      </trkpt>
      <trkpt lat="46.22572" lon="4.40298">
        <ele>580</ele>
        <time>2013-08-19T12:51:47Z</time>
      </trkpt>
      <trkpt lat="46.22571" lon="4.40299">
        <ele>580</ele>
        <time>2013-08-19T12:51:48Z</time>
      </trkpt>
      <trkpt lat="46.22569" lon="4.40301">
        <ele>580</ele>
        <time>2013-08-19T12:51:50Z</time>
      </trkpt>
      <trkpt lat="46.22564" lon="4.40304">
        <ele>580</ele>
        <time>2013-08-19T12:51:55Z</time>
      </trkpt>
      <trkpt lat="46.22561" lon="4.40304">
        <ele>580</ele>
        <time>2013-08-19T12:51:57Z</time>
      </trkpt>
      <trkpt lat="46.22558" lon="4.40304">
        <ele>580</ele>
        <time>2013-08-19T12:52:00Z</time>
      </trkpt>
      <trkpt lat="46.22554" lon="4.40305">
        <ele>580</ele>
        <time>2013-08-19T12:52:03Z</time>
      </trkpt>
      <trkpt lat="46.22546" lon="4.40309">
        <ele>581</ele>
        <time>2013-08-19T12:52:11Z</time>
      </trkpt>
      <trkpt lat="46.22541" lon="4.40311">
        <ele>581</ele>
        <time>2013-08-19T12:52:17Z</time>
      </trkpt>
      <trkpt lat="46.22536" lon="4.40314">
        <ele>581</ele>
        <time>2013-08-19T12:52:21Z</time>
      </trkpt>
      <trkpt lat="46.22533" lon="4.40316">
        <ele>582</ele>
        <time>2013-08-19T12:52:24Z</time>
      </trkpt>
      <trkpt lat="46.2253" lon="4.40317">
        <ele>582</ele>
        <time>2013-08-19T12:52:27Z</time>
      </trkpt>
      <trkpt lat="46.22528" lon="4.40318">
        <ele>582</ele>
        <time>2013-08-19T12:52:30Z</time>
      </trkpt>
      <trkpt lat="46.22523" lon="4.40319">
        <ele>583</ele>
        <time>2013-08-19T12:52:35Z</time>
      </trkpt>
      <trkpt lat="46.22522" lon="4.4032">
        <ele>583</ele>
        <time>2013-08-19T12:52:36Z</time>
      </trkpt>
      <trkpt lat="46.22519" lon="4.40322">
        <ele>584</ele>
        <time>2013-08-19T12:52:39Z</time>
      </trkpt>
      <trkpt lat="46.22515" lon="4.40325">
        <ele>584</ele>
        <time>2013-08-19T12:52:42Z</time>
      </trkpt>
      <trkpt lat="46.22508" lon="4.40331">
        <ele>586</ele>
        <time>2013-08-19T12:52:48Z</time>
      </trkpt>
      <trkpt lat="46.22505" lon="4.40337">
        <ele>589</ele>
        <time>2013-08-19T12:52:52Z</time>
      </trkpt>
      <trkpt lat="46.22502" lon="4.40341">
        <ele>589</ele>
        <time>2013-08-19T12:52:55Z</time>
      </trkpt>
      <trkpt lat="46.22497" lon="4.40348">
        <ele>591</ele>
        <time>2013-08-19T12:53:02Z</time>
      </trkpt>
      <trkpt lat="46.22492" lon="4.40356">
        <ele>592</ele>
        <time>2013-08-19T12:53:09Z</time>
      </trkpt>
      <trkpt lat="46.22491" lon="4.40357">
        <ele>592</ele>
        <time>2013-08-19T12:53:10Z</time>
      </trkpt>
      <trkpt lat="46.22485" lon="4.40365">
        <ele>593</ele>
        <time>2013-08-19T12:53:17Z</time>
      </trkpt>
      <trkpt lat="46.22479" lon="4.40372">
        <ele>594</ele>
        <time>2013-08-19T12:53:24Z</time>
      </trkpt>
      <trkpt lat="46.22478" lon="4.40373">
        <ele>594</ele>
        <time>2013-08-19T12:53:25Z</time>
      </trkpt>
      <trkpt lat="46.22474" lon="4.40379">
        <ele>594</ele>
        <time>2013-08-19T12:53:31Z</time>
      </trkpt>
      <trkpt lat="46.22467" lon="4.40384">
        <ele>595</ele>
        <time>2013-08-19T12:53:38Z</time>
      </trkpt>
      <trkpt lat="46.22464" lon="4.40388">
        <ele>595</ele>
        <time>2013-08-19T12:53:42Z</time>
      </trkpt>
      <trkpt lat="46.22459" lon="4.40393">
        <ele>595</ele>
        <time>2013-08-19T12:53:47Z</time>
      </trkpt>
      <trkpt lat="46.2245" lon="4.40403">
        <ele>595</ele>
        <time>2013-08-19T12:53:57Z</time>
      </trkpt>
      <trkpt lat="46.22449" lon="4.40404">
        <ele>595</ele>
        <time>2013-08-19T12:53:58Z</time>
      </trkpt>
      <trkpt lat="46.22441" lon="4.40413">
        <ele>595</ele>
        <time>2013-08-19T12:54:05Z</time>
      </trkpt>
      <trkpt lat="46.22434" lon="4.40419">
        <ele>600</ele>
        <time>2013-08-19T12:54:12Z</time>
      </trkpt>
      <trkpt lat="46.22432" lon="4.4042">
        <ele>599</ele>
        <time>2013-08-19T12:54:14Z</time>
      </trkpt>
      <trkpt lat="46.22426" lon="4.40423">
        <ele>599</ele>
        <time>2013-08-19T12:54:20Z</time>
      </trkpt>
      <trkpt lat="46.22425" lon="4.40424">
        <ele>599</ele>
        <time>2013-08-19T12:54:21Z</time>
      </trkpt>
      <trkpt lat="46.22421" lon="4.4043">
        <ele>599</ele>
        <time>2013-08-19T12:54:25Z</time>
      </trkpt>
      <trkpt lat="46.22419" lon="4.40431">
        <ele>599</ele>
        <time>2013-08-19T12:54:26Z</time>
      </trkpt>
      <trkpt lat="46.22412" lon="4.40438">
        <ele>598</ele>
        <time>2013-08-19T12:54:32Z</time>
      </trkpt>
      <trkpt lat="46.22404" lon="4.4045">
        <ele>598</ele>
        <time>2013-08-19T12:54:39Z</time>
      </trkpt>
      <trkpt lat="46.224" lon="4.40456">
        <ele>598</ele>
        <time>2013-08-19T12:54:45Z</time>
      </trkpt>
      <trkpt lat="46.22393" lon="4.40466">
        <ele>599</ele>
        <time>2013-08-19T12:54:51Z</time>
      </trkpt>
      <trkpt lat="46.22391" lon="4.40468">
        <ele>599</ele>
        <time>2013-08-19T12:54:53Z</time>
      </trkpt>
      <trkpt lat="46.22387" lon="4.40473">
        <ele>599</ele>
        <time>2013-08-19T12:54:56Z</time>
      </trkpt>
      <trkpt lat="46.22383" lon="4.40479">
        <ele>599</ele>
        <time>2013-08-19T12:55:01Z</time>
      </trkpt>
      <trkpt lat="46.22378" lon="4.40484">
        <ele>599</ele>
        <time>2013-08-19T12:55:07Z</time>
      </trkpt>
      <trkpt lat="46.22372" lon="4.40494">
        <ele>599</ele>
        <time>2013-08-19T12:55:15Z</time>
      </trkpt>
      <trkpt lat="46.22365" lon="4.40497">
        <ele>598</ele>
        <time>2013-08-19T12:55:21Z</time>
      </trkpt>
      <trkpt lat="46.22364" lon="4.40497">
        <ele>598</ele>
        <time>2013-08-19T12:55:22Z</time>
      </trkpt>
      <trkpt lat="46.22355" lon="4.405">
        <ele>600</ele>
        <time>2013-08-19T12:55:29Z</time>
      </trkpt>
      <trkpt lat="46.22346" lon="4.40505">
        <ele>599</ele>
        <time>2013-08-19T12:55:35Z</time>
      </trkpt>
      <trkpt lat="46.22346" lon="4.40505">
        <ele>599</ele>
        <time>2013-08-19T12:55:36Z</time>
      </trkpt>
      <trkpt lat="46.22335" lon="4.40512">
        <ele>599</ele>
        <time>2013-08-19T12:55:43Z</time>
      </trkpt>
      <trkpt lat="46.22328" lon="4.40516">
        <ele>599</ele>
        <time>2013-08-19T12:55:49Z</time>
      </trkpt>
      <trkpt lat="46.22328" lon="4.40516">
        <ele>599</ele>
        <time>2013-08-19T12:55:50Z</time>
      </trkpt>
      <trkpt lat="46.2232" lon="4.40522">
        <ele>600</ele>
        <time>2013-08-19T12:55:57Z</time>
      </trkpt>
      <trkpt lat="46.22315" lon="4.40533">
        <ele>600</ele>
        <time>2013-08-19T12:56:03Z</time>
      </trkpt>
      <trkpt lat="46.22313" lon="4.40535">
        <ele>600</ele>
        <time>2013-08-19T12:56:05Z</time>
      </trkpt>
      <trkpt lat="46.22309" lon="4.40538">
        <ele>600</ele>
        <time>2013-08-19T12:56:10Z</time>
      </trkpt>
      <trkpt lat="46.22304" lon="4.40545">
        <ele>600</ele>
        <time>2013-08-19T12:56:15Z</time>
      </trkpt>
      <trkpt lat="46.22303" lon="4.40546">
        <ele>601</ele>
        <time>2013-08-19T12:56:16Z</time>
      </trkpt>
      <trkpt lat="46.223" lon="4.40552">
        <ele>601</ele>
        <time>2013-08-19T12:56:20Z</time>
      </trkpt>
      <trkpt lat="46.22297" lon="4.40557">
        <ele>601</ele>
        <time>2013-08-19T12:56:23Z</time>
      </trkpt>
      <trkpt lat="46.22291" lon="4.40563">
        <ele>601</ele>
        <time>2013-08-19T12:56:30Z</time>
      </trkpt>
      <trkpt lat="46.22285" lon="4.4057">
        <ele>602</ele>
        <time>2013-08-19T12:56:35Z</time>
      </trkpt>
      <trkpt lat="46.22283" lon="4.4057">
        <ele>602</ele>
        <time>2013-08-19T12:56:37Z</time>
      </trkpt>
      <trkpt lat="46.2228" lon="4.40574">
        <ele>602</ele>
        <time>2013-08-19T12:56:41Z</time>
      </trkpt>
      <trkpt lat="46.22277" lon="4.40575">
        <ele>602</ele>
        <time>2013-08-19T12:56:44Z</time>
      </trkpt>
      <trkpt lat="46.22275" lon="4.40577">
        <ele>603</ele>
        <time>2013-08-19T12:56:46Z</time>
      </trkpt>
      <trkpt lat="46.2227" lon="4.40582">
        <ele>603</ele>
        <time>2013-08-19T12:56:51Z</time>
      </trkpt>
      <trkpt lat="46.22269" lon="4.40583">
        <ele>603</ele>
        <time>2013-08-19T12:56:52Z</time>
      </trkpt>
      <trkpt lat="46.22264" lon="4.4059">
        <ele>605</ele>
        <time>2013-08-19T12:56:57Z</time>
      </trkpt>
      <trkpt lat="46.22257" lon="4.40594">
        <ele>605</ele>
        <time>2013-08-19T12:57:03Z</time>
      </trkpt>
      <trkpt lat="46.22255" lon="4.40596">
        <ele>605</ele>
        <time>2013-08-19T12:57:05Z</time>
      </trkpt>
      <trkpt lat="46.22253" lon="4.40597">
        <ele>606</ele>
        <time>2013-08-19T12:57:06Z</time>
      </trkpt>
      <trkpt lat="46.22248" lon="4.40604">
        <ele>613</ele>
        <time>2013-08-19T12:57:10Z</time>
      </trkpt>
      <trkpt lat="46.22237" lon="4.40613">
        <ele>615</ele>
        <time>2013-08-19T12:57:16Z</time>
      </trkpt>
      <trkpt lat="46.22231" lon="4.40617">
        <ele>616</ele>
        <time>2013-08-19T12:57:22Z</time>
      </trkpt>
      <trkpt lat="46.2223" lon="4.40618">
        <ele>616</ele>
        <time>2013-08-19T12:57:23Z</time>
      </trkpt>
      <trkpt lat="46.22225" lon="4.40621">
        <ele>617</ele>
        <time>2013-08-19T12:57:28Z</time>
      </trkpt>
      <trkpt lat="46.2222" lon="4.40623">
        <ele>617</ele>
        <time>2013-08-19T12:57:32Z</time>
      </trkpt>
      <trkpt lat="46.22219" lon="4.40625">
        <ele>617</ele>
        <time>2013-08-19T12:57:33Z</time>
      </trkpt>
      <trkpt lat="46.22217" lon="4.40625">
        <ele>618</ele>
        <time>2013-08-19T12:57:34Z</time>
      </trkpt>
      <trkpt lat="46.2221" lon="4.40626">
        <ele>618</ele>
        <time>2013-08-19T12:57:39Z</time>
      </trkpt>
      <trkpt lat="46.22202" lon="4.40627">
        <ele>619</ele>
        <time>2013-08-19T12:57:44Z</time>
      </trkpt>
      <trkpt lat="46.22198" lon="4.4063">
        <ele>619</ele>
        <time>2013-08-19T12:57:47Z</time>
      </trkpt>
      <trkpt lat="46.22192" lon="4.40635">
        <ele>620</ele>
        <time>2013-08-19T12:57:52Z</time>
      </trkpt>
      <trkpt lat="46.22187" lon="4.40639">
        <ele>620</ele>
        <time>2013-08-19T12:57:57Z</time>
      </trkpt>
      <trkpt lat="46.22185" lon="4.40639">
        <ele>621</ele>
        <time>2013-08-19T12:57:58Z</time>
      </trkpt>
      <trkpt lat="46.22184" lon="4.40639">
        <ele>621</ele>
        <time>2013-08-19T12:57:59Z</time>
      </trkpt>
      <trkpt lat="46.22174" lon="4.40644">
        <ele>622</ele>
        <time>2013-08-19T12:58:07Z</time>
      </trkpt>
      <trkpt lat="46.22168" lon="4.40648">
        <ele>622</ele>
        <time>2013-08-19T12:58:13Z</time>
      </trkpt>
      <trkpt lat="46.22166" lon="4.40649">
        <ele>626</ele>
        <time>2013-08-19T12:58:15Z</time>
      </trkpt>
      <trkpt lat="46.22163" lon="4.40651">
        <ele>626</ele>
        <time>2013-08-19T12:58:18Z</time>
      </trkpt>
      <trkpt lat="46.22159" lon="4.40653">
        <ele>626</ele>
        <time>2013-08-19T12:58:21Z</time>
      </trkpt>
      <trkpt lat="46.22154" lon="4.40655">
        <ele>626</ele>
        <time>2013-08-19T12:58:25Z</time>
      </trkpt>
      <trkpt lat="46.22152" lon="4.40655">
        <ele>626</ele>
        <time>2013-08-19T12:58:27Z</time>
      </trkpt>
      <trkpt lat="46.22151" lon="4.40656">
        <ele>626</ele>
        <time>2013-08-19T12:58:28Z</time>
      </trkpt>
      <trkpt lat="46.22142" lon="4.40659">
        <ele>625</ele>
        <time>2013-08-19T12:58:35Z</time>
      </trkpt>
      <trkpt lat="46.2214" lon="4.40661">
        <ele>625</ele>
        <time>2013-08-19T12:58:37Z</time>
      </trkpt>
      <trkpt lat="46.22137" lon="4.40662">
        <ele>625</ele>
        <time>2013-08-19T12:58:40Z</time>
      </trkpt>
      <trkpt lat="46.22134" lon="4.40664">
        <ele>625</ele>
        <time>2013-08-19T12:58:43Z</time>
      </trkpt>
      <trkpt lat="46.22127" lon="4.40667">
        <ele>622</ele>
        <time>2013-08-19T12:58:48Z</time>
      </trkpt>
      <trkpt lat="46.22123" lon="4.40668">
        <ele>622</ele>
        <time>2013-08-19T12:58:52Z</time>
      </trkpt>
      <trkpt lat="46.22122" lon="4.40669">
        <ele>622</ele>
        <time>2013-08-19T12:58:54Z</time>
      </trkpt>
      <trkpt lat="46.22118" lon="4.4067">
        <ele>622</ele>
        <time>2013-08-19T12:58:57Z</time>
      </trkpt>
      <trkpt lat="46.22116" lon="4.40672">
        <ele>622</ele>
        <time>2013-08-19T12:59:00Z</time>
      </trkpt>
      <trkpt lat="46.22114" lon="4.40672">
        <ele>622</ele>
        <time>2013-08-19T12:59:01Z</time>
      </trkpt>
      <trkpt lat="46.22108" lon="4.40674">
        <ele>622</ele>
        <time>2013-08-19T12:59:06Z</time>
      </trkpt>
      <trkpt lat="46.22102" lon="4.40678">
        <ele>622</ele>
        <time>2013-08-19T12:59:12Z</time>
      </trkpt>
      <trkpt lat="46.22099" lon="4.40679">
        <ele>622</ele>
        <time>2013-08-19T12:59:14Z</time>
      </trkpt>
      <trkpt lat="46.22097" lon="4.4068">
        <ele>622</ele>
        <time>2013-08-19T12:59:15Z</time>
      </trkpt>
      <trkpt lat="46.22096" lon="4.4068">
        <ele>622</ele>
        <time>2013-08-19T12:59:16Z</time>
      </trkpt>
      <trkpt lat="46.22094" lon="4.4068">
        <ele>622</ele>
        <time>2013-08-19T12:59:18Z</time>
      </trkpt>
      <trkpt lat="46.22093" lon="4.40682">
        <ele>622</ele>
        <time>2013-08-19T12:59:19Z</time>
      </trkpt>
      <trkpt lat="46.22087" lon="4.40686">
        <ele>621</ele>
        <time>2013-08-19T12:59:23Z</time>
      </trkpt>
      <trkpt lat="46.22085" lon="4.40687">
        <ele>621</ele>
        <time>2013-08-19T12:59:24Z</time>
      </trkpt>
      <trkpt lat="46.2208" lon="4.4069">
        <ele>620</ele>
        <time>2013-08-19T12:59:27Z</time>
      </trkpt>
      <trkpt lat="46.22076" lon="4.40692">
        <ele>620</ele>
        <time>2013-08-19T12:59:30Z</time>
      </trkpt>
      <trkpt lat="46.22075" lon="4.40693">
        <ele>620</ele>
        <time>2013-08-19T12:59:31Z</time>
      </trkpt>
      <trkpt lat="46.22071" lon="4.40696">
        <ele>619</ele>
        <time>2013-08-19T12:59:35Z</time>
      </trkpt>
      <trkpt lat="46.22069" lon="4.40698">
        <ele>619</ele>
        <time>2013-08-19T12:59:37Z</time>
      </trkpt>
      <trkpt lat="46.22068" lon="4.40702">
        <ele>619</ele>
        <time>2013-08-19T12:59:41Z</time>
      </trkpt>
      <trkpt lat="46.22067" lon="4.40702">
        <ele>619</ele>
        <time>2013-08-19T12:59:42Z</time>
      </trkpt>
      <trkpt lat="46.22064" lon="4.40705">
        <ele>619</ele>
        <time>2013-08-19T12:59:45Z</time>
      </trkpt>
      <trkpt lat="46.22063" lon="4.40707">
        <ele>619</ele>
        <time>2013-08-19T12:59:47Z</time>
      </trkpt>
      <trkpt lat="46.2206" lon="4.4071">
        <ele>618</ele>
        <time>2013-08-19T12:59:50Z</time>
      </trkpt>
      <trkpt lat="46.22055" lon="4.40712">
        <ele>618</ele>
        <time>2013-08-19T12:59:53Z</time>
      </trkpt>
      <trkpt lat="46.22054" lon="4.40713">
        <ele>618</ele>
        <time>2013-08-19T12:59:54Z</time>
      </trkpt>
      <trkpt lat="46.22049" lon="4.4072">
        <ele>618</ele>
        <time>2013-08-19T12:59:58Z</time>
      </trkpt>
      <trkpt lat="46.22048" lon="4.4072">
        <ele>618</ele>
        <time>2013-08-19T12:59:59Z</time>
      </trkpt>
      <trkpt lat="46.22046" lon="4.40721">
        <ele>618</ele>
        <time>2013-08-19T13:00:00Z</time>
      </trkpt>
      <trkpt lat="46.22042" lon="4.40726">
        <ele>618</ele>
        <time>2013-08-19T13:00:03Z</time>
      </trkpt>
      <trkpt lat="46.2204" lon="4.40729">
        <ele>618</ele>
        <time>2013-08-19T13:00:05Z</time>
      </trkpt>
      <trkpt lat="46.22038" lon="4.40733">
        <ele>618</ele>
        <time>2013-08-19T13:00:07Z</time>
      </trkpt>
      <trkpt lat="46.22035" lon="4.40739">
        <ele>617</ele>
        <time>2013-08-19T13:00:11Z</time>
      </trkpt>
      <trkpt lat="46.22034" lon="4.4074">
        <ele>617</ele>
        <time>2013-08-19T13:00:12Z</time>
      </trkpt>
      <trkpt lat="46.22029" lon="4.40745">
        <ele>617</ele>
        <time>2013-08-19T13:00:18Z</time>
      </trkpt>
      <trkpt lat="46.22028" lon="4.40745">
        <ele>617</ele>
        <time>2013-08-19T13:00:19Z</time>
      </trkpt>
      <trkpt lat="46.22026" lon="4.40746">
        <ele>617</ele>
        <time>2013-08-19T13:00:21Z</time>
      </trkpt>
      <trkpt lat="46.22023" lon="4.40747">
        <ele>617</ele>
        <time>2013-08-19T13:00:24Z</time>
      </trkpt>
      <trkpt lat="46.22022" lon="4.40748">
        <ele>617</ele>
        <time>2013-08-19T13:00:26Z</time>
      </trkpt>
      <trkpt lat="46.22017" lon="4.40751">
        <ele>617</ele>
        <time>2013-08-19T13:00:30Z</time>
      </trkpt>
      <trkpt lat="46.2201" lon="4.40756">
        <ele>617</ele>
        <time>2013-08-19T13:00:37Z</time>
      </trkpt>
      <trkpt lat="46.22007" lon="4.40761">
        <ele>617</ele>
        <time>2013-08-19T13:00:39Z</time>
      </trkpt>
      <trkpt lat="46.22" lon="4.40766">
        <ele>617</ele>
        <time>2013-08-19T13:00:42Z</time>
      </trkpt>
      <trkpt lat="46.21998" lon="4.40767">
        <ele>618</ele>
        <time>2013-08-19T13:00:43Z</time>
      </trkpt>
      <trkpt lat="46.21994" lon="4.40769">
        <ele>619</ele>
        <time>2013-08-19T13:00:48Z</time>
      </trkpt>
      <trkpt lat="46.2199" lon="4.40775">
        <ele>619</ele>
        <time>2013-08-19T13:00:53Z</time>
      </trkpt>
      <trkpt lat="46.21987" lon="4.40777">
        <ele>619</ele>
        <time>2013-08-19T13:00:57Z</time>
      </trkpt>
      <trkpt lat="46.21984" lon="4.4078">
        <ele>620</ele>
        <time>2013-08-19T13:00:59Z</time>
      </trkpt>
      <trkpt lat="46.21981" lon="4.40784">
        <ele>620</ele>
        <time>2013-08-19T13:01:02Z</time>
      </trkpt>
      <trkpt lat="46.21976" lon="4.40791">
        <ele>620</ele>
        <time>2013-08-19T13:01:09Z</time>
      </trkpt>
      <trkpt lat="46.21974" lon="4.40796">
        <ele>621</ele>
        <time>2013-08-19T13:01:15Z</time>
      </trkpt>
      <trkpt lat="46.21974" lon="4.408">
        <ele>621</ele>
        <time>2013-08-19T13:01:17Z</time>
      </trkpt>
      <trkpt lat="46.21973" lon="4.40805">
        <ele>621</ele>
        <time>2013-08-19T13:01:20Z</time>
      </trkpt>
      <trkpt lat="46.21971" lon="4.40807">
        <ele>621</ele>
        <time>2013-08-19T13:01:22Z</time>
      </trkpt>
      <trkpt lat="46.2197" lon="4.40809">
        <ele>621</ele>
        <time>2013-08-19T13:01:23Z</time>
      </trkpt>
      <trkpt lat="46.21969" lon="4.40818">
        <ele>622</ele>
        <time>2013-08-19T13:01:27Z</time>
      </trkpt>
      <trkpt lat="46.21967" lon="4.40825">
        <ele>622</ele>
        <time>2013-08-19T13:01:31Z</time>
      </trkpt>
      <trkpt lat="46.21966" lon="4.40827">
        <ele>622</ele>
        <time>2013-08-19T13:01:32Z</time>
      </trkpt>
      <trkpt lat="46.21964" lon="4.40833">
        <ele>622</ele>
        <time>2013-08-19T13:01:39Z</time>
      </trkpt>
      <trkpt lat="46.21962" lon="4.40839">
        <ele>629</ele>
        <time>2013-08-19T13:01:43Z</time>
      </trkpt>
      <trkpt lat="46.21962" lon="4.40842">
        <ele>629</ele>
        <time>2013-08-19T13:01:45Z</time>
      </trkpt>
      <trkpt lat="46.21963" lon="4.4085">
        <ele>629</ele>
        <time>2013-08-19T13:01:50Z</time>
      </trkpt>
      <trkpt lat="46.21962" lon="4.40854">
        <ele>629</ele>
        <time>2013-08-19T13:01:51Z</time>
      </trkpt>
      <trkpt lat="46.21962" lon="4.40856">
        <ele>630</ele>
        <time>2013-08-19T13:01:52Z</time>
      </trkpt>
      <trkpt lat="46.2196" lon="4.40865">
        <ele>630</ele>
        <time>2013-08-19T13:01:56Z</time>
      </trkpt>
      <trkpt lat="46.2196" lon="4.40867">
        <ele>631</ele>
        <time>2013-08-19T13:01:57Z</time>
      </trkpt>
      <trkpt lat="46.21962" lon="4.40877">
        <ele>631</ele>
        <time>2013-08-19T13:02:03Z</time>
      </trkpt>
      <trkpt lat="46.21963" lon="4.40879">
        <ele>631</ele>
        <time>2013-08-19T13:02:05Z</time>
      </trkpt>
      <trkpt lat="46.21963" lon="4.40885">
        <ele>632</ele>
        <time>2013-08-19T13:02:09Z</time>
      </trkpt>
      <trkpt lat="46.21963" lon="4.40887">
        <ele>632</ele>
        <time>2013-08-19T13:02:11Z</time>
      </trkpt>
      <trkpt lat="46.21964" lon="4.40889">
        <ele>632</ele>
        <time>2013-08-19T13:02:13Z</time>
      </trkpt>
      <trkpt lat="46.21964" lon="4.40892">
        <ele>632</ele>
        <time>2013-08-19T13:02:15Z</time>
      </trkpt>
      <trkpt lat="46.21967" lon="4.409">
        <ele>632</ele>
        <time>2013-08-19T13:02:21Z</time>
      </trkpt>
      <trkpt lat="46.21968" lon="4.40904">
        <ele>633</ele>
        <time>2013-08-19T13:02:23Z</time>
      </trkpt>
      <trkpt lat="46.21969" lon="4.40907">
        <ele>633</ele>
        <time>2013-08-19T13:02:24Z</time>
      </trkpt>
      <trkpt lat="46.21971" lon="4.40911">
        <ele>633</ele>
        <time>2013-08-19T13:02:27Z</time>
      </trkpt>
      <trkpt lat="46.21972" lon="4.40914">
        <ele>633</ele>
        <time>2013-08-19T13:02:29Z</time>
      </trkpt>
      <trkpt lat="46.21971" lon="4.40916">
        <ele>633</ele>
        <time>2013-08-19T13:02:30Z</time>
      </trkpt>
      <trkpt lat="46.21969" lon="4.40923">
        <ele>638</ele>
        <time>2013-08-19T13:02:34Z</time>
      </trkpt>
      <trkpt lat="46.21968" lon="4.40923">
        <ele>639</ele>
        <time>2013-08-19T13:02:35Z</time>
      </trkpt>
      <trkpt lat="46.21968" lon="4.40924">
        <ele>639</ele>
        <time>2013-08-19T13:02:36Z</time>
      </trkpt>
      <trkpt lat="46.21968" lon="4.40927">
        <ele>639</ele>
        <time>2013-08-19T13:02:39Z</time>
      </trkpt>
      <trkpt lat="46.21966" lon="4.40931">
        <ele>639</ele>
        <time>2013-08-19T13:02:43Z</time>
      </trkpt>
      <trkpt lat="46.21966" lon="4.40934">
        <ele>639</ele>
        <time>2013-08-19T13:02:45Z</time>
      </trkpt>
      <trkpt lat="46.21965" lon="4.40936">
        <ele>639</ele>
        <time>2013-08-19T13:02:46Z</time>
      </trkpt>
      <trkpt lat="46.21962" lon="4.40945">
        <ele>640</ele>
        <time>2013-08-19T13:02:53Z</time>
      </trkpt>
      <trkpt lat="46.21955" lon="4.40954">
        <ele>641</ele>
        <time>2013-08-19T13:03:01Z</time>
      </trkpt>
      <trkpt lat="46.21952" lon="4.40956">
        <ele>641</ele>
        <time>2013-08-19T13:03:03Z</time>
      </trkpt>
      <trkpt lat="46.21944" lon="4.40957">
        <ele>641</ele>
        <time>2013-08-19T13:03:08Z</time>
      </trkpt>
      <trkpt lat="46.21937" lon="4.4096">
        <ele>642</ele>
        <time>2013-08-19T13:03:14Z</time>
      </trkpt>
      <trkpt lat="46.21932" lon="4.40962">
        <ele>642</ele>
        <time>2013-08-19T13:03:16Z</time>
      </trkpt>
      <trkpt lat="46.21931" lon="4.40962">
        <ele>642</ele>
        <time>2013-08-19T13:03:18Z</time>
      </trkpt>
      <trkpt lat="46.2193" lon="4.40962">
        <ele>642</ele>
        <time>2013-08-19T13:03:19Z</time>
      </trkpt>
      <trkpt lat="46.21923" lon="4.4096">
        <ele>642</ele>
        <time>2013-08-19T13:03:25Z</time>
      </trkpt>
      <trkpt lat="46.21913" lon="4.40959">
        <ele>647</ele>
        <time>2013-08-19T13:03:30Z</time>
      </trkpt>
      <trkpt lat="46.21912" lon="4.40959">
        <ele>647</ele>
        <time>2013-08-19T13:03:31Z</time>
      </trkpt>
      <trkpt lat="46.2191" lon="4.40959">
        <ele>647</ele>
        <time>2013-08-19T13:03:33Z</time>
      </trkpt>
      <trkpt lat="46.21907" lon="4.40959">
        <ele>647</ele>
        <time>2013-08-19T13:03:36Z</time>
      </trkpt>
      <trkpt lat="46.21904" lon="4.4096">
        <ele>647</ele>
        <time>2013-08-19T13:03:38Z</time>
      </trkpt>
      <trkpt lat="46.21903" lon="4.40962">
        <ele>647</ele>
        <time>2013-08-19T13:03:42Z</time>
      </trkpt>
      <trkpt lat="46.21901" lon="4.40965">
        <ele>647</ele>
        <time>2013-08-19T13:03:45Z</time>
      </trkpt>
      <trkpt lat="46.21899" lon="4.4097">
        <ele>647</ele>
        <time>2013-08-19T13:03:48Z</time>
      </trkpt>
      <trkpt lat="46.21898" lon="4.40972">
        <ele>647</ele>
        <time>2013-08-19T13:03:49Z</time>
      </trkpt>
      <trkpt lat="46.219" lon="4.40978">
        <ele>647</ele>
        <time>2013-08-19T13:03:53Z</time>
      </trkpt>
      <trkpt lat="46.219" lon="4.40979">
        <ele>647</ele>
        <time>2013-08-19T13:03:54Z</time>
      </trkpt>
      <trkpt lat="46.21898" lon="4.40983">
        <ele>647</ele>
        <time>2013-08-19T13:03:57Z</time>
      </trkpt>
      <trkpt lat="46.21899" lon="4.40985">
        <ele>647</ele>
        <time>2013-08-19T13:03:59Z</time>
      </trkpt>
      <trkpt lat="46.219" lon="4.40989">
        <ele>647</ele>
        <time>2013-08-19T13:04:02Z</time>
      </trkpt>
      <trkpt lat="46.21904" lon="4.40997">
        <ele>647</ele>
        <time>2013-08-19T13:04:07Z</time>
      </trkpt>
      <trkpt lat="46.21902" lon="4.41004">
        <ele>648</ele>
        <time>2013-08-19T13:04:11Z</time>
      </trkpt>
      <trkpt lat="46.219" lon="4.41008">
        <ele>648</ele>
        <time>2013-08-19T13:04:13Z</time>
      </trkpt>
      <trkpt lat="46.21897" lon="4.41015">
        <ele>648</ele>
        <time>2013-08-19T13:04:16Z</time>
      </trkpt>
      <trkpt lat="46.21895" lon="4.41021">
        <ele>649</ele>
        <time>2013-08-19T13:04:19Z</time>
      </trkpt>
      <trkpt lat="46.21895" lon="4.41022">
        <ele>649</ele>
        <time>2013-08-19T13:04:20Z</time>
      </trkpt>
      <trkpt lat="46.21895" lon="4.41024">
        <ele>649</ele>
        <time>2013-08-19T13:04:21Z</time>
      </trkpt>
      <trkpt lat="46.21892" lon="4.4103">
        <ele>649</ele>
        <time>2013-08-19T13:04:24Z</time>
      </trkpt>
      <trkpt lat="46.2189" lon="4.41032">
        <ele>649</ele>
        <time>2013-08-19T13:04:26Z</time>
      </trkpt>
      <trkpt lat="46.21887" lon="4.41035">
        <ele>649</ele>
        <time>2013-08-19T13:04:29Z</time>
      </trkpt>
      <trkpt lat="46.21883" lon="4.41042">
        <ele>649</ele>
        <time>2013-08-19T13:04:36Z</time>
      </trkpt>
      <trkpt lat="46.21881" lon="4.41043">
        <ele>649</ele>
        <time>2013-08-19T13:04:37Z</time>
      </trkpt>
      <trkpt lat="46.2188" lon="4.41045">
        <ele>649</ele>
        <time>2013-08-19T13:04:38Z</time>
      </trkpt>
      <trkpt lat="46.21874" lon="4.41046">
        <ele>649</ele>
        <time>2013-08-19T13:04:43Z</time>
      </trkpt>
      <trkpt lat="46.21865" lon="4.41047">
        <ele>649</ele>
        <time>2013-08-19T13:04:48Z</time>
      </trkpt>
      <trkpt lat="46.21864" lon="4.41047">
        <ele>649</ele>
        <time>2013-08-19T13:04:49Z</time>
      </trkpt>
      <trkpt lat="46.21862" lon="4.41046">
        <ele>650</ele>
        <time>2013-08-19T13:04:50Z</time>
      </trkpt>
      <trkpt lat="46.21854" lon="4.41049">
        <ele>650</ele>
        <time>2013-08-19T13:04:55Z</time>
      </trkpt>
      <trkpt lat="46.21846" lon="4.41051">
        <ele>650</ele>
        <time>2013-08-19T13:05:01Z</time>
      </trkpt>
      <trkpt lat="46.21844" lon="4.41051">
        <ele>650</ele>
        <time>2013-08-19T13:05:03Z</time>
      </trkpt>
      <trkpt lat="46.21842" lon="4.41051">
        <ele>650</ele>
        <time>2013-08-19T13:05:04Z</time>
      </trkpt>
      <trkpt lat="46.21839" lon="4.41052">
        <ele>650</ele>
        <time>2013-08-19T13:05:08Z</time>
      </trkpt>
      <trkpt lat="46.21834" lon="4.41053">
        <ele>650</ele>
        <time>2013-08-19T13:05:12Z</time>
      </trkpt>
      <trkpt lat="46.21832" lon="4.41054">
        <ele>653</ele>
        <time>2013-08-19T13:05:14Z</time>
      </trkpt>
      <trkpt lat="46.21828" lon="4.41054">
        <ele>654</ele>
        <time>2013-08-19T13:05:17Z</time>
      </trkpt>
      <trkpt lat="46.21826" lon="4.41055">
        <ele>654</ele>
        <time>2013-08-19T13:05:18Z</time>
      </trkpt>
      <trkpt lat="46.21825" lon="4.41054">
        <ele>654</ele>
        <time>2013-08-19T13:05:19Z</time>
      </trkpt>
      <trkpt lat="46.21822" lon="4.41052">
        <ele>654</ele>
        <time>2013-08-19T13:05:23Z</time>
      </trkpt>
      <trkpt lat="46.21821" lon="4.41052">
        <ele>654</ele>
        <time>2013-08-19T13:05:24Z</time>
      </trkpt>
      <trkpt lat="46.21814" lon="4.41055">
        <ele>654</ele>
        <time>2013-08-19T13:05:29Z</time>
      </trkpt>
      <trkpt lat="46.21814" lon="4.41055">
        <ele>654</ele>
        <time>2013-08-19T13:05:30Z</time>
      </trkpt>
      <trkpt lat="46.21812" lon="4.41055">
        <ele>654</ele>
        <time>2013-08-19T13:05:31Z</time>
      </trkpt>
      <trkpt lat="46.21807" lon="4.41054">
        <ele>654</ele>
        <time>2013-08-19T13:05:35Z</time>
      </trkpt>
      <trkpt lat="46.21806" lon="4.41054">
        <ele>654</ele>
        <time>2013-08-19T13:05:36Z</time>
      </trkpt>
      <trkpt lat="46.21797" lon="4.41053">
        <ele>655</ele>
        <time>2013-08-19T13:05:42Z</time>
      </trkpt>
      <trkpt lat="46.21792" lon="4.41052">
        <ele>655</ele>
        <time>2013-08-19T13:05:45Z</time>
      </trkpt>
      <trkpt lat="46.21789" lon="4.41054">
        <ele>655</ele>
        <time>2013-08-19T13:05:47Z</time>
      </trkpt>
      <trkpt lat="46.21787" lon="4.41054">
        <ele>655</ele>
        <time>2013-08-19T13:05:48Z</time>
      </trkpt>
      <trkpt lat="46.21786" lon="4.41054">
        <ele>655</ele>
        <time>2013-08-19T13:05:50Z</time>
      </trkpt>
      <trkpt lat="46.21782" lon="4.41054">
        <ele>656</ele>
        <time>2013-08-19T13:05:52Z</time>
      </trkpt>
      <trkpt lat="46.21775" lon="4.41054">
        <ele>656</ele>
        <time>2013-08-19T13:05:57Z</time>
      </trkpt>
      <trkpt lat="46.21771" lon="4.41053">
        <ele>656</ele>
        <time>2013-08-19T13:06:01Z</time>
      </trkpt>
      <trkpt lat="46.21769" lon="4.41053">
        <ele>656</ele>
        <time>2013-08-19T13:06:03Z</time>
      </trkpt>
      <trkpt lat="46.21767" lon="4.4105">
        <ele>656</ele>
        <time>2013-08-19T13:06:05Z</time>
      </trkpt>
      <trkpt lat="46.21764" lon="4.4105">
        <ele>656</ele>
        <time>2013-08-19T13:06:07Z</time>
      </trkpt>
      <trkpt lat="46.21759" lon="4.41051">
        <ele>657</ele>
        <time>2013-08-19T13:06:11Z</time>
      </trkpt>
      <trkpt lat="46.21755" lon="4.41051">
        <ele>657</ele>
        <time>2013-08-19T13:06:13Z</time>
      </trkpt>
      <trkpt lat="46.21754" lon="4.41051">
        <ele>657</ele>
        <time>2013-08-19T13:06:14Z</time>
      </trkpt>
      <trkpt lat="46.2175" lon="4.41048">
        <ele>663</ele>
        <time>2013-08-19T13:06:21Z</time>
      </trkpt>
      <trkpt lat="46.21749" lon="4.41048">
        <ele>663</ele>
        <time>2013-08-19T13:06:22Z</time>
      </trkpt>
      <trkpt lat="46.21743" lon="4.41051">
        <ele>663</ele>
        <time>2013-08-19T13:06:25Z</time>
      </trkpt>
      <trkpt lat="46.21742" lon="4.41051">
        <ele>663</ele>
        <time>2013-08-19T13:06:26Z</time>
      </trkpt>
      <trkpt lat="46.21735" lon="4.41052">
        <ele>663</ele>
        <time>2013-08-19T13:06:32Z</time>
      </trkpt>
      <trkpt lat="46.21733" lon="4.41052">
        <ele>663</ele>
        <time>2013-08-19T13:06:33Z</time>
      </trkpt>
      <trkpt lat="46.2173" lon="4.41055">
        <ele>663</ele>
        <time>2013-08-19T13:06:37Z</time>
      </trkpt>
      <trkpt lat="46.21727" lon="4.41055">
        <ele>663</ele>
        <time>2013-08-19T13:06:39Z</time>
      </trkpt>
      <trkpt lat="46.21725" lon="4.41056">
        <ele>663</ele>
        <time>2013-08-19T13:06:40Z</time>
      </trkpt>
      <trkpt lat="46.21716" lon="4.41061">
        <ele>664</ele>
        <time>2013-08-19T13:06:45Z</time>
      </trkpt>
      <trkpt lat="46.21713" lon="4.41061">
        <ele>664</ele>
        <time>2013-08-19T13:06:47Z</time>
      </trkpt>
      <trkpt lat="46.21711" lon="4.4106">
        <ele>664</ele>
        <time>2013-08-19T13:06:49Z</time>
      </trkpt>
      <trkpt lat="46.21708" lon="4.4106">
        <ele>664</ele>
        <time>2013-08-19T13:06:51Z</time>
      </trkpt>
      <trkpt lat="46.21702" lon="4.4106">
        <ele>665</ele>
        <time>2013-08-19T13:06:56Z</time>
      </trkpt>
      <trkpt lat="46.21698" lon="4.41064">
        <ele>665</ele>
        <time>2013-08-19T13:06:59Z</time>
      </trkpt>
      <trkpt lat="46.21695" lon="4.41065">
        <ele>665</ele>
        <time>2013-08-19T13:07:01Z</time>
      </trkpt>
      <trkpt lat="46.21693" lon="4.41063">
        <ele>665</ele>
        <time>2013-08-19T13:07:04Z</time>
      </trkpt>
      <trkpt lat="46.2169" lon="4.41065">
        <ele>665</ele>
        <time>2013-08-19T13:07:06Z</time>
      </trkpt>
      <trkpt lat="46.21684" lon="4.41067">
        <ele>665</ele>
        <time>2013-08-19T13:07:12Z</time>
      </trkpt>
      <trkpt lat="46.21681" lon="4.41068">
        <ele>665</ele>
        <time>2013-08-19T13:07:15Z</time>
      </trkpt>
      <trkpt lat="46.21675" lon="4.41072">
        <ele>665</ele>
        <time>2013-08-19T13:07:19Z</time>
      </trkpt>
      <trkpt lat="46.21674" lon="4.41072">
        <ele>665</ele>
        <time>2013-08-19T13:07:20Z</time>
      </trkpt>
      <trkpt lat="46.21668" lon="4.41072">
        <ele>665</ele>
        <time>2013-08-19T13:07:26Z</time>
      </trkpt>
      <trkpt lat="46.2166" lon="4.41071">
        <ele>670</ele>
        <time>2013-08-19T13:07:33Z</time>
      </trkpt>
      <trkpt lat="46.2166" lon="4.41072">
        <ele>670</ele>
        <time>2013-08-19T13:07:34Z</time>
      </trkpt>
      <trkpt lat="46.21656" lon="4.41069">
        <ele>671</ele>
        <time>2013-08-19T13:07:37Z</time>
      </trkpt>
      <trkpt lat="46.21653" lon="4.41069">
        <ele>672</ele>
        <time>2013-08-19T13:07:39Z</time>
      </trkpt>
      <trkpt lat="46.21651" lon="4.41069">
        <ele>672</ele>
        <time>2013-08-19T13:07:40Z</time>
      </trkpt>
      <trkpt lat="46.21649" lon="4.41065">
        <ele>673</ele>
        <time>2013-08-19T13:07:43Z</time>
      </trkpt>
      <trkpt lat="46.21648" lon="4.41065">
        <ele>674</ele>
        <time>2013-08-19T13:07:45Z</time>
      </trkpt>
      <trkpt lat="46.21646" lon="4.41065">
        <ele>674</ele>
        <time>2013-08-19T13:07:47Z</time>
      </trkpt>
      <trkpt lat="46.21642" lon="4.41065">
        <ele>674</ele>
        <time>2013-08-19T13:07:50Z</time>
      </trkpt>
      <trkpt lat="46.21638" lon="4.41063">
        <ele>675</ele>
        <time>2013-08-19T13:07:54Z</time>
      </trkpt>
      <trkpt lat="46.21637" lon="4.41063">
        <ele>675</ele>
        <time>2013-08-19T13:07:55Z</time>
      </trkpt>
      <trkpt lat="46.21632" lon="4.41066">
        <ele>676</ele>
        <time>2013-08-19T13:08:01Z</time>
      </trkpt>
      <trkpt lat="46.21625" lon="4.4107">
        <ele>677</ele>
        <time>2013-08-19T13:08:07Z</time>
      </trkpt>
      <trkpt lat="46.21624" lon="4.41069">
        <ele>677</ele>
        <time>2013-08-19T13:08:08Z</time>
      </trkpt>
      <trkpt lat="46.21621" lon="4.41073">
        <ele>677</ele>
        <time>2013-08-19T13:08:11Z</time>
      </trkpt>
      <trkpt lat="46.2162" lon="4.41073">
        <ele>677</ele>
        <time>2013-08-19T13:08:12Z</time>
      </trkpt>
      <trkpt lat="46.21618" lon="4.41075">
        <ele>677</ele>
        <time>2013-08-19T13:08:14Z</time>
      </trkpt>
      <trkpt lat="46.21616" lon="4.41077">
        <ele>678</ele>
        <time>2013-08-19T13:08:17Z</time>
      </trkpt>
      <trkpt lat="46.21612" lon="4.41082">
        <ele>678</ele>
        <time>2013-08-19T13:08:24Z</time>
      </trkpt>
      <trkpt lat="46.21608" lon="4.41091">
        <ele>672</ele>
        <time>2013-08-19T13:08:30Z</time>
      </trkpt>
      <trkpt lat="46.21606" lon="4.41093">
        <ele>672</ele>
        <time>2013-08-19T13:08:32Z</time>
      </trkpt>
      <trkpt lat="46.21604" lon="4.411">
        <ele>672</ele>
        <time>2013-08-19T13:08:38Z</time>
      </trkpt>
      <trkpt lat="46.21601" lon="4.41104">
        <ele>672</ele>
        <time>2013-08-19T13:08:42Z</time>
      </trkpt>
      <trkpt lat="46.216" lon="4.41106">
        <ele>672</ele>
        <time>2013-08-19T13:08:44Z</time>
      </trkpt>
      <trkpt lat="46.21599" lon="4.41107">
        <ele>671</ele>
        <time>2013-08-19T13:08:45Z</time>
      </trkpt>
      <trkpt lat="46.21597" lon="4.41113">
        <ele>671</ele>
        <time>2013-08-19T13:08:48Z</time>
      </trkpt>
      <trkpt lat="46.21596" lon="4.41114">
        <ele>671</ele>
        <time>2013-08-19T13:08:49Z</time>
      </trkpt>
      <trkpt lat="46.21593" lon="4.41119">
        <ele>670</ele>
        <time>2013-08-19T13:08:50Z</time>
      </trkpt>
      <trkpt lat="46.21591" lon="4.4112">
        <ele>670</ele>
        <time>2013-08-19T13:08:52Z</time>
      </trkpt>
      <trkpt lat="46.21589" lon="4.41121">
        <ele>670</ele>
        <time>2013-08-19T13:08:54Z</time>
      </trkpt>
      <trkpt lat="46.21588" lon="4.41123">
        <ele>670</ele>
        <time>2013-08-19T13:08:55Z</time>
      </trkpt>
      <trkpt lat="46.21584" lon="4.41131">
        <ele>670</ele>
        <time>2013-08-19T13:08:58Z</time>
      </trkpt>
      <trkpt lat="46.21582" lon="4.41138">
        <ele>676</ele>
        <time>2013-08-19T13:09:01Z</time>
      </trkpt>
      <trkpt lat="46.2158" lon="4.41144">
        <ele>675</ele>
        <time>2013-08-19T13:09:04Z</time>
      </trkpt>
      <trkpt lat="46.21577" lon="4.41151">
        <ele>674</ele>
        <time>2013-08-19T13:09:07Z</time>
      </trkpt>
      <trkpt lat="46.21575" lon="4.41154">
        <ele>674</ele>
        <time>2013-08-19T13:09:09Z</time>
      </trkpt>
      <trkpt lat="46.21575" lon="4.41155">
        <ele>674</ele>
        <time>2013-08-19T13:09:10Z</time>
      </trkpt>
      <trkpt lat="46.21574" lon="4.41157">
        <ele>674</ele>
        <time>2013-08-19T13:09:13Z</time>
      </trkpt>
      <trkpt lat="46.21568" lon="4.41167">
        <ele>674</ele>
        <time>2013-08-19T13:09:20Z</time>
      </trkpt>
      <trkpt lat="46.21567" lon="4.41168">
        <ele>670</ele>
        <time>2013-08-19T13:09:21Z</time>
      </trkpt>
      <trkpt lat="46.21561" lon="4.41176">
        <ele>670</ele>
        <time>2013-08-19T13:09:25Z</time>
      </trkpt>
      <trkpt lat="46.2156" lon="4.41177">
        <ele>670</ele>
        <time>2013-08-19T13:09:26Z</time>
      </trkpt>
      <trkpt lat="46.2156" lon="4.41185">
        <ele>670</ele>
        <time>2013-08-19T13:09:30Z</time>
      </trkpt>
      <trkpt lat="46.21558" lon="4.41191">
        <ele>669</ele>
        <time>2013-08-19T13:09:32Z</time>
      </trkpt>
      <trkpt lat="46.21553" lon="4.41199">
        <ele>669</ele>
        <time>2013-08-19T13:09:39Z</time>
      </trkpt>
      <trkpt lat="46.21551" lon="4.41207">
        <ele>669</ele>
        <time>2013-08-19T13:09:45Z</time>
      </trkpt>
      <trkpt lat="46.21548" lon="4.41216">
        <ele>668</ele>
        <time>2013-08-19T13:09:51Z</time>
      </trkpt>
      <trkpt lat="46.21546" lon="4.41223">
        <ele>668</ele>
        <time>2013-08-19T13:09:56Z</time>
      </trkpt>
      <trkpt lat="46.21544" lon="4.41226">
        <ele>668</ele>
        <time>2013-08-19T13:09:58Z</time>
      </trkpt>
      <trkpt lat="46.21539" lon="4.41237">
        <ele>668</ele>
        <time>2013-08-19T13:10:04Z</time>
      </trkpt>
      <trkpt lat="46.21538" lon="4.41239">
        <ele>668</ele>
        <time>2013-08-19T13:10:05Z</time>
      </trkpt>
      <trkpt lat="46.21533" lon="4.41246">
        <ele>668</ele>
        <time>2013-08-19T13:10:08Z</time>
      </trkpt>
      <trkpt lat="46.21533" lon="4.41248">
        <ele>668</ele>
        <time>2013-08-19T13:10:09Z</time>
      </trkpt>
      <trkpt lat="46.21531" lon="4.41252">
        <ele>663</ele>
        <time>2013-08-19T13:10:10Z</time>
      </trkpt>
      <trkpt lat="46.21529" lon="4.41258">
        <ele>663</ele>
        <time>2013-08-19T13:10:14Z</time>
      </trkpt>
      <trkpt lat="46.21529" lon="4.41259">
        <ele>663</ele>
        <time>2013-08-19T13:10:16Z</time>
      </trkpt>
      <trkpt lat="46.21528" lon="4.41265">
        <ele>663</ele>
        <time>2013-08-19T13:10:21Z</time>
      </trkpt>
      <trkpt lat="46.21526" lon="4.41269">
        <ele>663</ele>
        <time>2013-08-19T13:10:23Z</time>
      </trkpt>
      <trkpt lat="46.21525" lon="4.4127">
        <ele>663</ele>
        <time>2013-08-19T13:10:24Z</time>
      </trkpt>
      <trkpt lat="46.21521" lon="4.41281">
        <ele>662</ele>
        <time>2013-08-19T13:10:30Z</time>
      </trkpt>
      <trkpt lat="46.21519" lon="4.41286">
        <ele>662</ele>
        <time>2013-08-19T13:10:33Z</time>
      </trkpt>
      <trkpt lat="46.21517" lon="4.41292">
        <ele>662</ele>
        <time>2013-08-19T13:10:36Z</time>
      </trkpt>
      <trkpt lat="46.21515" lon="4.41292">
        <ele>662</ele>
        <time>2013-08-19T13:10:38Z</time>
      </trkpt>
      <trkpt lat="46.21514" lon="4.41294">
        <ele>662</ele>
        <time>2013-08-19T13:10:39Z</time>
      </trkpt>
      <trkpt lat="46.21513" lon="4.41296">
        <ele>662</ele>
        <time>2013-08-19T13:10:41Z</time>
      </trkpt>
      <trkpt lat="46.2151" lon="4.41301">
        <ele>662</ele>
        <time>2013-08-19T13:10:45Z</time>
      </trkpt>
      <trkpt lat="46.21508" lon="4.41302">
        <ele>662</ele>
        <time>2013-08-19T13:10:46Z</time>
      </trkpt>
      <trkpt lat="46.21508" lon="4.41304">
        <ele>662</ele>
        <time>2013-08-19T13:10:47Z</time>
      </trkpt>
      <trkpt lat="46.21504" lon="4.41311">
        <ele>662</ele>
        <time>2013-08-19T13:10:53Z</time>
      </trkpt>
      <trkpt lat="46.21503" lon="4.41314">
        <ele>662</ele>
        <time>2013-08-19T13:10:57Z</time>
      </trkpt>
      <trkpt lat="46.21502" lon="4.41316">
        <ele>662</ele>
        <time>2013-08-19T13:10:59Z</time>
      </trkpt>
      <trkpt lat="46.21501" lon="4.41318">
        <ele>662</ele>
        <time>2013-08-19T13:11:01Z</time>
      </trkpt>
      <trkpt lat="46.21497" lon="4.41322">
        <ele>664</ele>
        <time>2013-08-19T13:11:04Z</time>
      </trkpt>
      <trkpt lat="46.21496" lon="4.41323">
        <ele>664</ele>
        <time>2013-08-19T13:11:05Z</time>
      </trkpt>
      <trkpt lat="46.21488" lon="4.4133">
        <ele>664</ele>
        <time>2013-08-19T13:11:10Z</time>
      </trkpt>
      <trkpt lat="46.21487" lon="4.41332">
        <ele>664</ele>
        <time>2013-08-19T13:11:11Z</time>
      </trkpt>
      <trkpt lat="46.21479" lon="4.41338">
        <ele>662</ele>
        <time>2013-08-19T13:11:17Z</time>
      </trkpt>
      <trkpt lat="46.21476" lon="4.4134">
        <ele>662</ele>
        <time>2013-08-19T13:11:22Z</time>
      </trkpt>
      <trkpt lat="46.21473" lon="4.41341">
        <ele>662</ele>
        <time>2013-08-19T13:11:26Z</time>
      </trkpt>
      <trkpt lat="46.2147" lon="4.41341">
        <ele>662</ele>
        <time>2013-08-19T13:11:28Z</time>
      </trkpt>
      <trkpt lat="46.21468" lon="4.41341">
        <ele>662</ele>
        <time>2013-08-19T13:11:30Z</time>
      </trkpt>
      <trkpt lat="46.21467" lon="4.41338">
        <ele>663</ele>
        <time>2013-08-19T13:11:34Z</time>
      </trkpt>
      <trkpt lat="46.21466" lon="4.41339">
        <ele>663</ele>
        <time>2013-08-19T13:11:35Z</time>
      </trkpt>
      <trkpt lat="46.21459" lon="4.41345">
        <ele>663</ele>
        <time>2013-08-19T13:11:43Z</time>
      </trkpt>
      <trkpt lat="46.21456" lon="4.41351">
        <ele>663</ele>
        <time>2013-08-19T13:11:47Z</time>
      </trkpt>
      <trkpt lat="46.21454" lon="4.41352">
        <ele>663</ele>
        <time>2013-08-19T13:11:48Z</time>
      </trkpt>
      <trkpt lat="46.21451" lon="4.41353">
        <ele>663</ele>
        <time>2013-08-19T13:11:52Z</time>
      </trkpt>
      <trkpt lat="46.2145" lon="4.41353">
        <ele>663</ele>
        <time>2013-08-19T13:11:53Z</time>
      </trkpt>
      <trkpt lat="46.21442" lon="4.41357">
        <ele>663</ele>
        <time>2013-08-19T13:12:00Z</time>
      </trkpt>
      <trkpt lat="46.21441" lon="4.41358">
        <ele>663</ele>
        <time>2013-08-19T13:12:01Z</time>
      </trkpt>
      <trkpt lat="46.21438" lon="4.41363">
        <ele>663</ele>
        <time>2013-08-19T13:12:03Z</time>
      </trkpt>
      <trkpt lat="46.21435" lon="4.41364">
        <ele>663</ele>
        <time>2013-08-19T13:12:05Z</time>
      </trkpt>
      <trkpt lat="46.21432" lon="4.41366">
        <ele>663</ele>
        <time>2013-08-19T13:12:08Z</time>
      </trkpt>
      <trkpt lat="46.2143" lon="4.41367">
        <ele>663</ele>
        <time>2013-08-19T13:12:12Z</time>
      </trkpt>
      <trkpt lat="46.21424" lon="4.41369">
        <ele>663</ele>
        <time>2013-08-19T13:12:17Z</time>
      </trkpt>
      <trkpt lat="46.21421" lon="4.41371">
        <ele>663</ele>
        <time>2013-08-19T13:12:19Z</time>
      </trkpt>
      <trkpt lat="46.2142" lon="4.4137">
        <ele>663</ele>
        <time>2013-08-19T13:12:20Z</time>
      </trkpt>
      <trkpt lat="46.21416" lon="4.41371">
        <ele>664</ele>
        <time>2013-08-19T13:12:23Z</time>
      </trkpt>
      <trkpt lat="46.21413" lon="4.41372">
        <ele>664</ele>
        <time>2013-08-19T13:12:25Z</time>
      </trkpt>
      <trkpt lat="46.21404" lon="4.41381">
        <ele>664</ele>
        <time>2013-08-19T13:12:31Z</time>
      </trkpt>
      <trkpt lat="46.21399" lon="4.4138">
        <ele>663</ele>
        <time>2013-08-19T13:12:36Z</time>
      </trkpt>
      <trkpt lat="46.21399" lon="4.4138">
        <ele>663</ele>
        <time>2013-08-19T13:12:37Z</time>
      </trkpt>
      <trkpt lat="46.21395" lon="4.41377">
        <ele>663</ele>
        <time>2013-08-19T13:12:41Z</time>
      </trkpt>
      <trkpt lat="46.21393" lon="4.41375">
        <ele>663</ele>
        <time>2013-08-19T13:12:43Z</time>
      </trkpt>
      <trkpt lat="46.2139" lon="4.41376">
        <ele>663</ele>
        <time>2013-08-19T13:12:45Z</time>
      </trkpt>
      <trkpt lat="46.21389" lon="4.41377">
        <ele>663</ele>
        <time>2013-08-19T13:12:46Z</time>
      </trkpt>
      <trkpt lat="46.21388" lon="4.41378">
        <ele>663</ele>
        <time>2013-08-19T13:12:47Z</time>
      </trkpt>
      <trkpt lat="46.21386" lon="4.41379">
        <ele>663</ele>
        <time>2013-08-19T13:12:48Z</time>
      </trkpt>
      <trkpt lat="46.21379" lon="4.41381">
        <ele>662</ele>
        <time>2013-08-19T13:12:54Z</time>
      </trkpt>
      <trkpt lat="46.21378" lon="4.41381">
        <ele>662</ele>
        <time>2013-08-19T13:12:55Z</time>
      </trkpt>
      <trkpt lat="46.21375" lon="4.41383">
        <ele>662</ele>
        <time>2013-08-19T13:12:58Z</time>
      </trkpt>
      <trkpt lat="46.21373" lon="4.41384">
        <ele>662</ele>
        <time>2013-08-19T13:13:00Z</time>
      </trkpt>
      <trkpt lat="46.2137" lon="4.41386">
        <ele>662</ele>
        <time>2013-08-19T13:13:02Z</time>
      </trkpt>
      <trkpt lat="46.21369" lon="4.41386">
        <ele>662</ele>
        <time>2013-08-19T13:13:03Z</time>
      </trkpt>
      <trkpt lat="46.21367" lon="4.41387">
        <ele>662</ele>
        <time>2013-08-19T13:13:04Z</time>
      </trkpt>
      <trkpt lat="46.21364" lon="4.41389">
        <ele>662</ele>
        <time>2013-08-19T13:13:06Z</time>
      </trkpt>
      <trkpt lat="46.21356" lon="4.41394">
        <ele>661</ele>
        <time>2013-08-19T13:13:14Z</time>
      </trkpt>
      <trkpt lat="46.21355" lon="4.41394">
        <ele>661</ele>
        <time>2013-08-19T13:13:15Z</time>
      </trkpt>
      <trkpt lat="46.21353" lon="4.41396">
        <ele>661</ele>
        <time>2013-08-19T13:13:17Z</time>
      </trkpt>
      <trkpt lat="46.21351" lon="4.41397">
        <ele>661</ele>
        <time>2013-08-19T13:13:19Z</time>
      </trkpt>
      <trkpt lat="46.2135" lon="4.41399">
        <ele>661</ele>
        <time>2013-08-19T13:13:20Z</time>
      </trkpt>
      <trkpt lat="46.21349" lon="4.41401">
        <ele>661</ele>
        <time>2013-08-19T13:13:22Z</time>
      </trkpt>
      <trkpt lat="46.21352" lon="4.41401">
        <ele>661</ele>
        <time>2013-08-19T13:13:28Z</time>
      </trkpt>
      <trkpt lat="46.21346" lon="4.41405">
        <ele>660</ele>
        <time>2013-08-19T13:13:37Z</time>
      </trkpt>
      <trkpt lat="46.21344" lon="4.41407">
        <ele>660</ele>
        <time>2013-08-19T13:13:42Z</time>
      </trkpt>
      <trkpt lat="46.21341" lon="4.4141">
        <ele>659</ele>
        <time>2013-08-19T13:13:45Z</time>
      </trkpt>
      <trkpt lat="46.2134" lon="4.41412">
        <ele>659</ele>
        <time>2013-08-19T13:13:46Z</time>
      </trkpt>
      <trkpt lat="46.21333" lon="4.41417">
        <ele>658</ele>
        <time>2013-08-19T13:13:50Z</time>
      </trkpt>
      <trkpt lat="46.21332" lon="4.41417">
        <ele>658</ele>
        <time>2013-08-19T13:13:52Z</time>
      </trkpt>
      <trkpt lat="46.21329" lon="4.41417">
        <ele>657</ele>
        <time>2013-08-19T13:13:55Z</time>
      </trkpt>
      <trkpt lat="46.21327" lon="4.4142">
        <ele>657</ele>
        <time>2013-08-19T13:13:57Z</time>
      </trkpt>
      <trkpt lat="46.21324" lon="4.41424">
        <ele>656</ele>
        <time>2013-08-19T13:14:00Z</time>
      </trkpt>
      <trkpt lat="46.21323" lon="4.41425">
        <ele>655</ele>
        <time>2013-08-19T13:14:01Z</time>
      </trkpt>
      <trkpt lat="46.21318" lon="4.4143">
        <ele>655</ele>
        <time>2013-08-19T13:14:06Z</time>
      </trkpt>
      <trkpt lat="46.21314" lon="4.41438">
        <ele>654</ele>
        <time>2013-08-19T13:14:12Z</time>
      </trkpt>
      <trkpt lat="46.21313" lon="4.41439">
        <ele>654</ele>
        <time>2013-08-19T13:14:13Z</time>
      </trkpt>
      <trkpt lat="46.2131" lon="4.41444">
        <ele>653</ele>
        <time>2013-08-19T13:14:17Z</time>
      </trkpt>
      <trkpt lat="46.2131" lon="4.41445">
        <ele>653</ele>
        <time>2013-08-19T13:14:18Z</time>
      </trkpt>
      <trkpt lat="46.2131" lon="4.4145">
        <ele>653</ele>
        <time>2013-08-19T13:14:21Z</time>
      </trkpt>
      <trkpt lat="46.21309" lon="4.41455">
        <ele>653</ele>
        <time>2013-08-19T13:14:23Z</time>
      </trkpt>
      <trkpt lat="46.21303" lon="4.41467">
        <ele>653</ele>
        <time>2013-08-19T13:14:31Z</time>
      </trkpt>
      <trkpt lat="46.21302" lon="4.4147">
        <ele>653</ele>
        <time>2013-08-19T13:14:32Z</time>
      </trkpt>
      <trkpt lat="46.213" lon="4.41478">
        <ele>653</ele>
        <time>2013-08-19T13:14:36Z</time>
      </trkpt>
      <trkpt lat="46.21301" lon="4.41478">
        <ele>653</ele>
        <time>2013-08-19T13:14:37Z</time>
      </trkpt>
      <trkpt lat="46.21297" lon="4.4149">
        <ele>652</ele>
        <time>2013-08-19T13:14:43Z</time>
      </trkpt>
      <trkpt lat="46.21296" lon="4.41493">
        <ele>652</ele>
        <time>2013-08-19T13:14:44Z</time>
      </trkpt>
      <trkpt lat="46.2129" lon="4.41503">
        <ele>651</ele>
        <time>2013-08-19T13:14:49Z</time>
      </trkpt>
      <trkpt lat="46.21288" lon="4.41509">
        <ele>651</ele>
        <time>2013-08-19T13:14:54Z</time>
      </trkpt>
      <trkpt lat="46.21286" lon="4.41512">
        <ele>650</ele>
        <time>2013-08-19T13:14:56Z</time>
      </trkpt>
      <trkpt lat="46.21285" lon="4.41513">
        <ele>650</ele>
        <time>2013-08-19T13:14:57Z</time>
      </trkpt>
      <trkpt lat="46.21283" lon="4.41516">
        <ele>650</ele>
        <time>2013-08-19T13:14:59Z</time>
      </trkpt>
      <trkpt lat="46.2128" lon="4.4152">
        <ele>650</ele>
        <time>2013-08-19T13:15:02Z</time>
      </trkpt>
      <trkpt lat="46.21279" lon="4.41526">
        <ele>650</ele>
        <time>2013-08-19T13:15:05Z</time>
      </trkpt>
      <trkpt lat="46.21274" lon="4.41535">
        <ele>649</ele>
        <time>2013-08-19T13:15:10Z</time>
      </trkpt>
      <trkpt lat="46.21273" lon="4.41536">
        <ele>649</ele>
        <time>2013-08-19T13:15:11Z</time>
      </trkpt>
      <trkpt lat="46.21271" lon="4.41542">
        <ele>649</ele>
        <time>2013-08-19T13:15:15Z</time>
      </trkpt>
      <trkpt lat="46.2127" lon="4.41546">
        <ele>649</ele>
        <time>2013-08-19T13:15:17Z</time>
      </trkpt>
      <trkpt lat="46.21268" lon="4.41549">
        <ele>649</ele>
        <time>2013-08-19T13:15:19Z</time>
      </trkpt>
      <trkpt lat="46.21267" lon="4.41554">
        <ele>649</ele>
        <time>2013-08-19T13:15:22Z</time>
      </trkpt>
      <trkpt lat="46.21267" lon="4.41555">
        <ele>649</ele>
        <time>2013-08-19T13:15:23Z</time>
      </trkpt>
      <trkpt lat="46.21266" lon="4.41558">
        <ele>649</ele>
        <time>2013-08-19T13:15:27Z</time>
      </trkpt>
      <trkpt lat="46.21265" lon="4.41568">
        <ele>648</ele>
        <time>2013-08-19T13:15:32Z</time>
      </trkpt>
      <trkpt lat="46.21258" lon="4.41583">
        <ele>646</ele>
        <time>2013-08-19T13:15:38Z</time>
      </trkpt>
      <trkpt lat="46.21257" lon="4.41587">
        <ele>646</ele>
        <time>2013-08-19T13:15:41Z</time>
      </trkpt>
      <trkpt lat="46.21257" lon="4.41597">
        <ele>646</ele>
        <time>2013-08-19T13:15:47Z</time>
      </trkpt>
      <trkpt lat="46.21255" lon="4.41607">
        <ele>647</ele>
        <time>2013-08-19T13:15:54Z</time>
      </trkpt>
      <trkpt lat="46.21255" lon="4.41609">
        <ele>647</ele>
        <time>2013-08-19T13:15:55Z</time>
      </trkpt>
      <trkpt lat="46.21256" lon="4.41611">
        <ele>647</ele>
        <time>2013-08-19T13:15:56Z</time>
      </trkpt>
      <trkpt lat="46.21258" lon="4.41616">
        <ele>647</ele>
        <time>2013-08-19T13:15:59Z</time>
      </trkpt>
      <trkpt lat="46.21258" lon="4.4162">
        <ele>647</ele>
        <time>2013-08-19T13:16:01Z</time>
      </trkpt>
      <trkpt lat="46.21259" lon="4.41625">
        <ele>648</ele>
        <time>2013-08-19T13:16:04Z</time>
      </trkpt>
      <trkpt lat="46.21252" lon="4.41633">
        <ele>648</ele>
        <time>2013-08-19T13:16:10Z</time>
      </trkpt>
      <trkpt lat="46.21251" lon="4.41636">
        <ele>648</ele>
        <time>2013-08-19T13:16:12Z</time>
      </trkpt>
      <trkpt lat="46.21246" lon="4.41649">
        <ele>647</ele>
        <time>2013-08-19T13:16:19Z</time>
      </trkpt>
      <trkpt lat="46.21242" lon="4.41655">
        <ele>648</ele>
        <time>2013-08-19T13:16:24Z</time>
      </trkpt>
      <trkpt lat="46.21242" lon="4.41656">
        <ele>648</ele>
        <time>2013-08-19T13:16:25Z</time>
      </trkpt>
      <trkpt lat="46.21241" lon="4.41663">
        <ele>649</ele>
        <time>2013-08-19T13:16:29Z</time>
      </trkpt>
      <trkpt lat="46.2124" lon="4.41665">
        <ele>648</ele>
        <time>2013-08-19T13:16:30Z</time>
      </trkpt>
      <trkpt lat="46.21235" lon="4.41676">
        <ele>650</ele>
        <time>2013-08-19T13:16:36Z</time>
      </trkpt>
      <trkpt lat="46.21234" lon="4.41679">
        <ele>649</ele>
        <time>2013-08-19T13:16:38Z</time>
      </trkpt>
      <trkpt lat="46.21229" lon="4.41689">
        <ele>649</ele>
        <time>2013-08-19T13:16:43Z</time>
      </trkpt>
      <trkpt lat="46.21223" lon="4.41702">
        <ele>649</ele>
        <time>2013-08-19T13:16:49Z</time>
      </trkpt>
      <trkpt lat="46.21216" lon="4.41716">
        <ele>649</ele>
        <time>2013-08-19T13:16:55Z</time>
      </trkpt>
      <trkpt lat="46.21213" lon="4.41722">
        <ele>649</ele>
        <time>2013-08-19T13:17:01Z</time>
      </trkpt>
      <trkpt lat="46.21212" lon="4.41724">
        <ele>649</ele>
        <time>2013-08-19T13:17:02Z</time>
      </trkpt>
      <trkpt lat="46.21202" lon="4.41737">
        <ele>648</ele>
        <time>2013-08-19T13:17:09Z</time>
      </trkpt>
      <trkpt lat="46.21199" lon="4.41743">
        <ele>648</ele>
        <time>2013-08-19T13:17:12Z</time>
      </trkpt>
      <trkpt lat="46.21197" lon="4.41747">
        <ele>648</ele>
        <time>2013-08-19T13:17:15Z</time>
      </trkpt>
      <trkpt lat="46.21197" lon="4.41749">
        <ele>648</ele>
        <time>2013-08-19T13:17:16Z</time>
      </trkpt>
      <trkpt lat="46.21195" lon="4.41754">
        <ele>649</ele>
        <time>2013-08-19T13:17:23Z</time>
      </trkpt>
      <trkpt lat="46.21195" lon="4.41757">
        <ele>649</ele>
        <time>2013-08-19T13:17:25Z</time>
      </trkpt>
      <trkpt lat="46.21191" lon="4.41764">
        <ele>649</ele>
        <time>2013-08-19T13:17:30Z</time>
      </trkpt>
      <trkpt lat="46.2119" lon="4.41766">
        <ele>649</ele>
        <time>2013-08-19T13:17:33Z</time>
      </trkpt>
      <trkpt lat="46.21188" lon="4.41771">
        <ele>649</ele>
        <time>2013-08-19T13:17:37Z</time>
      </trkpt>
      <trkpt lat="46.21182" lon="4.41784">
        <ele>649</ele>
        <time>2013-08-19T13:17:44Z</time>
      </trkpt>
      <trkpt lat="46.21179" lon="4.41787">
        <ele>649</ele>
        <time>2013-08-19T13:17:47Z</time>
      </trkpt>
      <trkpt lat="46.21179" lon="4.41788">
        <ele>649</ele>
        <time>2013-08-19T13:17:48Z</time>
      </trkpt>
      <trkpt lat="46.21177" lon="4.4179">
        <ele>649</ele>
        <time>2013-08-19T13:17:50Z</time>
      </trkpt>
      <trkpt lat="46.21171" lon="4.418">
        <ele>649</ele>
        <time>2013-08-19T13:17:56Z</time>
      </trkpt>
      <trkpt lat="46.21169" lon="4.41802">
        <ele>649</ele>
        <time>2013-08-19T13:17:58Z</time>
      </trkpt>
      <trkpt lat="46.21167" lon="4.41808">
        <ele>649</ele>
        <time>2013-08-19T13:18:01Z</time>
      </trkpt>
      <trkpt lat="46.21166" lon="4.41811">
        <ele>639</ele>
        <time>2013-08-19T13:18:02Z</time>
      </trkpt>
      <trkpt lat="46.21163" lon="4.41818">
        <ele>640</ele>
        <time>2013-08-19T13:18:08Z</time>
      </trkpt>
      <trkpt lat="46.2116" lon="4.41819">
        <ele>640</ele>
        <time>2013-08-19T13:18:12Z</time>
      </trkpt>
      <trkpt lat="46.21161" lon="4.4182">
        <ele>640</ele>
        <time>2013-08-19T13:18:13Z</time>
      </trkpt>
      <trkpt lat="46.21161" lon="4.41823">
        <ele>641</ele>
        <time>2013-08-19T13:18:16Z</time>
      </trkpt>
      <trkpt lat="46.21159" lon="4.41826">
        <ele>642</ele>
        <time>2013-08-19T13:18:20Z</time>
      </trkpt>
      <trkpt lat="46.21158" lon="4.41827">
        <ele>642</ele>
        <time>2013-08-19T13:18:21Z</time>
      </trkpt>
      <trkpt lat="46.21155" lon="4.41832">
        <ele>641</ele>
        <time>2013-08-19T13:18:26Z</time>
      </trkpt>
      <trkpt lat="46.21152" lon="4.41839">
        <ele>640</ele>
        <time>2013-08-19T13:18:30Z</time>
      </trkpt>
      <trkpt lat="46.21151" lon="4.41841">
        <ele>640</ele>
        <time>2013-08-19T13:18:31Z</time>
      </trkpt>
      <trkpt lat="46.21147" lon="4.41848">
        <ele>638</ele>
        <time>2013-08-19T13:18:35Z</time>
      </trkpt>
      <trkpt lat="46.21146" lon="4.41851">
        <ele>638</ele>
        <time>2013-08-19T13:18:37Z</time>
      </trkpt>
      <trkpt lat="46.21146" lon="4.41852">
        <ele>637</ele>
        <time>2013-08-19T13:18:38Z</time>
      </trkpt>
      <trkpt lat="46.21142" lon="4.41863">
        <ele>636</ele>
        <time>2013-08-19T13:18:44Z</time>
      </trkpt>
      <trkpt lat="46.21138" lon="4.41871">
        <ele>636</ele>
        <time>2013-08-19T13:18:50Z</time>
      </trkpt>
      <trkpt lat="46.21137" lon="4.41874">
        <ele>635</ele>
        <time>2013-08-19T13:18:51Z</time>
      </trkpt>
      <trkpt lat="46.21136" lon="4.41873">
        <ele>635</ele>
        <time>2013-08-19T13:18:56Z</time>
      </trkpt>
      <trkpt lat="46.21132" lon="4.41878">
        <ele>635</ele>
        <time>2013-08-19T13:19:03Z</time>
      </trkpt>
      <trkpt lat="46.21132" lon="4.4188">
        <ele>635</ele>
        <time>2013-08-19T13:19:04Z</time>
      </trkpt>
      <trkpt lat="46.21128" lon="4.41884">
        <ele>634</ele>
        <time>2013-08-19T13:19:09Z</time>
      </trkpt>
      <trkpt lat="46.21127" lon="4.41885">
        <ele>634</ele>
        <time>2013-08-19T13:19:10Z</time>
      </trkpt>
      <trkpt lat="46.21126" lon="4.41888">
        <ele>634</ele>
        <time>2013-08-19T13:19:17Z</time>
      </trkpt>
      <trkpt lat="46.21124" lon="4.41884">
        <ele>634</ele>
        <time>2013-08-19T13:19:48Z</time>
      </trkpt>
      <trkpt lat="46.21124" lon="4.41885">
        <ele>634</ele>
        <time>2013-08-19T13:19:54Z</time>
      </trkpt>
      <trkpt lat="46.21124" lon="4.41889">
        <ele>634</ele>
        <time>2013-08-19T13:20:07Z</time>
      </trkpt>
      <trkpt lat="46.21122" lon="4.41892">
        <ele>634</ele>
        <time>2013-08-19T13:20:09Z</time>
      </trkpt>
      <trkpt lat="46.2112" lon="4.41895">
        <ele>633</ele>
        <time>2013-08-19T13:20:11Z</time>
      </trkpt>
      <trkpt lat="46.2112" lon="4.41896">
        <ele>633</ele>
        <time>2013-08-19T13:20:12Z</time>
      </trkpt>
      <trkpt lat="46.21118" lon="4.41898">
        <ele>633</ele>
        <time>2013-08-19T13:20:14Z</time>
      </trkpt>
      <trkpt lat="46.21114" lon="4.41905">
        <ele>633</ele>
        <time>2013-08-19T13:20:19Z</time>
      </trkpt>
      <trkpt lat="46.21114" lon="4.41907">
        <ele>633</ele>
        <time>2013-08-19T13:20:20Z</time>
      </trkpt>
      <trkpt lat="46.21111" lon="4.41913">
        <ele>632</ele>
        <time>2013-08-19T13:20:25Z</time>
      </trkpt>
      <trkpt lat="46.21105" lon="4.41922">
        <ele>631</ele>
        <time>2013-08-19T13:20:31Z</time>
      </trkpt>
      <trkpt lat="46.21103" lon="4.41925">
        <ele>631</ele>
        <time>2013-08-19T13:20:34Z</time>
      </trkpt>
      <trkpt lat="46.21102" lon="4.41925">
        <ele>631</ele>
        <time>2013-08-19T13:20:35Z</time>
      </trkpt>
      <trkpt lat="46.211" lon="4.41928">
        <ele>630</ele>
        <time>2013-08-19T13:20:38Z</time>
      </trkpt>
      <trkpt lat="46.21098" lon="4.4193">
        <ele>630</ele>
        <time>2013-08-19T13:20:41Z</time>
      </trkpt>
      <trkpt lat="46.21096" lon="4.41931">
        <ele>630</ele>
        <time>2013-08-19T13:20:42Z</time>
      </trkpt>
      <trkpt lat="46.21093" lon="4.41935">
        <ele>630</ele>
        <time>2013-08-19T13:20:45Z</time>
      </trkpt>
      <trkpt lat="46.21087" lon="4.41939">
        <ele>630</ele>
        <time>2013-08-19T13:20:50Z</time>
      </trkpt>
      <trkpt lat="46.21085" lon="4.4194">
        <ele>630</ele>
        <time>2013-08-19T13:20:51Z</time>
      </trkpt>
      <trkpt lat="46.21084" lon="4.41941">
        <ele>630</ele>
        <time>2013-08-19T13:20:52Z</time>
      </trkpt>
      <trkpt lat="46.2108" lon="4.41943">
        <ele>624</ele>
        <time>2013-08-19T13:20:55Z</time>
      </trkpt>
      <trkpt lat="46.21075" lon="4.41945">
        <ele>624</ele>
        <time>2013-08-19T13:21:00Z</time>
      </trkpt>
      <trkpt lat="46.21074" lon="4.41947">
        <ele>624</ele>
        <time>2013-08-19T13:21:01Z</time>
      </trkpt>
      <trkpt lat="46.2107" lon="4.41951">
        <ele>623</ele>
        <time>2013-08-19T13:21:05Z</time>
      </trkpt>
      <trkpt lat="46.21067" lon="4.41954">
        <ele>623</ele>
        <time>2013-08-19T13:21:09Z</time>
      </trkpt>
      <trkpt lat="46.21065" lon="4.41954">
        <ele>623</ele>
        <time>2013-08-19T13:21:11Z</time>
      </trkpt>
      <trkpt lat="46.21059" lon="4.41958">
        <ele>623</ele>
        <time>2013-08-19T13:21:15Z</time>
      </trkpt>
      <trkpt lat="46.21052" lon="4.41958">
        <ele>623</ele>
        <time>2013-08-19T13:21:21Z</time>
      </trkpt>
      <trkpt lat="46.21051" lon="4.41958">
        <ele>623</ele>
        <time>2013-08-19T13:21:22Z</time>
      </trkpt>
      <trkpt lat="46.21047" lon="4.4196">
        <ele>622</ele>
        <time>2013-08-19T13:21:27Z</time>
      </trkpt>
      <trkpt lat="46.21043" lon="4.41963">
        <ele>622</ele>
        <time>2013-08-19T13:21:31Z</time>
      </trkpt>
      <trkpt lat="46.21039" lon="4.41967">
        <ele>622</ele>
        <time>2013-08-19T13:21:34Z</time>
      </trkpt>
      <trkpt lat="46.21038" lon="4.41968">
        <ele>622</ele>
        <time>2013-08-19T13:21:35Z</time>
      </trkpt>
      <trkpt lat="46.21036" lon="4.4197">
        <ele>622</ele>
        <time>2013-08-19T13:21:37Z</time>
      </trkpt>
      <trkpt lat="46.21034" lon="4.41972">
        <ele>622</ele>
        <time>2013-08-19T13:21:39Z</time>
      </trkpt>
      <trkpt lat="46.21029" lon="4.41976">
        <ele>622</ele>
        <time>2013-08-19T13:21:45Z</time>
      </trkpt>
      <trkpt lat="46.21025" lon="4.41979">
        <ele>622</ele>
        <time>2013-08-19T13:21:49Z</time>
      </trkpt>
      <trkpt lat="46.21022" lon="4.41981">
        <ele>622</ele>
        <time>2013-08-19T13:21:51Z</time>
      </trkpt>
      <trkpt lat="46.2102" lon="4.41982">
        <ele>621</ele>
        <time>2013-08-19T13:21:53Z</time>
      </trkpt>
      <trkpt lat="46.21012" lon="4.4199">
        <ele>621</ele>
        <time>2013-08-19T13:21:57Z</time>
      </trkpt>
      <trkpt lat="46.2101" lon="4.41991">
        <ele>621</ele>
        <time>2013-08-19T13:21:59Z</time>
      </trkpt>
      <trkpt lat="46.21008" lon="4.41992">
        <ele>621</ele>
        <time>2013-08-19T13:22:01Z</time>
      </trkpt>
      <trkpt lat="46.21005" lon="4.41996">
        <ele>621</ele>
        <time>2013-08-19T13:22:04Z</time>
      </trkpt>
      <trkpt lat="46.21005" lon="4.41998">
        <ele>621</ele>
        <time>2013-08-19T13:22:05Z</time>
      </trkpt>
      <trkpt lat="46.21003" lon="4.42">
        <ele>621</ele>
        <time>2013-08-19T13:22:07Z</time>
      </trkpt>
      <trkpt lat="46.21001" lon="4.42003">
        <ele>621</ele>
        <time>2013-08-19T13:22:09Z</time>
      </trkpt>
      <trkpt lat="46.20998" lon="4.42008">
        <ele>618</ele>
        <time>2013-08-19T13:22:12Z</time>
      </trkpt>
      <trkpt lat="46.20998" lon="4.42009">
        <ele>617</ele>
        <time>2013-08-19T13:22:13Z</time>
      </trkpt>
      <trkpt lat="46.20994" lon="4.42016">
        <ele>615</ele>
        <time>2013-08-19T13:22:19Z</time>
      </trkpt>
      <trkpt lat="46.20992" lon="4.4202">
        <ele>614</ele>
        <time>2013-08-19T13:22:22Z</time>
      </trkpt>
      <trkpt lat="46.20992" lon="4.42022">
        <ele>614</ele>
        <time>2013-08-19T13:22:24Z</time>
      </trkpt>
      <trkpt lat="46.20989" lon="4.42028">
        <ele>613</ele>
        <time>2013-08-19T13:22:29Z</time>
      </trkpt>
      <trkpt lat="46.20988" lon="4.4203">
        <ele>613</ele>
        <time>2013-08-19T13:22:30Z</time>
      </trkpt>
      <trkpt lat="46.20988" lon="4.4204">
        <ele>612</ele>
        <time>2013-08-19T13:22:36Z</time>
      </trkpt>
      <trkpt lat="46.20986" lon="4.42044">
        <ele>612</ele>
        <time>2013-08-19T13:22:39Z</time>
      </trkpt>
      <trkpt lat="46.20985" lon="4.42047">
        <ele>612</ele>
        <time>2013-08-19T13:22:41Z</time>
      </trkpt>
      <trkpt lat="46.20985" lon="4.42048">
        <ele>612</ele>
        <time>2013-08-19T13:22:42Z</time>
      </trkpt>
      <trkpt lat="46.20981" lon="4.42058">
        <ele>612</ele>
        <time>2013-08-19T13:22:48Z</time>
      </trkpt>
      <trkpt lat="46.20977" lon="4.42071">
        <ele>611</ele>
        <time>2013-08-19T13:22:53Z</time>
      </trkpt>
      <trkpt lat="46.20974" lon="4.42077">
        <ele>611</ele>
        <time>2013-08-19T13:22:57Z</time>
      </trkpt>
      <trkpt lat="46.20972" lon="4.42079">
        <ele>611</ele>
        <time>2013-08-19T13:22:59Z</time>
      </trkpt>
      <trkpt lat="46.20971" lon="4.42081">
        <ele>611</ele>
        <time>2013-08-19T13:23:01Z</time>
      </trkpt>
      <trkpt lat="46.20968" lon="4.42085">
        <ele>609</ele>
        <time>2013-08-19T13:23:04Z</time>
      </trkpt>
      <trkpt lat="46.20967" lon="4.42086">
        <ele>609</ele>
        <time>2013-08-19T13:23:05Z</time>
      </trkpt>
      <trkpt lat="46.20964" lon="4.42091">
        <ele>608</ele>
        <time>2013-08-19T13:23:08Z</time>
      </trkpt>
      <trkpt lat="46.20964" lon="4.42092">
        <ele>608</ele>
        <time>2013-08-19T13:23:09Z</time>
      </trkpt>
      <trkpt lat="46.20961" lon="4.42095">
        <ele>608</ele>
        <time>2013-08-19T13:23:11Z</time>
      </trkpt>
      <trkpt lat="46.20952" lon="4.42104">
        <ele>607</ele>
        <time>2013-08-19T13:23:17Z</time>
      </trkpt>
      <trkpt lat="46.20949" lon="4.42107">
        <ele>607</ele>
        <time>2013-08-19T13:23:19Z</time>
      </trkpt>
      <trkpt lat="46.20942" lon="4.42114">
        <ele>606</ele>
        <time>2013-08-19T13:23:24Z</time>
      </trkpt>
      <trkpt lat="46.20938" lon="4.42114">
        <ele>606</ele>
        <time>2013-08-19T13:23:26Z</time>
      </trkpt>
      <trkpt lat="46.20937" lon="4.42115">
        <ele>606</ele>
        <time>2013-08-19T13:23:27Z</time>
      </trkpt>
      <trkpt lat="46.20936" lon="4.42115">
        <ele>606</ele>
        <time>2013-08-19T13:23:29Z</time>
      </trkpt>
      <trkpt lat="46.20933" lon="4.4212">
        <ele>605</ele>
        <time>2013-08-19T13:23:33Z</time>
      </trkpt>
      <trkpt lat="46.2093" lon="4.42123">
        <ele>605</ele>
        <time>2013-08-19T13:23:36Z</time>
      </trkpt>
      <trkpt lat="46.20928" lon="4.42126">
        <ele>605</ele>
        <time>2013-08-19T13:23:38Z</time>
      </trkpt>
      <trkpt lat="46.20926" lon="4.42131">
        <ele>605</ele>
        <time>2013-08-19T13:23:42Z</time>
      </trkpt>
      <trkpt lat="46.20922" lon="4.42138">
        <ele>604</ele>
        <time>2013-08-19T13:23:47Z</time>
      </trkpt>
      <trkpt lat="46.20921" lon="4.42138">
        <ele>604</ele>
        <time>2013-08-19T13:23:48Z</time>
      </trkpt>
      <trkpt lat="46.20917" lon="4.42141">
        <ele>604</ele>
        <time>2013-08-19T13:23:52Z</time>
      </trkpt>
      <trkpt lat="46.20914" lon="4.42143">
        <ele>598</ele>
        <time>2013-08-19T13:23:54Z</time>
      </trkpt>
      <trkpt lat="46.20912" lon="4.42145">
        <ele>598</ele>
        <time>2013-08-19T13:23:55Z</time>
      </trkpt>
      <trkpt lat="46.20905" lon="4.42152">
        <ele>598</ele>
        <time>2013-08-19T13:24:00Z</time>
      </trkpt>
      <trkpt lat="46.209" lon="4.42155">
        <ele>598</ele>
        <time>2013-08-19T13:24:04Z</time>
      </trkpt>
      <trkpt lat="46.20899" lon="4.42154">
        <ele>598</ele>
        <time>2013-08-19T13:24:06Z</time>
      </trkpt>
      <trkpt lat="46.20893" lon="4.42158">
        <ele>598</ele>
        <time>2013-08-19T13:24:12Z</time>
      </trkpt>
      <trkpt lat="46.20887" lon="4.42162">
        <ele>598</ele>
        <time>2013-08-19T13:24:17Z</time>
      </trkpt>
      <trkpt lat="46.20885" lon="4.42163">
        <ele>598</ele>
        <time>2013-08-19T13:24:19Z</time>
      </trkpt>
      <trkpt lat="46.20877" lon="4.42169">
        <ele>596</ele>
        <time>2013-08-19T13:24:27Z</time>
      </trkpt>
      <trkpt lat="46.20869" lon="4.42172">
        <ele>596</ele>
        <time>2013-08-19T13:24:33Z</time>
      </trkpt>
      <trkpt lat="46.20868" lon="4.42173">
        <ele>596</ele>
        <time>2013-08-19T13:24:34Z</time>
      </trkpt>
      <trkpt lat="46.20863" lon="4.42175">
        <ele>596</ele>
        <time>2013-08-19T13:24:39Z</time>
      </trkpt>
      <trkpt lat="46.20861" lon="4.42176">
        <ele>596</ele>
        <time>2013-08-19T13:24:40Z</time>
      </trkpt>
      <trkpt lat="46.20858" lon="4.42179">
        <ele>596</ele>
        <time>2013-08-19T13:24:43Z</time>
      </trkpt>
      <trkpt lat="46.20853" lon="4.42181">
        <ele>595</ele>
        <time>2013-08-19T13:24:47Z</time>
      </trkpt>
      <trkpt lat="46.20852" lon="4.42181">
        <ele>595</ele>
        <time>2013-08-19T13:24:48Z</time>
      </trkpt>
      <trkpt lat="46.20845" lon="4.42184">
        <ele>595</ele>
        <time>2013-08-19T13:24:54Z</time>
      </trkpt>
      <trkpt lat="46.20843" lon="4.42184">
        <ele>595</ele>
        <time>2013-08-19T13:25:01Z</time>
      </trkpt>
      <trkpt lat="46.20843" lon="4.42184">
        <ele>595</ele>
        <time>2013-08-19T13:25:02Z</time>
      </trkpt>
      <trkpt lat="46.20838" lon="4.42187">
        <ele>595</ele>
        <time>2013-08-19T13:25:06Z</time>
      </trkpt>
      <trkpt lat="46.20836" lon="4.42187">
        <ele>595</ele>
        <time>2013-08-19T13:25:07Z</time>
      </trkpt>
      <trkpt lat="46.20835" lon="4.42187">
        <ele>595</ele>
        <time>2013-08-19T13:25:08Z</time>
      </trkpt>
      <trkpt lat="46.20828" lon="4.42187">
        <ele>593</ele>
        <time>2013-08-19T13:25:14Z</time>
      </trkpt>
      <trkpt lat="46.20818" lon="4.42186">
        <ele>593</ele>
        <time>2013-08-19T13:25:22Z</time>
      </trkpt>
      <trkpt lat="46.20816" lon="4.42186">
        <ele>593</ele>
        <time>2013-08-19T13:25:23Z</time>
      </trkpt>
      <trkpt lat="46.20808" lon="4.42185">
        <ele>593</ele>
        <time>2013-08-19T13:25:31Z</time>
      </trkpt>
      <trkpt lat="46.208" lon="4.42184">
        <ele>593</ele>
        <time>2013-08-19T13:25:37Z</time>
      </trkpt>
      <trkpt lat="46.20798" lon="4.42183">
        <ele>592</ele>
        <time>2013-08-19T13:25:39Z</time>
      </trkpt>
      <trkpt lat="46.20793" lon="4.42183">
        <ele>592</ele>
        <time>2013-08-19T13:25:44Z</time>
      </trkpt>
      <trkpt lat="46.20788" lon="4.42182">
        <ele>592</ele>
        <time>2013-08-19T13:25:52Z</time>
      </trkpt>
      <trkpt lat="46.20783" lon="4.42183">
        <ele>592</ele>
        <time>2013-08-19T13:25:58Z</time>
      </trkpt>
      <trkpt lat="46.20779" lon="4.42182">
        <ele>592</ele>
        <time>2013-08-19T13:26:01Z</time>
      </trkpt>
      <trkpt lat="46.20774" lon="4.42181">
        <ele>592</ele>
        <time>2013-08-19T13:26:05Z</time>
      </trkpt>
      <trkpt lat="46.20766" lon="4.42179">
        <ele>592</ele>
        <time>2013-08-19T13:26:12Z</time>
      </trkpt>
      <trkpt lat="46.20762" lon="4.42179">
        <ele>592</ele>
        <time>2013-08-19T13:26:15Z</time>
      </trkpt>
      <trkpt lat="46.20756" lon="4.42178">
        <ele>592</ele>
        <time>2013-08-19T13:26:19Z</time>
      </trkpt>
      <trkpt lat="46.20744" lon="4.42174">
        <ele>592</ele>
        <time>2013-08-19T13:26:29Z</time>
      </trkpt>
      <trkpt lat="46.20734" lon="4.42172">
        <ele>593</ele>
        <time>2013-08-19T13:26:37Z</time>
      </trkpt>
      <trkpt lat="46.20725" lon="4.42169">
        <ele>594</ele>
        <time>2013-08-19T13:26:45Z</time>
      </trkpt>
      <trkpt lat="46.20723" lon="4.42169">
        <ele>594</ele>
        <time>2013-08-19T13:26:46Z</time>
      </trkpt>
      <trkpt lat="46.20714" lon="4.42167">
        <ele>594</ele>
        <time>2013-08-19T13:26:54Z</time>
      </trkpt>
      <trkpt lat="46.20709" lon="4.42169">
        <ele>595</ele>
        <time>2013-08-19T13:26:58Z</time>
      </trkpt>
      <trkpt lat="46.20706" lon="4.42167">
        <ele>595</ele>
        <time>2013-08-19T13:27:00Z</time>
      </trkpt>
      <trkpt lat="46.20705" lon="4.42166">
        <ele>592</ele>
        <time>2013-08-19T13:27:01Z</time>
      </trkpt>
      <trkpt lat="46.20704" lon="4.42165">
        <ele>592</ele>
        <time>2013-08-19T13:27:02Z</time>
      </trkpt>
      <trkpt lat="46.20698" lon="4.4216">
        <ele>592</ele>
        <time>2013-08-19T13:27:08Z</time>
      </trkpt>
      <trkpt lat="46.20691" lon="4.42156">
        <ele>593</ele>
        <time>2013-08-19T13:27:15Z</time>
      </trkpt>
      <trkpt lat="46.2069" lon="4.42155">
        <ele>593</ele>
        <time>2013-08-19T13:27:17Z</time>
      </trkpt>
      <trkpt lat="46.20684" lon="4.42152">
        <ele>593</ele>
        <time>2013-08-19T13:27:23Z</time>
      </trkpt>
      <trkpt lat="46.20684" lon="4.42151">
        <ele>593</ele>
        <time>2013-08-19T13:27:24Z</time>
      </trkpt>
      <trkpt lat="46.20684" lon="4.4215">
        <ele>593</ele>
        <time>2013-08-19T13:27:29Z</time>
      </trkpt>
      <trkpt lat="46.2068" lon="4.42146">
        <ele>593</ele>
        <time>2013-08-19T13:27:47Z</time>
      </trkpt>
      <trkpt lat="46.20676" lon="4.42144">
        <ele>593</ele>
        <time>2013-08-19T13:27:50Z</time>
      </trkpt>
      <trkpt lat="46.2067" lon="4.4214">
        <ele>593</ele>
        <time>2013-08-19T13:27:55Z</time>
      </trkpt>
      <trkpt lat="46.20663" lon="4.42129">
        <ele>600</ele>
        <time>2013-08-19T13:28:02Z</time>
      </trkpt>
      <trkpt lat="46.20662" lon="4.42127">
        <ele>600</ele>
        <time>2013-08-19T13:28:03Z</time>
      </trkpt>
      <trkpt lat="46.20653" lon="4.42122">
        <ele>600</ele>
        <time>2013-08-19T13:28:10Z</time>
      </trkpt>
      <trkpt lat="46.20649" lon="4.42117">
        <ele>600</ele>
        <time>2013-08-19T13:28:14Z</time>
      </trkpt>
      <trkpt lat="46.20646" lon="4.42115">
        <ele>600</ele>
        <time>2013-08-19T13:28:17Z</time>
      </trkpt>
      <trkpt lat="46.20645" lon="4.42114">
        <ele>600</ele>
        <time>2013-08-19T13:28:18Z</time>
      </trkpt>
      <trkpt lat="46.20635" lon="4.42109">
        <ele>601</ele>
        <time>2013-08-19T13:28:26Z</time>
      </trkpt>
      <trkpt lat="46.20629" lon="4.42101">
        <ele>601</ele>
        <time>2013-08-19T13:28:34Z</time>
      </trkpt>
      <trkpt lat="46.2062" lon="4.421">
        <ele>602</ele>
        <time>2013-08-19T13:28:41Z</time>
      </trkpt>
      <trkpt lat="46.20617" lon="4.42094">
        <ele>602</ele>
        <time>2013-08-19T13:28:46Z</time>
      </trkpt>
      <trkpt lat="46.20615" lon="4.42092">
        <ele>602</ele>
        <time>2013-08-19T13:28:48Z</time>
      </trkpt>
      <trkpt lat="46.20612" lon="4.4209">
        <ele>603</ele>
        <time>2013-08-19T13:28:50Z</time>
      </trkpt>
      <trkpt lat="46.20607" lon="4.42087">
        <ele>603</ele>
        <time>2013-08-19T13:28:54Z</time>
      </trkpt>
      <trkpt lat="46.20606" lon="4.42086">
        <ele>603</ele>
        <time>2013-08-19T13:28:55Z</time>
      </trkpt>
      <trkpt lat="46.20603" lon="4.42084">
        <ele>603</ele>
        <time>2013-08-19T13:28:58Z</time>
      </trkpt>
      <trkpt lat="46.20601" lon="4.42086">
        <ele>604</ele>
        <time>2013-08-19T13:29:00Z</time>
      </trkpt>
      <trkpt lat="46.20597" lon="4.42085">
        <ele>604</ele>
        <time>2013-08-19T13:29:03Z</time>
      </trkpt>
      <trkpt lat="46.20595" lon="4.42083">
        <ele>600</ele>
        <time>2013-08-19T13:29:06Z</time>
      </trkpt>
      <trkpt lat="46.20594" lon="4.42082">
        <ele>601</ele>
        <time>2013-08-19T13:29:07Z</time>
      </trkpt>
      <trkpt lat="46.20593" lon="4.4208">
        <ele>601</ele>
        <time>2013-08-19T13:29:08Z</time>
      </trkpt>
      <trkpt lat="46.20588" lon="4.42078">
        <ele>602</ele>
        <time>2013-08-19T13:29:13Z</time>
      </trkpt>
      <trkpt lat="46.20585" lon="4.42077">
        <ele>602</ele>
        <time>2013-08-19T13:29:16Z</time>
      </trkpt>
      <trkpt lat="46.20582" lon="4.42074">
        <ele>606</ele>
        <time>2013-08-19T13:29:20Z</time>
      </trkpt>
      <trkpt lat="46.20581" lon="4.42074">
        <ele>606</ele>
        <time>2013-08-19T13:29:21Z</time>
      </trkpt>
      <trkpt lat="46.20576" lon="4.42075">
        <ele>607</ele>
        <time>2013-08-19T13:29:24Z</time>
      </trkpt>
      <trkpt lat="46.20575" lon="4.42074">
        <ele>607</ele>
        <time>2013-08-19T13:29:25Z</time>
      </trkpt>
      <trkpt lat="46.20573" lon="4.42073">
        <ele>607</ele>
        <time>2013-08-19T13:29:27Z</time>
      </trkpt>
      <trkpt lat="46.20572" lon="4.42073">
        <ele>607</ele>
        <time>2013-08-19T13:29:29Z</time>
      </trkpt>
      <trkpt lat="46.20569" lon="4.4207">
        <ele>607</ele>
        <time>2013-08-19T13:29:34Z</time>
      </trkpt>
      <trkpt lat="46.20563" lon="4.42067">
        <ele>608</ele>
        <time>2013-08-19T13:29:40Z</time>
      </trkpt>
      <trkpt lat="46.20559" lon="4.42065">
        <ele>609</ele>
        <time>2013-08-19T13:29:44Z</time>
      </trkpt>
      <trkpt lat="46.20558" lon="4.42065">
        <ele>609</ele>
        <time>2013-08-19T13:29:45Z</time>
      </trkpt>
      <trkpt lat="46.20549" lon="4.42062">
        <ele>610</ele>
        <time>2013-08-19T13:29:53Z</time>
      </trkpt>
      <trkpt lat="46.2054" lon="4.4206">
        <ele>611</ele>
        <time>2013-08-19T13:30:00Z</time>
      </trkpt>
      <trkpt lat="46.20539" lon="4.4206">
        <ele>611</ele>
        <time>2013-08-19T13:30:01Z</time>
      </trkpt>
      <trkpt lat="46.20531" lon="4.42058">
        <ele>612</ele>
        <time>2013-08-19T13:30:08Z</time>
      </trkpt>
      <trkpt lat="46.20522" lon="4.4205">
        <ele>613</ele>
        <time>2013-08-19T13:30:16Z</time>
      </trkpt>
      <trkpt lat="46.20521" lon="4.42051">
        <ele>613</ele>
        <time>2013-08-19T13:30:17Z</time>
      </trkpt>
      <trkpt lat="46.20515" lon="4.42049">
        <ele>613</ele>
        <time>2013-08-19T13:30:24Z</time>
      </trkpt>
      <trkpt lat="46.20509" lon="4.42046">
        <ele>614</ele>
        <time>2013-08-19T13:30:31Z</time>
      </trkpt>
      <trkpt lat="46.20504" lon="4.42046">
        <ele>614</ele>
        <time>2013-08-19T13:30:36Z</time>
      </trkpt>
      <trkpt lat="46.205" lon="4.42044">
        <ele>626</ele>
        <time>2013-08-19T13:30:40Z</time>
      </trkpt>
      <trkpt lat="46.20498" lon="4.42043">
        <ele>626</ele>
        <time>2013-08-19T13:30:42Z</time>
      </trkpt>
      <trkpt lat="46.20494" lon="4.42042">
        <ele>626</ele>
        <time>2013-08-19T13:30:46Z</time>
      </trkpt>
      <trkpt lat="46.20492" lon="4.42042">
        <ele>626</ele>
        <time>2013-08-19T13:30:49Z</time>
      </trkpt>
      <trkpt lat="46.20489" lon="4.42042">
        <ele>626</ele>
        <time>2013-08-19T13:30:51Z</time>
      </trkpt>
      <trkpt lat="46.20485" lon="4.42041">
        <ele>626</ele>
        <time>2013-08-19T13:30:55Z</time>
      </trkpt>
      <trkpt lat="46.20484" lon="4.4204">
        <ele>626</ele>
        <time>2013-08-19T13:30:57Z</time>
      </trkpt>
      <trkpt lat="46.20482" lon="4.42041">
        <ele>626</ele>
        <time>2013-08-19T13:30:59Z</time>
      </trkpt>
      <trkpt lat="46.20477" lon="4.42041">
        <ele>627</ele>
        <time>2013-08-19T13:31:03Z</time>
      </trkpt>
      <trkpt lat="46.20472" lon="4.42043">
        <ele>628</ele>
        <time>2013-08-19T13:31:07Z</time>
      </trkpt>
      <trkpt lat="46.20472" lon="4.42044">
        <ele>628</ele>
        <time>2013-08-19T13:31:09Z</time>
      </trkpt>
      <trkpt lat="46.20467" lon="4.42044">
        <ele>628</ele>
        <time>2013-08-19T13:31:12Z</time>
      </trkpt>
      <trkpt lat="46.20465" lon="4.42045">
        <ele>628</ele>
        <time>2013-08-19T13:31:15Z</time>
      </trkpt>
      <trkpt lat="46.20455" lon="4.42044">
        <ele>629</ele>
        <time>2013-08-19T13:31:22Z</time>
      </trkpt>
      <trkpt lat="46.20449" lon="4.42046">
        <ele>630</ele>
        <time>2013-08-19T13:31:25Z</time>
      </trkpt>
      <trkpt lat="46.20444" lon="4.42048">
        <ele>631</ele>
        <time>2013-08-19T13:31:30Z</time>
      </trkpt>
      <trkpt lat="46.20438" lon="4.42053">
        <ele>632</ele>
        <time>2013-08-19T13:31:38Z</time>
      </trkpt>
      <trkpt lat="46.20436" lon="4.42055">
        <ele>632</ele>
        <time>2013-08-19T13:31:40Z</time>
      </trkpt>
      <trkpt lat="46.20432" lon="4.42057">
        <ele>632</ele>
        <time>2013-08-19T13:31:44Z</time>
      </trkpt>
      <trkpt lat="46.20431" lon="4.42058">
        <ele>633</ele>
        <time>2013-08-19T13:31:45Z</time>
      </trkpt>
      <trkpt lat="46.20426" lon="4.42061">
        <ele>634</ele>
        <time>2013-08-19T13:31:51Z</time>
      </trkpt>
      <trkpt lat="46.20418" lon="4.42063">
        <ele>634</ele>
        <time>2013-08-19T13:31:59Z</time>
      </trkpt>
      <trkpt lat="46.20415" lon="4.42062">
        <ele>635</ele>
        <time>2013-08-19T13:32:14Z</time>
      </trkpt>
      <trkpt lat="46.20412" lon="4.42062">
        <ele>635</ele>
        <time>2013-08-19T13:32:18Z</time>
      </trkpt>
      <trkpt lat="46.20404" lon="4.42061">
        <ele>634</ele>
        <time>2013-08-19T13:32:26Z</time>
      </trkpt>
      <trkpt lat="46.204" lon="4.42062">
        <ele>634</ele>
        <time>2013-08-19T13:32:30Z</time>
      </trkpt>
      <trkpt lat="46.20401" lon="4.42062">
        <ele>634</ele>
        <time>2013-08-19T13:32:33Z</time>
      </trkpt>
      <trkpt lat="46.20399" lon="4.42061">
        <ele>634</ele>
        <time>2013-08-19T13:32:38Z</time>
      </trkpt>
      <trkpt lat="46.20399" lon="4.42069">
        <ele>635</ele>
        <time>2013-08-19T13:32:53Z</time>
      </trkpt>
      <trkpt lat="46.20396" lon="4.4207">
        <ele>634</ele>
        <time>2013-08-19T13:32:56Z</time>
      </trkpt>
      <trkpt lat="46.20392" lon="4.42069">
        <ele>634</ele>
        <time>2013-08-19T13:33:02Z</time>
      </trkpt>
      <trkpt lat="46.2039" lon="4.42067">
        <ele>633</ele>
        <time>2013-08-19T13:33:13Z</time>
      </trkpt>
      <trkpt lat="46.20392" lon="4.42068">
        <ele>634</ele>
        <time>2013-08-19T13:33:19Z</time>
      </trkpt>
      <trkpt lat="46.20394" lon="4.42067">
        <ele>634</ele>
        <time>2013-08-19T13:33:21Z</time>
      </trkpt>
      <trkpt lat="46.20395" lon="4.42065">
        <ele>634</ele>
        <time>2013-08-19T13:33:27Z</time>
      </trkpt>
      <trkpt lat="46.20396" lon="4.42068">
        <ele>634</ele>
        <time>2013-08-19T13:33:34Z</time>
      </trkpt>
      <trkpt lat="46.20394" lon="4.42068">
        <ele>634</ele>
        <time>2013-08-19T13:33:41Z</time>
      </trkpt>
      <trkpt lat="46.20394" lon="4.42066">
        <ele>634</ele>
        <time>2013-08-19T13:33:47Z</time>
      </trkpt>
      <trkpt lat="46.20395" lon="4.42066">
        <ele>634</ele>
        <time>2013-08-19T13:33:48Z</time>
      </trkpt>
      <trkpt lat="46.20395" lon="4.42068">
        <ele>634</ele>
        <time>2013-08-19T13:33:53Z</time>
      </trkpt>
      <trkpt lat="46.20394" lon="4.42068">
        <ele>634</ele>
        <time>2013-08-19T13:33:54Z</time>
      </trkpt>
      <trkpt lat="46.2039" lon="4.42067">
        <ele>633</ele>
        <time>2013-08-19T13:33:57Z</time>
      </trkpt>
      <trkpt lat="46.20386" lon="4.42066">
        <ele>633</ele>
        <time>2013-08-19T13:34:01Z</time>
      </trkpt>
      <trkpt lat="46.20384" lon="4.42067">
        <ele>633</ele>
        <time>2013-08-19T13:34:03Z</time>
      </trkpt>
      <trkpt lat="46.20382" lon="4.42068">
        <ele>632</ele>
        <time>2013-08-19T13:34:04Z</time>
      </trkpt>
      <trkpt lat="46.20378" lon="4.4207">
        <ele>632</ele>
        <time>2013-08-19T13:34:08Z</time>
      </trkpt>
      <trkpt lat="46.20377" lon="4.4207">
        <ele>632</ele>
        <time>2013-08-19T13:34:09Z</time>
      </trkpt>
      <trkpt lat="46.20372" lon="4.42073">
        <ele>631</ele>
        <time>2013-08-19T13:34:14Z</time>
      </trkpt>
      <trkpt lat="46.20371" lon="4.42074">
        <ele>631</ele>
        <time>2013-08-19T13:34:16Z</time>
      </trkpt>
      <trkpt lat="46.20368" lon="4.42076">
        <ele>631</ele>
        <time>2013-08-19T13:34:22Z</time>
      </trkpt>
      <trkpt lat="46.20365" lon="4.42082">
        <ele>630</ele>
        <time>2013-08-19T13:34:27Z</time>
      </trkpt>
      <trkpt lat="46.20362" lon="4.42084">
        <ele>634</ele>
        <time>2013-08-19T13:34:33Z</time>
      </trkpt>
      <trkpt lat="46.20361" lon="4.42085">
        <ele>634</ele>
        <time>2013-08-19T13:34:34Z</time>
      </trkpt>
      <trkpt lat="46.20355" lon="4.4209">
        <ele>633</ele>
        <time>2013-08-19T13:34:42Z</time>
      </trkpt>
      <trkpt lat="46.20351" lon="4.42095">
        <ele>632</ele>
        <time>2013-08-19T13:34:50Z</time>
      </trkpt>
      <trkpt lat="46.20349" lon="4.42098">
        <ele>633</ele>
        <time>2013-08-19T13:34:56Z</time>
      </trkpt>
      <trkpt lat="46.20352" lon="4.421">
        <ele>633</ele>
        <time>2013-08-19T13:35:10Z</time>
      </trkpt>
      <trkpt lat="46.20352" lon="4.42099">
        <ele>633</ele>
        <time>2013-08-19T13:35:11Z</time>
      </trkpt>
      <trkpt lat="46.20355" lon="4.42102">
        <ele>634</ele>
        <time>2013-08-19T13:35:15Z</time>
      </trkpt>
      <trkpt lat="46.20353" lon="4.421">
        <ele>633</ele>
        <time>2013-08-19T13:35:29Z</time>
      </trkpt>
      <trkpt lat="46.20352" lon="4.42099">
        <ele>633</ele>
        <time>2013-08-19T13:36:07Z</time>
      </trkpt>
      <trkpt lat="46.2035" lon="4.42103">
        <ele>633</ele>
        <time>2013-08-19T13:36:11Z</time>
      </trkpt>
      <trkpt lat="46.20347" lon="4.42107">
        <ele>633</ele>
        <time>2013-08-19T13:36:16Z</time>
      </trkpt>
      <trkpt lat="46.20344" lon="4.42111">
        <ele>634</ele>
        <time>2013-08-19T13:36:20Z</time>
      </trkpt>
      <trkpt lat="46.20343" lon="4.42114">
        <ele>634</ele>
        <time>2013-08-19T13:36:23Z</time>
      </trkpt>
      <trkpt lat="46.20339" lon="4.42119">
        <ele>634</ele>
        <time>2013-08-19T13:36:27Z</time>
      </trkpt>
      <trkpt lat="46.20338" lon="4.4212">
        <ele>634</ele>
        <time>2013-08-19T13:36:28Z</time>
      </trkpt>
      <trkpt lat="46.20336" lon="4.42121">
        <ele>634</ele>
        <time>2013-08-19T13:36:29Z</time>
      </trkpt>
      <trkpt lat="46.20334" lon="4.42124">
        <ele>634</ele>
        <time>2013-08-19T13:36:32Z</time>
      </trkpt>
      <trkpt lat="46.20332" lon="4.42125">
        <ele>622</ele>
        <time>2013-08-19T13:36:34Z</time>
      </trkpt>
      <trkpt lat="46.20325" lon="4.42132">
        <ele>622</ele>
        <time>2013-08-19T13:36:42Z</time>
      </trkpt>
      <trkpt lat="46.20322" lon="4.42138">
        <ele>622</ele>
        <time>2013-08-19T13:36:47Z</time>
      </trkpt>
      <trkpt lat="46.20322" lon="4.42138">
        <ele>622</ele>
        <time>2013-08-19T13:36:48Z</time>
      </trkpt>
      <trkpt lat="46.2032" lon="4.4214">
        <ele>623</ele>
        <time>2013-08-19T13:36:50Z</time>
      </trkpt>
      <trkpt lat="46.20314" lon="4.42146">
        <ele>622</ele>
        <time>2013-08-19T13:36:56Z</time>
      </trkpt>
      <trkpt lat="46.20309" lon="4.42156">
        <ele>622</ele>
        <time>2013-08-19T13:37:05Z</time>
      </trkpt>
      <trkpt lat="46.20309" lon="4.42157">
        <ele>622</ele>
        <time>2013-08-19T13:37:06Z</time>
      </trkpt>
      <trkpt lat="46.20302" lon="4.42168">
        <ele>626</ele>
        <time>2013-08-19T13:37:15Z</time>
      </trkpt>
      <trkpt lat="46.20295" lon="4.42175">
        <ele>624</ele>
        <time>2013-08-19T13:37:23Z</time>
      </trkpt>
      <trkpt lat="46.20286" lon="4.42184">
        <ele>623</ele>
        <time>2013-08-19T13:37:33Z</time>
      </trkpt>
      <trkpt lat="46.20281" lon="4.42191">
        <ele>622</ele>
        <time>2013-08-19T13:37:39Z</time>
      </trkpt>
      <trkpt lat="46.20278" lon="4.42195">
        <ele>622</ele>
        <time>2013-08-19T13:37:42Z</time>
      </trkpt>
      <trkpt lat="46.20273" lon="4.42203">
        <ele>622</ele>
        <time>2013-08-19T13:37:48Z</time>
      </trkpt>
      <trkpt lat="46.20268" lon="4.42211">
        <ele>622</ele>
        <time>2013-08-19T13:37:55Z</time>
      </trkpt>
      <trkpt lat="46.20267" lon="4.42212">
        <ele>622</ele>
        <time>2013-08-19T13:37:56Z</time>
      </trkpt>
      <trkpt lat="46.20259" lon="4.42222">
        <ele>621</ele>
        <time>2013-08-19T13:38:05Z</time>
      </trkpt>
      <trkpt lat="46.20255" lon="4.4223">
        <ele>621</ele>
        <time>2013-08-19T13:38:11Z</time>
      </trkpt>
      <trkpt lat="46.20251" lon="4.42234">
        <ele>620</ele>
        <time>2013-08-19T13:38:15Z</time>
      </trkpt>
      <trkpt lat="46.20243" lon="4.42241">
        <ele>613</ele>
        <time>2013-08-19T13:38:23Z</time>
      </trkpt>
      <trkpt lat="46.20239" lon="4.42244">
        <ele>612</ele>
        <time>2013-08-19T13:38:27Z</time>
      </trkpt>
      <trkpt lat="46.20236" lon="4.42246">
        <ele>612</ele>
        <time>2013-08-19T13:38:30Z</time>
      </trkpt>
      <trkpt lat="46.20227" lon="4.42251">
        <ele>619</ele>
        <time>2013-08-19T13:38:38Z</time>
      </trkpt>
      <trkpt lat="46.20222" lon="4.42253">
        <ele>619</ele>
        <time>2013-08-19T13:38:42Z</time>
      </trkpt>
      <trkpt lat="46.20216" lon="4.42254">
        <ele>619</ele>
        <time>2013-08-19T13:38:46Z</time>
      </trkpt>
      <trkpt lat="46.20208" lon="4.42254">
        <ele>618</ele>
        <time>2013-08-19T13:38:53Z</time>
      </trkpt>
      <trkpt lat="46.20204" lon="4.42256">
        <ele>618</ele>
        <time>2013-08-19T13:38:57Z</time>
      </trkpt>
      <trkpt lat="46.202" lon="4.42257">
        <ele>617</ele>
        <time>2013-08-19T13:39:01Z</time>
      </trkpt>
      <trkpt lat="46.20192" lon="4.42258">
        <ele>616</ele>
        <time>2013-08-19T13:39:07Z</time>
      </trkpt>
      <trkpt lat="46.20186" lon="4.4226">
        <ele>615</ele>
        <time>2013-08-19T13:39:13Z</time>
      </trkpt>
      <trkpt lat="46.20184" lon="4.4226">
        <ele>615</ele>
        <time>2013-08-19T13:39:14Z</time>
      </trkpt>
      <trkpt lat="46.20178" lon="4.42259">
        <ele>613</ele>
        <time>2013-08-19T13:39:20Z</time>
      </trkpt>
      <trkpt lat="46.20169" lon="4.42255">
        <ele>608</ele>
        <time>2013-08-19T13:39:28Z</time>
      </trkpt>
      <trkpt lat="46.20167" lon="4.42254">
        <ele>608</ele>
        <time>2013-08-19T13:39:30Z</time>
      </trkpt>
      <trkpt lat="46.20166" lon="4.42253">
        <ele>606</ele>
        <time>2013-08-19T13:39:32Z</time>
      </trkpt>
      <trkpt lat="46.20162" lon="4.42251">
        <ele>606</ele>
        <time>2013-08-19T13:39:36Z</time>
      </trkpt>
      <trkpt lat="46.20152" lon="4.42247">
        <ele>599</ele>
        <time>2013-08-19T13:39:46Z</time>
      </trkpt>
      <trkpt lat="46.2015" lon="4.42248">
        <ele>599</ele>
        <time>2013-08-19T13:39:48Z</time>
      </trkpt>
      <trkpt lat="46.20144" lon="4.42246">
        <ele>597</ele>
        <time>2013-08-19T13:39:53Z</time>
      </trkpt>
      <trkpt lat="46.20136" lon="4.42248">
        <ele>596</ele>
        <time>2013-08-19T13:40:00Z</time>
      </trkpt>
      <trkpt lat="46.20132" lon="4.42249">
        <ele>595</ele>
        <time>2013-08-19T13:40:04Z</time>
      </trkpt>
      <trkpt lat="46.20126" lon="4.4225">
        <ele>595</ele>
        <time>2013-08-19T13:40:09Z</time>
      </trkpt>
      <trkpt lat="46.20117" lon="4.42255">
        <ele>607</ele>
        <time>2013-08-19T13:40:17Z</time>
      </trkpt>
      <trkpt lat="46.20114" lon="4.42256">
        <ele>607</ele>
        <time>2013-08-19T13:40:20Z</time>
      </trkpt>
      <trkpt lat="46.20111" lon="4.42265">
        <ele>608</ele>
        <time>2013-08-19T13:40:24Z</time>
      </trkpt>
      <trkpt lat="46.20104" lon="4.4227">
        <ele>607</ele>
        <time>2013-08-19T13:40:30Z</time>
      </trkpt>
      <trkpt lat="46.20102" lon="4.42272">
        <ele>608</ele>
        <time>2013-08-19T13:40:33Z</time>
      </trkpt>
      <trkpt lat="46.20101" lon="4.42274">
        <ele>608</ele>
        <time>2013-08-19T13:40:36Z</time>
      </trkpt>
      <trkpt lat="46.201" lon="4.42275">
        <ele>608</ele>
        <time>2013-08-19T13:40:37Z</time>
      </trkpt>
      <trkpt lat="46.20094" lon="4.42281">
        <ele>609</ele>
        <time>2013-08-19T13:40:43Z</time>
      </trkpt>
      <trkpt lat="46.20086" lon="4.42286">
        <ele>610</ele>
        <time>2013-08-19T13:40:49Z</time>
      </trkpt>
      <trkpt lat="46.20085" lon="4.42286">
        <ele>610</ele>
        <time>2013-08-19T13:40:50Z</time>
      </trkpt>
      <trkpt lat="46.20074" lon="4.42293">
        <ele>608</ele>
        <time>2013-08-19T13:40:58Z</time>
      </trkpt>
      <trkpt lat="46.20072" lon="4.42296">
        <ele>608</ele>
        <time>2013-08-19T13:41:00Z</time>
      </trkpt>
      <trkpt lat="46.20068" lon="4.42299">
        <ele>609</ele>
        <time>2013-08-19T13:41:03Z</time>
      </trkpt>
      <trkpt lat="46.20067" lon="4.423">
        <ele>609</ele>
        <time>2013-08-19T13:41:04Z</time>
      </trkpt>
      <trkpt lat="46.20065" lon="4.423">
        <ele>609</ele>
        <time>2013-08-19T13:41:05Z</time>
      </trkpt>
      <trkpt lat="46.20059" lon="4.42301">
        <ele>609</ele>
        <time>2013-08-19T13:41:09Z</time>
      </trkpt>
      <trkpt lat="46.20056" lon="4.42301">
        <ele>609</ele>
        <time>2013-08-19T13:41:14Z</time>
      </trkpt>
      <trkpt lat="46.20053" lon="4.42302">
        <ele>609</ele>
        <time>2013-08-19T13:41:22Z</time>
      </trkpt>
      <trkpt lat="46.20051" lon="4.42302">
        <ele>609</ele>
        <time>2013-08-19T13:41:23Z</time>
      </trkpt>
      <trkpt lat="46.20043" lon="4.42304">
        <ele>609</ele>
        <time>2013-08-19T13:41:29Z</time>
      </trkpt>
      <trkpt lat="46.20032" lon="4.42303">
        <ele>609</ele>
        <time>2013-08-19T13:41:37Z</time>
      </trkpt>
      <trkpt lat="46.20031" lon="4.42303">
        <ele>609</ele>
        <time>2013-08-19T13:41:38Z</time>
      </trkpt>
      <trkpt lat="46.20021" lon="4.42294">
        <ele>607</ele>
        <time>2013-08-19T13:41:46Z</time>
      </trkpt>
      <trkpt lat="46.20016" lon="4.42288">
        <ele>606</ele>
        <time>2013-08-19T13:41:51Z</time>
      </trkpt>
      <trkpt lat="46.20009" lon="4.4228">
        <ele>604</ele>
        <time>2013-08-19T13:41:56Z</time>
      </trkpt>
      <trkpt lat="46.2" lon="4.42275">
        <ele>610</ele>
        <time>2013-08-19T13:42:03Z</time>
      </trkpt>
      <trkpt lat="46.19997" lon="4.42274">
        <ele>610</ele>
        <time>2013-08-19T13:42:05Z</time>
      </trkpt>
      <trkpt lat="46.19988" lon="4.42271">
        <ele>610</ele>
        <time>2013-08-19T13:42:13Z</time>
      </trkpt>
      <trkpt lat="46.19981" lon="4.4227">
        <ele>612</ele>
        <time>2013-08-19T13:42:17Z</time>
      </trkpt>
      <trkpt lat="46.19977" lon="4.42268">
        <ele>612</ele>
        <time>2013-08-19T13:42:20Z</time>
      </trkpt>
      <trkpt lat="46.19967" lon="4.42265">
        <ele>615</ele>
        <time>2013-08-19T13:42:29Z</time>
      </trkpt>
      <trkpt lat="46.19963" lon="4.42262">
        <ele>615</ele>
        <time>2013-08-19T13:42:32Z</time>
      </trkpt>
      <trkpt lat="46.19958" lon="4.42256">
        <ele>616</ele>
        <time>2013-08-19T13:42:38Z</time>
      </trkpt>
      <trkpt lat="46.19951" lon="4.42249">
        <ele>605</ele>
        <time>2013-08-19T13:42:46Z</time>
      </trkpt>
      <trkpt lat="46.19948" lon="4.42245">
        <ele>605</ele>
        <time>2013-08-19T13:42:50Z</time>
      </trkpt>
      <trkpt lat="46.19947" lon="4.42243">
        <ele>606</ele>
        <time>2013-08-19T13:42:52Z</time>
      </trkpt>
      <trkpt lat="46.19941" lon="4.42236">
        <ele>607</ele>
        <time>2013-08-19T13:42:58Z</time>
      </trkpt>
      <trkpt lat="46.19934" lon="4.4223">
        <ele>607</ele>
        <time>2013-08-19T13:43:04Z</time>
      </trkpt>
      <trkpt lat="46.19934" lon="4.42229">
        <ele>607</ele>
        <time>2013-08-19T13:43:05Z</time>
      </trkpt>
      <trkpt lat="46.19932" lon="4.42225">
        <ele>607</ele>
        <time>2013-08-19T13:43:13Z</time>
      </trkpt>
      <trkpt lat="46.19931" lon="4.42222">
        <ele>606</ele>
        <time>2013-08-19T13:43:16Z</time>
      </trkpt>
      <trkpt lat="46.19928" lon="4.42214">
        <ele>605</ele>
        <time>2013-08-19T13:43:22Z</time>
      </trkpt>
      <trkpt lat="46.19924" lon="4.42212">
        <ele>605</ele>
        <time>2013-08-19T13:43:26Z</time>
      </trkpt>
      <trkpt lat="46.19921" lon="4.42209">
        <ele>605</ele>
        <time>2013-08-19T13:43:31Z</time>
      </trkpt>
      <trkpt lat="46.19919" lon="4.42207">
        <ele>605</ele>
        <time>2013-08-19T13:43:33Z</time>
      </trkpt>
      <trkpt lat="46.19917" lon="4.422">
        <ele>619</ele>
        <time>2013-08-19T13:43:36Z</time>
      </trkpt>
      <trkpt lat="46.19915" lon="4.42196">
        <ele>618</ele>
        <time>2013-08-19T13:43:39Z</time>
      </trkpt>
      <trkpt lat="46.19914" lon="4.42193">
        <ele>617</ele>
        <time>2013-08-19T13:43:40Z</time>
      </trkpt>
      <trkpt lat="46.19912" lon="4.42187">
        <ele>616</ele>
        <time>2013-08-19T13:43:44Z</time>
      </trkpt>
      <trkpt lat="46.1991" lon="4.42181">
        <ele>614</ele>
        <time>2013-08-19T13:43:47Z</time>
      </trkpt>
      <trkpt lat="46.19911" lon="4.42176">
        <ele>612</ele>
        <time>2013-08-19T13:43:50Z</time>
      </trkpt>
      <trkpt lat="46.19908" lon="4.42171">
        <ele>612</ele>
        <time>2013-08-19T13:43:53Z</time>
      </trkpt>
      <trkpt lat="46.19906" lon="4.42165">
        <ele>609</ele>
        <time>2013-08-19T13:43:56Z</time>
      </trkpt>
      <trkpt lat="46.19904" lon="4.42157">
        <ele>611</ele>
        <time>2013-08-19T13:44:00Z</time>
      </trkpt>
      <trkpt lat="46.19903" lon="4.42155">
        <ele>611</ele>
        <time>2013-08-19T13:44:01Z</time>
      </trkpt>
      <trkpt lat="46.19902" lon="4.42149">
        <ele>612</ele>
        <time>2013-08-19T13:44:05Z</time>
      </trkpt>
      <trkpt lat="46.19902" lon="4.42145">
        <ele>612</ele>
        <time>2013-08-19T13:44:08Z</time>
      </trkpt>
      <trkpt lat="46.199" lon="4.42137">
        <ele>613</ele>
        <time>2013-08-19T13:44:13Z</time>
      </trkpt>
      <trkpt lat="46.19899" lon="4.42135">
        <ele>613</ele>
        <time>2013-08-19T13:44:14Z</time>
      </trkpt>
      <trkpt lat="46.19898" lon="4.42133">
        <ele>614</ele>
        <time>2013-08-19T13:44:16Z</time>
      </trkpt>
      <trkpt lat="46.19896" lon="4.42128">
        <ele>614</ele>
        <time>2013-08-19T13:44:19Z</time>
      </trkpt>
      <trkpt lat="46.19892" lon="4.42123">
        <ele>614</ele>
        <time>2013-08-19T13:44:22Z</time>
      </trkpt>
      <trkpt lat="46.1989" lon="4.42118">
        <ele>614</ele>
        <time>2013-08-19T13:44:25Z</time>
      </trkpt>
      <trkpt lat="46.19888" lon="4.42109">
        <ele>614</ele>
        <time>2013-08-19T13:44:30Z</time>
      </trkpt>
      <trkpt lat="46.19888" lon="4.42107">
        <ele>614</ele>
        <time>2013-08-19T13:44:31Z</time>
      </trkpt>
      <trkpt lat="46.19887" lon="4.42099">
        <ele>614</ele>
        <time>2013-08-19T13:44:36Z</time>
      </trkpt>
      <trkpt lat="46.19886" lon="4.42097">
        <ele>614</ele>
        <time>2013-08-19T13:44:37Z</time>
      </trkpt>
      <trkpt lat="46.19886" lon="4.42092">
        <ele>614</ele>
        <time>2013-08-19T13:44:40Z</time>
      </trkpt>
      <trkpt lat="46.19885" lon="4.42089">
        <ele>614</ele>
        <time>2013-08-19T13:44:42Z</time>
      </trkpt>
      <trkpt lat="46.19885" lon="4.42083">
        <ele>614</ele>
        <time>2013-08-19T13:44:45Z</time>
      </trkpt>
      <trkpt lat="46.19886" lon="4.42081">
        <ele>614</ele>
        <time>2013-08-19T13:44:47Z</time>
      </trkpt>
      <trkpt lat="46.19886" lon="4.4208">
        <ele>614</ele>
        <time>2013-08-19T13:44:48Z</time>
      </trkpt>
      <trkpt lat="46.1989" lon="4.4207">
        <ele>614</ele>
        <time>2013-08-19T13:44:53Z</time>
      </trkpt>
      <trkpt lat="46.1989" lon="4.42067">
        <ele>614</ele>
        <time>2013-08-19T13:44:54Z</time>
      </trkpt>
      <trkpt lat="46.1989" lon="4.42058">
        <ele>614</ele>
        <time>2013-08-19T13:44:57Z</time>
      </trkpt>
      <trkpt lat="46.1989" lon="4.42056">
        <ele>614</ele>
        <time>2013-08-19T13:44:58Z</time>
      </trkpt>
      <trkpt lat="46.1989" lon="4.42052">
        <ele>615</ele>
        <time>2013-08-19T13:45:00Z</time>
      </trkpt>
      <trkpt lat="46.1989" lon="4.4204">
        <ele>615</ele>
        <time>2013-08-19T13:45:06Z</time>
      </trkpt>
      <trkpt lat="46.1989" lon="4.42038">
        <ele>615</ele>
        <time>2013-08-19T13:45:07Z</time>
      </trkpt>
      <trkpt lat="46.1989" lon="4.42032">
        <ele>615</ele>
        <time>2013-08-19T13:45:10Z</time>
      </trkpt>
      <trkpt lat="46.1989" lon="4.42026">
        <ele>615</ele>
        <time>2013-08-19T13:45:14Z</time>
      </trkpt>
      <trkpt lat="46.1989" lon="4.42025">
        <ele>615</ele>
        <time>2013-08-19T13:45:15Z</time>
      </trkpt>
      <trkpt lat="46.19889" lon="4.42017">
        <ele>615</ele>
        <time>2013-08-19T13:45:19Z</time>
      </trkpt>
      <trkpt lat="46.19889" lon="4.42014">
        <ele>615</ele>
        <time>2013-08-19T13:45:21Z</time>
      </trkpt>
      <trkpt lat="46.19888" lon="4.42005">
        <ele>615</ele>
        <time>2013-08-19T13:45:27Z</time>
      </trkpt>
      <trkpt lat="46.19887" lon="4.42004">
        <ele>615</ele>
        <time>2013-08-19T13:45:28Z</time>
      </trkpt>
      <trkpt lat="46.19887" lon="4.41997">
        <ele>615</ele>
        <time>2013-08-19T13:45:33Z</time>
      </trkpt>
      <trkpt lat="46.19886" lon="4.41994">
        <ele>615</ele>
        <time>2013-08-19T13:45:35Z</time>
      </trkpt>
      <trkpt lat="46.19885" lon="4.41991">
        <ele>615</ele>
        <time>2013-08-19T13:45:38Z</time>
      </trkpt>
      <trkpt lat="46.19884" lon="4.41989">
        <ele>616</ele>
        <time>2013-08-19T13:45:41Z</time>
      </trkpt>
      <trkpt lat="46.19883" lon="4.41988">
        <ele>616</ele>
        <time>2013-08-19T13:45:42Z</time>
      </trkpt>
      <trkpt lat="46.19879" lon="4.41982">
        <ele>616</ele>
        <time>2013-08-19T13:45:47Z</time>
      </trkpt>
      <trkpt lat="46.19878" lon="4.4198">
        <ele>616</ele>
        <time>2013-08-19T13:45:49Z</time>
      </trkpt>
      <trkpt lat="46.19874" lon="4.41972">
        <ele>616</ele>
        <time>2013-08-19T13:45:55Z</time>
      </trkpt>
      <trkpt lat="46.19872" lon="4.4197">
        <ele>616</ele>
        <time>2013-08-19T13:45:57Z</time>
      </trkpt>
      <trkpt lat="46.19871" lon="4.41967">
        <ele>616</ele>
        <time>2013-08-19T13:45:59Z</time>
      </trkpt>
      <trkpt lat="46.19867" lon="4.41963">
        <ele>616</ele>
        <time>2013-08-19T13:46:03Z</time>
      </trkpt>
      <trkpt lat="46.19867" lon="4.41961">
        <ele>616</ele>
        <time>2013-08-19T13:46:04Z</time>
      </trkpt>
      <trkpt lat="46.19866" lon="4.41959">
        <ele>616</ele>
        <time>2013-08-19T13:46:05Z</time>
      </trkpt>
      <trkpt lat="46.19863" lon="4.4195">
        <ele>616</ele>
        <time>2013-08-19T13:46:11Z</time>
      </trkpt>
      <trkpt lat="46.1986" lon="4.41941">
        <ele>617</ele>
        <time>2013-08-19T13:46:16Z</time>
      </trkpt>
      <trkpt lat="46.19859" lon="4.41938">
        <ele>617</ele>
        <time>2013-08-19T13:46:18Z</time>
      </trkpt>
      <trkpt lat="46.19857" lon="4.4193">
        <ele>617</ele>
        <time>2013-08-19T13:46:23Z</time>
      </trkpt>
      <trkpt lat="46.19856" lon="4.41927">
        <ele>617</ele>
        <time>2013-08-19T13:46:25Z</time>
      </trkpt>
      <trkpt lat="46.19851" lon="4.41919">
        <ele>618</ele>
        <time>2013-08-19T13:46:31Z</time>
      </trkpt>
      <trkpt lat="46.19851" lon="4.41918">
        <ele>618</ele>
        <time>2013-08-19T13:46:32Z</time>
      </trkpt>
      <trkpt lat="46.19849" lon="4.41915">
        <ele>617</ele>
        <time>2013-08-19T13:46:34Z</time>
      </trkpt>
      <trkpt lat="46.19849" lon="4.41909">
        <ele>617</ele>
        <time>2013-08-19T13:46:37Z</time>
      </trkpt>
      <trkpt lat="46.19849" lon="4.41908">
        <ele>616</ele>
        <time>2013-08-19T13:46:38Z</time>
      </trkpt>
      <trkpt lat="46.19848" lon="4.41901">
        <ele>616</ele>
        <time>2013-08-19T13:46:42Z</time>
      </trkpt>
      <trkpt lat="46.19847" lon="4.41896">
        <ele>616</ele>
        <time>2013-08-19T13:46:45Z</time>
      </trkpt>
      <trkpt lat="46.19847" lon="4.41895">
        <ele>616</ele>
        <time>2013-08-19T13:46:46Z</time>
      </trkpt>
      <trkpt lat="46.19846" lon="4.41894">
        <ele>616</ele>
        <time>2013-08-19T13:46:47Z</time>
      </trkpt>
      <trkpt lat="46.19846" lon="4.41889">
        <ele>615</ele>
        <time>2013-08-19T13:46:50Z</time>
      </trkpt>
      <trkpt lat="46.19847" lon="4.41887">
        <ele>615</ele>
        <time>2013-08-19T13:46:52Z</time>
      </trkpt>
      <trkpt lat="46.19847" lon="4.41885">
        <ele>615</ele>
        <time>2013-08-19T13:46:54Z</time>
      </trkpt>
      <trkpt lat="46.19846" lon="4.41879">
        <ele>615</ele>
        <time>2013-08-19T13:46:56Z</time>
      </trkpt>
      <trkpt lat="46.19846" lon="4.41867">
        <ele>615</ele>
        <time>2013-08-19T13:47:02Z</time>
      </trkpt>
      <trkpt lat="46.19844" lon="4.41859">
        <ele>615</ele>
        <time>2013-08-19T13:47:05Z</time>
      </trkpt>
      <trkpt lat="46.19843" lon="4.41853">
        <ele>615</ele>
        <time>2013-08-19T13:47:08Z</time>
      </trkpt>
      <trkpt lat="46.19843" lon="4.41851">
        <ele>616</ele>
        <time>2013-08-19T13:47:09Z</time>
      </trkpt>
      <trkpt lat="46.19842" lon="4.41844">
        <ele>617</ele>
        <time>2013-08-19T13:47:14Z</time>
      </trkpt>
      <trkpt lat="46.1984" lon="4.41842">
        <ele>617</ele>
        <time>2013-08-19T13:47:16Z</time>
      </trkpt>
      <trkpt lat="46.19837" lon="4.41838">
        <ele>618</ele>
        <time>2013-08-19T13:47:20Z</time>
      </trkpt>
      <trkpt lat="46.19838" lon="4.41831">
        <ele>618</ele>
        <time>2013-08-19T13:47:23Z</time>
      </trkpt>
      <trkpt lat="46.19837" lon="4.41825">
        <ele>616</ele>
        <time>2013-08-19T13:47:27Z</time>
      </trkpt>
      <trkpt lat="46.19834" lon="4.41812">
        <ele>614</ele>
        <time>2013-08-19T13:47:33Z</time>
      </trkpt>
      <trkpt lat="46.19832" lon="4.41804">
        <ele>620</ele>
        <time>2013-08-19T13:47:36Z</time>
      </trkpt>
      <trkpt lat="46.19832" lon="4.41796">
        <ele>620</ele>
        <time>2013-08-19T13:47:40Z</time>
      </trkpt>
      <trkpt lat="46.1983" lon="4.41784">
        <ele>619</ele>
        <time>2013-08-19T13:47:48Z</time>
      </trkpt>
      <trkpt lat="46.19828" lon="4.41782">
        <ele>619</ele>
        <time>2013-08-19T13:47:50Z</time>
      </trkpt>
      <trkpt lat="46.19828" lon="4.4178">
        <ele>619</ele>
        <time>2013-08-19T13:47:51Z</time>
      </trkpt>
      <trkpt lat="46.19828" lon="4.41778">
        <ele>619</ele>
        <time>2013-08-19T13:47:52Z</time>
      </trkpt>
      <trkpt lat="46.19827" lon="4.41773">
        <ele>619</ele>
        <time>2013-08-19T13:47:54Z</time>
      </trkpt>
      <trkpt lat="46.19824" lon="4.41762">
        <ele>619</ele>
        <time>2013-08-19T13:48:01Z</time>
      </trkpt>
      <trkpt lat="46.19823" lon="4.41758">
        <ele>619</ele>
        <time>2013-08-19T13:48:03Z</time>
      </trkpt>
      <trkpt lat="46.19821" lon="4.41753">
        <ele>619</ele>
        <time>2013-08-19T13:48:06Z</time>
      </trkpt>
      <trkpt lat="46.1982" lon="4.41751">
        <ele>619</ele>
        <time>2013-08-19T13:48:07Z</time>
      </trkpt>
      <trkpt lat="46.19817" lon="4.41746">
        <ele>617</ele>
        <time>2013-08-19T13:48:11Z</time>
      </trkpt>
      <trkpt lat="46.19816" lon="4.41743">
        <ele>617</ele>
        <time>2013-08-19T13:48:14Z</time>
      </trkpt>
      <trkpt lat="46.19813" lon="4.41738">
        <ele>617</ele>
        <time>2013-08-19T13:48:19Z</time>
      </trkpt>
      <trkpt lat="46.19811" lon="4.41735">
        <ele>617</ele>
        <time>2013-08-19T13:48:22Z</time>
      </trkpt>
      <trkpt lat="46.19809" lon="4.41732">
        <ele>617</ele>
        <time>2013-08-19T13:48:25Z</time>
      </trkpt>
      <trkpt lat="46.19808" lon="4.41731">
        <ele>617</ele>
        <time>2013-08-19T13:48:26Z</time>
      </trkpt>
      <trkpt lat="46.19806" lon="4.41726">
        <ele>617</ele>
        <time>2013-08-19T13:48:32Z</time>
      </trkpt>
      <trkpt lat="46.19804" lon="4.41722">
        <ele>617</ele>
        <time>2013-08-19T13:48:38Z</time>
      </trkpt>
      <trkpt lat="46.19803" lon="4.41715">
        <ele>617</ele>
        <time>2013-08-19T13:48:44Z</time>
      </trkpt>
      <trkpt lat="46.19799" lon="4.41709">
        <ele>617</ele>
        <time>2013-08-19T13:48:49Z</time>
      </trkpt>
      <trkpt lat="46.19798" lon="4.41708">
        <ele>617</ele>
        <time>2013-08-19T13:48:50Z</time>
      </trkpt>
      <trkpt lat="46.19791" lon="4.41701">
        <ele>617</ele>
        <time>2013-08-19T13:48:56Z</time>
      </trkpt>
      <trkpt lat="46.19784" lon="4.41693">
        <ele>616</ele>
        <time>2013-08-19T13:49:03Z</time>
      </trkpt>
      <trkpt lat="46.19776" lon="4.41686">
        <ele>616</ele>
        <time>2013-08-19T13:49:09Z</time>
      </trkpt>
      <trkpt lat="46.19768" lon="4.41678">
        <ele>616</ele>
        <time>2013-08-19T13:49:16Z</time>
      </trkpt>
      <trkpt lat="46.19767" lon="4.41678">
        <ele>616</ele>
        <time>2013-08-19T13:49:17Z</time>
      </trkpt>
      <trkpt lat="46.19758" lon="4.41672">
        <ele>616</ele>
        <time>2013-08-19T13:49:24Z</time>
      </trkpt>
      <trkpt lat="46.1975" lon="4.41668">
        <ele>614</ele>
        <time>2013-08-19T13:49:30Z</time>
      </trkpt>
      <trkpt lat="46.19744" lon="4.41665">
        <ele>612</ele>
        <time>2013-08-19T13:49:34Z</time>
      </trkpt>
      <trkpt lat="46.19735" lon="4.41666">
        <ele>610</ele>
        <time>2013-08-19T13:49:41Z</time>
      </trkpt>
      <trkpt lat="46.1973" lon="4.41667">
        <ele>610</ele>
        <time>2013-08-19T13:49:45Z</time>
      </trkpt>
      <trkpt lat="46.19727" lon="4.41668">
        <ele>609</ele>
        <time>2013-08-19T13:49:48Z</time>
      </trkpt>
      <trkpt lat="46.19723" lon="4.41676">
        <ele>609</ele>
        <time>2013-08-19T13:49:54Z</time>
      </trkpt>
      <trkpt lat="46.19723" lon="4.41677">
        <ele>609</ele>
        <time>2013-08-19T13:49:55Z</time>
      </trkpt>
      <trkpt lat="46.19722" lon="4.41679">
        <ele>609</ele>
        <time>2013-08-19T13:49:57Z</time>
      </trkpt>
      <trkpt lat="46.19721" lon="4.41681">
        <ele>608</ele>
        <time>2013-08-19T13:49:58Z</time>
      </trkpt>
      <trkpt lat="46.19719" lon="4.41683">
        <ele>608</ele>
        <time>2013-08-19T13:50:01Z</time>
      </trkpt>
      <trkpt lat="46.19717" lon="4.41684">
        <ele>608</ele>
        <time>2013-08-19T13:50:03Z</time>
      </trkpt>
      <trkpt lat="46.19718" lon="4.41685">
        <ele>608</ele>
        <time>2013-08-19T13:50:05Z</time>
      </trkpt>
      <trkpt lat="46.19718" lon="4.41686">
        <ele>608</ele>
        <time>2013-08-19T13:50:08Z</time>
      </trkpt>
      <trkpt lat="46.19716" lon="4.4169">
        <ele>608</ele>
        <time>2013-08-19T13:50:13Z</time>
      </trkpt>
      <trkpt lat="46.19714" lon="4.41694">
        <ele>607</ele>
        <time>2013-08-19T13:50:16Z</time>
      </trkpt>
      <trkpt lat="46.19713" lon="4.41698">
        <ele>607</ele>
        <time>2013-08-19T13:50:19Z</time>
      </trkpt>
      <trkpt lat="46.19711" lon="4.41706">
        <ele>607</ele>
        <time>2013-08-19T13:50:24Z</time>
      </trkpt>
      <trkpt lat="46.19711" lon="4.41709">
        <ele>607</ele>
        <time>2013-08-19T13:50:26Z</time>
      </trkpt>
      <trkpt lat="46.19709" lon="4.41712">
        <ele>607</ele>
        <time>2013-08-19T13:50:28Z</time>
      </trkpt>
      <trkpt lat="46.19708" lon="4.41713">
        <ele>607</ele>
        <time>2013-08-19T13:50:29Z</time>
      </trkpt>
      <trkpt lat="46.19707" lon="4.41716">
        <ele>607</ele>
        <time>2013-08-19T13:50:31Z</time>
      </trkpt>
      <trkpt lat="46.19707" lon="4.41722">
        <ele>607</ele>
        <time>2013-08-19T13:50:35Z</time>
      </trkpt>
      <trkpt lat="46.19704" lon="4.41727">
        <ele>606</ele>
        <time>2013-08-19T13:50:39Z</time>
      </trkpt>
      <trkpt lat="46.19703" lon="4.41728">
        <ele>606</ele>
        <time>2013-08-19T13:50:41Z</time>
      </trkpt>
      <trkpt lat="46.19703" lon="4.4173">
        <ele>606</ele>
        <time>2013-08-19T13:50:42Z</time>
      </trkpt>
      <trkpt lat="46.19702" lon="4.41733">
        <ele>606</ele>
        <time>2013-08-19T13:50:44Z</time>
      </trkpt>
      <trkpt lat="46.19702" lon="4.41738">
        <ele>606</ele>
        <time>2013-08-19T13:50:47Z</time>
      </trkpt>
      <trkpt lat="46.197" lon="4.41746">
        <ele>606</ele>
        <time>2013-08-19T13:50:52Z</time>
      </trkpt>
      <trkpt lat="46.19696" lon="4.41753">
        <ele>607</ele>
        <time>2013-08-19T13:50:58Z</time>
      </trkpt>
      <trkpt lat="46.19695" lon="4.41758">
        <ele>607</ele>
        <time>2013-08-19T13:51:01Z</time>
      </trkpt>
      <trkpt lat="46.19696" lon="4.41762">
        <ele>607</ele>
        <time>2013-08-19T13:51:03Z</time>
      </trkpt>
      <trkpt lat="46.19695" lon="4.41771">
        <ele>607</ele>
        <time>2013-08-19T13:51:08Z</time>
      </trkpt>
      <trkpt lat="46.19694" lon="4.41772">
        <ele>607</ele>
        <time>2013-08-19T13:51:09Z</time>
      </trkpt>
      <trkpt lat="46.19693" lon="4.41777">
        <ele>607</ele>
        <time>2013-08-19T13:51:12Z</time>
      </trkpt>
      <trkpt lat="46.19694" lon="4.41783">
        <ele>608</ele>
        <time>2013-08-19T13:51:15Z</time>
      </trkpt>
      <trkpt lat="46.19694" lon="4.41785">
        <ele>608</ele>
        <time>2013-08-19T13:51:16Z</time>
      </trkpt>
      <trkpt lat="46.19694" lon="4.41786">
        <ele>608</ele>
        <time>2013-08-19T13:51:17Z</time>
      </trkpt>
      <trkpt lat="46.19692" lon="4.41791">
        <ele>608</ele>
        <time>2013-08-19T13:51:20Z</time>
      </trkpt>
      <trkpt lat="46.19692" lon="4.41793">
        <ele>608</ele>
        <time>2013-08-19T13:51:22Z</time>
      </trkpt>
      <trkpt lat="46.19693" lon="4.41795">
        <ele>608</ele>
        <time>2013-08-19T13:51:23Z</time>
      </trkpt>
      <trkpt lat="46.19692" lon="4.41801">
        <ele>608</ele>
        <time>2013-08-19T13:51:26Z</time>
      </trkpt>
      <trkpt lat="46.19691" lon="4.41804">
        <ele>608</ele>
        <time>2013-08-19T13:51:28Z</time>
      </trkpt>
      <trkpt lat="46.19691" lon="4.41808">
        <ele>607</ele>
        <time>2013-08-19T13:51:31Z</time>
      </trkpt>
      <trkpt lat="46.19691" lon="4.41813">
        <ele>607</ele>
        <time>2013-08-19T13:51:33Z</time>
      </trkpt>
      <trkpt lat="46.19691" lon="4.41815">
        <ele>607</ele>
        <time>2013-08-19T13:51:34Z</time>
      </trkpt>
      <trkpt lat="46.19692" lon="4.4182">
        <ele>607</ele>
        <time>2013-08-19T13:51:37Z</time>
      </trkpt>
      <trkpt lat="46.19693" lon="4.4183">
        <ele>607</ele>
        <time>2013-08-19T13:51:43Z</time>
      </trkpt>
      <trkpt lat="46.19695" lon="4.41833">
        <ele>608</ele>
        <time>2013-08-19T13:51:45Z</time>
      </trkpt>
      <trkpt lat="46.19697" lon="4.41837">
        <ele>608</ele>
        <time>2013-08-19T13:51:48Z</time>
      </trkpt>
      <trkpt lat="46.19697" lon="4.41839">
        <ele>608</ele>
        <time>2013-08-19T13:51:49Z</time>
      </trkpt>
      <trkpt lat="46.19698" lon="4.41844">
        <ele>608</ele>
        <time>2013-08-19T13:51:52Z</time>
      </trkpt>
      <trkpt lat="46.19697" lon="4.41846">
        <ele>608</ele>
        <time>2013-08-19T13:51:53Z</time>
      </trkpt>
      <trkpt lat="46.19698" lon="4.41852">
        <ele>608</ele>
        <time>2013-08-19T13:51:56Z</time>
      </trkpt>
      <trkpt lat="46.19699" lon="4.41854">
        <ele>609</ele>
        <time>2013-08-19T13:51:57Z</time>
      </trkpt>
      <trkpt lat="46.19705" lon="4.41863">
        <ele>609</ele>
        <time>2013-08-19T13:52:03Z</time>
      </trkpt>
      <trkpt lat="46.19705" lon="4.41864">
        <ele>609</ele>
        <time>2013-08-19T13:52:04Z</time>
      </trkpt>
      <trkpt lat="46.19706" lon="4.41872">
        <ele>609</ele>
        <time>2013-08-19T13:52:09Z</time>
      </trkpt>
      <trkpt lat="46.19706" lon="4.41873">
        <ele>610</ele>
        <time>2013-08-19T13:52:10Z</time>
      </trkpt>
      <trkpt lat="46.19707" lon="4.41875">
        <ele>610</ele>
        <time>2013-08-19T13:52:11Z</time>
      </trkpt>
      <trkpt lat="46.19708" lon="4.4188">
        <ele>610</ele>
        <time>2013-08-19T13:52:15Z</time>
      </trkpt>
      <trkpt lat="46.19709" lon="4.41882">
        <ele>610</ele>
        <time>2013-08-19T13:52:16Z</time>
      </trkpt>
      <trkpt lat="46.19712" lon="4.41888">
        <ele>610</ele>
        <time>2013-08-19T13:52:20Z</time>
      </trkpt>
      <trkpt lat="46.19713" lon="4.41889">
        <ele>610</ele>
        <time>2013-08-19T13:52:21Z</time>
      </trkpt>
      <trkpt lat="46.19713" lon="4.41899">
        <ele>610</ele>
        <time>2013-08-19T13:52:28Z</time>
      </trkpt>
      <trkpt lat="46.1971" lon="4.4191">
        <ele>609</ele>
        <time>2013-08-19T13:52:35Z</time>
      </trkpt>
      <trkpt lat="46.19707" lon="4.41914">
        <ele>609</ele>
        <time>2013-08-19T13:52:39Z</time>
      </trkpt>
      <trkpt lat="46.19702" lon="4.41919">
        <ele>606</ele>
        <time>2013-08-19T13:52:44Z</time>
      </trkpt>
      <trkpt lat="46.19699" lon="4.41925">
        <ele>606</ele>
        <time>2013-08-19T13:52:49Z</time>
      </trkpt>
      <trkpt lat="46.19698" lon="4.41926">
        <ele>606</ele>
        <time>2013-08-19T13:52:51Z</time>
      </trkpt>
      <trkpt lat="46.19699" lon="4.41929">
        <ele>606</ele>
        <time>2013-08-19T13:52:58Z</time>
      </trkpt>
      <trkpt lat="46.19702" lon="4.4193">
        <ele>607</ele>
        <time>2013-08-19T13:53:04Z</time>
      </trkpt>
      <trkpt lat="46.19703" lon="4.41929">
        <ele>607</ele>
        <time>2013-08-19T13:53:06Z</time>
      </trkpt>
      <trkpt lat="46.19705" lon="4.41927">
        <ele>607</ele>
        <time>2013-08-19T13:53:09Z</time>
      </trkpt>
      <trkpt lat="46.19708" lon="4.41926">
        <ele>607</ele>
        <time>2013-08-19T13:53:16Z</time>
      </trkpt>
      <trkpt lat="46.19712" lon="4.41929">
        <ele>608</ele>
        <time>2013-08-19T13:53:33Z</time>
      </trkpt>
      <trkpt lat="46.19713" lon="4.41929">
        <ele>608</ele>
        <time>2013-08-19T13:53:42Z</time>
      </trkpt>
      <trkpt lat="46.19716" lon="4.41929">
        <ele>609</ele>
        <time>2013-08-19T13:53:48Z</time>
      </trkpt>
      <trkpt lat="46.19716" lon="4.41925">
        <ele>609</ele>
        <time>2013-08-19T13:53:53Z</time>
      </trkpt>
      <trkpt lat="46.19718" lon="4.41927">
        <ele>609</ele>
        <time>2013-08-19T13:54:37Z</time>
      </trkpt>
      <trkpt lat="46.19718" lon="4.41926">
        <ele>609</ele>
        <time>2013-08-19T13:54:56Z</time>
      </trkpt>
      <trkpt lat="46.19715" lon="4.4193">
        <ele>609</ele>
        <time>2013-08-19T13:55:01Z</time>
      </trkpt>
      <trkpt lat="46.19713" lon="4.41933">
        <ele>608</ele>
        <time>2013-08-19T13:55:08Z</time>
      </trkpt>
      <trkpt lat="46.19709" lon="4.41935">
        <ele>608</ele>
        <time>2013-08-19T13:55:20Z</time>
      </trkpt>
      <trkpt lat="46.19708" lon="4.41936">
        <ele>607</ele>
        <time>2013-08-19T13:55:21Z</time>
      </trkpt>
      <trkpt lat="46.19703" lon="4.41934">
        <ele>607</ele>
        <time>2013-08-19T13:55:27Z</time>
      </trkpt>
      <trkpt lat="46.19698" lon="4.41934">
        <ele>606</ele>
        <time>2013-08-19T13:55:33Z</time>
      </trkpt>
      <trkpt lat="46.19697" lon="4.41937">
        <ele>606</ele>
        <time>2013-08-19T13:55:36Z</time>
      </trkpt>
      <trkpt lat="46.19696" lon="4.41937">
        <ele>606</ele>
        <time>2013-08-19T13:55:37Z</time>
      </trkpt>
      <trkpt lat="46.19694" lon="4.41938">
        <ele>606</ele>
        <time>2013-08-19T13:55:42Z</time>
      </trkpt>
      <trkpt lat="46.1969" lon="4.41939">
        <ele>605</ele>
        <time>2013-08-19T13:56:08Z</time>
      </trkpt>
      <trkpt lat="46.19696" lon="4.41933">
        <ele>606</ele>
        <time>2013-08-19T13:56:36Z</time>
      </trkpt>
      <trkpt lat="46.19695" lon="4.41928">
        <ele>605</ele>
        <time>2013-08-19T13:56:43Z</time>
      </trkpt>
      <trkpt lat="46.19694" lon="4.41923">
        <ele>605</ele>
        <time>2013-08-19T13:56:48Z</time>
      </trkpt>
      <trkpt lat="46.1969" lon="4.41923">
        <ele>604</ele>
        <time>2013-08-19T13:56:55Z</time>
      </trkpt>
      <trkpt lat="46.19688" lon="4.41928">
        <ele>604</ele>
        <time>2013-08-19T13:57:04Z</time>
      </trkpt>
      <trkpt lat="46.19687" lon="4.4193">
        <ele>604</ele>
        <time>2013-08-19T13:57:06Z</time>
      </trkpt>
      <trkpt lat="46.19685" lon="4.41933">
        <ele>604</ele>
        <time>2013-08-19T13:57:09Z</time>
      </trkpt>
      <trkpt lat="46.19683" lon="4.41935">
        <ele>604</ele>
        <time>2013-08-19T13:57:13Z</time>
      </trkpt>
      <trkpt lat="46.19681" lon="4.41938">
        <ele>604</ele>
        <time>2013-08-19T13:57:16Z</time>
      </trkpt>
      <trkpt lat="46.19679" lon="4.41942">
        <ele>604</ele>
        <time>2013-08-19T13:57:20Z</time>
      </trkpt>
      <trkpt lat="46.19675" lon="4.41947">
        <ele>604</ele>
        <time>2013-08-19T13:57:25Z</time>
      </trkpt>
      <trkpt lat="46.19672" lon="4.4195">
        <ele>604</ele>
        <time>2013-08-19T13:57:28Z</time>
      </trkpt>
      <trkpt lat="46.1967" lon="4.41953">
        <ele>604</ele>
        <time>2013-08-19T13:57:31Z</time>
      </trkpt>
      <trkpt lat="46.19667" lon="4.41955">
        <ele>604</ele>
        <time>2013-08-19T13:57:35Z</time>
      </trkpt>
      <trkpt lat="46.19661" lon="4.41963">
        <ele>598</ele>
        <time>2013-08-19T13:57:43Z</time>
      </trkpt>
      <trkpt lat="46.1966" lon="4.41964">
        <ele>598</ele>
        <time>2013-08-19T13:57:44Z</time>
      </trkpt>
      <trkpt lat="46.19652" lon="4.41973">
        <ele>598</ele>
        <time>2013-08-19T13:57:53Z</time>
      </trkpt>
      <trkpt lat="46.19646" lon="4.41978">
        <ele>598</ele>
        <time>2013-08-19T13:57:59Z</time>
      </trkpt>
      <trkpt lat="46.19643" lon="4.4198">
        <ele>598</ele>
        <time>2013-08-19T13:58:01Z</time>
      </trkpt>
      <trkpt lat="46.19636" lon="4.41983">
        <ele>598</ele>
        <time>2013-08-19T13:58:07Z</time>
      </trkpt>
      <trkpt lat="46.19628" lon="4.41984">
        <ele>597</ele>
        <time>2013-08-19T13:58:13Z</time>
      </trkpt>
      <trkpt lat="46.19627" lon="4.41984">
        <ele>597</ele>
        <time>2013-08-19T13:58:14Z</time>
      </trkpt>
      <trkpt lat="46.1962" lon="4.41985">
        <ele>597</ele>
        <time>2013-08-19T13:58:20Z</time>
      </trkpt>
      <trkpt lat="46.19618" lon="4.41985">
        <ele>597</ele>
        <time>2013-08-19T13:58:22Z</time>
      </trkpt>
      <trkpt lat="46.19617" lon="4.41986">
        <ele>597</ele>
        <time>2013-08-19T13:58:24Z</time>
      </trkpt>
      <trkpt lat="46.19615" lon="4.41986">
        <ele>597</ele>
        <time>2013-08-19T13:58:26Z</time>
      </trkpt>
      <trkpt lat="46.19609" lon="4.41984">
        <ele>597</ele>
        <time>2013-08-19T13:58:31Z</time>
      </trkpt>
      <trkpt lat="46.19607" lon="4.41984">
        <ele>597</ele>
        <time>2013-08-19T13:58:32Z</time>
      </trkpt>
      <trkpt lat="46.19606" lon="4.41984">
        <ele>597</ele>
        <time>2013-08-19T13:58:33Z</time>
      </trkpt>
      <trkpt lat="46.19597" lon="4.41982">
        <ele>597</ele>
        <time>2013-08-19T13:58:40Z</time>
      </trkpt>
      <trkpt lat="46.19591" lon="4.41982">
        <ele>597</ele>
        <time>2013-08-19T13:58:45Z</time>
      </trkpt>
      <trkpt lat="46.1959" lon="4.41981">
        <ele>597</ele>
        <time>2013-08-19T13:58:46Z</time>
      </trkpt>
      <trkpt lat="46.19583" lon="4.41981">
        <ele>597</ele>
        <time>2013-08-19T13:58:52Z</time>
      </trkpt>
      <trkpt lat="46.1958" lon="4.41981">
        <ele>597</ele>
        <time>2013-08-19T13:58:55Z</time>
      </trkpt>
      <trkpt lat="46.19574" lon="4.4198">
        <ele>597</ele>
        <time>2013-08-19T13:58:59Z</time>
      </trkpt>
      <trkpt lat="46.19573" lon="4.4198">
        <ele>597</ele>
        <time>2013-08-19T13:59:00Z</time>
      </trkpt>
      <trkpt lat="46.19572" lon="4.4198">
        <ele>597</ele>
        <time>2013-08-19T13:59:01Z</time>
      </trkpt>
      <trkpt lat="46.19568" lon="4.41978">
        <ele>596</ele>
        <time>2013-08-19T13:59:04Z</time>
      </trkpt>
      <trkpt lat="46.19558" lon="4.41972">
        <ele>596</ele>
        <time>2013-08-19T13:59:11Z</time>
      </trkpt>
      <trkpt lat="46.19554" lon="4.41969">
        <ele>596</ele>
        <time>2013-08-19T13:59:14Z</time>
      </trkpt>
      <trkpt lat="46.19552" lon="4.41967">
        <ele>596</ele>
        <time>2013-08-19T13:59:16Z</time>
      </trkpt>
      <trkpt lat="46.1955" lon="4.41966">
        <ele>596</ele>
        <time>2013-08-19T13:59:18Z</time>
      </trkpt>
      <trkpt lat="46.19546" lon="4.41962">
        <ele>596</ele>
        <time>2013-08-19T13:59:21Z</time>
      </trkpt>
      <trkpt lat="46.19542" lon="4.41957">
        <ele>595</ele>
        <time>2013-08-19T13:59:25Z</time>
      </trkpt>
      <trkpt lat="46.1954" lon="4.41953">
        <ele>595</ele>
        <time>2013-08-19T13:59:28Z</time>
      </trkpt>
      <trkpt lat="46.19538" lon="4.41951">
        <ele>595</ele>
        <time>2013-08-19T13:59:30Z</time>
      </trkpt>
      <trkpt lat="46.19537" lon="4.4195">
        <ele>595</ele>
        <time>2013-08-19T13:59:31Z</time>
      </trkpt>
      <trkpt lat="46.19533" lon="4.41943">
        <ele>595</ele>
        <time>2013-08-19T13:59:37Z</time>
      </trkpt>
      <trkpt lat="46.1953" lon="4.41939">
        <ele>595</ele>
        <time>2013-08-19T13:59:40Z</time>
      </trkpt>
      <trkpt lat="46.19527" lon="4.41935">
        <ele>595</ele>
        <time>2013-08-19T13:59:43Z</time>
      </trkpt>
      <trkpt lat="46.19526" lon="4.41933">
        <ele>595</ele>
        <time>2013-08-19T13:59:44Z</time>
      </trkpt>
      <trkpt lat="46.19525" lon="4.41931">
        <ele>595</ele>
        <time>2013-08-19T13:59:45Z</time>
      </trkpt>
      <trkpt lat="46.1952" lon="4.41925">
        <ele>595</ele>
        <time>2013-08-19T13:59:49Z</time>
      </trkpt>
      <trkpt lat="46.19513" lon="4.4192">
        <ele>594</ele>
        <time>2013-08-19T13:59:54Z</time>
      </trkpt>
      <trkpt lat="46.19512" lon="4.41919">
        <ele>594</ele>
        <time>2013-08-19T13:59:56Z</time>
      </trkpt>
      <trkpt lat="46.19508" lon="4.41917">
        <ele>591</ele>
        <time>2013-08-19T13:59:59Z</time>
      </trkpt>
      <trkpt lat="46.19506" lon="4.41914">
        <ele>592</ele>
        <time>2013-08-19T14:00:03Z</time>
      </trkpt>
      <trkpt lat="46.19503" lon="4.41913">
        <ele>592</ele>
        <time>2013-08-19T14:00:06Z</time>
      </trkpt>
      <trkpt lat="46.19501" lon="4.41912">
        <ele>592</ele>
        <time>2013-08-19T14:00:08Z</time>
      </trkpt>
      <trkpt lat="46.19496" lon="4.4191">
        <ele>592</ele>
        <time>2013-08-19T14:00:14Z</time>
      </trkpt>
      <trkpt lat="46.19495" lon="4.41909">
        <ele>592</ele>
        <time>2013-08-19T14:00:15Z</time>
      </trkpt>
      <trkpt lat="46.1949" lon="4.41906">
        <ele>591</ele>
        <time>2013-08-19T14:00:20Z</time>
      </trkpt>
      <trkpt lat="46.19483" lon="4.41904">
        <ele>591</ele>
        <time>2013-08-19T14:00:27Z</time>
      </trkpt>
      <trkpt lat="46.19478" lon="4.419">
        <ele>590</ele>
        <time>2013-08-19T14:00:32Z</time>
      </trkpt>
      <trkpt lat="46.19474" lon="4.41899">
        <ele>590</ele>
        <time>2013-08-19T14:00:35Z</time>
      </trkpt>
      <trkpt lat="46.1947" lon="4.41897">
        <ele>590</ele>
        <time>2013-08-19T14:00:39Z</time>
      </trkpt>
      <trkpt lat="46.19466" lon="4.41896">
        <ele>590</ele>
        <time>2013-08-19T14:00:41Z</time>
      </trkpt>
      <trkpt lat="46.19459" lon="4.41895">
        <ele>590</ele>
        <time>2013-08-19T14:00:46Z</time>
      </trkpt>
      <trkpt lat="46.19457" lon="4.41893">
        <ele>590</ele>
        <time>2013-08-19T14:00:49Z</time>
      </trkpt>
      <trkpt lat="46.19456" lon="4.41894">
        <ele>590</ele>
        <time>2013-08-19T14:00:51Z</time>
      </trkpt>
      <trkpt lat="46.19453" lon="4.41894">
        <ele>590</ele>
        <time>2013-08-19T14:00:53Z</time>
      </trkpt>
      <trkpt lat="46.1945" lon="4.41895">
        <ele>590</ele>
        <time>2013-08-19T14:00:55Z</time>
      </trkpt>
      <trkpt lat="46.19448" lon="4.41894">
        <ele>590</ele>
        <time>2013-08-19T14:00:59Z</time>
      </trkpt>
      <trkpt lat="46.19447" lon="4.41895">
        <ele>590</ele>
        <time>2013-08-19T14:01:00Z</time>
      </trkpt>
      <trkpt lat="46.19443" lon="4.41896">
        <ele>590</ele>
        <time>2013-08-19T14:01:03Z</time>
      </trkpt>
      <trkpt lat="46.19442" lon="4.41896">
        <ele>590</ele>
        <time>2013-08-19T14:01:04Z</time>
      </trkpt>
      <trkpt lat="46.19432" lon="4.41897">
        <ele>591</ele>
        <time>2013-08-19T14:01:11Z</time>
      </trkpt>
      <trkpt lat="46.19423" lon="4.41898">
        <ele>591</ele>
        <time>2013-08-19T14:01:18Z</time>
      </trkpt>
      <trkpt lat="46.19419" lon="4.41898">
        <ele>591</ele>
        <time>2013-08-19T14:01:21Z</time>
      </trkpt>
      <trkpt lat="46.19412" lon="4.41899">
        <ele>590</ele>
        <time>2013-08-19T14:01:27Z</time>
      </trkpt>
      <trkpt lat="46.19406" lon="4.41898">
        <ele>589</ele>
        <time>2013-08-19T14:01:33Z</time>
      </trkpt>
      <trkpt lat="46.19404" lon="4.41898">
        <ele>589</ele>
        <time>2013-08-19T14:01:36Z</time>
      </trkpt>
      <trkpt lat="46.194" lon="4.41898">
        <ele>589</ele>
        <time>2013-08-19T14:01:39Z</time>
      </trkpt>
      <trkpt lat="46.19392" lon="4.41899">
        <ele>588</ele>
        <time>2013-08-19T14:01:45Z</time>
      </trkpt>
      <trkpt lat="46.19391" lon="4.41898">
        <ele>588</ele>
        <time>2013-08-19T14:01:46Z</time>
      </trkpt>
      <trkpt lat="46.19387" lon="4.41898">
        <ele>587</ele>
        <time>2013-08-19T14:01:51Z</time>
      </trkpt>
      <trkpt lat="46.19386" lon="4.41898">
        <ele>587</ele>
        <time>2013-08-19T14:01:52Z</time>
      </trkpt>
      <trkpt lat="46.19382" lon="4.41901">
        <ele>587</ele>
        <time>2013-08-19T14:01:57Z</time>
      </trkpt>
      <trkpt lat="46.19381" lon="4.41902">
        <ele>587</ele>
        <time>2013-08-19T14:01:58Z</time>
      </trkpt>
      <trkpt lat="46.19378" lon="4.41903">
        <ele>587</ele>
        <time>2013-08-19T14:02:01Z</time>
      </trkpt>
      <trkpt lat="46.19376" lon="4.41903">
        <ele>587</ele>
        <time>2013-08-19T14:02:03Z</time>
      </trkpt>
      <trkpt lat="46.19368" lon="4.41903">
        <ele>586</ele>
        <time>2013-08-19T14:02:09Z</time>
      </trkpt>
      <trkpt lat="46.19361" lon="4.41903">
        <ele>586</ele>
        <time>2013-08-19T14:02:14Z</time>
      </trkpt>
      <trkpt lat="46.1936" lon="4.41903">
        <ele>585</ele>
        <time>2013-08-19T14:02:15Z</time>
      </trkpt>
      <trkpt lat="46.19359" lon="4.41901">
        <ele>585</ele>
        <time>2013-08-19T14:02:17Z</time>
      </trkpt>
      <trkpt lat="46.19358" lon="4.41896">
        <ele>585</ele>
        <time>2013-08-19T14:02:21Z</time>
      </trkpt>
      <trkpt lat="46.19358" lon="4.41892">
        <ele>585</ele>
        <time>2013-08-19T14:02:25Z</time>
      </trkpt>
      <trkpt lat="46.19358" lon="4.41891">
        <ele>585</ele>
        <time>2013-08-19T14:02:27Z</time>
      </trkpt>
      <trkpt lat="46.19358" lon="4.4189">
        <ele>585</ele>
        <time>2013-08-19T14:02:48Z</time>
      </trkpt>
      <trkpt lat="46.19355" lon="4.41892">
        <ele>585</ele>
        <time>2013-08-19T14:03:26Z</time>
      </trkpt>
      <trkpt lat="46.19352" lon="4.41894">
        <ele>585</ele>
        <time>2013-08-19T14:03:34Z</time>
      </trkpt>
      <trkpt lat="46.19347" lon="4.41898">
        <ele>585</ele>
        <time>2013-08-19T14:03:40Z</time>
      </trkpt>
      <trkpt lat="46.19346" lon="4.41899">
        <ele>585</ele>
        <time>2013-08-19T14:03:41Z</time>
      </trkpt>
      <trkpt lat="46.19341" lon="4.41901">
        <ele>585</ele>
        <time>2013-08-19T14:03:45Z</time>
      </trkpt>
      <trkpt lat="46.19332" lon="4.41905">
        <ele>581</ele>
        <time>2013-08-19T14:03:52Z</time>
      </trkpt>
      <trkpt lat="46.19329" lon="4.41906">
        <ele>581</ele>
        <time>2013-08-19T14:03:55Z</time>
      </trkpt>
      <trkpt lat="46.19328" lon="4.41907">
        <ele>581</ele>
        <time>2013-08-19T14:03:56Z</time>
      </trkpt>
      <trkpt lat="46.19326" lon="4.41908">
        <ele>581</ele>
        <time>2013-08-19T14:03:58Z</time>
      </trkpt>
      <trkpt lat="46.19325" lon="4.4191">
        <ele>581</ele>
        <time>2013-08-19T14:04:00Z</time>
      </trkpt>
      <trkpt lat="46.19319" lon="4.41912">
        <ele>580</ele>
        <time>2013-08-19T14:04:05Z</time>
      </trkpt>
      <trkpt lat="46.19311" lon="4.41917">
        <ele>580</ele>
        <time>2013-08-19T14:04:12Z</time>
      </trkpt>
      <trkpt lat="46.1931" lon="4.41918">
        <ele>580</ele>
        <time>2013-08-19T14:04:13Z</time>
      </trkpt>
      <trkpt lat="46.19302" lon="4.41922">
        <ele>579</ele>
        <time>2013-08-19T14:04:20Z</time>
      </trkpt>
      <trkpt lat="46.193" lon="4.41922">
        <ele>578</ele>
        <time>2013-08-19T14:04:22Z</time>
      </trkpt>
      <trkpt lat="46.19294" lon="4.41925">
        <ele>578</ele>
        <time>2013-08-19T14:04:28Z</time>
      </trkpt>
      <trkpt lat="46.1929" lon="4.41925">
        <ele>577</ele>
        <time>2013-08-19T14:04:31Z</time>
      </trkpt>
      <trkpt lat="46.19288" lon="4.41923">
        <ele>577</ele>
        <time>2013-08-19T14:04:36Z</time>
      </trkpt>
      <trkpt lat="46.19286" lon="4.41928">
        <ele>577</ele>
        <time>2013-08-19T14:04:45Z</time>
      </trkpt>
      <trkpt lat="46.19285" lon="4.41929">
        <ele>577</ele>
        <time>2013-08-19T14:04:46Z</time>
      </trkpt>
      <trkpt lat="46.19284" lon="4.41928">
        <ele>577</ele>
        <time>2013-08-19T14:04:49Z</time>
      </trkpt>
      <trkpt lat="46.19283" lon="4.41928">
        <ele>577</ele>
        <time>2013-08-19T14:04:50Z</time>
      </trkpt>
      <trkpt lat="46.19284" lon="4.41932">
        <ele>577</ele>
        <time>2013-08-19T14:05:04Z</time>
      </trkpt>
      <trkpt lat="46.19282" lon="4.41936">
        <ele>577</ele>
        <time>2013-08-19T14:05:07Z</time>
      </trkpt>
      <trkpt lat="46.19281" lon="4.41937">
        <ele>576</ele>
        <time>2013-08-19T14:05:08Z</time>
      </trkpt>
      <trkpt lat="46.1928" lon="4.41939">
        <ele>576</ele>
        <time>2013-08-19T14:05:10Z</time>
      </trkpt>
      <trkpt lat="46.19279" lon="4.4194">
        <ele>576</ele>
        <time>2013-08-19T14:05:12Z</time>
      </trkpt>
      <trkpt lat="46.19278" lon="4.4194">
        <ele>576</ele>
        <time>2013-08-19T14:05:17Z</time>
      </trkpt>
      <trkpt lat="46.19278" lon="4.41941">
        <ele>576</ele>
        <time>2013-08-19T14:05:19Z</time>
      </trkpt>
      <trkpt lat="46.19276" lon="4.41943">
        <ele>576</ele>
        <time>2013-08-19T14:05:21Z</time>
      </trkpt>
      <trkpt lat="46.19273" lon="4.41948">
        <ele>576</ele>
        <time>2013-08-19T14:05:27Z</time>
      </trkpt>
      <trkpt lat="46.1927" lon="4.41957">
        <ele>576</ele>
        <time>2013-08-19T14:05:32Z</time>
      </trkpt>
      <trkpt lat="46.1927" lon="4.41958">
        <ele>576</ele>
        <time>2013-08-19T14:05:33Z</time>
      </trkpt>
      <trkpt lat="46.19266" lon="4.41966">
        <ele>576</ele>
        <time>2013-08-19T14:05:39Z</time>
      </trkpt>
      <trkpt lat="46.19265" lon="4.41969">
        <ele>576</ele>
        <time>2013-08-19T14:05:42Z</time>
      </trkpt>
      <trkpt lat="46.19263" lon="4.4197">
        <ele>575</ele>
        <time>2013-08-19T14:05:45Z</time>
      </trkpt>
      <trkpt lat="46.19259" lon="4.41965">
        <ele>575</ele>
        <time>2013-08-19T14:05:50Z</time>
      </trkpt>
      <trkpt lat="46.19258" lon="4.41963">
        <ele>575</ele>
        <time>2013-08-19T14:05:51Z</time>
      </trkpt>
      <trkpt lat="46.19258" lon="4.41961">
        <ele>575</ele>
        <time>2013-08-19T14:05:52Z</time>
      </trkpt>
      <trkpt lat="46.19257" lon="4.41951">
        <ele>575</ele>
        <time>2013-08-19T14:05:58Z</time>
      </trkpt>
      <trkpt lat="46.19257" lon="4.41949">
        <ele>575</ele>
        <time>2013-08-19T14:05:59Z</time>
      </trkpt>
      <trkpt lat="46.19255" lon="4.41942">
        <ele>574</ele>
        <time>2013-08-19T14:06:03Z</time>
      </trkpt>
    </trkseg>
  </trk>
</gpx>